<?xml version="1.0" encoding="UTF-8" standalone="no" ?>
<gpx xmlns="http://www.topografix.com/GPX/1/1" xmlns:xsi="http://www.w3.org/2001/XMLSchema-instance" xsi:schemaLocation="http://www.topografix.com/GPX/1/1 http://www.topografix.com/GPX/1/1/gpx.xsd" version="1.1" creator="VisuGPX - https://www.visugpx.com">
  <metadata>
    <name>83-D-Aups</name>
    <desc><![CDATA[83-D-Aups : Montagne des Espiguières, la Croix des Pins
2023-11-26]]></desc>
  </metadata>
  <trk>
    <name><![CDATA[2023-11-26-D-Aups]]></name>
    <extensions>
      <line xmlns="http://www.topografix.com/GPX/gpx_style/0/2">
        <width>4</width>
      </line>
    </extensions>
    <trkseg>
      <trkpt lat="43.62619" lon="6.22578">
        <ele>498.3</ele>
        <time>2023-11-26T08:37:08.000Z</time>
      </trkpt>
      <trkpt lat="43.62619" lon="6.22578">
        <ele>498.3</ele>
        <time>2023-11-26T08:37:09.000Z</time>
      </trkpt>
      <trkpt lat="43.62619" lon="6.22579">
        <ele>499.3</ele>
        <time>2023-11-26T08:38:55.000Z</time>
      </trkpt>
      <trkpt lat="43.62619" lon="6.22578">
        <ele>499.3</ele>
        <time>2023-11-26T08:38:56.000Z</time>
      </trkpt>
      <trkpt lat="43.62614" lon="6.22574">
        <ele>499.3</ele>
        <time>2023-11-26T08:39:47.000Z</time>
      </trkpt>
      <trkpt lat="43.62614" lon="6.22568">
        <ele>499.2</ele>
        <time>2023-11-26T08:40:31.000Z</time>
      </trkpt>
      <trkpt lat="43.62614" lon="6.22568">
        <ele>499.2</ele>
        <time>2023-11-26T08:40:32.000Z</time>
      </trkpt>
      <trkpt lat="43.62617" lon="6.22557">
        <ele>499.1</ele>
        <time>2023-11-26T08:40:42.000Z</time>
      </trkpt>
      <trkpt lat="43.62619" lon="6.22551">
        <ele>499.1</ele>
        <time>2023-11-26T08:40:47.000Z</time>
      </trkpt>
      <trkpt lat="43.6262" lon="6.22546">
        <ele>499.1</ele>
        <time>2023-11-26T08:40:53.000Z</time>
      </trkpt>
      <trkpt lat="43.62623" lon="6.22543">
        <ele>499.1</ele>
        <time>2023-11-26T08:40:58.000Z</time>
      </trkpt>
      <trkpt lat="43.62625" lon="6.22538">
        <ele>499.9</ele>
        <time>2023-11-26T08:42:01.000Z</time>
      </trkpt>
      <trkpt lat="43.62626" lon="6.22538">
        <ele>499.9</ele>
        <time>2023-11-26T08:42:02.000Z</time>
      </trkpt>
      <trkpt lat="43.62632" lon="6.22531">
        <ele>500</ele>
        <time>2023-11-26T08:42:12.000Z</time>
      </trkpt>
      <trkpt lat="43.62635" lon="6.22527">
        <ele>500.3</ele>
        <time>2023-11-26T08:42:18.000Z</time>
      </trkpt>
      <trkpt lat="43.62637" lon="6.22523">
        <ele>500.6</ele>
        <time>2023-11-26T08:42:22.000Z</time>
      </trkpt>
      <trkpt lat="43.6264" lon="6.22518">
        <ele>500.7</ele>
        <time>2023-11-26T08:42:26.000Z</time>
      </trkpt>
      <trkpt lat="43.62644" lon="6.22515">
        <ele>500.9</ele>
        <time>2023-11-26T08:42:30.000Z</time>
      </trkpt>
      <trkpt lat="43.62647" lon="6.22512">
        <ele>501</ele>
        <time>2023-11-26T08:42:34.000Z</time>
      </trkpt>
      <trkpt lat="43.62651" lon="6.22509">
        <ele>501.1</ele>
        <time>2023-11-26T08:42:38.000Z</time>
      </trkpt>
      <trkpt lat="43.62655" lon="6.22506">
        <ele>501.1</ele>
        <time>2023-11-26T08:42:42.000Z</time>
      </trkpt>
      <trkpt lat="43.62657" lon="6.22503">
        <ele>501.2</ele>
        <time>2023-11-26T08:42:45.000Z</time>
      </trkpt>
      <trkpt lat="43.62661" lon="6.22501">
        <ele>501.3</ele>
        <time>2023-11-26T08:42:49.000Z</time>
      </trkpt>
      <trkpt lat="43.62664" lon="6.22499">
        <ele>501.4</ele>
        <time>2023-11-26T08:42:53.000Z</time>
      </trkpt>
      <trkpt lat="43.62668" lon="6.22497">
        <ele>501.5</ele>
        <time>2023-11-26T08:42:58.000Z</time>
      </trkpt>
      <trkpt lat="43.62671" lon="6.22494">
        <ele>501.5</ele>
        <time>2023-11-26T08:43:02.000Z</time>
      </trkpt>
      <trkpt lat="43.62672" lon="6.22494">
        <ele>501.5</ele>
        <time>2023-11-26T08:43:03.000Z</time>
      </trkpt>
      <trkpt lat="43.62679" lon="6.22491">
        <ele>501.5</ele>
        <time>2023-11-26T08:43:13.000Z</time>
      </trkpt>
      <trkpt lat="43.62682" lon="6.2249">
        <ele>501.6</ele>
        <time>2023-11-26T08:43:17.000Z</time>
      </trkpt>
      <trkpt lat="43.62686" lon="6.22489">
        <ele>501.6</ele>
        <time>2023-11-26T08:43:20.000Z</time>
      </trkpt>
      <trkpt lat="43.6269" lon="6.22486">
        <ele>501.7</ele>
        <time>2023-11-26T08:43:24.000Z</time>
      </trkpt>
      <trkpt lat="43.62694" lon="6.22484">
        <ele>501.9</ele>
        <time>2023-11-26T08:43:28.000Z</time>
      </trkpt>
      <trkpt lat="43.62696" lon="6.2248">
        <ele>502.2</ele>
        <time>2023-11-26T08:43:32.000Z</time>
      </trkpt>
      <trkpt lat="43.62698" lon="6.22476">
        <ele>502.3</ele>
        <time>2023-11-26T08:43:35.000Z</time>
      </trkpt>
      <trkpt lat="43.62701" lon="6.22471">
        <ele>502.5</ele>
        <time>2023-11-26T08:43:38.000Z</time>
      </trkpt>
      <trkpt lat="43.62704" lon="6.22467">
        <ele>502.6</ele>
        <time>2023-11-26T08:43:41.000Z</time>
      </trkpt>
      <trkpt lat="43.62705" lon="6.22462">
        <ele>502.8</ele>
        <time>2023-11-26T08:43:44.000Z</time>
      </trkpt>
      <trkpt lat="43.62708" lon="6.22456">
        <ele>503</ele>
        <time>2023-11-26T08:43:47.000Z</time>
      </trkpt>
      <trkpt lat="43.62709" lon="6.22452">
        <ele>503.2</ele>
        <time>2023-11-26T08:43:50.000Z</time>
      </trkpt>
      <trkpt lat="43.62711" lon="6.22448">
        <ele>503.3</ele>
        <time>2023-11-26T08:43:53.000Z</time>
      </trkpt>
      <trkpt lat="43.62713" lon="6.22442">
        <ele>503.5</ele>
        <time>2023-11-26T08:43:57.000Z</time>
      </trkpt>
      <trkpt lat="43.62714" lon="6.22436">
        <ele>503.6</ele>
        <time>2023-11-26T08:44:00.000Z</time>
      </trkpt>
      <trkpt lat="43.62716" lon="6.22433">
        <ele>503.7</ele>
        <time>2023-11-26T08:44:03.000Z</time>
      </trkpt>
      <trkpt lat="43.62717" lon="6.22431">
        <ele>503.7</ele>
        <time>2023-11-26T08:44:04.000Z</time>
      </trkpt>
      <trkpt lat="43.6272" lon="6.22422">
        <ele>503.8</ele>
        <time>2023-11-26T08:44:10.000Z</time>
      </trkpt>
      <trkpt lat="43.62722" lon="6.22418">
        <ele>503.8</ele>
        <time>2023-11-26T08:44:14.000Z</time>
      </trkpt>
      <trkpt lat="43.62726" lon="6.22415">
        <ele>504</ele>
        <time>2023-11-26T08:44:22.000Z</time>
      </trkpt>
      <trkpt lat="43.6273" lon="6.22413">
        <ele>504</ele>
        <time>2023-11-26T08:44:29.000Z</time>
      </trkpt>
      <trkpt lat="43.62733" lon="6.22408">
        <ele>504.1</ele>
        <time>2023-11-26T08:44:38.000Z</time>
      </trkpt>
      <trkpt lat="43.62737" lon="6.22407">
        <ele>504.2</ele>
        <time>2023-11-26T08:44:44.000Z</time>
      </trkpt>
      <trkpt lat="43.62741" lon="6.22408">
        <ele>504.3</ele>
        <time>2023-11-26T08:44:48.000Z</time>
      </trkpt>
      <trkpt lat="43.62745" lon="6.22411">
        <ele>504.5</ele>
        <time>2023-11-26T08:44:52.000Z</time>
      </trkpt>
      <trkpt lat="43.62748" lon="6.22413">
        <ele>504.6</ele>
        <time>2023-11-26T08:44:55.000Z</time>
      </trkpt>
      <trkpt lat="43.62751" lon="6.22416">
        <ele>504.6</ele>
        <time>2023-11-26T08:44:58.000Z</time>
      </trkpt>
      <trkpt lat="43.62754" lon="6.22417">
        <ele>504.7</ele>
        <time>2023-11-26T08:45:01.000Z</time>
      </trkpt>
      <trkpt lat="43.62758" lon="6.22419">
        <ele>504.7</ele>
        <time>2023-11-26T08:45:04.000Z</time>
      </trkpt>
      <trkpt lat="43.6276" lon="6.22419">
        <ele>504.7</ele>
        <time>2023-11-26T08:45:05.000Z</time>
      </trkpt>
      <trkpt lat="43.62766" lon="6.22421">
        <ele>504.8</ele>
        <time>2023-11-26T08:45:11.000Z</time>
      </trkpt>
      <trkpt lat="43.6277" lon="6.22422">
        <ele>504.9</ele>
        <time>2023-11-26T08:45:15.000Z</time>
      </trkpt>
      <trkpt lat="43.62773" lon="6.22424">
        <ele>504.9</ele>
        <time>2023-11-26T08:45:18.000Z</time>
      </trkpt>
      <trkpt lat="43.62777" lon="6.22426">
        <ele>504.9</ele>
        <time>2023-11-26T08:45:21.000Z</time>
      </trkpt>
      <trkpt lat="43.62781" lon="6.22427">
        <ele>504.9</ele>
        <time>2023-11-26T08:45:24.000Z</time>
      </trkpt>
      <trkpt lat="43.62784" lon="6.22431">
        <ele>505</ele>
        <time>2023-11-26T08:45:29.000Z</time>
      </trkpt>
      <trkpt lat="43.62787" lon="6.22435">
        <ele>505.1</ele>
        <time>2023-11-26T08:45:34.000Z</time>
      </trkpt>
      <trkpt lat="43.62791" lon="6.22438">
        <ele>505.2</ele>
        <time>2023-11-26T08:45:38.000Z</time>
      </trkpt>
      <trkpt lat="43.62795" lon="6.22439">
        <ele>505.2</ele>
        <time>2023-11-26T08:45:41.000Z</time>
      </trkpt>
      <trkpt lat="43.62799" lon="6.22439">
        <ele>505.3</ele>
        <time>2023-11-26T08:45:45.000Z</time>
      </trkpt>
      <trkpt lat="43.62802" lon="6.22441">
        <ele>505.4</ele>
        <time>2023-11-26T08:45:48.000Z</time>
      </trkpt>
      <trkpt lat="43.62806" lon="6.22443">
        <ele>505.5</ele>
        <time>2023-11-26T08:45:52.000Z</time>
      </trkpt>
      <trkpt lat="43.6281" lon="6.22444">
        <ele>505.7</ele>
        <time>2023-11-26T08:45:56.000Z</time>
      </trkpt>
      <trkpt lat="43.62813" lon="6.22447">
        <ele>505.9</ele>
        <time>2023-11-26T08:45:59.000Z</time>
      </trkpt>
      <trkpt lat="43.62815" lon="6.22451">
        <ele>506</ele>
        <time>2023-11-26T08:46:02.000Z</time>
      </trkpt>
      <trkpt lat="43.62818" lon="6.22454">
        <ele>506.2</ele>
        <time>2023-11-26T08:46:06.000Z</time>
      </trkpt>
      <trkpt lat="43.62819" lon="6.22455">
        <ele>506.2</ele>
        <time>2023-11-26T08:46:07.000Z</time>
      </trkpt>
      <trkpt lat="43.62823" lon="6.22464">
        <ele>506.4</ele>
        <time>2023-11-26T08:46:14.000Z</time>
      </trkpt>
      <trkpt lat="43.62825" lon="6.22468">
        <ele>506.5</ele>
        <time>2023-11-26T08:46:17.000Z</time>
      </trkpt>
      <trkpt lat="43.62827" lon="6.22473">
        <ele>506.6</ele>
        <time>2023-11-26T08:46:21.000Z</time>
      </trkpt>
      <trkpt lat="43.62829" lon="6.22477">
        <ele>506.7</ele>
        <time>2023-11-26T08:46:24.000Z</time>
      </trkpt>
      <trkpt lat="43.62832" lon="6.22481">
        <ele>507</ele>
        <time>2023-11-26T08:46:28.000Z</time>
      </trkpt>
      <trkpt lat="43.62835" lon="6.22482">
        <ele>507</ele>
        <time>2023-11-26T08:46:30.000Z</time>
      </trkpt>
      <trkpt lat="43.62837" lon="6.22485">
        <ele>507.3</ele>
        <time>2023-11-26T08:46:33.000Z</time>
      </trkpt>
      <trkpt lat="43.6284" lon="6.22491">
        <ele>507.7</ele>
        <time>2023-11-26T08:46:37.000Z</time>
      </trkpt>
      <trkpt lat="43.62842" lon="6.22495">
        <ele>507.9</ele>
        <time>2023-11-26T08:46:41.000Z</time>
      </trkpt>
      <trkpt lat="43.62845" lon="6.22497">
        <ele>508.1</ele>
        <time>2023-11-26T08:46:44.000Z</time>
      </trkpt>
      <trkpt lat="43.62848" lon="6.225">
        <ele>508.3</ele>
        <time>2023-11-26T08:46:47.000Z</time>
      </trkpt>
      <trkpt lat="43.62851" lon="6.22504">
        <ele>508.7</ele>
        <time>2023-11-26T08:46:51.000Z</time>
      </trkpt>
      <trkpt lat="43.62854" lon="6.22508">
        <ele>509.2</ele>
        <time>2023-11-26T08:46:55.000Z</time>
      </trkpt>
      <trkpt lat="43.62853" lon="6.22514">
        <ele>510.1</ele>
        <time>2023-11-26T08:47:04.000Z</time>
      </trkpt>
      <trkpt lat="43.62854" lon="6.22517">
        <ele>510</ele>
        <time>2023-11-26T08:47:08.000Z</time>
      </trkpt>
      <trkpt lat="43.62865" lon="6.22501">
        <ele>510</ele>
        <time>2023-11-26T08:47:16.000Z</time>
      </trkpt>
      <trkpt lat="43.62872" lon="6.22493">
        <ele>511.4</ele>
        <time>2023-11-26T08:47:21.000Z</time>
      </trkpt>
      <trkpt lat="43.62876" lon="6.22492">
        <ele>511.5</ele>
        <time>2023-11-26T08:47:22.000Z</time>
      </trkpt>
      <trkpt lat="43.62879" lon="6.22488">
        <ele>511.8</ele>
        <time>2023-11-26T08:47:24.000Z</time>
      </trkpt>
      <trkpt lat="43.6288" lon="6.22486">
        <ele>511.8</ele>
        <time>2023-11-26T08:47:25.000Z</time>
      </trkpt>
      <trkpt lat="43.62882" lon="6.22481">
        <ele>512</ele>
        <time>2023-11-26T08:47:27.000Z</time>
      </trkpt>
      <trkpt lat="43.62884" lon="6.22477">
        <ele>512.2</ele>
        <time>2023-11-26T08:47:29.000Z</time>
      </trkpt>
      <trkpt lat="43.62888" lon="6.22474">
        <ele>512.3</ele>
        <time>2023-11-26T08:47:31.000Z</time>
      </trkpt>
      <trkpt lat="43.6289" lon="6.22471">
        <ele>512.4</ele>
        <time>2023-11-26T08:47:33.000Z</time>
      </trkpt>
      <trkpt lat="43.62894" lon="6.22468">
        <ele>512.6</ele>
        <time>2023-11-26T08:47:36.000Z</time>
      </trkpt>
      <trkpt lat="43.62895" lon="6.22464">
        <ele>512.7</ele>
        <time>2023-11-26T08:47:39.000Z</time>
      </trkpt>
      <trkpt lat="43.62896" lon="6.22458">
        <ele>512.8</ele>
        <time>2023-11-26T08:47:43.000Z</time>
      </trkpt>
      <trkpt lat="43.62898" lon="6.22453">
        <ele>513.1</ele>
        <time>2023-11-26T08:47:50.000Z</time>
      </trkpt>
      <trkpt lat="43.629" lon="6.2245">
        <ele>513.2</ele>
        <time>2023-11-26T08:47:53.000Z</time>
      </trkpt>
      <trkpt lat="43.62902" lon="6.22446">
        <ele>513.3</ele>
        <time>2023-11-26T08:47:55.000Z</time>
      </trkpt>
      <trkpt lat="43.62906" lon="6.22443">
        <ele>513.4</ele>
        <time>2023-11-26T08:48:00.000Z</time>
      </trkpt>
      <trkpt lat="43.62908" lon="6.22439">
        <ele>513.4</ele>
        <time>2023-11-26T08:48:04.000Z</time>
      </trkpt>
      <trkpt lat="43.62912" lon="6.22436">
        <ele>513.5</ele>
        <time>2023-11-26T08:48:07.000Z</time>
      </trkpt>
      <trkpt lat="43.62915" lon="6.22432">
        <ele>513.5</ele>
        <time>2023-11-26T08:48:10.000Z</time>
      </trkpt>
      <trkpt lat="43.62918" lon="6.22429">
        <ele>513.5</ele>
        <time>2023-11-26T08:48:12.000Z</time>
      </trkpt>
      <trkpt lat="43.62921" lon="6.22425">
        <ele>513.6</ele>
        <time>2023-11-26T08:48:15.000Z</time>
      </trkpt>
      <trkpt lat="43.62924" lon="6.22421">
        <ele>513.6</ele>
        <time>2023-11-26T08:48:19.000Z</time>
      </trkpt>
      <trkpt lat="43.62926" lon="6.22416">
        <ele>513.4</ele>
        <time>2023-11-26T08:48:24.000Z</time>
      </trkpt>
      <trkpt lat="43.62935" lon="6.22417">
        <ele>513</ele>
        <time>2023-11-26T08:48:38.000Z</time>
      </trkpt>
      <trkpt lat="43.62943" lon="6.22412">
        <ele>513.2</ele>
        <time>2023-11-26T08:48:43.000Z</time>
      </trkpt>
      <trkpt lat="43.62946" lon="6.22416">
        <ele>513.1</ele>
        <time>2023-11-26T08:48:50.000Z</time>
      </trkpt>
      <trkpt lat="43.62949" lon="6.22419">
        <ele>513.3</ele>
        <time>2023-11-26T08:48:54.000Z</time>
      </trkpt>
      <trkpt lat="43.62952" lon="6.22423">
        <ele>513.9</ele>
        <time>2023-11-26T08:49:03.000Z</time>
      </trkpt>
      <trkpt lat="43.62951" lon="6.22417">
        <ele>515.2</ele>
        <time>2023-11-26T08:49:56.000Z</time>
      </trkpt>
      <trkpt lat="43.62951" lon="6.22417">
        <ele>515.2</ele>
        <time>2023-11-26T08:49:57.000Z</time>
      </trkpt>
      <trkpt lat="43.62948" lon="6.22406">
        <ele>515.2</ele>
        <time>2023-11-26T08:50:09.000Z</time>
      </trkpt>
      <trkpt lat="43.62951" lon="6.2241">
        <ele>515.2</ele>
        <time>2023-11-26T08:50:20.000Z</time>
      </trkpt>
      <trkpt lat="43.62954" lon="6.22411">
        <ele>515.6</ele>
        <time>2023-11-26T08:50:25.000Z</time>
      </trkpt>
      <trkpt lat="43.62957" lon="6.22414">
        <ele>515.9</ele>
        <time>2023-11-26T08:50:28.000Z</time>
      </trkpt>
      <trkpt lat="43.62959" lon="6.22419">
        <ele>516.2</ele>
        <time>2023-11-26T08:50:31.000Z</time>
      </trkpt>
      <trkpt lat="43.62961" lon="6.22424">
        <ele>516.6</ele>
        <time>2023-11-26T08:50:34.000Z</time>
      </trkpt>
      <trkpt lat="43.62965" lon="6.22428">
        <ele>517.3</ele>
        <time>2023-11-26T08:50:40.000Z</time>
      </trkpt>
      <trkpt lat="43.62967" lon="6.22433">
        <ele>517.8</ele>
        <time>2023-11-26T08:50:44.000Z</time>
      </trkpt>
      <trkpt lat="43.62965" lon="6.22438">
        <ele>518.5</ele>
        <time>2023-11-26T08:50:48.000Z</time>
      </trkpt>
      <trkpt lat="43.62966" lon="6.22443">
        <ele>519.1</ele>
        <time>2023-11-26T08:50:52.000Z</time>
      </trkpt>
      <trkpt lat="43.62966" lon="6.22449">
        <ele>519.9</ele>
        <time>2023-11-26T08:50:57.000Z</time>
      </trkpt>
      <trkpt lat="43.62966" lon="6.2245">
        <ele>520</ele>
        <time>2023-11-26T08:50:58.000Z</time>
      </trkpt>
      <trkpt lat="43.62963" lon="6.22459">
        <ele>521.5</ele>
        <time>2023-11-26T08:51:06.000Z</time>
      </trkpt>
      <trkpt lat="43.62959" lon="6.22461">
        <ele>522.1</ele>
        <time>2023-11-26T08:51:11.000Z</time>
      </trkpt>
      <trkpt lat="43.62956" lon="6.22465">
        <ele>522.7</ele>
        <time>2023-11-26T08:51:16.000Z</time>
      </trkpt>
      <trkpt lat="43.62955" lon="6.22471">
        <ele>523.3</ele>
        <time>2023-11-26T08:51:21.000Z</time>
      </trkpt>
      <trkpt lat="43.62954" lon="6.22477">
        <ele>524</ele>
        <time>2023-11-26T08:51:28.000Z</time>
      </trkpt>
      <trkpt lat="43.62956" lon="6.2248">
        <ele>524.4</ele>
        <time>2023-11-26T08:51:34.000Z</time>
      </trkpt>
      <trkpt lat="43.6296" lon="6.22484">
        <ele>524.6</ele>
        <time>2023-11-26T08:51:37.000Z</time>
      </trkpt>
      <trkpt lat="43.62962" lon="6.22488">
        <ele>524.7</ele>
        <time>2023-11-26T08:51:40.000Z</time>
      </trkpt>
      <trkpt lat="43.62965" lon="6.22492">
        <ele>524.8</ele>
        <time>2023-11-26T08:51:44.000Z</time>
      </trkpt>
      <trkpt lat="43.62969" lon="6.22494">
        <ele>524.9</ele>
        <time>2023-11-26T08:51:48.000Z</time>
      </trkpt>
      <trkpt lat="43.62973" lon="6.22492">
        <ele>525</ele>
        <time>2023-11-26T08:51:54.000Z</time>
      </trkpt>
      <trkpt lat="43.62977" lon="6.2249">
        <ele>525.1</ele>
        <time>2023-11-26T08:51:59.000Z</time>
      </trkpt>
      <trkpt lat="43.62978" lon="6.22489">
        <ele>525.1</ele>
        <time>2023-11-26T08:52:00.000Z</time>
      </trkpt>
      <trkpt lat="43.62985" lon="6.22486">
        <ele>525.4</ele>
        <time>2023-11-26T08:52:08.000Z</time>
      </trkpt>
      <trkpt lat="43.62988" lon="6.22485">
        <ele>525.5</ele>
        <time>2023-11-26T08:52:11.000Z</time>
      </trkpt>
      <trkpt lat="43.62992" lon="6.22484">
        <ele>525.6</ele>
        <time>2023-11-26T08:52:14.000Z</time>
      </trkpt>
      <trkpt lat="43.62996" lon="6.22484">
        <ele>525.7</ele>
        <time>2023-11-26T08:52:17.000Z</time>
      </trkpt>
      <trkpt lat="43.63" lon="6.22486">
        <ele>525.7</ele>
        <time>2023-11-26T08:52:20.000Z</time>
      </trkpt>
      <trkpt lat="43.63002" lon="6.22489">
        <ele>525.8</ele>
        <time>2023-11-26T08:52:23.000Z</time>
      </trkpt>
      <trkpt lat="43.63006" lon="6.22492">
        <ele>525.8</ele>
        <time>2023-11-26T08:52:27.000Z</time>
      </trkpt>
      <trkpt lat="43.63009" lon="6.22496">
        <ele>525.9</ele>
        <time>2023-11-26T08:52:31.000Z</time>
      </trkpt>
      <trkpt lat="43.63012" lon="6.22499">
        <ele>525.8</ele>
        <time>2023-11-26T08:52:34.000Z</time>
      </trkpt>
      <trkpt lat="43.63015" lon="6.22503">
        <ele>525.7</ele>
        <time>2023-11-26T08:52:38.000Z</time>
      </trkpt>
      <trkpt lat="43.63018" lon="6.22506">
        <ele>525.6</ele>
        <time>2023-11-26T08:52:41.000Z</time>
      </trkpt>
      <trkpt lat="43.63022" lon="6.22508">
        <ele>525.6</ele>
        <time>2023-11-26T08:52:44.000Z</time>
      </trkpt>
      <trkpt lat="43.63026" lon="6.22508">
        <ele>525.5</ele>
        <time>2023-11-26T08:52:49.000Z</time>
      </trkpt>
      <trkpt lat="43.6303" lon="6.22507">
        <ele>525.4</ele>
        <time>2023-11-26T08:52:53.000Z</time>
      </trkpt>
      <trkpt lat="43.63034" lon="6.22507">
        <ele>525.4</ele>
        <time>2023-11-26T08:52:58.000Z</time>
      </trkpt>
      <trkpt lat="43.63037" lon="6.22507">
        <ele>525.3</ele>
        <time>2023-11-26T08:53:01.000Z</time>
      </trkpt>
      <trkpt lat="43.63039" lon="6.22508">
        <ele>525.3</ele>
        <time>2023-11-26T08:53:02.000Z</time>
      </trkpt>
      <trkpt lat="43.63044" lon="6.22511">
        <ele>525.3</ele>
        <time>2023-11-26T08:53:07.000Z</time>
      </trkpt>
      <trkpt lat="43.63048" lon="6.22512">
        <ele>525.3</ele>
        <time>2023-11-26T08:53:10.000Z</time>
      </trkpt>
      <trkpt lat="43.63052" lon="6.22512">
        <ele>525.3</ele>
        <time>2023-11-26T08:53:13.000Z</time>
      </trkpt>
      <trkpt lat="43.63056" lon="6.22512">
        <ele>525.2</ele>
        <time>2023-11-26T08:53:16.000Z</time>
      </trkpt>
      <trkpt lat="43.63059" lon="6.22513">
        <ele>525.2</ele>
        <time>2023-11-26T08:53:19.000Z</time>
      </trkpt>
      <trkpt lat="43.63063" lon="6.22513">
        <ele>525.2</ele>
        <time>2023-11-26T08:53:22.000Z</time>
      </trkpt>
      <trkpt lat="43.63067" lon="6.22513">
        <ele>525.2</ele>
        <time>2023-11-26T08:53:25.000Z</time>
      </trkpt>
      <trkpt lat="43.6307" lon="6.22514">
        <ele>525.2</ele>
        <time>2023-11-26T08:53:28.000Z</time>
      </trkpt>
      <trkpt lat="43.63074" lon="6.22514">
        <ele>525.2</ele>
        <time>2023-11-26T08:53:32.000Z</time>
      </trkpt>
      <trkpt lat="43.63078" lon="6.22515">
        <ele>525.2</ele>
        <time>2023-11-26T08:53:36.000Z</time>
      </trkpt>
      <trkpt lat="43.63082" lon="6.22515">
        <ele>525.2</ele>
        <time>2023-11-26T08:53:40.000Z</time>
      </trkpt>
      <trkpt lat="43.63086" lon="6.22516">
        <ele>525.2</ele>
        <time>2023-11-26T08:53:44.000Z</time>
      </trkpt>
      <trkpt lat="43.63091" lon="6.22518">
        <ele>525.4</ele>
        <time>2023-11-26T08:53:48.000Z</time>
      </trkpt>
      <trkpt lat="43.63094" lon="6.22517">
        <ele>525.5</ele>
        <time>2023-11-26T08:53:51.000Z</time>
      </trkpt>
      <trkpt lat="43.63098" lon="6.22517">
        <ele>525.5</ele>
        <time>2023-11-26T08:53:54.000Z</time>
      </trkpt>
      <trkpt lat="43.63102" lon="6.22517">
        <ele>525.6</ele>
        <time>2023-11-26T08:53:58.000Z</time>
      </trkpt>
      <trkpt lat="43.63106" lon="6.22519">
        <ele>525.8</ele>
        <time>2023-11-26T08:54:04.000Z</time>
      </trkpt>
      <trkpt lat="43.63107" lon="6.22519">
        <ele>525.8</ele>
        <time>2023-11-26T08:54:05.000Z</time>
      </trkpt>
      <trkpt lat="43.63114" lon="6.22515">
        <ele>526.2</ele>
        <time>2023-11-26T08:54:11.000Z</time>
      </trkpt>
      <trkpt lat="43.63118" lon="6.22513">
        <ele>526.4</ele>
        <time>2023-11-26T08:54:16.000Z</time>
      </trkpt>
      <trkpt lat="43.63121" lon="6.22511">
        <ele>526.7</ele>
        <time>2023-11-26T08:54:19.000Z</time>
      </trkpt>
      <trkpt lat="43.63124" lon="6.22509">
        <ele>526.9</ele>
        <time>2023-11-26T08:54:21.000Z</time>
      </trkpt>
      <trkpt lat="43.63127" lon="6.22505">
        <ele>527.1</ele>
        <time>2023-11-26T08:54:24.000Z</time>
      </trkpt>
      <trkpt lat="43.6313" lon="6.22501">
        <ele>527.3</ele>
        <time>2023-11-26T08:54:27.000Z</time>
      </trkpt>
      <trkpt lat="43.63133" lon="6.22499">
        <ele>527.5</ele>
        <time>2023-11-26T08:54:30.000Z</time>
      </trkpt>
      <trkpt lat="43.63136" lon="6.22497">
        <ele>527.9</ele>
        <time>2023-11-26T08:54:34.000Z</time>
      </trkpt>
      <trkpt lat="43.6314" lon="6.22495">
        <ele>528.1</ele>
        <time>2023-11-26T08:54:38.000Z</time>
      </trkpt>
      <trkpt lat="43.63144" lon="6.22493">
        <ele>528.5</ele>
        <time>2023-11-26T08:54:42.000Z</time>
      </trkpt>
      <trkpt lat="43.63148" lon="6.22491">
        <ele>528.8</ele>
        <time>2023-11-26T08:54:46.000Z</time>
      </trkpt>
      <trkpt lat="43.63152" lon="6.22491">
        <ele>529.5</ele>
        <time>2023-11-26T08:54:53.000Z</time>
      </trkpt>
      <trkpt lat="43.63156" lon="6.22489">
        <ele>529.8</ele>
        <time>2023-11-26T08:54:56.000Z</time>
      </trkpt>
      <trkpt lat="43.63159" lon="6.22488">
        <ele>530.1</ele>
        <time>2023-11-26T08:54:59.000Z</time>
      </trkpt>
      <trkpt lat="43.63163" lon="6.22486">
        <ele>530.7</ele>
        <time>2023-11-26T08:55:05.000Z</time>
      </trkpt>
      <trkpt lat="43.63164" lon="6.22486">
        <ele>530.8</ele>
        <time>2023-11-26T08:55:06.000Z</time>
      </trkpt>
      <trkpt lat="43.63171" lon="6.22483">
        <ele>531.2</ele>
        <time>2023-11-26T08:55:11.000Z</time>
      </trkpt>
      <trkpt lat="43.63174" lon="6.22481">
        <ele>531.4</ele>
        <time>2023-11-26T08:55:13.000Z</time>
      </trkpt>
      <trkpt lat="43.63177" lon="6.22479">
        <ele>531.6</ele>
        <time>2023-11-26T08:55:15.000Z</time>
      </trkpt>
      <trkpt lat="43.6318" lon="6.22477">
        <ele>531.9</ele>
        <time>2023-11-26T08:55:18.000Z</time>
      </trkpt>
      <trkpt lat="43.63183" lon="6.22475">
        <ele>532.1</ele>
        <time>2023-11-26T08:55:21.000Z</time>
      </trkpt>
      <trkpt lat="43.63187" lon="6.22472">
        <ele>532.5</ele>
        <time>2023-11-26T08:55:26.000Z</time>
      </trkpt>
      <trkpt lat="43.63191" lon="6.2247">
        <ele>532.7</ele>
        <time>2023-11-26T08:55:30.000Z</time>
      </trkpt>
      <trkpt lat="43.63195" lon="6.22468">
        <ele>533</ele>
        <time>2023-11-26T08:55:34.000Z</time>
      </trkpt>
      <trkpt lat="43.63198" lon="6.22466">
        <ele>533.2</ele>
        <time>2023-11-26T08:55:37.000Z</time>
      </trkpt>
      <trkpt lat="43.63202" lon="6.22463">
        <ele>533.4</ele>
        <time>2023-11-26T08:55:41.000Z</time>
      </trkpt>
      <trkpt lat="43.63206" lon="6.22462">
        <ele>533.7</ele>
        <time>2023-11-26T08:55:45.000Z</time>
      </trkpt>
      <trkpt lat="43.63209" lon="6.2246">
        <ele>534</ele>
        <time>2023-11-26T08:55:48.000Z</time>
      </trkpt>
      <trkpt lat="43.63213" lon="6.22458">
        <ele>534.2</ele>
        <time>2023-11-26T08:55:51.000Z</time>
      </trkpt>
      <trkpt lat="43.63216" lon="6.22456">
        <ele>534.6</ele>
        <time>2023-11-26T08:55:55.000Z</time>
      </trkpt>
      <trkpt lat="43.6322" lon="6.22455">
        <ele>534.8</ele>
        <time>2023-11-26T08:55:59.000Z</time>
      </trkpt>
      <trkpt lat="43.63224" lon="6.22453">
        <ele>535.1</ele>
        <time>2023-11-26T08:56:03.000Z</time>
      </trkpt>
      <trkpt lat="43.63227" lon="6.22453">
        <ele>535.2</ele>
        <time>2023-11-26T08:56:06.000Z</time>
      </trkpt>
      <trkpt lat="43.63228" lon="6.22452">
        <ele>535.3</ele>
        <time>2023-11-26T08:56:07.000Z</time>
      </trkpt>
      <trkpt lat="43.63236" lon="6.22451">
        <ele>535.6</ele>
        <time>2023-11-26T08:56:14.000Z</time>
      </trkpt>
      <trkpt lat="43.6324" lon="6.22451">
        <ele>535.9</ele>
        <time>2023-11-26T08:56:18.000Z</time>
      </trkpt>
      <trkpt lat="43.63244" lon="6.22451">
        <ele>536</ele>
        <time>2023-11-26T08:56:21.000Z</time>
      </trkpt>
      <trkpt lat="43.63248" lon="6.22451">
        <ele>536.3</ele>
        <time>2023-11-26T08:56:25.000Z</time>
      </trkpt>
      <trkpt lat="43.63252" lon="6.2245">
        <ele>536.6</ele>
        <time>2023-11-26T08:56:29.000Z</time>
      </trkpt>
      <trkpt lat="43.63256" lon="6.2245">
        <ele>536.9</ele>
        <time>2023-11-26T08:56:33.000Z</time>
      </trkpt>
      <trkpt lat="43.6326" lon="6.2245">
        <ele>537.2</ele>
        <time>2023-11-26T08:56:37.000Z</time>
      </trkpt>
      <trkpt lat="43.63264" lon="6.2245">
        <ele>537.4</ele>
        <time>2023-11-26T08:56:40.000Z</time>
      </trkpt>
      <trkpt lat="43.63268" lon="6.2245">
        <ele>537.7</ele>
        <time>2023-11-26T08:56:44.000Z</time>
      </trkpt>
      <trkpt lat="43.63272" lon="6.22452">
        <ele>538.2</ele>
        <time>2023-11-26T08:56:49.000Z</time>
      </trkpt>
      <trkpt lat="43.63276" lon="6.22454">
        <ele>538.6</ele>
        <time>2023-11-26T08:56:53.000Z</time>
      </trkpt>
      <trkpt lat="43.6328" lon="6.22456">
        <ele>538.9</ele>
        <time>2023-11-26T08:56:57.000Z</time>
      </trkpt>
      <trkpt lat="43.63284" lon="6.22457">
        <ele>539.2</ele>
        <time>2023-11-26T08:57:01.000Z</time>
      </trkpt>
      <trkpt lat="43.63288" lon="6.22459">
        <ele>539.6</ele>
        <time>2023-11-26T08:57:06.000Z</time>
      </trkpt>
      <trkpt lat="43.63292" lon="6.2246">
        <ele>539.9</ele>
        <time>2023-11-26T08:57:10.000Z</time>
      </trkpt>
      <trkpt lat="43.63293" lon="6.2246">
        <ele>540</ele>
        <time>2023-11-26T08:57:11.000Z</time>
      </trkpt>
      <trkpt lat="43.633" lon="6.22461">
        <ele>540.7</ele>
        <time>2023-11-26T08:57:18.000Z</time>
      </trkpt>
      <trkpt lat="43.63303" lon="6.22463">
        <ele>541</ele>
        <time>2023-11-26T08:57:21.000Z</time>
      </trkpt>
      <trkpt lat="43.63307" lon="6.22465">
        <ele>541.4</ele>
        <time>2023-11-26T08:57:25.000Z</time>
      </trkpt>
      <trkpt lat="43.6331" lon="6.22468">
        <ele>541.7</ele>
        <time>2023-11-26T08:57:29.000Z</time>
      </trkpt>
      <trkpt lat="43.63313" lon="6.22472">
        <ele>542.1</ele>
        <time>2023-11-26T08:57:33.000Z</time>
      </trkpt>
      <trkpt lat="43.63315" lon="6.22476">
        <ele>542.3</ele>
        <time>2023-11-26T08:57:36.000Z</time>
      </trkpt>
      <trkpt lat="43.63318" lon="6.2248">
        <ele>542.9</ele>
        <time>2023-11-26T08:57:40.000Z</time>
      </trkpt>
      <trkpt lat="43.63321" lon="6.22484">
        <ele>543.4</ele>
        <time>2023-11-26T08:57:44.000Z</time>
      </trkpt>
      <trkpt lat="43.63324" lon="6.22487">
        <ele>543.9</ele>
        <time>2023-11-26T08:57:48.000Z</time>
      </trkpt>
      <trkpt lat="43.63328" lon="6.22491">
        <ele>544.6</ele>
        <time>2023-11-26T08:57:53.000Z</time>
      </trkpt>
      <trkpt lat="43.63332" lon="6.22493">
        <ele>545.3</ele>
        <time>2023-11-26T08:57:58.000Z</time>
      </trkpt>
      <trkpt lat="43.63335" lon="6.22496">
        <ele>545.9</ele>
        <time>2023-11-26T08:58:02.000Z</time>
      </trkpt>
      <trkpt lat="43.63339" lon="6.22499">
        <ele>546.6</ele>
        <time>2023-11-26T08:58:07.000Z</time>
      </trkpt>
      <trkpt lat="43.63342" lon="6.22501">
        <ele>547.1</ele>
        <time>2023-11-26T08:58:12.000Z</time>
      </trkpt>
      <trkpt lat="43.63343" lon="6.22502">
        <ele>547.2</ele>
        <time>2023-11-26T08:58:13.000Z</time>
      </trkpt>
      <trkpt lat="43.63348" lon="6.22504">
        <ele>548</ele>
        <time>2023-11-26T08:58:19.000Z</time>
      </trkpt>
      <trkpt lat="43.63352" lon="6.22505">
        <ele>548.3</ele>
        <time>2023-11-26T08:58:22.000Z</time>
      </trkpt>
      <trkpt lat="43.63356" lon="6.22504">
        <ele>548.9</ele>
        <time>2023-11-26T08:58:27.000Z</time>
      </trkpt>
      <trkpt lat="43.6336" lon="6.22504">
        <ele>549.6</ele>
        <time>2023-11-26T08:58:33.000Z</time>
      </trkpt>
      <trkpt lat="43.63364" lon="6.22503">
        <ele>550.1</ele>
        <time>2023-11-26T08:58:37.000Z</time>
      </trkpt>
      <trkpt lat="43.63368" lon="6.22501">
        <ele>550.6</ele>
        <time>2023-11-26T08:58:41.000Z</time>
      </trkpt>
      <trkpt lat="43.63372" lon="6.22502">
        <ele>551.5</ele>
        <time>2023-11-26T08:58:53.000Z</time>
      </trkpt>
      <trkpt lat="43.63374" lon="6.22497">
        <ele>552.4</ele>
        <time>2023-11-26T08:59:11.000Z</time>
      </trkpt>
      <trkpt lat="43.63379" lon="6.22499">
        <ele>553.5</ele>
        <time>2023-11-26T08:59:55.000Z</time>
      </trkpt>
      <trkpt lat="43.63379" lon="6.22499">
        <ele>553.5</ele>
        <time>2023-11-26T08:59:56.000Z</time>
      </trkpt>
      <trkpt lat="43.63372" lon="6.22505">
        <ele>554.1</ele>
        <time>2023-11-26T09:00:06.000Z</time>
      </trkpt>
      <trkpt lat="43.63369" lon="6.22507">
        <ele>554.4</ele>
        <time>2023-11-26T09:00:10.000Z</time>
      </trkpt>
      <trkpt lat="43.63366" lon="6.22512">
        <ele>554.8</ele>
        <time>2023-11-26T09:00:15.000Z</time>
      </trkpt>
      <trkpt lat="43.63363" lon="6.22515">
        <ele>555.1</ele>
        <time>2023-11-26T09:00:19.000Z</time>
      </trkpt>
      <trkpt lat="43.63361" lon="6.22521">
        <ele>555.8</ele>
        <time>2023-11-26T09:00:24.000Z</time>
      </trkpt>
      <trkpt lat="43.63359" lon="6.22525">
        <ele>556.3</ele>
        <time>2023-11-26T09:00:28.000Z</time>
      </trkpt>
      <trkpt lat="43.63357" lon="6.2253">
        <ele>556.9</ele>
        <time>2023-11-26T09:00:33.000Z</time>
      </trkpt>
      <trkpt lat="43.63354" lon="6.22534">
        <ele>557.6</ele>
        <time>2023-11-26T09:00:39.000Z</time>
      </trkpt>
      <trkpt lat="43.63351" lon="6.22539">
        <ele>558.5</ele>
        <time>2023-11-26T09:00:47.000Z</time>
      </trkpt>
      <trkpt lat="43.63349" lon="6.22543">
        <ele>559.2</ele>
        <time>2023-11-26T09:00:53.000Z</time>
      </trkpt>
      <trkpt lat="43.63348" lon="6.22548">
        <ele>559.5</ele>
        <time>2023-11-26T09:00:56.000Z</time>
      </trkpt>
      <trkpt lat="43.63347" lon="6.2255">
        <ele>559.7</ele>
        <time>2023-11-26T09:00:57.000Z</time>
      </trkpt>
      <trkpt lat="43.63348" lon="6.22559">
        <ele>560.4</ele>
        <time>2023-11-26T09:01:02.000Z</time>
      </trkpt>
      <trkpt lat="43.63349" lon="6.22564">
        <ele>560.7</ele>
        <time>2023-11-26T09:01:05.000Z</time>
      </trkpt>
      <trkpt lat="43.63351" lon="6.22569">
        <ele>561.2</ele>
        <time>2023-11-26T09:01:09.000Z</time>
      </trkpt>
      <trkpt lat="43.63352" lon="6.22575">
        <ele>561.7</ele>
        <time>2023-11-26T09:01:14.000Z</time>
      </trkpt>
      <trkpt lat="43.63353" lon="6.2258">
        <ele>562.2</ele>
        <time>2023-11-26T09:01:18.000Z</time>
      </trkpt>
      <trkpt lat="43.63353" lon="6.22583">
        <ele>562.5</ele>
        <time>2023-11-26T09:01:20.000Z</time>
      </trkpt>
      <trkpt lat="43.63353" lon="6.22588">
        <ele>562.8</ele>
        <time>2023-11-26T09:01:22.000Z</time>
      </trkpt>
      <trkpt lat="43.63353" lon="6.22594">
        <ele>563.2</ele>
        <time>2023-11-26T09:01:25.000Z</time>
      </trkpt>
      <trkpt lat="43.63354" lon="6.22598">
        <ele>563.5</ele>
        <time>2023-11-26T09:01:28.000Z</time>
      </trkpt>
      <trkpt lat="43.63355" lon="6.22603">
        <ele>563.9</ele>
        <time>2023-11-26T09:01:31.000Z</time>
      </trkpt>
      <trkpt lat="43.63355" lon="6.22609">
        <ele>564.4</ele>
        <time>2023-11-26T09:01:35.000Z</time>
      </trkpt>
      <trkpt lat="43.63357" lon="6.22614">
        <ele>565.1</ele>
        <time>2023-11-26T09:01:39.000Z</time>
      </trkpt>
      <trkpt lat="43.63359" lon="6.22619">
        <ele>565.7</ele>
        <time>2023-11-26T09:01:43.000Z</time>
      </trkpt>
      <trkpt lat="43.63361" lon="6.22624">
        <ele>566.3</ele>
        <time>2023-11-26T09:01:47.000Z</time>
      </trkpt>
      <trkpt lat="43.63362" lon="6.22629">
        <ele>566.7</ele>
        <time>2023-11-26T09:01:51.000Z</time>
      </trkpt>
      <trkpt lat="43.63364" lon="6.22635">
        <ele>567</ele>
        <time>2023-11-26T09:01:55.000Z</time>
      </trkpt>
      <trkpt lat="43.63366" lon="6.22638">
        <ele>567.3</ele>
        <time>2023-11-26T09:01:58.000Z</time>
      </trkpt>
      <trkpt lat="43.63367" lon="6.2264">
        <ele>567.4</ele>
        <time>2023-11-26T09:01:59.000Z</time>
      </trkpt>
      <trkpt lat="43.63371" lon="6.22647">
        <ele>568</ele>
        <time>2023-11-26T09:02:05.000Z</time>
      </trkpt>
      <trkpt lat="43.63373" lon="6.22652">
        <ele>568.5</ele>
        <time>2023-11-26T09:02:09.000Z</time>
      </trkpt>
      <trkpt lat="43.63375" lon="6.22656">
        <ele>568.9</ele>
        <time>2023-11-26T09:02:13.000Z</time>
      </trkpt>
      <trkpt lat="43.63377" lon="6.22661">
        <ele>569.4</ele>
        <time>2023-11-26T09:02:17.000Z</time>
      </trkpt>
      <trkpt lat="43.6338" lon="6.22665">
        <ele>569.9</ele>
        <time>2023-11-26T09:02:22.000Z</time>
      </trkpt>
      <trkpt lat="43.63382" lon="6.2267">
        <ele>570.5</ele>
        <time>2023-11-26T09:02:27.000Z</time>
      </trkpt>
      <trkpt lat="43.63384" lon="6.22674">
        <ele>570.9</ele>
        <time>2023-11-26T09:02:31.000Z</time>
      </trkpt>
      <trkpt lat="43.63386" lon="6.22679">
        <ele>571.3</ele>
        <time>2023-11-26T09:02:35.000Z</time>
      </trkpt>
      <trkpt lat="43.63388" lon="6.22684">
        <ele>571.8</ele>
        <time>2023-11-26T09:02:40.000Z</time>
      </trkpt>
      <trkpt lat="43.6339" lon="6.2269">
        <ele>572.3</ele>
        <time>2023-11-26T09:02:45.000Z</time>
      </trkpt>
      <trkpt lat="43.63391" lon="6.22695">
        <ele>572.8</ele>
        <time>2023-11-26T09:02:50.000Z</time>
      </trkpt>
      <trkpt lat="43.63392" lon="6.227">
        <ele>573.1</ele>
        <time>2023-11-26T09:02:54.000Z</time>
      </trkpt>
      <trkpt lat="43.63393" lon="6.22705">
        <ele>573.5</ele>
        <time>2023-11-26T09:02:58.000Z</time>
      </trkpt>
      <trkpt lat="43.63394" lon="6.22711">
        <ele>574</ele>
        <time>2023-11-26T09:03:03.000Z</time>
      </trkpt>
      <trkpt lat="43.63394" lon="6.22713">
        <ele>574.1</ele>
        <time>2023-11-26T09:03:04.000Z</time>
      </trkpt>
      <trkpt lat="43.63395" lon="6.22722">
        <ele>575</ele>
        <time>2023-11-26T09:03:12.000Z</time>
      </trkpt>
      <trkpt lat="43.63395" lon="6.22728">
        <ele>575.6</ele>
        <time>2023-11-26T09:03:17.000Z</time>
      </trkpt>
      <trkpt lat="43.63395" lon="6.22734">
        <ele>575.9</ele>
        <time>2023-11-26T09:03:21.000Z</time>
      </trkpt>
      <trkpt lat="43.63395" lon="6.22739">
        <ele>576.2</ele>
        <time>2023-11-26T09:03:25.000Z</time>
      </trkpt>
      <trkpt lat="43.63395" lon="6.22745">
        <ele>576.5</ele>
        <time>2023-11-26T09:03:30.000Z</time>
      </trkpt>
      <trkpt lat="43.63397" lon="6.22751">
        <ele>577.1</ele>
        <time>2023-11-26T09:03:35.000Z</time>
      </trkpt>
      <trkpt lat="43.63398" lon="6.22756">
        <ele>577.5</ele>
        <time>2023-11-26T09:03:39.000Z</time>
      </trkpt>
      <trkpt lat="43.634" lon="6.22761">
        <ele>578</ele>
        <time>2023-11-26T09:03:44.000Z</time>
      </trkpt>
      <trkpt lat="43.63401" lon="6.22767">
        <ele>578.4</ele>
        <time>2023-11-26T09:03:50.000Z</time>
      </trkpt>
      <trkpt lat="43.63403" lon="6.22772">
        <ele>578.7</ele>
        <time>2023-11-26T09:03:54.000Z</time>
      </trkpt>
      <trkpt lat="43.63406" lon="6.22777">
        <ele>579</ele>
        <time>2023-11-26T09:03:58.000Z</time>
      </trkpt>
      <trkpt lat="43.63408" lon="6.22781">
        <ele>579.2</ele>
        <time>2023-11-26T09:04:01.000Z</time>
      </trkpt>
      <trkpt lat="43.6341" lon="6.22786">
        <ele>579.5</ele>
        <time>2023-11-26T09:04:05.000Z</time>
      </trkpt>
      <trkpt lat="43.6341" lon="6.22787">
        <ele>579.6</ele>
        <time>2023-11-26T09:04:06.000Z</time>
      </trkpt>
      <trkpt lat="43.63414" lon="6.22795">
        <ele>580.1</ele>
        <time>2023-11-26T09:04:13.000Z</time>
      </trkpt>
      <trkpt lat="43.63417" lon="6.22799">
        <ele>580.4</ele>
        <time>2023-11-26T09:04:17.000Z</time>
      </trkpt>
      <trkpt lat="43.6342" lon="6.22803">
        <ele>580.8</ele>
        <time>2023-11-26T09:04:21.000Z</time>
      </trkpt>
      <trkpt lat="43.63423" lon="6.22807">
        <ele>581.2</ele>
        <time>2023-11-26T09:04:26.000Z</time>
      </trkpt>
      <trkpt lat="43.63426" lon="6.2281">
        <ele>581.7</ele>
        <time>2023-11-26T09:04:30.000Z</time>
      </trkpt>
      <trkpt lat="43.63429" lon="6.22814">
        <ele>582.1</ele>
        <time>2023-11-26T09:04:34.000Z</time>
      </trkpt>
      <trkpt lat="43.63431" lon="6.22818">
        <ele>582.5</ele>
        <time>2023-11-26T09:04:38.000Z</time>
      </trkpt>
      <trkpt lat="43.63435" lon="6.22823">
        <ele>583</ele>
        <time>2023-11-26T09:04:43.000Z</time>
      </trkpt>
      <trkpt lat="43.63437" lon="6.22826">
        <ele>583.4</ele>
        <time>2023-11-26T09:04:47.000Z</time>
      </trkpt>
      <trkpt lat="43.6344" lon="6.2283">
        <ele>583.8</ele>
        <time>2023-11-26T09:04:51.000Z</time>
      </trkpt>
      <trkpt lat="43.63443" lon="6.22834">
        <ele>584.2</ele>
        <time>2023-11-26T09:04:55.000Z</time>
      </trkpt>
      <trkpt lat="43.63446" lon="6.22838">
        <ele>584.5</ele>
        <time>2023-11-26T09:04:59.000Z</time>
      </trkpt>
      <trkpt lat="43.63448" lon="6.22843">
        <ele>584.8</ele>
        <time>2023-11-26T09:05:03.000Z</time>
      </trkpt>
      <trkpt lat="43.63449" lon="6.22848">
        <ele>585.2</ele>
        <time>2023-11-26T09:05:07.000Z</time>
      </trkpt>
      <trkpt lat="43.6345" lon="6.22849">
        <ele>585.3</ele>
        <time>2023-11-26T09:05:08.000Z</time>
      </trkpt>
      <trkpt lat="43.63455" lon="6.22855">
        <ele>586.3</ele>
        <time>2023-11-26T09:05:18.000Z</time>
      </trkpt>
      <trkpt lat="43.63458" lon="6.2286">
        <ele>586.9</ele>
        <time>2023-11-26T09:05:22.000Z</time>
      </trkpt>
      <trkpt lat="43.6346" lon="6.22863">
        <ele>587.2</ele>
        <time>2023-11-26T09:05:25.000Z</time>
      </trkpt>
      <trkpt lat="43.63463" lon="6.22868">
        <ele>587.5</ele>
        <time>2023-11-26T09:05:28.000Z</time>
      </trkpt>
      <trkpt lat="43.63465" lon="6.22871">
        <ele>587.8</ele>
        <time>2023-11-26T09:05:31.000Z</time>
      </trkpt>
      <trkpt lat="43.63467" lon="6.22875">
        <ele>588</ele>
        <time>2023-11-26T09:05:34.000Z</time>
      </trkpt>
      <trkpt lat="43.6347" lon="6.22878">
        <ele>588.3</ele>
        <time>2023-11-26T09:05:37.000Z</time>
      </trkpt>
      <trkpt lat="43.63472" lon="6.22883">
        <ele>588.5</ele>
        <time>2023-11-26T09:05:41.000Z</time>
      </trkpt>
      <trkpt lat="43.63475" lon="6.22887">
        <ele>588.7</ele>
        <time>2023-11-26T09:05:45.000Z</time>
      </trkpt>
      <trkpt lat="43.63479" lon="6.22891">
        <ele>589</ele>
        <time>2023-11-26T09:05:50.000Z</time>
      </trkpt>
      <trkpt lat="43.63482" lon="6.22893">
        <ele>589.2</ele>
        <time>2023-11-26T09:05:54.000Z</time>
      </trkpt>
      <trkpt lat="43.63486" lon="6.22896">
        <ele>589.5</ele>
        <time>2023-11-26T09:05:59.000Z</time>
      </trkpt>
      <trkpt lat="43.6349" lon="6.22898">
        <ele>589.8</ele>
        <time>2023-11-26T09:06:04.000Z</time>
      </trkpt>
      <trkpt lat="43.63493" lon="6.22901">
        <ele>589.9</ele>
        <time>2023-11-26T09:06:07.000Z</time>
      </trkpt>
      <trkpt lat="43.63495" lon="6.22905">
        <ele>590.1</ele>
        <time>2023-11-26T09:06:10.000Z</time>
      </trkpt>
      <trkpt lat="43.63496" lon="6.22906">
        <ele>590.1</ele>
        <time>2023-11-26T09:06:11.000Z</time>
      </trkpt>
      <trkpt lat="43.63502" lon="6.22912">
        <ele>590.3</ele>
        <time>2023-11-26T09:06:17.000Z</time>
      </trkpt>
      <trkpt lat="43.63505" lon="6.22914">
        <ele>590.5</ele>
        <time>2023-11-26T09:06:20.000Z</time>
      </trkpt>
      <trkpt lat="43.63508" lon="6.22917">
        <ele>590.6</ele>
        <time>2023-11-26T09:06:24.000Z</time>
      </trkpt>
      <trkpt lat="43.63511" lon="6.22921">
        <ele>590.7</ele>
        <time>2023-11-26T09:06:28.000Z</time>
      </trkpt>
      <trkpt lat="43.63514" lon="6.22923">
        <ele>590.8</ele>
        <time>2023-11-26T09:06:31.000Z</time>
      </trkpt>
      <trkpt lat="43.63517" lon="6.22926">
        <ele>590.9</ele>
        <time>2023-11-26T09:06:34.000Z</time>
      </trkpt>
      <trkpt lat="43.6352" lon="6.2293">
        <ele>591</ele>
        <time>2023-11-26T09:06:38.000Z</time>
      </trkpt>
      <trkpt lat="43.63524" lon="6.22934">
        <ele>591.1</ele>
        <time>2023-11-26T09:06:42.000Z</time>
      </trkpt>
      <trkpt lat="43.63526" lon="6.22937">
        <ele>591.2</ele>
        <time>2023-11-26T09:06:46.000Z</time>
      </trkpt>
      <trkpt lat="43.63529" lon="6.22942">
        <ele>591.3</ele>
        <time>2023-11-26T09:06:50.000Z</time>
      </trkpt>
      <trkpt lat="43.63532" lon="6.22946">
        <ele>591.3</ele>
        <time>2023-11-26T09:06:54.000Z</time>
      </trkpt>
      <trkpt lat="43.63535" lon="6.2295">
        <ele>591.4</ele>
        <time>2023-11-26T09:06:58.000Z</time>
      </trkpt>
      <trkpt lat="43.63538" lon="6.22953">
        <ele>591.6</ele>
        <time>2023-11-26T09:07:02.000Z</time>
      </trkpt>
      <trkpt lat="43.63541" lon="6.22958">
        <ele>591.8</ele>
        <time>2023-11-26T09:07:07.000Z</time>
      </trkpt>
      <trkpt lat="43.63544" lon="6.22961">
        <ele>592</ele>
        <time>2023-11-26T09:07:11.000Z</time>
      </trkpt>
      <trkpt lat="43.63545" lon="6.22962">
        <ele>592.1</ele>
        <time>2023-11-26T09:07:12.000Z</time>
      </trkpt>
      <trkpt lat="43.6355" lon="6.22967">
        <ele>592.7</ele>
        <time>2023-11-26T09:07:20.000Z</time>
      </trkpt>
      <trkpt lat="43.63554" lon="6.22969">
        <ele>593</ele>
        <time>2023-11-26T09:07:24.000Z</time>
      </trkpt>
      <trkpt lat="43.63558" lon="6.22971">
        <ele>593.2</ele>
        <time>2023-11-26T09:07:29.000Z</time>
      </trkpt>
      <trkpt lat="43.63562" lon="6.22972">
        <ele>593.4</ele>
        <time>2023-11-26T09:07:33.000Z</time>
      </trkpt>
      <trkpt lat="43.63565" lon="6.22974">
        <ele>593.8</ele>
        <time>2023-11-26T09:07:37.000Z</time>
      </trkpt>
      <trkpt lat="43.63569" lon="6.22977">
        <ele>594.2</ele>
        <time>2023-11-26T09:07:41.000Z</time>
      </trkpt>
      <trkpt lat="43.63572" lon="6.22979">
        <ele>594.5</ele>
        <time>2023-11-26T09:07:44.000Z</time>
      </trkpt>
      <trkpt lat="43.63576" lon="6.22981">
        <ele>594.9</ele>
        <time>2023-11-26T09:07:48.000Z</time>
      </trkpt>
      <trkpt lat="43.6358" lon="6.22983">
        <ele>595.3</ele>
        <time>2023-11-26T09:07:52.000Z</time>
      </trkpt>
      <trkpt lat="43.63584" lon="6.22985">
        <ele>595.6</ele>
        <time>2023-11-26T09:07:56.000Z</time>
      </trkpt>
      <trkpt lat="43.63588" lon="6.22986">
        <ele>595.8</ele>
        <time>2023-11-26T09:07:59.000Z</time>
      </trkpt>
      <trkpt lat="43.63591" lon="6.22987">
        <ele>596.1</ele>
        <time>2023-11-26T09:08:02.000Z</time>
      </trkpt>
      <trkpt lat="43.63595" lon="6.22989">
        <ele>596.4</ele>
        <time>2023-11-26T09:08:06.000Z</time>
      </trkpt>
      <trkpt lat="43.63598" lon="6.2299">
        <ele>596.7</ele>
        <time>2023-11-26T09:08:09.000Z</time>
      </trkpt>
      <trkpt lat="43.63602" lon="6.22991">
        <ele>596.9</ele>
        <time>2023-11-26T09:08:13.000Z</time>
      </trkpt>
      <trkpt lat="43.63603" lon="6.22992">
        <ele>597</ele>
        <time>2023-11-26T09:08:14.000Z</time>
      </trkpt>
      <trkpt lat="43.6361" lon="6.22996">
        <ele>597.7</ele>
        <time>2023-11-26T09:08:21.000Z</time>
      </trkpt>
      <trkpt lat="43.63614" lon="6.22997">
        <ele>598</ele>
        <time>2023-11-26T09:08:25.000Z</time>
      </trkpt>
      <trkpt lat="43.63618" lon="6.22998">
        <ele>598.3</ele>
        <time>2023-11-26T09:08:29.000Z</time>
      </trkpt>
      <trkpt lat="43.63622" lon="6.23">
        <ele>598.5</ele>
        <time>2023-11-26T09:08:33.000Z</time>
      </trkpt>
      <trkpt lat="43.63625" lon="6.23004">
        <ele>598.8</ele>
        <time>2023-11-26T09:08:37.000Z</time>
      </trkpt>
      <trkpt lat="43.63629" lon="6.23007">
        <ele>599</ele>
        <time>2023-11-26T09:08:41.000Z</time>
      </trkpt>
      <trkpt lat="43.63632" lon="6.2301">
        <ele>599.4</ele>
        <time>2023-11-26T09:08:46.000Z</time>
      </trkpt>
      <trkpt lat="43.63636" lon="6.23012">
        <ele>599.6</ele>
        <time>2023-11-26T09:08:50.000Z</time>
      </trkpt>
      <trkpt lat="43.63639" lon="6.23016">
        <ele>599.7</ele>
        <time>2023-11-26T09:08:53.000Z</time>
      </trkpt>
      <trkpt lat="43.63642" lon="6.23019">
        <ele>600.1</ele>
        <time>2023-11-26T09:08:57.000Z</time>
      </trkpt>
      <trkpt lat="43.63645" lon="6.23023">
        <ele>600.4</ele>
        <time>2023-11-26T09:09:00.000Z</time>
      </trkpt>
      <trkpt lat="43.63648" lon="6.23026">
        <ele>600.8</ele>
        <time>2023-11-26T09:09:04.000Z</time>
      </trkpt>
      <trkpt lat="43.63652" lon="6.23029">
        <ele>601.3</ele>
        <time>2023-11-26T09:09:08.000Z</time>
      </trkpt>
      <trkpt lat="43.63654" lon="6.23032">
        <ele>601.9</ele>
        <time>2023-11-26T09:09:12.000Z</time>
      </trkpt>
      <trkpt lat="43.63658" lon="6.23036">
        <ele>602.3</ele>
        <time>2023-11-26T09:09:17.000Z</time>
      </trkpt>
      <trkpt lat="43.63659" lon="6.23036">
        <ele>602.4</ele>
        <time>2023-11-26T09:09:18.000Z</time>
      </trkpt>
      <trkpt lat="43.63666" lon="6.23036">
        <ele>602.9</ele>
        <time>2023-11-26T09:09:25.000Z</time>
      </trkpt>
      <trkpt lat="43.6367" lon="6.23036">
        <ele>603.2</ele>
        <time>2023-11-26T09:09:29.000Z</time>
      </trkpt>
      <trkpt lat="43.63674" lon="6.23039">
        <ele>603.5</ele>
        <time>2023-11-26T09:09:33.000Z</time>
      </trkpt>
      <trkpt lat="43.63677" lon="6.23043">
        <ele>603.7</ele>
        <time>2023-11-26T09:09:37.000Z</time>
      </trkpt>
      <trkpt lat="43.63681" lon="6.23045">
        <ele>604</ele>
        <time>2023-11-26T09:09:41.000Z</time>
      </trkpt>
      <trkpt lat="43.63685" lon="6.23048">
        <ele>604.4</ele>
        <time>2023-11-26T09:09:45.000Z</time>
      </trkpt>
      <trkpt lat="43.63688" lon="6.2305">
        <ele>604.6</ele>
        <time>2023-11-26T09:09:48.000Z</time>
      </trkpt>
      <trkpt lat="43.63692" lon="6.23051">
        <ele>604.9</ele>
        <time>2023-11-26T09:09:52.000Z</time>
      </trkpt>
      <trkpt lat="43.63695" lon="6.23052">
        <ele>605.1</ele>
        <time>2023-11-26T09:09:56.000Z</time>
      </trkpt>
      <trkpt lat="43.63699" lon="6.23055">
        <ele>605.5</ele>
        <time>2023-11-26T09:10:00.000Z</time>
      </trkpt>
      <trkpt lat="43.63702" lon="6.23058">
        <ele>605.7</ele>
        <time>2023-11-26T09:10:03.000Z</time>
      </trkpt>
      <trkpt lat="43.63705" lon="6.23062">
        <ele>606</ele>
        <time>2023-11-26T09:10:07.000Z</time>
      </trkpt>
      <trkpt lat="43.63708" lon="6.23065">
        <ele>606.3</ele>
        <time>2023-11-26T09:10:11.000Z</time>
      </trkpt>
      <trkpt lat="43.63712" lon="6.23068">
        <ele>606.5</ele>
        <time>2023-11-26T09:10:15.000Z</time>
      </trkpt>
      <trkpt lat="43.63716" lon="6.2307">
        <ele>606.7</ele>
        <time>2023-11-26T09:10:19.000Z</time>
      </trkpt>
      <trkpt lat="43.63718" lon="6.2307">
        <ele>606.7</ele>
        <time>2023-11-26T09:10:20.000Z</time>
      </trkpt>
      <trkpt lat="43.63724" lon="6.23072">
        <ele>607.1</ele>
        <time>2023-11-26T09:10:27.000Z</time>
      </trkpt>
      <trkpt lat="43.63728" lon="6.23073">
        <ele>607.3</ele>
        <time>2023-11-26T09:10:31.000Z</time>
      </trkpt>
      <trkpt lat="43.63732" lon="6.23074">
        <ele>607.6</ele>
        <time>2023-11-26T09:10:36.000Z</time>
      </trkpt>
      <trkpt lat="43.63736" lon="6.23075">
        <ele>607.7</ele>
        <time>2023-11-26T09:10:40.000Z</time>
      </trkpt>
      <trkpt lat="43.63741" lon="6.23074">
        <ele>608</ele>
        <time>2023-11-26T09:10:44.000Z</time>
      </trkpt>
      <trkpt lat="43.63744" lon="6.23077">
        <ele>608.2</ele>
        <time>2023-11-26T09:10:47.000Z</time>
      </trkpt>
      <trkpt lat="43.63748" lon="6.23079">
        <ele>608.4</ele>
        <time>2023-11-26T09:10:50.000Z</time>
      </trkpt>
      <trkpt lat="43.63752" lon="6.23079">
        <ele>608.7</ele>
        <time>2023-11-26T09:10:54.000Z</time>
      </trkpt>
      <trkpt lat="43.63756" lon="6.23079">
        <ele>608.9</ele>
        <time>2023-11-26T09:10:58.000Z</time>
      </trkpt>
      <trkpt lat="43.63759" lon="6.23081">
        <ele>609.1</ele>
        <time>2023-11-26T09:11:01.000Z</time>
      </trkpt>
      <trkpt lat="43.63763" lon="6.23081">
        <ele>609.2</ele>
        <time>2023-11-26T09:11:04.000Z</time>
      </trkpt>
      <trkpt lat="43.63766" lon="6.23081">
        <ele>609.3</ele>
        <time>2023-11-26T09:11:07.000Z</time>
      </trkpt>
      <trkpt lat="43.63771" lon="6.23083">
        <ele>609.4</ele>
        <time>2023-11-26T09:11:11.000Z</time>
      </trkpt>
      <trkpt lat="43.63774" lon="6.23084">
        <ele>609.5</ele>
        <time>2023-11-26T09:11:14.000Z</time>
      </trkpt>
      <trkpt lat="43.63778" lon="6.23086">
        <ele>609.6</ele>
        <time>2023-11-26T09:11:17.000Z</time>
      </trkpt>
      <trkpt lat="43.63782" lon="6.23087">
        <ele>609.8</ele>
        <time>2023-11-26T09:11:20.000Z</time>
      </trkpt>
      <trkpt lat="43.63783" lon="6.23087">
        <ele>609.8</ele>
        <time>2023-11-26T09:11:21.000Z</time>
      </trkpt>
      <trkpt lat="43.63789" lon="6.23089">
        <ele>610.3</ele>
        <time>2023-11-26T09:11:27.000Z</time>
      </trkpt>
      <trkpt lat="43.63793" lon="6.23091">
        <ele>610.5</ele>
        <time>2023-11-26T09:11:31.000Z</time>
      </trkpt>
      <trkpt lat="43.63797" lon="6.2309">
        <ele>610.7</ele>
        <time>2023-11-26T09:11:34.000Z</time>
      </trkpt>
      <trkpt lat="43.63801" lon="6.23091">
        <ele>610.9</ele>
        <time>2023-11-26T09:11:38.000Z</time>
      </trkpt>
      <trkpt lat="43.63805" lon="6.23091">
        <ele>611</ele>
        <time>2023-11-26T09:11:41.000Z</time>
      </trkpt>
      <trkpt lat="43.63808" lon="6.23091">
        <ele>611.2</ele>
        <time>2023-11-26T09:11:44.000Z</time>
      </trkpt>
      <trkpt lat="43.63812" lon="6.23092">
        <ele>611.3</ele>
        <time>2023-11-26T09:11:47.000Z</time>
      </trkpt>
      <trkpt lat="43.63816" lon="6.23093">
        <ele>611.4</ele>
        <time>2023-11-26T09:11:51.000Z</time>
      </trkpt>
      <trkpt lat="43.63819" lon="6.23095">
        <ele>611.5</ele>
        <time>2023-11-26T09:11:54.000Z</time>
      </trkpt>
      <trkpt lat="43.63822" lon="6.23097">
        <ele>611.6</ele>
        <time>2023-11-26T09:11:57.000Z</time>
      </trkpt>
      <trkpt lat="43.63826" lon="6.231">
        <ele>611.8</ele>
        <time>2023-11-26T09:12:01.000Z</time>
      </trkpt>
      <trkpt lat="43.63829" lon="6.23101">
        <ele>611.9</ele>
        <time>2023-11-26T09:12:04.000Z</time>
      </trkpt>
      <trkpt lat="43.63832" lon="6.23104">
        <ele>612</ele>
        <time>2023-11-26T09:12:08.000Z</time>
      </trkpt>
      <trkpt lat="43.63836" lon="6.23106">
        <ele>612</ele>
        <time>2023-11-26T09:12:12.000Z</time>
      </trkpt>
      <trkpt lat="43.6384" lon="6.23106">
        <ele>612.1</ele>
        <time>2023-11-26T09:12:16.000Z</time>
      </trkpt>
      <trkpt lat="43.63844" lon="6.23108">
        <ele>612.1</ele>
        <time>2023-11-26T09:12:19.000Z</time>
      </trkpt>
      <trkpt lat="43.63847" lon="6.23109">
        <ele>612.2</ele>
        <time>2023-11-26T09:12:22.000Z</time>
      </trkpt>
      <trkpt lat="43.63849" lon="6.23109">
        <ele>612.2</ele>
        <time>2023-11-26T09:12:23.000Z</time>
      </trkpt>
      <trkpt lat="43.63855" lon="6.2311">
        <ele>612.3</ele>
        <time>2023-11-26T09:12:28.000Z</time>
      </trkpt>
      <trkpt lat="43.63859" lon="6.23112">
        <ele>612.3</ele>
        <time>2023-11-26T09:12:31.000Z</time>
      </trkpt>
      <trkpt lat="43.63862" lon="6.23113">
        <ele>612.3</ele>
        <time>2023-11-26T09:12:34.000Z</time>
      </trkpt>
      <trkpt lat="43.63866" lon="6.23114">
        <ele>612.2</ele>
        <time>2023-11-26T09:12:37.000Z</time>
      </trkpt>
      <trkpt lat="43.6387" lon="6.23114">
        <ele>612.2</ele>
        <time>2023-11-26T09:12:40.000Z</time>
      </trkpt>
      <trkpt lat="43.63874" lon="6.23114">
        <ele>612.1</ele>
        <time>2023-11-26T09:12:44.000Z</time>
      </trkpt>
      <trkpt lat="43.63878" lon="6.23115">
        <ele>612.1</ele>
        <time>2023-11-26T09:12:47.000Z</time>
      </trkpt>
      <trkpt lat="43.63881" lon="6.23115">
        <ele>612.1</ele>
        <time>2023-11-26T09:12:50.000Z</time>
      </trkpt>
      <trkpt lat="43.63885" lon="6.23114">
        <ele>612.1</ele>
        <time>2023-11-26T09:12:53.000Z</time>
      </trkpt>
      <trkpt lat="43.63889" lon="6.23114">
        <ele>612.1</ele>
        <time>2023-11-26T09:13:00.000Z</time>
      </trkpt>
      <trkpt lat="43.63892" lon="6.23112">
        <ele>612.2</ele>
        <time>2023-11-26T09:13:04.000Z</time>
      </trkpt>
      <trkpt lat="43.63896" lon="6.23111">
        <ele>612.3</ele>
        <time>2023-11-26T09:13:06.000Z</time>
      </trkpt>
      <trkpt lat="43.63899" lon="6.2311">
        <ele>612.5</ele>
        <time>2023-11-26T09:13:09.000Z</time>
      </trkpt>
      <trkpt lat="43.63903" lon="6.23111">
        <ele>612.7</ele>
        <time>2023-11-26T09:13:12.000Z</time>
      </trkpt>
      <trkpt lat="43.63907" lon="6.2311">
        <ele>612.8</ele>
        <time>2023-11-26T09:13:15.000Z</time>
      </trkpt>
      <trkpt lat="43.63911" lon="6.23111">
        <ele>613</ele>
        <time>2023-11-26T09:13:18.000Z</time>
      </trkpt>
      <trkpt lat="43.63915" lon="6.23111">
        <ele>613.3</ele>
        <time>2023-11-26T09:13:23.000Z</time>
      </trkpt>
      <trkpt lat="43.63916" lon="6.23111">
        <ele>613.4</ele>
        <time>2023-11-26T09:13:24.000Z</time>
      </trkpt>
      <trkpt lat="43.63923" lon="6.2311">
        <ele>613.8</ele>
        <time>2023-11-26T09:13:32.000Z</time>
      </trkpt>
      <trkpt lat="43.63927" lon="6.23111">
        <ele>614</ele>
        <time>2023-11-26T09:13:35.000Z</time>
      </trkpt>
      <trkpt lat="43.63931" lon="6.23111">
        <ele>614.1</ele>
        <time>2023-11-26T09:13:38.000Z</time>
      </trkpt>
      <trkpt lat="43.63935" lon="6.23112">
        <ele>614.3</ele>
        <time>2023-11-26T09:13:42.000Z</time>
      </trkpt>
      <trkpt lat="43.63938" lon="6.23113">
        <ele>614.5</ele>
        <time>2023-11-26T09:13:45.000Z</time>
      </trkpt>
      <trkpt lat="43.63942" lon="6.23113">
        <ele>614.7</ele>
        <time>2023-11-26T09:13:48.000Z</time>
      </trkpt>
      <trkpt lat="43.63946" lon="6.23114">
        <ele>615.1</ele>
        <time>2023-11-26T09:13:53.000Z</time>
      </trkpt>
      <trkpt lat="43.6395" lon="6.23116">
        <ele>615.4</ele>
        <time>2023-11-26T09:13:57.000Z</time>
      </trkpt>
      <trkpt lat="43.63954" lon="6.23117">
        <ele>615.6</ele>
        <time>2023-11-26T09:14:01.000Z</time>
      </trkpt>
      <trkpt lat="43.63958" lon="6.23118">
        <ele>615.7</ele>
        <time>2023-11-26T09:14:04.000Z</time>
      </trkpt>
      <trkpt lat="43.63961" lon="6.2312">
        <ele>615.9</ele>
        <time>2023-11-26T09:14:08.000Z</time>
      </trkpt>
      <trkpt lat="43.63964" lon="6.23121">
        <ele>616</ele>
        <time>2023-11-26T09:14:10.000Z</time>
      </trkpt>
      <trkpt lat="43.63968" lon="6.23121">
        <ele>616.1</ele>
        <time>2023-11-26T09:14:13.000Z</time>
      </trkpt>
      <trkpt lat="43.63972" lon="6.23122">
        <ele>616.2</ele>
        <time>2023-11-26T09:14:17.000Z</time>
      </trkpt>
      <trkpt lat="43.63976" lon="6.23124">
        <ele>616.3</ele>
        <time>2023-11-26T09:14:20.000Z</time>
      </trkpt>
      <trkpt lat="43.63979" lon="6.23125">
        <ele>616.3</ele>
        <time>2023-11-26T09:14:23.000Z</time>
      </trkpt>
      <trkpt lat="43.63983" lon="6.23127">
        <ele>616.4</ele>
        <time>2023-11-26T09:14:27.000Z</time>
      </trkpt>
      <trkpt lat="43.63985" lon="6.23127">
        <ele>616.4</ele>
        <time>2023-11-26T09:14:28.000Z</time>
      </trkpt>
      <trkpt lat="43.63991" lon="6.23129">
        <ele>616.4</ele>
        <time>2023-11-26T09:14:35.000Z</time>
      </trkpt>
      <trkpt lat="43.63994" lon="6.2313">
        <ele>616.5</ele>
        <time>2023-11-26T09:14:38.000Z</time>
      </trkpt>
      <trkpt lat="43.63999" lon="6.23132">
        <ele>616.5</ele>
        <time>2023-11-26T09:14:42.000Z</time>
      </trkpt>
      <trkpt lat="43.64002" lon="6.23135">
        <ele>616.5</ele>
        <time>2023-11-26T09:14:45.000Z</time>
      </trkpt>
      <trkpt lat="43.64006" lon="6.23136">
        <ele>616.5</ele>
        <time>2023-11-26T09:14:48.000Z</time>
      </trkpt>
      <trkpt lat="43.6401" lon="6.23137">
        <ele>616.5</ele>
        <time>2023-11-26T09:14:52.000Z</time>
      </trkpt>
      <trkpt lat="43.64014" lon="6.23139">
        <ele>616.5</ele>
        <time>2023-11-26T09:14:56.000Z</time>
      </trkpt>
      <trkpt lat="43.64018" lon="6.2314">
        <ele>616.5</ele>
        <time>2023-11-26T09:15:00.000Z</time>
      </trkpt>
      <trkpt lat="43.64022" lon="6.23141">
        <ele>616.5</ele>
        <time>2023-11-26T09:15:04.000Z</time>
      </trkpt>
      <trkpt lat="43.64026" lon="6.23142">
        <ele>616.5</ele>
        <time>2023-11-26T09:15:09.000Z</time>
      </trkpt>
      <trkpt lat="43.6403" lon="6.23142">
        <ele>616.6</ele>
        <time>2023-11-26T09:15:13.000Z</time>
      </trkpt>
      <trkpt lat="43.64035" lon="6.23143">
        <ele>616.6</ele>
        <time>2023-11-26T09:15:17.000Z</time>
      </trkpt>
      <trkpt lat="43.64038" lon="6.23144">
        <ele>616.6</ele>
        <time>2023-11-26T09:15:20.000Z</time>
      </trkpt>
      <trkpt lat="43.64041" lon="6.23144">
        <ele>616.7</ele>
        <time>2023-11-26T09:15:23.000Z</time>
      </trkpt>
      <trkpt lat="43.64046" lon="6.23144">
        <ele>616.8</ele>
        <time>2023-11-26T09:15:27.000Z</time>
      </trkpt>
      <trkpt lat="43.6405" lon="6.23146">
        <ele>617</ele>
        <time>2023-11-26T09:15:31.000Z</time>
      </trkpt>
      <trkpt lat="43.64051" lon="6.23146">
        <ele>617.1</ele>
        <time>2023-11-26T09:15:32.000Z</time>
      </trkpt>
      <trkpt lat="43.64057" lon="6.23149">
        <ele>617.6</ele>
        <time>2023-11-26T09:15:39.000Z</time>
      </trkpt>
      <trkpt lat="43.64062" lon="6.2315">
        <ele>617.8</ele>
        <time>2023-11-26T09:15:43.000Z</time>
      </trkpt>
      <trkpt lat="43.64066" lon="6.23152">
        <ele>618</ele>
        <time>2023-11-26T09:15:47.000Z</time>
      </trkpt>
      <trkpt lat="43.6407" lon="6.23154">
        <ele>618.2</ele>
        <time>2023-11-26T09:15:51.000Z</time>
      </trkpt>
      <trkpt lat="43.64073" lon="6.23156">
        <ele>618.4</ele>
        <time>2023-11-26T09:15:54.000Z</time>
      </trkpt>
      <trkpt lat="43.64077" lon="6.23158">
        <ele>618.7</ele>
        <time>2023-11-26T09:15:58.000Z</time>
      </trkpt>
      <trkpt lat="43.64081" lon="6.2316">
        <ele>619</ele>
        <time>2023-11-26T09:16:03.000Z</time>
      </trkpt>
      <trkpt lat="43.64084" lon="6.23162">
        <ele>619.1</ele>
        <time>2023-11-26T09:16:06.000Z</time>
      </trkpt>
      <trkpt lat="43.64087" lon="6.23163">
        <ele>619.2</ele>
        <time>2023-11-26T09:16:09.000Z</time>
      </trkpt>
      <trkpt lat="43.6409" lon="6.23165">
        <ele>619.3</ele>
        <time>2023-11-26T09:16:12.000Z</time>
      </trkpt>
      <trkpt lat="43.64094" lon="6.23168">
        <ele>619.4</ele>
        <time>2023-11-26T09:16:16.000Z</time>
      </trkpt>
      <trkpt lat="43.64097" lon="6.2317">
        <ele>619.5</ele>
        <time>2023-11-26T09:16:19.000Z</time>
      </trkpt>
      <trkpt lat="43.64101" lon="6.23171">
        <ele>619.6</ele>
        <time>2023-11-26T09:16:22.000Z</time>
      </trkpt>
      <trkpt lat="43.64105" lon="6.23173">
        <ele>619.9</ele>
        <time>2023-11-26T09:16:27.000Z</time>
      </trkpt>
      <trkpt lat="43.64109" lon="6.23171">
        <ele>620.2</ele>
        <time>2023-11-26T09:16:32.000Z</time>
      </trkpt>
      <trkpt lat="43.6411" lon="6.23171">
        <ele>620.2</ele>
        <time>2023-11-26T09:16:33.000Z</time>
      </trkpt>
      <trkpt lat="43.64117" lon="6.23172">
        <ele>620.6</ele>
        <time>2023-11-26T09:16:40.000Z</time>
      </trkpt>
      <trkpt lat="43.6412" lon="6.23174">
        <ele>620.7</ele>
        <time>2023-11-26T09:16:43.000Z</time>
      </trkpt>
      <trkpt lat="43.64124" lon="6.23176">
        <ele>620.8</ele>
        <time>2023-11-26T09:16:47.000Z</time>
      </trkpt>
      <trkpt lat="43.64128" lon="6.2318">
        <ele>621.1</ele>
        <time>2023-11-26T09:16:51.000Z</time>
      </trkpt>
      <trkpt lat="43.64131" lon="6.23183">
        <ele>621.3</ele>
        <time>2023-11-26T09:16:55.000Z</time>
      </trkpt>
      <trkpt lat="43.64134" lon="6.23186">
        <ele>621.6</ele>
        <time>2023-11-26T09:16:58.000Z</time>
      </trkpt>
      <trkpt lat="43.64136" lon="6.23189">
        <ele>621.8</ele>
        <time>2023-11-26T09:17:01.000Z</time>
      </trkpt>
      <trkpt lat="43.6414" lon="6.23193">
        <ele>622.1</ele>
        <time>2023-11-26T09:17:05.000Z</time>
      </trkpt>
      <trkpt lat="43.64143" lon="6.23196">
        <ele>622.4</ele>
        <time>2023-11-26T09:17:09.000Z</time>
      </trkpt>
      <trkpt lat="43.64147" lon="6.23199">
        <ele>622.6</ele>
        <time>2023-11-26T09:17:13.000Z</time>
      </trkpt>
      <trkpt lat="43.6415" lon="6.23202">
        <ele>622.8</ele>
        <time>2023-11-26T09:17:17.000Z</time>
      </trkpt>
      <trkpt lat="43.64152" lon="6.23207">
        <ele>623</ele>
        <time>2023-11-26T09:17:21.000Z</time>
      </trkpt>
      <trkpt lat="43.64156" lon="6.23211">
        <ele>623.2</ele>
        <time>2023-11-26T09:17:25.000Z</time>
      </trkpt>
      <trkpt lat="43.64159" lon="6.23215">
        <ele>623.6</ele>
        <time>2023-11-26T09:17:29.000Z</time>
      </trkpt>
      <trkpt lat="43.64161" lon="6.2322">
        <ele>623.9</ele>
        <time>2023-11-26T09:17:33.000Z</time>
      </trkpt>
      <trkpt lat="43.64162" lon="6.23221">
        <ele>624</ele>
        <time>2023-11-26T09:17:34.000Z</time>
      </trkpt>
      <trkpt lat="43.64166" lon="6.23229">
        <ele>624.8</ele>
        <time>2023-11-26T09:17:42.000Z</time>
      </trkpt>
      <trkpt lat="43.64168" lon="6.23234">
        <ele>626.6</ele>
        <time>2023-11-26T09:20:23.000Z</time>
      </trkpt>
      <trkpt lat="43.64168" lon="6.23235">
        <ele>626.6</ele>
        <time>2023-11-26T09:20:24.000Z</time>
      </trkpt>
      <trkpt lat="43.64174" lon="6.23242">
        <ele>626.6</ele>
        <time>2023-11-26T09:20:49.000Z</time>
      </trkpt>
      <trkpt lat="43.64176" lon="6.23246">
        <ele>626.7</ele>
        <time>2023-11-26T09:20:53.000Z</time>
      </trkpt>
      <trkpt lat="43.64179" lon="6.23251">
        <ele>626.7</ele>
        <time>2023-11-26T09:20:57.000Z</time>
      </trkpt>
      <trkpt lat="43.64182" lon="6.23255">
        <ele>626.7</ele>
        <time>2023-11-26T09:21:01.000Z</time>
      </trkpt>
      <trkpt lat="43.64184" lon="6.23259">
        <ele>626.9</ele>
        <time>2023-11-26T09:21:05.000Z</time>
      </trkpt>
      <trkpt lat="43.64187" lon="6.23263">
        <ele>627</ele>
        <time>2023-11-26T09:21:09.000Z</time>
      </trkpt>
      <trkpt lat="43.64189" lon="6.23267">
        <ele>627.1</ele>
        <time>2023-11-26T09:21:12.000Z</time>
      </trkpt>
      <trkpt lat="43.64192" lon="6.2327">
        <ele>627.3</ele>
        <time>2023-11-26T09:21:15.000Z</time>
      </trkpt>
      <trkpt lat="43.64195" lon="6.23274">
        <ele>627.4</ele>
        <time>2023-11-26T09:21:19.000Z</time>
      </trkpt>
      <trkpt lat="43.64198" lon="6.23277">
        <ele>627.6</ele>
        <time>2023-11-26T09:21:23.000Z</time>
      </trkpt>
      <trkpt lat="43.64201" lon="6.23281">
        <ele>627.7</ele>
        <time>2023-11-26T09:21:26.000Z</time>
      </trkpt>
      <trkpt lat="43.64202" lon="6.23282">
        <ele>627.8</ele>
        <time>2023-11-26T09:21:27.000Z</time>
      </trkpt>
      <trkpt lat="43.64207" lon="6.23287">
        <ele>628</ele>
        <time>2023-11-26T09:21:33.000Z</time>
      </trkpt>
      <trkpt lat="43.64211" lon="6.23289">
        <ele>628</ele>
        <time>2023-11-26T09:21:36.000Z</time>
      </trkpt>
      <trkpt lat="43.64215" lon="6.23291">
        <ele>628.1</ele>
        <time>2023-11-26T09:21:40.000Z</time>
      </trkpt>
      <trkpt lat="43.64219" lon="6.23294">
        <ele>628.1</ele>
        <time>2023-11-26T09:21:44.000Z</time>
      </trkpt>
      <trkpt lat="43.64223" lon="6.23296">
        <ele>628.2</ele>
        <time>2023-11-26T09:21:48.000Z</time>
      </trkpt>
      <trkpt lat="43.64227" lon="6.23297">
        <ele>628.1</ele>
        <time>2023-11-26T09:21:52.000Z</time>
      </trkpt>
      <trkpt lat="43.64231" lon="6.23298">
        <ele>627.9</ele>
        <time>2023-11-26T09:21:56.000Z</time>
      </trkpt>
      <trkpt lat="43.64235" lon="6.23299">
        <ele>627.8</ele>
        <time>2023-11-26T09:22:00.000Z</time>
      </trkpt>
      <trkpt lat="43.64238" lon="6.23299">
        <ele>627.7</ele>
        <time>2023-11-26T09:22:03.000Z</time>
      </trkpt>
      <trkpt lat="43.64241" lon="6.233">
        <ele>627.5</ele>
        <time>2023-11-26T09:22:06.000Z</time>
      </trkpt>
      <trkpt lat="43.64245" lon="6.23302">
        <ele>627.3</ele>
        <time>2023-11-26T09:22:09.000Z</time>
      </trkpt>
      <trkpt lat="43.64249" lon="6.23304">
        <ele>627.2</ele>
        <time>2023-11-26T09:22:12.000Z</time>
      </trkpt>
      <trkpt lat="43.64252" lon="6.23307">
        <ele>627.1</ele>
        <time>2023-11-26T09:22:15.000Z</time>
      </trkpt>
      <trkpt lat="43.64256" lon="6.23309">
        <ele>626.8</ele>
        <time>2023-11-26T09:22:19.000Z</time>
      </trkpt>
      <trkpt lat="43.64259" lon="6.23312">
        <ele>626.5</ele>
        <time>2023-11-26T09:22:23.000Z</time>
      </trkpt>
      <trkpt lat="43.64262" lon="6.23316">
        <ele>626.3</ele>
        <time>2023-11-26T09:22:26.000Z</time>
      </trkpt>
      <trkpt lat="43.64265" lon="6.2332">
        <ele>626</ele>
        <time>2023-11-26T09:22:30.000Z</time>
      </trkpt>
      <trkpt lat="43.64266" lon="6.23321">
        <ele>625.9</ele>
        <time>2023-11-26T09:22:31.000Z</time>
      </trkpt>
      <trkpt lat="43.6427" lon="6.23328">
        <ele>625.4</ele>
        <time>2023-11-26T09:22:38.000Z</time>
      </trkpt>
      <trkpt lat="43.64273" lon="6.23333">
        <ele>625.2</ele>
        <time>2023-11-26T09:22:42.000Z</time>
      </trkpt>
      <trkpt lat="43.64275" lon="6.23337">
        <ele>625</ele>
        <time>2023-11-26T09:22:45.000Z</time>
      </trkpt>
      <trkpt lat="43.64277" lon="6.23341">
        <ele>624.9</ele>
        <time>2023-11-26T09:22:48.000Z</time>
      </trkpt>
      <trkpt lat="43.6428" lon="6.23346">
        <ele>624.7</ele>
        <time>2023-11-26T09:22:52.000Z</time>
      </trkpt>
      <trkpt lat="43.64282" lon="6.23351">
        <ele>624.6</ele>
        <time>2023-11-26T09:22:56.000Z</time>
      </trkpt>
      <trkpt lat="43.64285" lon="6.23356">
        <ele>624.5</ele>
        <time>2023-11-26T09:23:00.000Z</time>
      </trkpt>
      <trkpt lat="43.64287" lon="6.23359">
        <ele>624.5</ele>
        <time>2023-11-26T09:23:03.000Z</time>
      </trkpt>
      <trkpt lat="43.6429" lon="6.23363">
        <ele>624.4</ele>
        <time>2023-11-26T09:23:06.000Z</time>
      </trkpt>
      <trkpt lat="43.64292" lon="6.23367">
        <ele>624.4</ele>
        <time>2023-11-26T09:23:09.000Z</time>
      </trkpt>
      <trkpt lat="43.64294" lon="6.23372">
        <ele>624.3</ele>
        <time>2023-11-26T09:23:13.000Z</time>
      </trkpt>
      <trkpt lat="43.64296" lon="6.23377">
        <ele>624.2</ele>
        <time>2023-11-26T09:23:17.000Z</time>
      </trkpt>
      <trkpt lat="43.64298" lon="6.23382">
        <ele>624.1</ele>
        <time>2023-11-26T09:23:21.000Z</time>
      </trkpt>
      <trkpt lat="43.64301" lon="6.23387">
        <ele>623.9</ele>
        <time>2023-11-26T09:23:25.000Z</time>
      </trkpt>
      <trkpt lat="43.64303" lon="6.23391">
        <ele>623.8</ele>
        <time>2023-11-26T09:23:28.000Z</time>
      </trkpt>
      <trkpt lat="43.64305" lon="6.23396">
        <ele>623.7</ele>
        <time>2023-11-26T09:23:32.000Z</time>
      </trkpt>
      <trkpt lat="43.64305" lon="6.23398">
        <ele>623.7</ele>
        <time>2023-11-26T09:23:33.000Z</time>
      </trkpt>
      <trkpt lat="43.64307" lon="6.23408">
        <ele>623.4</ele>
        <time>2023-11-26T09:23:40.000Z</time>
      </trkpt>
      <trkpt lat="43.64307" lon="6.23413">
        <ele>623.2</ele>
        <time>2023-11-26T09:23:44.000Z</time>
      </trkpt>
      <trkpt lat="43.64308" lon="6.23419">
        <ele>622.3</ele>
        <time>2023-11-26T09:23:56.000Z</time>
      </trkpt>
      <trkpt lat="43.64309" lon="6.23424">
        <ele>621.6</ele>
        <time>2023-11-26T09:24:05.000Z</time>
      </trkpt>
      <trkpt lat="43.64309" lon="6.2343">
        <ele>621.3</ele>
        <time>2023-11-26T09:24:10.000Z</time>
      </trkpt>
      <trkpt lat="43.64309" lon="6.23436">
        <ele>621</ele>
        <time>2023-11-26T09:24:15.000Z</time>
      </trkpt>
      <trkpt lat="43.64309" lon="6.23441">
        <ele>620.7</ele>
        <time>2023-11-26T09:24:19.000Z</time>
      </trkpt>
      <trkpt lat="43.6431" lon="6.23447">
        <ele>620.3</ele>
        <time>2023-11-26T09:24:23.000Z</time>
      </trkpt>
      <trkpt lat="43.6431" lon="6.23451">
        <ele>619.9</ele>
        <time>2023-11-26T09:24:26.000Z</time>
      </trkpt>
      <trkpt lat="43.64311" lon="6.23456">
        <ele>619.6</ele>
        <time>2023-11-26T09:24:29.000Z</time>
      </trkpt>
      <trkpt lat="43.64312" lon="6.23461">
        <ele>619.3</ele>
        <time>2023-11-26T09:24:32.000Z</time>
      </trkpt>
      <trkpt lat="43.64314" lon="6.23466">
        <ele>619.1</ele>
        <time>2023-11-26T09:24:35.000Z</time>
      </trkpt>
      <trkpt lat="43.64314" lon="6.23467">
        <ele>619</ele>
        <time>2023-11-26T09:24:36.000Z</time>
      </trkpt>
      <trkpt lat="43.64313" lon="6.23476">
        <ele>618.7</ele>
        <time>2023-11-26T09:24:41.000Z</time>
      </trkpt>
      <trkpt lat="43.64313" lon="6.23481">
        <ele>618.5</ele>
        <time>2023-11-26T09:24:44.000Z</time>
      </trkpt>
      <trkpt lat="43.64314" lon="6.23486">
        <ele>618.2</ele>
        <time>2023-11-26T09:24:48.000Z</time>
      </trkpt>
      <trkpt lat="43.64314" lon="6.23492">
        <ele>618</ele>
        <time>2023-11-26T09:24:52.000Z</time>
      </trkpt>
      <trkpt lat="43.64315" lon="6.23498">
        <ele>617.8</ele>
        <time>2023-11-26T09:24:56.000Z</time>
      </trkpt>
      <trkpt lat="43.64316" lon="6.23503">
        <ele>617.6</ele>
        <time>2023-11-26T09:25:00.000Z</time>
      </trkpt>
      <trkpt lat="43.64316" lon="6.23509">
        <ele>617.5</ele>
        <time>2023-11-26T09:25:04.000Z</time>
      </trkpt>
      <trkpt lat="43.64316" lon="6.23514">
        <ele>617.3</ele>
        <time>2023-11-26T09:25:09.000Z</time>
      </trkpt>
      <trkpt lat="43.64317" lon="6.2352">
        <ele>616.9</ele>
        <time>2023-11-26T09:25:14.000Z</time>
      </trkpt>
      <trkpt lat="43.64318" lon="6.23525">
        <ele>616.4</ele>
        <time>2023-11-26T09:25:19.000Z</time>
      </trkpt>
      <trkpt lat="43.64318" lon="6.2353">
        <ele>616.1</ele>
        <time>2023-11-26T09:25:23.000Z</time>
      </trkpt>
      <trkpt lat="43.64319" lon="6.23536">
        <ele>615.8</ele>
        <time>2023-11-26T09:25:28.000Z</time>
      </trkpt>
      <trkpt lat="43.64319" lon="6.23542">
        <ele>615.6</ele>
        <time>2023-11-26T09:25:33.000Z</time>
      </trkpt>
      <trkpt lat="43.6432" lon="6.23548">
        <ele>615.4</ele>
        <time>2023-11-26T09:25:37.000Z</time>
      </trkpt>
      <trkpt lat="43.6432" lon="6.23549">
        <ele>615.4</ele>
        <time>2023-11-26T09:25:38.000Z</time>
      </trkpt>
      <trkpt lat="43.64321" lon="6.23559">
        <ele>615.2</ele>
        <time>2023-11-26T09:25:43.000Z</time>
      </trkpt>
      <trkpt lat="43.64321" lon="6.23565">
        <ele>614.9</ele>
        <time>2023-11-26T09:25:47.000Z</time>
      </trkpt>
      <trkpt lat="43.64321" lon="6.23571">
        <ele>614.7</ele>
        <time>2023-11-26T09:25:50.000Z</time>
      </trkpt>
      <trkpt lat="43.64322" lon="6.23576">
        <ele>614.5</ele>
        <time>2023-11-26T09:25:53.000Z</time>
      </trkpt>
      <trkpt lat="43.64323" lon="6.23582">
        <ele>614.2</ele>
        <time>2023-11-26T09:25:56.000Z</time>
      </trkpt>
      <trkpt lat="43.64324" lon="6.23587">
        <ele>614</ele>
        <time>2023-11-26T09:25:59.000Z</time>
      </trkpt>
      <trkpt lat="43.64325" lon="6.23592">
        <ele>613.8</ele>
        <time>2023-11-26T09:26:02.000Z</time>
      </trkpt>
      <trkpt lat="43.64326" lon="6.23597">
        <ele>613.5</ele>
        <time>2023-11-26T09:26:06.000Z</time>
      </trkpt>
      <trkpt lat="43.64327" lon="6.23602">
        <ele>613.4</ele>
        <time>2023-11-26T09:26:09.000Z</time>
      </trkpt>
      <trkpt lat="43.64328" lon="6.23608">
        <ele>613.2</ele>
        <time>2023-11-26T09:26:12.000Z</time>
      </trkpt>
      <trkpt lat="43.64329" lon="6.23614">
        <ele>613.1</ele>
        <time>2023-11-26T09:26:16.000Z</time>
      </trkpt>
      <trkpt lat="43.6433" lon="6.23619">
        <ele>613</ele>
        <time>2023-11-26T09:26:19.000Z</time>
      </trkpt>
      <trkpt lat="43.64331" lon="6.23624">
        <ele>612.9</ele>
        <time>2023-11-26T09:26:22.000Z</time>
      </trkpt>
      <trkpt lat="43.64332" lon="6.23628">
        <ele>612.9</ele>
        <time>2023-11-26T09:26:25.000Z</time>
      </trkpt>
      <trkpt lat="43.64333" lon="6.23633">
        <ele>612.8</ele>
        <time>2023-11-26T09:26:28.000Z</time>
      </trkpt>
      <trkpt lat="43.64334" lon="6.23637">
        <ele>612.8</ele>
        <time>2023-11-26T09:26:31.000Z</time>
      </trkpt>
      <trkpt lat="43.64336" lon="6.23641">
        <ele>612.8</ele>
        <time>2023-11-26T09:26:34.000Z</time>
      </trkpt>
      <trkpt lat="43.64338" lon="6.23646">
        <ele>612.8</ele>
        <time>2023-11-26T09:26:37.000Z</time>
      </trkpt>
      <trkpt lat="43.64339" lon="6.23651">
        <ele>612.8</ele>
        <time>2023-11-26T09:26:41.000Z</time>
      </trkpt>
      <trkpt lat="43.6434" lon="6.23652">
        <ele>612.8</ele>
        <time>2023-11-26T09:26:42.000Z</time>
      </trkpt>
      <trkpt lat="43.64345" lon="6.23658">
        <ele>612.8</ele>
        <time>2023-11-26T09:26:48.000Z</time>
      </trkpt>
      <trkpt lat="43.64348" lon="6.23662">
        <ele>612.9</ele>
        <time>2023-11-26T09:26:52.000Z</time>
      </trkpt>
      <trkpt lat="43.64352" lon="6.23666">
        <ele>612.9</ele>
        <time>2023-11-26T09:26:56.000Z</time>
      </trkpt>
      <trkpt lat="43.64355" lon="6.23669">
        <ele>612.9</ele>
        <time>2023-11-26T09:27:01.000Z</time>
      </trkpt>
      <trkpt lat="43.64358" lon="6.23672">
        <ele>613</ele>
        <time>2023-11-26T09:27:05.000Z</time>
      </trkpt>
      <trkpt lat="43.64361" lon="6.23675">
        <ele>613</ele>
        <time>2023-11-26T09:27:08.000Z</time>
      </trkpt>
      <trkpt lat="43.64365" lon="6.23677">
        <ele>613</ele>
        <time>2023-11-26T09:27:11.000Z</time>
      </trkpt>
      <trkpt lat="43.64369" lon="6.23679">
        <ele>613</ele>
        <time>2023-11-26T09:27:14.000Z</time>
      </trkpt>
      <trkpt lat="43.64372" lon="6.23682">
        <ele>613</ele>
        <time>2023-11-26T09:27:17.000Z</time>
      </trkpt>
      <trkpt lat="43.64375" lon="6.23683">
        <ele>613</ele>
        <time>2023-11-26T09:27:19.000Z</time>
      </trkpt>
      <trkpt lat="43.64379" lon="6.23683">
        <ele>612.9</ele>
        <time>2023-11-26T09:27:22.000Z</time>
      </trkpt>
      <trkpt lat="43.64383" lon="6.23684">
        <ele>612.9</ele>
        <time>2023-11-26T09:27:26.000Z</time>
      </trkpt>
      <trkpt lat="43.64387" lon="6.23686">
        <ele>612.8</ele>
        <time>2023-11-26T09:27:30.000Z</time>
      </trkpt>
      <trkpt lat="43.64391" lon="6.23687">
        <ele>612.8</ele>
        <time>2023-11-26T09:27:34.000Z</time>
      </trkpt>
      <trkpt lat="43.64395" lon="6.23689">
        <ele>612.6</ele>
        <time>2023-11-26T09:27:38.000Z</time>
      </trkpt>
      <trkpt lat="43.64399" lon="6.2369">
        <ele>612.5</ele>
        <time>2023-11-26T09:27:41.000Z</time>
      </trkpt>
      <trkpt lat="43.64404" lon="6.23692">
        <ele>612.4</ele>
        <time>2023-11-26T09:27:45.000Z</time>
      </trkpt>
      <trkpt lat="43.64404" lon="6.23692">
        <ele>612.3</ele>
        <time>2023-11-26T09:27:46.000Z</time>
      </trkpt>
      <trkpt lat="43.64411" lon="6.23695">
        <ele>612.1</ele>
        <time>2023-11-26T09:27:58.000Z</time>
      </trkpt>
      <trkpt lat="43.64415" lon="6.23692">
        <ele>612</ele>
        <time>2023-11-26T09:28:05.000Z</time>
      </trkpt>
      <trkpt lat="43.64419" lon="6.23691">
        <ele>611.3</ele>
        <time>2023-11-26T09:28:45.000Z</time>
      </trkpt>
      <trkpt lat="43.64422" lon="6.23693">
        <ele>611.2</ele>
        <time>2023-11-26T09:28:49.000Z</time>
      </trkpt>
      <trkpt lat="43.64423" lon="6.23694">
        <ele>611.2</ele>
        <time>2023-11-26T09:28:50.000Z</time>
      </trkpt>
      <trkpt lat="43.64428" lon="6.237">
        <ele>611.2</ele>
        <time>2023-11-26T09:28:55.000Z</time>
      </trkpt>
      <trkpt lat="43.64432" lon="6.23703">
        <ele>611.1</ele>
        <time>2023-11-26T09:28:59.000Z</time>
      </trkpt>
      <trkpt lat="43.64436" lon="6.23706">
        <ele>611.1</ele>
        <time>2023-11-26T09:29:03.000Z</time>
      </trkpt>
      <trkpt lat="43.64438" lon="6.2371">
        <ele>610.6</ele>
        <time>2023-11-26T09:29:09.000Z</time>
      </trkpt>
      <trkpt lat="43.64441" lon="6.23713">
        <ele>610.4</ele>
        <time>2023-11-26T09:29:12.000Z</time>
      </trkpt>
      <trkpt lat="43.64443" lon="6.23718">
        <ele>610.1</ele>
        <time>2023-11-26T09:29:16.000Z</time>
      </trkpt>
      <trkpt lat="43.64445" lon="6.23724">
        <ele>610</ele>
        <time>2023-11-26T09:29:20.000Z</time>
      </trkpt>
      <trkpt lat="43.64448" lon="6.23729">
        <ele>609.8</ele>
        <time>2023-11-26T09:29:24.000Z</time>
      </trkpt>
      <trkpt lat="43.64449" lon="6.23734">
        <ele>609.8</ele>
        <time>2023-11-26T09:29:29.000Z</time>
      </trkpt>
      <trkpt lat="43.64451" lon="6.23739">
        <ele>609.8</ele>
        <time>2023-11-26T09:29:33.000Z</time>
      </trkpt>
      <trkpt lat="43.64453" lon="6.23743">
        <ele>609.8</ele>
        <time>2023-11-26T09:29:37.000Z</time>
      </trkpt>
      <trkpt lat="43.64456" lon="6.23747">
        <ele>609.8</ele>
        <time>2023-11-26T09:29:44.000Z</time>
      </trkpt>
      <trkpt lat="43.6446" lon="6.2375">
        <ele>609.8</ele>
        <time>2023-11-26T09:29:49.000Z</time>
      </trkpt>
      <trkpt lat="43.64463" lon="6.23753">
        <ele>610</ele>
        <time>2023-11-26T09:29:54.000Z</time>
      </trkpt>
      <trkpt lat="43.64464" lon="6.23754">
        <ele>610</ele>
        <time>2023-11-26T09:29:55.000Z</time>
      </trkpt>
      <trkpt lat="43.64468" lon="6.23761">
        <ele>610.3</ele>
        <time>2023-11-26T09:30:01.000Z</time>
      </trkpt>
      <trkpt lat="43.6447" lon="6.23766">
        <ele>610.4</ele>
        <time>2023-11-26T09:30:05.000Z</time>
      </trkpt>
      <trkpt lat="43.64472" lon="6.23771">
        <ele>610.6</ele>
        <time>2023-11-26T09:30:09.000Z</time>
      </trkpt>
      <trkpt lat="43.64475" lon="6.23775">
        <ele>610.8</ele>
        <time>2023-11-26T09:30:13.000Z</time>
      </trkpt>
      <trkpt lat="43.64477" lon="6.23779">
        <ele>611.2</ele>
        <time>2023-11-26T09:30:17.000Z</time>
      </trkpt>
      <trkpt lat="43.64479" lon="6.23785">
        <ele>611.6</ele>
        <time>2023-11-26T09:30:22.000Z</time>
      </trkpt>
      <trkpt lat="43.6448" lon="6.2379">
        <ele>612.1</ele>
        <time>2023-11-26T09:30:27.000Z</time>
      </trkpt>
      <trkpt lat="43.64478" lon="6.23796">
        <ele>612.6</ele>
        <time>2023-11-26T09:30:34.000Z</time>
      </trkpt>
      <trkpt lat="43.64478" lon="6.23802">
        <ele>613.2</ele>
        <time>2023-11-26T09:30:42.000Z</time>
      </trkpt>
      <trkpt lat="43.64476" lon="6.23807">
        <ele>614.1</ele>
        <time>2023-11-26T09:30:53.000Z</time>
      </trkpt>
      <trkpt lat="43.64472" lon="6.23809">
        <ele>614.7</ele>
        <time>2023-11-26T09:30:58.000Z</time>
      </trkpt>
      <trkpt lat="43.6447" lon="6.23809">
        <ele>614.8</ele>
        <time>2023-11-26T09:30:59.000Z</time>
      </trkpt>
      <trkpt lat="43.64464" lon="6.23809">
        <ele>615.5</ele>
        <time>2023-11-26T09:31:06.000Z</time>
      </trkpt>
      <trkpt lat="43.6446" lon="6.23807">
        <ele>615.8</ele>
        <time>2023-11-26T09:31:11.000Z</time>
      </trkpt>
      <trkpt lat="43.64456" lon="6.23805">
        <ele>616.1</ele>
        <time>2023-11-26T09:31:16.000Z</time>
      </trkpt>
      <trkpt lat="43.64452" lon="6.23803">
        <ele>616.3</ele>
        <time>2023-11-26T09:31:20.000Z</time>
      </trkpt>
      <trkpt lat="43.64449" lon="6.23802">
        <ele>616.5</ele>
        <time>2023-11-26T09:31:24.000Z</time>
      </trkpt>
      <trkpt lat="43.64445" lon="6.23802">
        <ele>616.6</ele>
        <time>2023-11-26T09:31:28.000Z</time>
      </trkpt>
      <trkpt lat="43.6444" lon="6.23802">
        <ele>616.8</ele>
        <time>2023-11-26T09:31:33.000Z</time>
      </trkpt>
      <trkpt lat="43.64436" lon="6.23802">
        <ele>617.2</ele>
        <time>2023-11-26T09:31:39.000Z</time>
      </trkpt>
      <trkpt lat="43.64432" lon="6.23802">
        <ele>617.3</ele>
        <time>2023-11-26T09:31:43.000Z</time>
      </trkpt>
      <trkpt lat="43.64428" lon="6.23804">
        <ele>617.5</ele>
        <time>2023-11-26T09:31:47.000Z</time>
      </trkpt>
      <trkpt lat="43.64424" lon="6.23806">
        <ele>617.6</ele>
        <time>2023-11-26T09:31:51.000Z</time>
      </trkpt>
      <trkpt lat="43.6442" lon="6.23808">
        <ele>617.7</ele>
        <time>2023-11-26T09:31:55.000Z</time>
      </trkpt>
      <trkpt lat="43.64416" lon="6.23808">
        <ele>617.7</ele>
        <time>2023-11-26T09:31:59.000Z</time>
      </trkpt>
      <trkpt lat="43.64415" lon="6.23809">
        <ele>617.7</ele>
        <time>2023-11-26T09:32:00.000Z</time>
      </trkpt>
      <trkpt lat="43.64409" lon="6.23812">
        <ele>618</ele>
        <time>2023-11-26T09:32:06.000Z</time>
      </trkpt>
      <trkpt lat="43.64406" lon="6.23815">
        <ele>618.2</ele>
        <time>2023-11-26T09:32:10.000Z</time>
      </trkpt>
      <trkpt lat="43.64403" lon="6.23819">
        <ele>618.4</ele>
        <time>2023-11-26T09:32:14.000Z</time>
      </trkpt>
      <trkpt lat="43.644" lon="6.23823">
        <ele>618.7</ele>
        <time>2023-11-26T09:32:19.000Z</time>
      </trkpt>
      <trkpt lat="43.64398" lon="6.23826">
        <ele>618.9</ele>
        <time>2023-11-26T09:32:22.000Z</time>
      </trkpt>
      <trkpt lat="43.64394" lon="6.23828">
        <ele>619.1</ele>
        <time>2023-11-26T09:32:25.000Z</time>
      </trkpt>
      <trkpt lat="43.64391" lon="6.23831">
        <ele>619.2</ele>
        <time>2023-11-26T09:32:28.000Z</time>
      </trkpt>
      <trkpt lat="43.64387" lon="6.23834">
        <ele>619.5</ele>
        <time>2023-11-26T09:32:32.000Z</time>
      </trkpt>
      <trkpt lat="43.64384" lon="6.23838">
        <ele>619.7</ele>
        <time>2023-11-26T09:32:35.000Z</time>
      </trkpt>
      <trkpt lat="43.64381" lon="6.23841">
        <ele>619.8</ele>
        <time>2023-11-26T09:32:38.000Z</time>
      </trkpt>
      <trkpt lat="43.64379" lon="6.23846">
        <ele>620</ele>
        <time>2023-11-26T09:32:42.000Z</time>
      </trkpt>
      <trkpt lat="43.64375" lon="6.23848">
        <ele>620.1</ele>
        <time>2023-11-26T09:32:46.000Z</time>
      </trkpt>
      <trkpt lat="43.64372" lon="6.23852">
        <ele>620.2</ele>
        <time>2023-11-26T09:32:50.000Z</time>
      </trkpt>
      <trkpt lat="43.64369" lon="6.23856">
        <ele>620.3</ele>
        <time>2023-11-26T09:32:54.000Z</time>
      </trkpt>
      <trkpt lat="43.64365" lon="6.23859">
        <ele>620.4</ele>
        <time>2023-11-26T09:32:58.000Z</time>
      </trkpt>
      <trkpt lat="43.64362" lon="6.23862">
        <ele>620.5</ele>
        <time>2023-11-26T09:33:02.000Z</time>
      </trkpt>
      <trkpt lat="43.64361" lon="6.23863">
        <ele>620.6</ele>
        <time>2023-11-26T09:33:03.000Z</time>
      </trkpt>
      <trkpt lat="43.64355" lon="6.23867">
        <ele>621</ele>
        <time>2023-11-26T09:33:10.000Z</time>
      </trkpt>
      <trkpt lat="43.64352" lon="6.23871">
        <ele>621.2</ele>
        <time>2023-11-26T09:33:13.000Z</time>
      </trkpt>
      <trkpt lat="43.64349" lon="6.23873">
        <ele>621.3</ele>
        <time>2023-11-26T09:33:17.000Z</time>
      </trkpt>
      <trkpt lat="43.64345" lon="6.23876">
        <ele>621.4</ele>
        <time>2023-11-26T09:33:21.000Z</time>
      </trkpt>
      <trkpt lat="43.64342" lon="6.23878">
        <ele>621.5</ele>
        <time>2023-11-26T09:33:24.000Z</time>
      </trkpt>
      <trkpt lat="43.64339" lon="6.2388">
        <ele>621.6</ele>
        <time>2023-11-26T09:33:27.000Z</time>
      </trkpt>
      <trkpt lat="43.64336" lon="6.23884">
        <ele>621.7</ele>
        <time>2023-11-26T09:33:30.000Z</time>
      </trkpt>
      <trkpt lat="43.64333" lon="6.23887">
        <ele>621.9</ele>
        <time>2023-11-26T09:33:33.000Z</time>
      </trkpt>
      <trkpt lat="43.6433" lon="6.23891">
        <ele>622.1</ele>
        <time>2023-11-26T09:33:37.000Z</time>
      </trkpt>
      <trkpt lat="43.64328" lon="6.23895">
        <ele>622.3</ele>
        <time>2023-11-26T09:33:40.000Z</time>
      </trkpt>
      <trkpt lat="43.64326" lon="6.23899">
        <ele>622.5</ele>
        <time>2023-11-26T09:33:43.000Z</time>
      </trkpt>
      <trkpt lat="43.64324" lon="6.23903">
        <ele>622.6</ele>
        <time>2023-11-26T09:33:46.000Z</time>
      </trkpt>
      <trkpt lat="43.64321" lon="6.23908">
        <ele>622.9</ele>
        <time>2023-11-26T09:33:51.000Z</time>
      </trkpt>
      <trkpt lat="43.64319" lon="6.23913">
        <ele>623.1</ele>
        <time>2023-11-26T09:33:56.000Z</time>
      </trkpt>
      <trkpt lat="43.64317" lon="6.23918">
        <ele>623.3</ele>
        <time>2023-11-26T09:34:01.000Z</time>
      </trkpt>
      <trkpt lat="43.64319" lon="6.23923">
        <ele>623.9</ele>
        <time>2023-11-26T09:34:24.000Z</time>
      </trkpt>
      <trkpt lat="43.6432" lon="6.23924">
        <ele>623.9</ele>
        <time>2023-11-26T09:34:25.000Z</time>
      </trkpt>
      <trkpt lat="43.64318" lon="6.2393">
        <ele>624.3</ele>
        <time>2023-11-26T09:36:03.000Z</time>
      </trkpt>
      <trkpt lat="43.64318" lon="6.2393">
        <ele>624.3</ele>
        <time>2023-11-26T09:36:04.000Z</time>
      </trkpt>
      <trkpt lat="43.64318" lon="6.23929">
        <ele>624.5</ele>
        <time>2023-11-26T09:36:35.000Z</time>
      </trkpt>
      <trkpt lat="43.64318" lon="6.23923">
        <ele>624.8</ele>
        <time>2023-11-26T09:37:58.000Z</time>
      </trkpt>
      <trkpt lat="43.64318" lon="6.23923">
        <ele>624.8</ele>
        <time>2023-11-26T09:37:59.000Z</time>
      </trkpt>
      <trkpt lat="43.64315" lon="6.23919">
        <ele>624.9</ele>
        <time>2023-11-26T09:39:14.000Z</time>
      </trkpt>
      <trkpt lat="43.64316" lon="6.23926">
        <ele>624.8</ele>
        <time>2023-11-26T09:40:20.000Z</time>
      </trkpt>
      <trkpt lat="43.6431" lon="6.23932">
        <ele>624.8</ele>
        <time>2023-11-26T09:40:49.000Z</time>
      </trkpt>
      <trkpt lat="43.64306" lon="6.23934">
        <ele>624.8</ele>
        <time>2023-11-26T09:40:54.000Z</time>
      </trkpt>
      <trkpt lat="43.64302" lon="6.23936">
        <ele>624.8</ele>
        <time>2023-11-26T09:40:59.000Z</time>
      </trkpt>
      <trkpt lat="43.64298" lon="6.23938">
        <ele>624.8</ele>
        <time>2023-11-26T09:41:04.000Z</time>
      </trkpt>
      <trkpt lat="43.64294" lon="6.2394">
        <ele>624.8</ele>
        <time>2023-11-26T09:41:09.000Z</time>
      </trkpt>
      <trkpt lat="43.6429" lon="6.23942">
        <ele>624.9</ele>
        <time>2023-11-26T09:41:13.000Z</time>
      </trkpt>
      <trkpt lat="43.64287" lon="6.23945">
        <ele>625.2</ele>
        <time>2023-11-26T09:41:18.000Z</time>
      </trkpt>
      <trkpt lat="43.64283" lon="6.23948">
        <ele>625.5</ele>
        <time>2023-11-26T09:41:23.000Z</time>
      </trkpt>
      <trkpt lat="43.64283" lon="6.23949">
        <ele>625.5</ele>
        <time>2023-11-26T09:41:24.000Z</time>
      </trkpt>
      <trkpt lat="43.64276" lon="6.23954">
        <ele>625.8</ele>
        <time>2023-11-26T09:41:33.000Z</time>
      </trkpt>
      <trkpt lat="43.64272" lon="6.23957">
        <ele>625.9</ele>
        <time>2023-11-26T09:41:39.000Z</time>
      </trkpt>
      <trkpt lat="43.64269" lon="6.23959">
        <ele>626</ele>
        <time>2023-11-26T09:41:44.000Z</time>
      </trkpt>
      <trkpt lat="43.64266" lon="6.23962">
        <ele>626.2</ele>
        <time>2023-11-26T09:41:48.000Z</time>
      </trkpt>
      <trkpt lat="43.64262" lon="6.23964">
        <ele>626.5</ele>
        <time>2023-11-26T09:41:52.000Z</time>
      </trkpt>
      <trkpt lat="43.64259" lon="6.23966">
        <ele>626.7</ele>
        <time>2023-11-26T09:41:56.000Z</time>
      </trkpt>
      <trkpt lat="43.64255" lon="6.23969">
        <ele>626.9</ele>
        <time>2023-11-26T09:42:00.000Z</time>
      </trkpt>
      <trkpt lat="43.64252" lon="6.23972">
        <ele>627.1</ele>
        <time>2023-11-26T09:42:04.000Z</time>
      </trkpt>
      <trkpt lat="43.64248" lon="6.23976">
        <ele>627.4</ele>
        <time>2023-11-26T09:42:08.000Z</time>
      </trkpt>
      <trkpt lat="43.64246" lon="6.23981">
        <ele>627.6</ele>
        <time>2023-11-26T09:42:12.000Z</time>
      </trkpt>
      <trkpt lat="43.64242" lon="6.23983">
        <ele>627.9</ele>
        <time>2023-11-26T09:42:17.000Z</time>
      </trkpt>
      <trkpt lat="43.64238" lon="6.23986">
        <ele>628.2</ele>
        <time>2023-11-26T09:42:22.000Z</time>
      </trkpt>
      <trkpt lat="43.64235" lon="6.23989">
        <ele>628.4</ele>
        <time>2023-11-26T09:42:30.000Z</time>
      </trkpt>
      <trkpt lat="43.64234" lon="6.2399">
        <ele>628.5</ele>
        <time>2023-11-26T09:42:31.000Z</time>
      </trkpt>
      <trkpt lat="43.64228" lon="6.23995">
        <ele>628.6</ele>
        <time>2023-11-26T09:42:38.000Z</time>
      </trkpt>
      <trkpt lat="43.64225" lon="6.23998">
        <ele>628.7</ele>
        <time>2023-11-26T09:42:42.000Z</time>
      </trkpt>
      <trkpt lat="43.64221" lon="6.24001">
        <ele>628.9</ele>
        <time>2023-11-26T09:42:47.000Z</time>
      </trkpt>
      <trkpt lat="43.64218" lon="6.24004">
        <ele>629</ele>
        <time>2023-11-26T09:42:51.000Z</time>
      </trkpt>
      <trkpt lat="43.64214" lon="6.24008">
        <ele>629.1</ele>
        <time>2023-11-26T09:42:55.000Z</time>
      </trkpt>
      <trkpt lat="43.64211" lon="6.24011">
        <ele>629.3</ele>
        <time>2023-11-26T09:42:59.000Z</time>
      </trkpt>
      <trkpt lat="43.64208" lon="6.24014">
        <ele>629.4</ele>
        <time>2023-11-26T09:43:03.000Z</time>
      </trkpt>
      <trkpt lat="43.64205" lon="6.24018">
        <ele>629.5</ele>
        <time>2023-11-26T09:43:06.000Z</time>
      </trkpt>
      <trkpt lat="43.64202" lon="6.24022">
        <ele>629.6</ele>
        <time>2023-11-26T09:43:10.000Z</time>
      </trkpt>
      <trkpt lat="43.64199" lon="6.24026">
        <ele>629.7</ele>
        <time>2023-11-26T09:43:13.000Z</time>
      </trkpt>
      <trkpt lat="43.64196" lon="6.24029">
        <ele>629.8</ele>
        <time>2023-11-26T09:43:17.000Z</time>
      </trkpt>
      <trkpt lat="43.64193" lon="6.24032">
        <ele>629.9</ele>
        <time>2023-11-26T09:43:20.000Z</time>
      </trkpt>
      <trkpt lat="43.6419" lon="6.24036">
        <ele>630.1</ele>
        <time>2023-11-26T09:43:23.000Z</time>
      </trkpt>
      <trkpt lat="43.64187" lon="6.24039">
        <ele>630.3</ele>
        <time>2023-11-26T09:43:27.000Z</time>
      </trkpt>
      <trkpt lat="43.64184" lon="6.24044">
        <ele>630.5</ele>
        <time>2023-11-26T09:43:31.000Z</time>
      </trkpt>
      <trkpt lat="43.64184" lon="6.24045">
        <ele>630.6</ele>
        <time>2023-11-26T09:43:32.000Z</time>
      </trkpt>
      <trkpt lat="43.64181" lon="6.24053">
        <ele>630.9</ele>
        <time>2023-11-26T09:43:38.000Z</time>
      </trkpt>
      <trkpt lat="43.64179" lon="6.24058">
        <ele>631</ele>
        <time>2023-11-26T09:43:41.000Z</time>
      </trkpt>
      <trkpt lat="43.64177" lon="6.24062">
        <ele>631.2</ele>
        <time>2023-11-26T09:43:44.000Z</time>
      </trkpt>
      <trkpt lat="43.64175" lon="6.24067">
        <ele>631.4</ele>
        <time>2023-11-26T09:43:49.000Z</time>
      </trkpt>
      <trkpt lat="43.64172" lon="6.24072">
        <ele>631.6</ele>
        <time>2023-11-26T09:43:53.000Z</time>
      </trkpt>
      <trkpt lat="43.6417" lon="6.24077">
        <ele>632</ele>
        <time>2023-11-26T09:43:57.000Z</time>
      </trkpt>
      <trkpt lat="43.64168" lon="6.24082">
        <ele>632.4</ele>
        <time>2023-11-26T09:44:01.000Z</time>
      </trkpt>
      <trkpt lat="43.64167" lon="6.24087">
        <ele>632.6</ele>
        <time>2023-11-26T09:44:04.000Z</time>
      </trkpt>
      <trkpt lat="43.64164" lon="6.24091">
        <ele>632.8</ele>
        <time>2023-11-26T09:44:08.000Z</time>
      </trkpt>
      <trkpt lat="43.64163" lon="6.24096">
        <ele>633</ele>
        <time>2023-11-26T09:44:11.000Z</time>
      </trkpt>
      <trkpt lat="43.64162" lon="6.24101">
        <ele>633.1</ele>
        <time>2023-11-26T09:44:14.000Z</time>
      </trkpt>
      <trkpt lat="43.6416" lon="6.24106">
        <ele>633.2</ele>
        <time>2023-11-26T09:44:17.000Z</time>
      </trkpt>
      <trkpt lat="43.6416" lon="6.24112">
        <ele>633.4</ele>
        <time>2023-11-26T09:44:21.000Z</time>
      </trkpt>
      <trkpt lat="43.64159" lon="6.24117">
        <ele>633.6</ele>
        <time>2023-11-26T09:44:24.000Z</time>
      </trkpt>
      <trkpt lat="43.64158" lon="6.24122">
        <ele>633.7</ele>
        <time>2023-11-26T09:44:27.000Z</time>
      </trkpt>
      <trkpt lat="43.64158" lon="6.24128">
        <ele>634</ele>
        <time>2023-11-26T09:44:30.000Z</time>
      </trkpt>
      <trkpt lat="43.64158" lon="6.24134">
        <ele>634.2</ele>
        <time>2023-11-26T09:44:33.000Z</time>
      </trkpt>
      <trkpt lat="43.64158" lon="6.24136">
        <ele>634.2</ele>
        <time>2023-11-26T09:44:34.000Z</time>
      </trkpt>
      <trkpt lat="43.64159" lon="6.24144">
        <ele>634.5</ele>
        <time>2023-11-26T09:44:39.000Z</time>
      </trkpt>
      <trkpt lat="43.6416" lon="6.24149">
        <ele>634.6</ele>
        <time>2023-11-26T09:44:42.000Z</time>
      </trkpt>
      <trkpt lat="43.64161" lon="6.24154">
        <ele>634.6</ele>
        <time>2023-11-26T09:44:45.000Z</time>
      </trkpt>
      <trkpt lat="43.64162" lon="6.24158">
        <ele>634.7</ele>
        <time>2023-11-26T09:44:48.000Z</time>
      </trkpt>
      <trkpt lat="43.64164" lon="6.24164">
        <ele>634.8</ele>
        <time>2023-11-26T09:44:52.000Z</time>
      </trkpt>
      <trkpt lat="43.64165" lon="6.24168">
        <ele>634.9</ele>
        <time>2023-11-26T09:44:55.000Z</time>
      </trkpt>
      <trkpt lat="43.64166" lon="6.24173">
        <ele>634.9</ele>
        <time>2023-11-26T09:44:58.000Z</time>
      </trkpt>
      <trkpt lat="43.64167" lon="6.24179">
        <ele>634.9</ele>
        <time>2023-11-26T09:45:02.000Z</time>
      </trkpt>
      <trkpt lat="43.64169" lon="6.24184">
        <ele>635</ele>
        <time>2023-11-26T09:45:06.000Z</time>
      </trkpt>
      <trkpt lat="43.64171" lon="6.24189">
        <ele>635.1</ele>
        <time>2023-11-26T09:45:10.000Z</time>
      </trkpt>
      <trkpt lat="43.64173" lon="6.24194">
        <ele>635.2</ele>
        <time>2023-11-26T09:45:14.000Z</time>
      </trkpt>
      <trkpt lat="43.64175" lon="6.24198">
        <ele>635.3</ele>
        <time>2023-11-26T09:45:17.000Z</time>
      </trkpt>
      <trkpt lat="43.64177" lon="6.24204">
        <ele>635.4</ele>
        <time>2023-11-26T09:45:21.000Z</time>
      </trkpt>
      <trkpt lat="43.64178" lon="6.2421">
        <ele>635.4</ele>
        <time>2023-11-26T09:45:25.000Z</time>
      </trkpt>
      <trkpt lat="43.64179" lon="6.24215">
        <ele>635.4</ele>
        <time>2023-11-26T09:45:29.000Z</time>
      </trkpt>
      <trkpt lat="43.6418" lon="6.24221">
        <ele>635.5</ele>
        <time>2023-11-26T09:45:35.000Z</time>
      </trkpt>
      <trkpt lat="43.6418" lon="6.24222">
        <ele>635.6</ele>
        <time>2023-11-26T09:45:36.000Z</time>
      </trkpt>
      <trkpt lat="43.64176" lon="6.24231">
        <ele>635.8</ele>
        <time>2023-11-26T09:45:47.000Z</time>
      </trkpt>
      <trkpt lat="43.64173" lon="6.24235">
        <ele>636.1</ele>
        <time>2023-11-26T09:45:54.000Z</time>
      </trkpt>
      <trkpt lat="43.64171" lon="6.24238">
        <ele>636.3</ele>
        <time>2023-11-26T09:45:58.000Z</time>
      </trkpt>
      <trkpt lat="43.64168" lon="6.24242">
        <ele>636.5</ele>
        <time>2023-11-26T09:46:02.000Z</time>
      </trkpt>
      <trkpt lat="43.64165" lon="6.24245">
        <ele>636.6</ele>
        <time>2023-11-26T09:46:05.000Z</time>
      </trkpt>
      <trkpt lat="43.64163" lon="6.2425">
        <ele>636.7</ele>
        <time>2023-11-26T09:46:09.000Z</time>
      </trkpt>
      <trkpt lat="43.6416" lon="6.24254">
        <ele>636.8</ele>
        <time>2023-11-26T09:46:12.000Z</time>
      </trkpt>
      <trkpt lat="43.64159" lon="6.2426">
        <ele>636.9</ele>
        <time>2023-11-26T09:46:15.000Z</time>
      </trkpt>
      <trkpt lat="43.64158" lon="6.24266">
        <ele>637</ele>
        <time>2023-11-26T09:46:18.000Z</time>
      </trkpt>
      <trkpt lat="43.64158" lon="6.24271">
        <ele>637.1</ele>
        <time>2023-11-26T09:46:21.000Z</time>
      </trkpt>
      <trkpt lat="43.64158" lon="6.24276">
        <ele>637.2</ele>
        <time>2023-11-26T09:46:24.000Z</time>
      </trkpt>
      <trkpt lat="43.64158" lon="6.24281">
        <ele>637.4</ele>
        <time>2023-11-26T09:46:27.000Z</time>
      </trkpt>
      <trkpt lat="43.64157" lon="6.24287">
        <ele>637.6</ele>
        <time>2023-11-26T09:46:31.000Z</time>
      </trkpt>
      <trkpt lat="43.64157" lon="6.24293">
        <ele>637.9</ele>
        <time>2023-11-26T09:46:36.000Z</time>
      </trkpt>
      <trkpt lat="43.64158" lon="6.24294">
        <ele>638</ele>
        <time>2023-11-26T09:46:37.000Z</time>
      </trkpt>
      <trkpt lat="43.6416" lon="6.24303">
        <ele>638.4</ele>
        <time>2023-11-26T09:46:46.000Z</time>
      </trkpt>
      <trkpt lat="43.64163" lon="6.24309">
        <ele>638.7</ele>
        <time>2023-11-26T09:46:50.000Z</time>
      </trkpt>
      <trkpt lat="43.64165" lon="6.24312">
        <ele>638.9</ele>
        <time>2023-11-26T09:46:53.000Z</time>
      </trkpt>
      <trkpt lat="43.64168" lon="6.24315">
        <ele>639.2</ele>
        <time>2023-11-26T09:46:56.000Z</time>
      </trkpt>
      <trkpt lat="43.64171" lon="6.24317">
        <ele>639.5</ele>
        <time>2023-11-26T09:47:00.000Z</time>
      </trkpt>
      <trkpt lat="43.64175" lon="6.24319">
        <ele>639.8</ele>
        <time>2023-11-26T09:47:05.000Z</time>
      </trkpt>
      <trkpt lat="43.64179" lon="6.24317">
        <ele>640</ele>
        <time>2023-11-26T09:47:08.000Z</time>
      </trkpt>
      <trkpt lat="43.64182" lon="6.24315">
        <ele>640.2</ele>
        <time>2023-11-26T09:47:11.000Z</time>
      </trkpt>
      <trkpt lat="43.64186" lon="6.24312">
        <ele>640.4</ele>
        <time>2023-11-26T09:47:15.000Z</time>
      </trkpt>
      <trkpt lat="43.6419" lon="6.24309">
        <ele>640.5</ele>
        <time>2023-11-26T09:47:19.000Z</time>
      </trkpt>
      <trkpt lat="43.64192" lon="6.24305">
        <ele>640.7</ele>
        <time>2023-11-26T09:47:24.000Z</time>
      </trkpt>
      <trkpt lat="43.64196" lon="6.24303">
        <ele>640.8</ele>
        <time>2023-11-26T09:47:27.000Z</time>
      </trkpt>
      <trkpt lat="43.64199" lon="6.24302">
        <ele>641.2</ele>
        <time>2023-11-26T09:47:31.000Z</time>
      </trkpt>
      <trkpt lat="43.64203" lon="6.24301">
        <ele>641.5</ele>
        <time>2023-11-26T09:47:35.000Z</time>
      </trkpt>
      <trkpt lat="43.64207" lon="6.24299">
        <ele>641.9</ele>
        <time>2023-11-26T09:47:39.000Z</time>
      </trkpt>
      <trkpt lat="43.64208" lon="6.24299">
        <ele>641.9</ele>
        <time>2023-11-26T09:47:40.000Z</time>
      </trkpt>
      <trkpt lat="43.64215" lon="6.24301">
        <ele>642.5</ele>
        <time>2023-11-26T09:47:48.000Z</time>
      </trkpt>
      <trkpt lat="43.64219" lon="6.24303">
        <ele>642.7</ele>
        <time>2023-11-26T09:47:52.000Z</time>
      </trkpt>
      <trkpt lat="43.64222" lon="6.24305">
        <ele>642.9</ele>
        <time>2023-11-26T09:47:55.000Z</time>
      </trkpt>
      <trkpt lat="43.64225" lon="6.24309">
        <ele>643</ele>
        <time>2023-11-26T09:47:59.000Z</time>
      </trkpt>
      <trkpt lat="43.64228" lon="6.24313">
        <ele>643.3</ele>
        <time>2023-11-26T09:48:03.000Z</time>
      </trkpt>
      <trkpt lat="43.6423" lon="6.24318">
        <ele>643.6</ele>
        <time>2023-11-26T09:48:07.000Z</time>
      </trkpt>
      <trkpt lat="43.64232" lon="6.24323">
        <ele>643.8</ele>
        <time>2023-11-26T09:48:11.000Z</time>
      </trkpt>
      <trkpt lat="43.64235" lon="6.24328">
        <ele>644</ele>
        <time>2023-11-26T09:48:15.000Z</time>
      </trkpt>
      <trkpt lat="43.64237" lon="6.24333">
        <ele>644.3</ele>
        <time>2023-11-26T09:48:19.000Z</time>
      </trkpt>
      <trkpt lat="43.64238" lon="6.24338">
        <ele>644.6</ele>
        <time>2023-11-26T09:48:24.000Z</time>
      </trkpt>
      <trkpt lat="43.64239" lon="6.24344">
        <ele>644.9</ele>
        <time>2023-11-26T09:48:28.000Z</time>
      </trkpt>
      <trkpt lat="43.64239" lon="6.2435">
        <ele>645.2</ele>
        <time>2023-11-26T09:48:34.000Z</time>
      </trkpt>
      <trkpt lat="43.64238" lon="6.24356">
        <ele>645.8</ele>
        <time>2023-11-26T09:48:43.000Z</time>
      </trkpt>
      <trkpt lat="43.64237" lon="6.24356">
        <ele>645.9</ele>
        <time>2023-11-26T09:48:44.000Z</time>
      </trkpt>
      <trkpt lat="43.64235" lon="6.24366">
        <ele>646.3</ele>
        <time>2023-11-26T09:48:54.000Z</time>
      </trkpt>
      <trkpt lat="43.64234" lon="6.24371">
        <ele>646.5</ele>
        <time>2023-11-26T09:48:58.000Z</time>
      </trkpt>
      <trkpt lat="43.64232" lon="6.24376">
        <ele>646.6</ele>
        <time>2023-11-26T09:49:02.000Z</time>
      </trkpt>
      <trkpt lat="43.64231" lon="6.24381">
        <ele>646.9</ele>
        <time>2023-11-26T09:49:06.000Z</time>
      </trkpt>
      <trkpt lat="43.6423" lon="6.24386">
        <ele>647</ele>
        <time>2023-11-26T09:49:09.000Z</time>
      </trkpt>
      <trkpt lat="43.64227" lon="6.2439">
        <ele>647.2</ele>
        <time>2023-11-26T09:49:12.000Z</time>
      </trkpt>
      <trkpt lat="43.64225" lon="6.24393">
        <ele>647.4</ele>
        <time>2023-11-26T09:49:15.000Z</time>
      </trkpt>
      <trkpt lat="43.64222" lon="6.24398">
        <ele>647.6</ele>
        <time>2023-11-26T09:49:18.000Z</time>
      </trkpt>
      <trkpt lat="43.6422" lon="6.24403">
        <ele>647.7</ele>
        <time>2023-11-26T09:49:21.000Z</time>
      </trkpt>
      <trkpt lat="43.6422" lon="6.24408">
        <ele>647.9</ele>
        <time>2023-11-26T09:49:24.000Z</time>
      </trkpt>
      <trkpt lat="43.64218" lon="6.24414">
        <ele>648.1</ele>
        <time>2023-11-26T09:49:28.000Z</time>
      </trkpt>
      <trkpt lat="43.64216" lon="6.24417">
        <ele>648.2</ele>
        <time>2023-11-26T09:49:31.000Z</time>
      </trkpt>
      <trkpt lat="43.64215" lon="6.24423">
        <ele>648.4</ele>
        <time>2023-11-26T09:49:35.000Z</time>
      </trkpt>
      <trkpt lat="43.64213" lon="6.24427">
        <ele>648.4</ele>
        <time>2023-11-26T09:49:38.000Z</time>
      </trkpt>
      <trkpt lat="43.64211" lon="6.24432">
        <ele>648.5</ele>
        <time>2023-11-26T09:49:41.000Z</time>
      </trkpt>
      <trkpt lat="43.64209" lon="6.24436">
        <ele>648.6</ele>
        <time>2023-11-26T09:49:44.000Z</time>
      </trkpt>
      <trkpt lat="43.64209" lon="6.24437">
        <ele>648.7</ele>
        <time>2023-11-26T09:49:45.000Z</time>
      </trkpt>
      <trkpt lat="43.6421" lon="6.24446">
        <ele>648.9</ele>
        <time>2023-11-26T09:49:51.000Z</time>
      </trkpt>
      <trkpt lat="43.64209" lon="6.24451">
        <ele>649</ele>
        <time>2023-11-26T09:49:54.000Z</time>
      </trkpt>
      <trkpt lat="43.64209" lon="6.24457">
        <ele>649.2</ele>
        <time>2023-11-26T09:49:57.000Z</time>
      </trkpt>
      <trkpt lat="43.64208" lon="6.24462">
        <ele>649.5</ele>
        <time>2023-11-26T09:50:04.000Z</time>
      </trkpt>
      <trkpt lat="43.64207" lon="6.24468">
        <ele>649.7</ele>
        <time>2023-11-26T09:50:09.000Z</time>
      </trkpt>
      <trkpt lat="43.64207" lon="6.24473">
        <ele>649.9</ele>
        <time>2023-11-26T09:50:14.000Z</time>
      </trkpt>
      <trkpt lat="43.64206" lon="6.24479">
        <ele>650</ele>
        <time>2023-11-26T09:50:18.000Z</time>
      </trkpt>
      <trkpt lat="43.64205" lon="6.24484">
        <ele>650.1</ele>
        <time>2023-11-26T09:50:21.000Z</time>
      </trkpt>
      <trkpt lat="43.64204" lon="6.24489">
        <ele>650.1</ele>
        <time>2023-11-26T09:50:24.000Z</time>
      </trkpt>
      <trkpt lat="43.64203" lon="6.24494">
        <ele>650.2</ele>
        <time>2023-11-26T09:50:27.000Z</time>
      </trkpt>
      <trkpt lat="43.64202" lon="6.24499">
        <ele>650.5</ele>
        <time>2023-11-26T09:50:31.000Z</time>
      </trkpt>
      <trkpt lat="43.64201" lon="6.24505">
        <ele>650.8</ele>
        <time>2023-11-26T09:50:35.000Z</time>
      </trkpt>
      <trkpt lat="43.642" lon="6.2451">
        <ele>651.1</ele>
        <time>2023-11-26T09:50:39.000Z</time>
      </trkpt>
      <trkpt lat="43.64197" lon="6.24514">
        <ele>651.3</ele>
        <time>2023-11-26T09:50:43.000Z</time>
      </trkpt>
      <trkpt lat="43.64194" lon="6.24519">
        <ele>651.4</ele>
        <time>2023-11-26T09:50:47.000Z</time>
      </trkpt>
      <trkpt lat="43.64193" lon="6.2452">
        <ele>651.4</ele>
        <time>2023-11-26T09:50:48.000Z</time>
      </trkpt>
      <trkpt lat="43.64187" lon="6.24525">
        <ele>651.6</ele>
        <time>2023-11-26T09:50:55.000Z</time>
      </trkpt>
      <trkpt lat="43.64184" lon="6.24527">
        <ele>651.7</ele>
        <time>2023-11-26T09:50:59.000Z</time>
      </trkpt>
      <trkpt lat="43.6418" lon="6.24528">
        <ele>651.9</ele>
        <time>2023-11-26T09:51:03.000Z</time>
      </trkpt>
      <trkpt lat="43.64176" lon="6.24528">
        <ele>652</ele>
        <time>2023-11-26T09:51:07.000Z</time>
      </trkpt>
      <trkpt lat="43.64172" lon="6.24527">
        <ele>652.2</ele>
        <time>2023-11-26T09:51:12.000Z</time>
      </trkpt>
      <trkpt lat="43.64168" lon="6.24526">
        <ele>652.3</ele>
        <time>2023-11-26T09:51:17.000Z</time>
      </trkpt>
      <trkpt lat="43.64164" lon="6.24525">
        <ele>652.7</ele>
        <time>2023-11-26T09:51:21.000Z</time>
      </trkpt>
      <trkpt lat="43.6416" lon="6.24526">
        <ele>652.9</ele>
        <time>2023-11-26T09:51:24.000Z</time>
      </trkpt>
      <trkpt lat="43.64157" lon="6.24527">
        <ele>653.1</ele>
        <time>2023-11-26T09:51:26.000Z</time>
      </trkpt>
      <trkpt lat="43.64153" lon="6.24529">
        <ele>653.3</ele>
        <time>2023-11-26T09:51:29.000Z</time>
      </trkpt>
      <trkpt lat="43.6415" lon="6.24532">
        <ele>653.6</ele>
        <time>2023-11-26T09:51:33.000Z</time>
      </trkpt>
      <trkpt lat="43.64147" lon="6.24535">
        <ele>653.8</ele>
        <time>2023-11-26T09:51:36.000Z</time>
      </trkpt>
      <trkpt lat="43.64144" lon="6.24538">
        <ele>654.1</ele>
        <time>2023-11-26T09:51:39.000Z</time>
      </trkpt>
      <trkpt lat="43.64143" lon="6.24544">
        <ele>654.5</ele>
        <time>2023-11-26T09:51:43.000Z</time>
      </trkpt>
      <trkpt lat="43.64142" lon="6.24549">
        <ele>654.7</ele>
        <time>2023-11-26T09:51:47.000Z</time>
      </trkpt>
      <trkpt lat="43.64141" lon="6.24554">
        <ele>654.9</ele>
        <time>2023-11-26T09:51:50.000Z</time>
      </trkpt>
      <trkpt lat="43.64141" lon="6.24556">
        <ele>655</ele>
        <time>2023-11-26T09:51:51.000Z</time>
      </trkpt>
      <trkpt lat="43.64142" lon="6.24565">
        <ele>655.3</ele>
        <time>2023-11-26T09:51:57.000Z</time>
      </trkpt>
      <trkpt lat="43.64143" lon="6.24571">
        <ele>655.5</ele>
        <time>2023-11-26T09:52:01.000Z</time>
      </trkpt>
      <trkpt lat="43.64143" lon="6.24577">
        <ele>655.7</ele>
        <time>2023-11-26T09:52:05.000Z</time>
      </trkpt>
      <trkpt lat="43.64143" lon="6.24582">
        <ele>655.9</ele>
        <time>2023-11-26T09:52:10.000Z</time>
      </trkpt>
      <trkpt lat="43.64143" lon="6.24588">
        <ele>656.1</ele>
        <time>2023-11-26T09:52:14.000Z</time>
      </trkpt>
      <trkpt lat="43.64141" lon="6.24593">
        <ele>656.2</ele>
        <time>2023-11-26T09:52:18.000Z</time>
      </trkpt>
      <trkpt lat="43.64139" lon="6.24599">
        <ele>656.3</ele>
        <time>2023-11-26T09:52:23.000Z</time>
      </trkpt>
      <trkpt lat="43.64137" lon="6.24603">
        <ele>656.4</ele>
        <time>2023-11-26T09:52:26.000Z</time>
      </trkpt>
      <trkpt lat="43.64135" lon="6.24607">
        <ele>656.5</ele>
        <time>2023-11-26T09:52:29.000Z</time>
      </trkpt>
      <trkpt lat="43.64133" lon="6.24611">
        <ele>656.7</ele>
        <time>2023-11-26T09:52:32.000Z</time>
      </trkpt>
      <trkpt lat="43.6413" lon="6.24615">
        <ele>656.8</ele>
        <time>2023-11-26T09:52:35.000Z</time>
      </trkpt>
      <trkpt lat="43.64127" lon="6.24619">
        <ele>657</ele>
        <time>2023-11-26T09:52:39.000Z</time>
      </trkpt>
      <trkpt lat="43.64126" lon="6.24624">
        <ele>657.2</ele>
        <time>2023-11-26T09:52:44.000Z</time>
      </trkpt>
      <trkpt lat="43.64124" lon="6.24628">
        <ele>657.3</ele>
        <time>2023-11-26T09:52:48.000Z</time>
      </trkpt>
      <trkpt lat="43.64122" lon="6.24633">
        <ele>657.5</ele>
        <time>2023-11-26T09:52:52.000Z</time>
      </trkpt>
      <trkpt lat="43.64122" lon="6.24634">
        <ele>657.6</ele>
        <time>2023-11-26T09:52:53.000Z</time>
      </trkpt>
      <trkpt lat="43.64118" lon="6.24642">
        <ele>657.8</ele>
        <time>2023-11-26T09:52:59.000Z</time>
      </trkpt>
      <trkpt lat="43.64116" lon="6.24646">
        <ele>657.9</ele>
        <time>2023-11-26T09:53:02.000Z</time>
      </trkpt>
      <trkpt lat="43.64114" lon="6.2465">
        <ele>658</ele>
        <time>2023-11-26T09:53:05.000Z</time>
      </trkpt>
      <trkpt lat="43.64112" lon="6.24655">
        <ele>658.1</ele>
        <time>2023-11-26T09:53:08.000Z</time>
      </trkpt>
      <trkpt lat="43.64109" lon="6.2466">
        <ele>658.2</ele>
        <time>2023-11-26T09:53:12.000Z</time>
      </trkpt>
      <trkpt lat="43.64107" lon="6.24665">
        <ele>658.3</ele>
        <time>2023-11-26T09:53:16.000Z</time>
      </trkpt>
      <trkpt lat="43.64105" lon="6.24669">
        <ele>658.5</ele>
        <time>2023-11-26T09:53:19.000Z</time>
      </trkpt>
      <trkpt lat="43.64104" lon="6.24674">
        <ele>658.7</ele>
        <time>2023-11-26T09:53:22.000Z</time>
      </trkpt>
      <trkpt lat="43.64102" lon="6.24679">
        <ele>658.9</ele>
        <time>2023-11-26T09:53:25.000Z</time>
      </trkpt>
      <trkpt lat="43.641" lon="6.24682">
        <ele>659</ele>
        <time>2023-11-26T09:53:28.000Z</time>
      </trkpt>
      <trkpt lat="43.64097" lon="6.24687">
        <ele>659.2</ele>
        <time>2023-11-26T09:53:32.000Z</time>
      </trkpt>
      <trkpt lat="43.64094" lon="6.24689">
        <ele>659.3</ele>
        <time>2023-11-26T09:53:35.000Z</time>
      </trkpt>
      <trkpt lat="43.64092" lon="6.24693">
        <ele>659.3</ele>
        <time>2023-11-26T09:53:38.000Z</time>
      </trkpt>
      <trkpt lat="43.6409" lon="6.24696">
        <ele>659.4</ele>
        <time>2023-11-26T09:53:41.000Z</time>
      </trkpt>
      <trkpt lat="43.64087" lon="6.24701">
        <ele>659.6</ele>
        <time>2023-11-26T09:53:45.000Z</time>
      </trkpt>
      <trkpt lat="43.64084" lon="6.24705">
        <ele>659.8</ele>
        <time>2023-11-26T09:53:50.000Z</time>
      </trkpt>
      <trkpt lat="43.64081" lon="6.24709">
        <ele>660</ele>
        <time>2023-11-26T09:53:54.000Z</time>
      </trkpt>
      <trkpt lat="43.64081" lon="6.24711">
        <ele>660</ele>
        <time>2023-11-26T09:53:55.000Z</time>
      </trkpt>
      <trkpt lat="43.64078" lon="6.2472">
        <ele>660.2</ele>
        <time>2023-11-26T09:54:03.000Z</time>
      </trkpt>
      <trkpt lat="43.64076" lon="6.24725">
        <ele>660.5</ele>
        <time>2023-11-26T09:54:09.000Z</time>
      </trkpt>
      <trkpt lat="43.64076" lon="6.2473">
        <ele>660.7</ele>
        <time>2023-11-26T09:54:14.000Z</time>
      </trkpt>
      <trkpt lat="43.64074" lon="6.24734">
        <ele>660.9</ele>
        <time>2023-11-26T09:54:18.000Z</time>
      </trkpt>
      <trkpt lat="43.64073" lon="6.2474">
        <ele>661</ele>
        <time>2023-11-26T09:54:23.000Z</time>
      </trkpt>
      <trkpt lat="43.64072" lon="6.24746">
        <ele>661.2</ele>
        <time>2023-11-26T09:54:28.000Z</time>
      </trkpt>
      <trkpt lat="43.64073" lon="6.2475">
        <ele>661.3</ele>
        <time>2023-11-26T09:54:31.000Z</time>
      </trkpt>
      <trkpt lat="43.64071" lon="6.24755">
        <ele>661.4</ele>
        <time>2023-11-26T09:54:34.000Z</time>
      </trkpt>
      <trkpt lat="43.64071" lon="6.2476">
        <ele>661.5</ele>
        <time>2023-11-26T09:54:37.000Z</time>
      </trkpt>
      <trkpt lat="43.64068" lon="6.24763">
        <ele>661.5</ele>
        <time>2023-11-26T09:54:39.000Z</time>
      </trkpt>
      <trkpt lat="43.64066" lon="6.24767">
        <ele>661.6</ele>
        <time>2023-11-26T09:54:41.000Z</time>
      </trkpt>
      <trkpt lat="43.64064" lon="6.24771">
        <ele>661.7</ele>
        <time>2023-11-26T09:54:43.000Z</time>
      </trkpt>
      <trkpt lat="43.64063" lon="6.24776">
        <ele>661.8</ele>
        <time>2023-11-26T09:54:46.000Z</time>
      </trkpt>
      <trkpt lat="43.64062" lon="6.24782">
        <ele>661.8</ele>
        <time>2023-11-26T09:54:49.000Z</time>
      </trkpt>
      <trkpt lat="43.6406" lon="6.24787">
        <ele>661.9</ele>
        <time>2023-11-26T09:54:52.000Z</time>
      </trkpt>
      <trkpt lat="43.64058" lon="6.24791">
        <ele>662.1</ele>
        <time>2023-11-26T09:54:55.000Z</time>
      </trkpt>
      <trkpt lat="43.64058" lon="6.24792">
        <ele>662.1</ele>
        <time>2023-11-26T09:54:56.000Z</time>
      </trkpt>
      <trkpt lat="43.64057" lon="6.24801">
        <ele>662.5</ele>
        <time>2023-11-26T09:55:02.000Z</time>
      </trkpt>
      <trkpt lat="43.64055" lon="6.24805">
        <ele>662.7</ele>
        <time>2023-11-26T09:55:05.000Z</time>
      </trkpt>
      <trkpt lat="43.64054" lon="6.2481">
        <ele>662.8</ele>
        <time>2023-11-26T09:55:08.000Z</time>
      </trkpt>
      <trkpt lat="43.64053" lon="6.24814">
        <ele>663</ele>
        <time>2023-11-26T09:55:11.000Z</time>
      </trkpt>
      <trkpt lat="43.64052" lon="6.2482">
        <ele>663.1</ele>
        <time>2023-11-26T09:55:14.000Z</time>
      </trkpt>
      <trkpt lat="43.64051" lon="6.24825">
        <ele>663.3</ele>
        <time>2023-11-26T09:55:18.000Z</time>
      </trkpt>
      <trkpt lat="43.64051" lon="6.2483">
        <ele>663.4</ele>
        <time>2023-11-26T09:55:21.000Z</time>
      </trkpt>
      <trkpt lat="43.64049" lon="6.24836">
        <ele>663.6</ele>
        <time>2023-11-26T09:55:25.000Z</time>
      </trkpt>
      <trkpt lat="43.64048" lon="6.24842">
        <ele>663.7</ele>
        <time>2023-11-26T09:55:29.000Z</time>
      </trkpt>
      <trkpt lat="43.64046" lon="6.24847">
        <ele>663.8</ele>
        <time>2023-11-26T09:55:33.000Z</time>
      </trkpt>
      <trkpt lat="43.64044" lon="6.2485">
        <ele>663.8</ele>
        <time>2023-11-26T09:55:35.000Z</time>
      </trkpt>
      <trkpt lat="43.64042" lon="6.24855">
        <ele>663.9</ele>
        <time>2023-11-26T09:55:38.000Z</time>
      </trkpt>
      <trkpt lat="43.6404" lon="6.24859">
        <ele>664.1</ele>
        <time>2023-11-26T09:55:41.000Z</time>
      </trkpt>
      <trkpt lat="43.64038" lon="6.24864">
        <ele>664.2</ele>
        <time>2023-11-26T09:55:44.000Z</time>
      </trkpt>
      <trkpt lat="43.64037" lon="6.24868">
        <ele>664.3</ele>
        <time>2023-11-26T09:55:47.000Z</time>
      </trkpt>
      <trkpt lat="43.64035" lon="6.24872">
        <ele>664.5</ele>
        <time>2023-11-26T09:55:50.000Z</time>
      </trkpt>
      <trkpt lat="43.64034" lon="6.24878">
        <ele>664.6</ele>
        <time>2023-11-26T09:55:54.000Z</time>
      </trkpt>
      <trkpt lat="43.64031" lon="6.24882">
        <ele>664.8</ele>
        <time>2023-11-26T09:55:58.000Z</time>
      </trkpt>
      <trkpt lat="43.64031" lon="6.24883">
        <ele>664.8</ele>
        <time>2023-11-26T09:55:59.000Z</time>
      </trkpt>
      <trkpt lat="43.64026" lon="6.2489">
        <ele>665</ele>
        <time>2023-11-26T09:56:04.000Z</time>
      </trkpt>
      <trkpt lat="43.64023" lon="6.24893">
        <ele>665.1</ele>
        <time>2023-11-26T09:56:07.000Z</time>
      </trkpt>
      <trkpt lat="43.6402" lon="6.24897">
        <ele>665.3</ele>
        <time>2023-11-26T09:56:12.000Z</time>
      </trkpt>
      <trkpt lat="43.64017" lon="6.24901">
        <ele>665.4</ele>
        <time>2023-11-26T09:56:16.000Z</time>
      </trkpt>
      <trkpt lat="43.64013" lon="6.24902">
        <ele>665.6</ele>
        <time>2023-11-26T09:56:20.000Z</time>
      </trkpt>
      <trkpt lat="43.64009" lon="6.24904">
        <ele>665.7</ele>
        <time>2023-11-26T09:56:24.000Z</time>
      </trkpt>
      <trkpt lat="43.64005" lon="6.24905">
        <ele>665.8</ele>
        <time>2023-11-26T09:56:27.000Z</time>
      </trkpt>
      <trkpt lat="43.64002" lon="6.24906">
        <ele>665.8</ele>
        <time>2023-11-26T09:56:30.000Z</time>
      </trkpt>
      <trkpt lat="43.63998" lon="6.24908">
        <ele>665.9</ele>
        <time>2023-11-26T09:56:33.000Z</time>
      </trkpt>
      <trkpt lat="43.63994" lon="6.24909">
        <ele>666.3</ele>
        <time>2023-11-26T09:56:37.000Z</time>
      </trkpt>
      <trkpt lat="43.6399" lon="6.24911">
        <ele>666.5</ele>
        <time>2023-11-26T09:56:41.000Z</time>
      </trkpt>
      <trkpt lat="43.63987" lon="6.24911">
        <ele>666.7</ele>
        <time>2023-11-26T09:56:44.000Z</time>
      </trkpt>
      <trkpt lat="43.63983" lon="6.24911">
        <ele>667</ele>
        <time>2023-11-26T09:56:48.000Z</time>
      </trkpt>
      <trkpt lat="43.63979" lon="6.24912">
        <ele>667.2</ele>
        <time>2023-11-26T09:56:51.000Z</time>
      </trkpt>
      <trkpt lat="43.63976" lon="6.24913">
        <ele>667.4</ele>
        <time>2023-11-26T09:56:54.000Z</time>
      </trkpt>
      <trkpt lat="43.63972" lon="6.24913">
        <ele>667.5</ele>
        <time>2023-11-26T09:56:57.000Z</time>
      </trkpt>
      <trkpt lat="43.63969" lon="6.24914">
        <ele>667.6</ele>
        <time>2023-11-26T09:56:59.000Z</time>
      </trkpt>
      <trkpt lat="43.63967" lon="6.24915">
        <ele>667.7</ele>
        <time>2023-11-26T09:57:00.000Z</time>
      </trkpt>
      <trkpt lat="43.63961" lon="6.24916">
        <ele>667.8</ele>
        <time>2023-11-26T09:57:04.000Z</time>
      </trkpt>
      <trkpt lat="43.63958" lon="6.24917">
        <ele>668</ele>
        <time>2023-11-26T09:57:06.000Z</time>
      </trkpt>
      <trkpt lat="43.63954" lon="6.24918">
        <ele>668.1</ele>
        <time>2023-11-26T09:57:09.000Z</time>
      </trkpt>
      <trkpt lat="43.63951" lon="6.2492">
        <ele>668.2</ele>
        <time>2023-11-26T09:57:12.000Z</time>
      </trkpt>
      <trkpt lat="43.63947" lon="6.24923">
        <ele>668.3</ele>
        <time>2023-11-26T09:57:16.000Z</time>
      </trkpt>
      <trkpt lat="43.63944" lon="6.24926">
        <ele>668.4</ele>
        <time>2023-11-26T09:57:20.000Z</time>
      </trkpt>
      <trkpt lat="43.63943" lon="6.24931">
        <ele>668.5</ele>
        <time>2023-11-26T09:57:24.000Z</time>
      </trkpt>
      <trkpt lat="43.63942" lon="6.24936">
        <ele>668.7</ele>
        <time>2023-11-26T09:57:28.000Z</time>
      </trkpt>
      <trkpt lat="43.63942" lon="6.24941">
        <ele>668.9</ele>
        <time>2023-11-26T09:57:31.000Z</time>
      </trkpt>
      <trkpt lat="43.63941" lon="6.24946">
        <ele>669</ele>
        <time>2023-11-26T09:57:34.000Z</time>
      </trkpt>
      <trkpt lat="43.63941" lon="6.24952">
        <ele>669.1</ele>
        <time>2023-11-26T09:57:38.000Z</time>
      </trkpt>
      <trkpt lat="43.63941" lon="6.24958">
        <ele>669.3</ele>
        <time>2023-11-26T09:57:42.000Z</time>
      </trkpt>
      <trkpt lat="43.63941" lon="6.24962">
        <ele>669.4</ele>
        <time>2023-11-26T09:57:45.000Z</time>
      </trkpt>
      <trkpt lat="43.63941" lon="6.24967">
        <ele>669.6</ele>
        <time>2023-11-26T09:57:48.000Z</time>
      </trkpt>
      <trkpt lat="43.63941" lon="6.24972">
        <ele>669.8</ele>
        <time>2023-11-26T09:57:51.000Z</time>
      </trkpt>
      <trkpt lat="43.63941" lon="6.24978">
        <ele>670.2</ele>
        <time>2023-11-26T09:57:55.000Z</time>
      </trkpt>
      <trkpt lat="43.63942" lon="6.24984">
        <ele>670.5</ele>
        <time>2023-11-26T09:57:59.000Z</time>
      </trkpt>
      <trkpt lat="43.63942" lon="6.24989">
        <ele>670.7</ele>
        <time>2023-11-26T09:58:02.000Z</time>
      </trkpt>
      <trkpt lat="43.63942" lon="6.2499">
        <ele>670.7</ele>
        <time>2023-11-26T09:58:03.000Z</time>
      </trkpt>
      <trkpt lat="43.63942" lon="6.25001">
        <ele>671.2</ele>
        <time>2023-11-26T09:58:10.000Z</time>
      </trkpt>
      <trkpt lat="43.63942" lon="6.25006">
        <ele>671.6</ele>
        <time>2023-11-26T09:58:14.000Z</time>
      </trkpt>
      <trkpt lat="43.63943" lon="6.25012">
        <ele>672.1</ele>
        <time>2023-11-26T09:58:18.000Z</time>
      </trkpt>
      <trkpt lat="43.63943" lon="6.25017">
        <ele>672.3</ele>
        <time>2023-11-26T09:58:21.000Z</time>
      </trkpt>
      <trkpt lat="43.63943" lon="6.25023">
        <ele>672.5</ele>
        <time>2023-11-26T09:58:24.000Z</time>
      </trkpt>
      <trkpt lat="43.63943" lon="6.25029">
        <ele>672.7</ele>
        <time>2023-11-26T09:58:27.000Z</time>
      </trkpt>
      <trkpt lat="43.63943" lon="6.25035">
        <ele>672.9</ele>
        <time>2023-11-26T09:58:31.000Z</time>
      </trkpt>
      <trkpt lat="43.63944" lon="6.2504">
        <ele>673.1</ele>
        <time>2023-11-26T09:58:35.000Z</time>
      </trkpt>
      <trkpt lat="43.63944" lon="6.25047">
        <ele>673.2</ele>
        <time>2023-11-26T09:58:39.000Z</time>
      </trkpt>
      <trkpt lat="43.63944" lon="6.25053">
        <ele>673.3</ele>
        <time>2023-11-26T09:58:43.000Z</time>
      </trkpt>
      <trkpt lat="43.63942" lon="6.25058">
        <ele>673.3</ele>
        <time>2023-11-26T09:58:47.000Z</time>
      </trkpt>
      <trkpt lat="43.6394" lon="6.25062">
        <ele>673.5</ele>
        <time>2023-11-26T09:58:51.000Z</time>
      </trkpt>
      <trkpt lat="43.63937" lon="6.25067">
        <ele>673.6</ele>
        <time>2023-11-26T09:58:55.000Z</time>
      </trkpt>
      <trkpt lat="43.63934" lon="6.25071">
        <ele>673.7</ele>
        <time>2023-11-26T09:58:59.000Z</time>
      </trkpt>
      <trkpt lat="43.63931" lon="6.25075">
        <ele>674</ele>
        <time>2023-11-26T09:59:04.000Z</time>
      </trkpt>
      <trkpt lat="43.63931" lon="6.25075">
        <ele>674</ele>
        <time>2023-11-26T09:59:05.000Z</time>
      </trkpt>
      <trkpt lat="43.63931" lon="6.25083">
        <ele>674.7</ele>
        <time>2023-11-26T10:00:35.000Z</time>
      </trkpt>
      <trkpt lat="43.63931" lon="6.25083">
        <ele>674.7</ele>
        <time>2023-11-26T10:00:36.000Z</time>
      </trkpt>
      <trkpt lat="43.63924" lon="6.25088">
        <ele>675.5</ele>
        <time>2023-11-26T10:01:28.000Z</time>
      </trkpt>
      <trkpt lat="43.63921" lon="6.25092">
        <ele>675.6</ele>
        <time>2023-11-26T10:01:32.000Z</time>
      </trkpt>
      <trkpt lat="43.63918" lon="6.25095">
        <ele>675.8</ele>
        <time>2023-11-26T10:01:36.000Z</time>
      </trkpt>
      <trkpt lat="43.63917" lon="6.25096">
        <ele>675.8</ele>
        <time>2023-11-26T10:01:37.000Z</time>
      </trkpt>
      <trkpt lat="43.63911" lon="6.25103">
        <ele>676</ele>
        <time>2023-11-26T10:01:44.000Z</time>
      </trkpt>
      <trkpt lat="43.63908" lon="6.25106">
        <ele>676.1</ele>
        <time>2023-11-26T10:01:48.000Z</time>
      </trkpt>
      <trkpt lat="43.63905" lon="6.2511">
        <ele>676.2</ele>
        <time>2023-11-26T10:01:52.000Z</time>
      </trkpt>
      <trkpt lat="43.63901" lon="6.25113">
        <ele>676.3</ele>
        <time>2023-11-26T10:01:56.000Z</time>
      </trkpt>
      <trkpt lat="43.63898" lon="6.25116">
        <ele>676.5</ele>
        <time>2023-11-26T10:02:00.000Z</time>
      </trkpt>
      <trkpt lat="43.63896" lon="6.2512">
        <ele>676.6</ele>
        <time>2023-11-26T10:02:03.000Z</time>
      </trkpt>
      <trkpt lat="43.63895" lon="6.25124">
        <ele>676.6</ele>
        <time>2023-11-26T10:02:06.000Z</time>
      </trkpt>
      <trkpt lat="43.63893" lon="6.25129">
        <ele>676.7</ele>
        <time>2023-11-26T10:02:09.000Z</time>
      </trkpt>
      <trkpt lat="43.63891" lon="6.25133">
        <ele>676.8</ele>
        <time>2023-11-26T10:02:12.000Z</time>
      </trkpt>
      <trkpt lat="43.63888" lon="6.25138">
        <ele>676.9</ele>
        <time>2023-11-26T10:02:16.000Z</time>
      </trkpt>
      <trkpt lat="43.63887" lon="6.25144">
        <ele>677</ele>
        <time>2023-11-26T10:02:20.000Z</time>
      </trkpt>
      <trkpt lat="43.63885" lon="6.25148">
        <ele>677.1</ele>
        <time>2023-11-26T10:02:24.000Z</time>
      </trkpt>
      <trkpt lat="43.63884" lon="6.25154">
        <ele>677.2</ele>
        <time>2023-11-26T10:02:28.000Z</time>
      </trkpt>
      <trkpt lat="43.63883" lon="6.25159">
        <ele>677.3</ele>
        <time>2023-11-26T10:02:32.000Z</time>
      </trkpt>
      <trkpt lat="43.63882" lon="6.25165">
        <ele>677.4</ele>
        <time>2023-11-26T10:02:36.000Z</time>
      </trkpt>
      <trkpt lat="43.6388" lon="6.2517">
        <ele>677.5</ele>
        <time>2023-11-26T10:02:40.000Z</time>
      </trkpt>
      <trkpt lat="43.6388" lon="6.25172">
        <ele>677.6</ele>
        <time>2023-11-26T10:02:41.000Z</time>
      </trkpt>
      <trkpt lat="43.63876" lon="6.25181">
        <ele>677.8</ele>
        <time>2023-11-26T10:02:48.000Z</time>
      </trkpt>
      <trkpt lat="43.63873" lon="6.25185">
        <ele>677.9</ele>
        <time>2023-11-26T10:02:52.000Z</time>
      </trkpt>
      <trkpt lat="43.6387" lon="6.2519">
        <ele>678</ele>
        <time>2023-11-26T10:02:56.000Z</time>
      </trkpt>
      <trkpt lat="43.63867" lon="6.25194">
        <ele>678.1</ele>
        <time>2023-11-26T10:03:00.000Z</time>
      </trkpt>
      <trkpt lat="43.63864" lon="6.25198">
        <ele>678.3</ele>
        <time>2023-11-26T10:03:04.000Z</time>
      </trkpt>
      <trkpt lat="43.6386" lon="6.25201">
        <ele>678.5</ele>
        <time>2023-11-26T10:03:09.000Z</time>
      </trkpt>
      <trkpt lat="43.63858" lon="6.25204">
        <ele>678.7</ele>
        <time>2023-11-26T10:03:13.000Z</time>
      </trkpt>
      <trkpt lat="43.63855" lon="6.25206">
        <ele>679</ele>
        <time>2023-11-26T10:03:17.000Z</time>
      </trkpt>
      <trkpt lat="43.63851" lon="6.25209">
        <ele>679.1</ele>
        <time>2023-11-26T10:03:21.000Z</time>
      </trkpt>
      <trkpt lat="43.63848" lon="6.25211">
        <ele>679.3</ele>
        <time>2023-11-26T10:03:25.000Z</time>
      </trkpt>
      <trkpt lat="43.63844" lon="6.25212">
        <ele>679.4</ele>
        <time>2023-11-26T10:03:29.000Z</time>
      </trkpt>
      <trkpt lat="43.6384" lon="6.25215">
        <ele>679.4</ele>
        <time>2023-11-26T10:03:33.000Z</time>
      </trkpt>
      <trkpt lat="43.63836" lon="6.25218">
        <ele>679.6</ele>
        <time>2023-11-26T10:03:37.000Z</time>
      </trkpt>
      <trkpt lat="43.63833" lon="6.2522">
        <ele>679.7</ele>
        <time>2023-11-26T10:03:41.000Z</time>
      </trkpt>
      <trkpt lat="43.63832" lon="6.25221">
        <ele>679.7</ele>
        <time>2023-11-26T10:03:42.000Z</time>
      </trkpt>
      <trkpt lat="43.63825" lon="6.25226">
        <ele>679.9</ele>
        <time>2023-11-26T10:03:49.000Z</time>
      </trkpt>
      <trkpt lat="43.63822" lon="6.25228">
        <ele>680</ele>
        <time>2023-11-26T10:03:52.000Z</time>
      </trkpt>
      <trkpt lat="43.63819" lon="6.25231">
        <ele>680.2</ele>
        <time>2023-11-26T10:03:56.000Z</time>
      </trkpt>
      <trkpt lat="43.63815" lon="6.25234">
        <ele>680.3</ele>
        <time>2023-11-26T10:04:00.000Z</time>
      </trkpt>
      <trkpt lat="43.63812" lon="6.25237">
        <ele>680.5</ele>
        <time>2023-11-26T10:04:04.000Z</time>
      </trkpt>
      <trkpt lat="43.63809" lon="6.25241">
        <ele>680.7</ele>
        <time>2023-11-26T10:04:08.000Z</time>
      </trkpt>
      <trkpt lat="43.63805" lon="6.25245">
        <ele>680.9</ele>
        <time>2023-11-26T10:04:12.000Z</time>
      </trkpt>
      <trkpt lat="43.63803" lon="6.25249">
        <ele>681</ele>
        <time>2023-11-26T10:04:16.000Z</time>
      </trkpt>
      <trkpt lat="43.638" lon="6.25253">
        <ele>681.2</ele>
        <time>2023-11-26T10:04:20.000Z</time>
      </trkpt>
      <trkpt lat="43.63797" lon="6.25257">
        <ele>681.4</ele>
        <time>2023-11-26T10:04:24.000Z</time>
      </trkpt>
      <trkpt lat="43.63795" lon="6.2526">
        <ele>681.5</ele>
        <time>2023-11-26T10:04:27.000Z</time>
      </trkpt>
      <trkpt lat="43.63792" lon="6.25265">
        <ele>681.6</ele>
        <time>2023-11-26T10:04:31.000Z</time>
      </trkpt>
      <trkpt lat="43.6379" lon="6.25268">
        <ele>681.8</ele>
        <time>2023-11-26T10:04:34.000Z</time>
      </trkpt>
      <trkpt lat="43.63787" lon="6.25272">
        <ele>682</ele>
        <time>2023-11-26T10:04:37.000Z</time>
      </trkpt>
      <trkpt lat="43.63785" lon="6.25275">
        <ele>682.2</ele>
        <time>2023-11-26T10:04:40.000Z</time>
      </trkpt>
      <trkpt lat="43.63783" lon="6.25279">
        <ele>682.4</ele>
        <time>2023-11-26T10:04:43.000Z</time>
      </trkpt>
      <trkpt lat="43.63782" lon="6.25281">
        <ele>682.4</ele>
        <time>2023-11-26T10:04:44.000Z</time>
      </trkpt>
      <trkpt lat="43.63777" lon="6.25286">
        <ele>682.6</ele>
        <time>2023-11-26T10:04:49.000Z</time>
      </trkpt>
      <trkpt lat="43.63775" lon="6.25291">
        <ele>682.8</ele>
        <time>2023-11-26T10:04:53.000Z</time>
      </trkpt>
      <trkpt lat="43.63772" lon="6.25296">
        <ele>682.9</ele>
        <time>2023-11-26T10:04:57.000Z</time>
      </trkpt>
      <trkpt lat="43.6377" lon="6.253">
        <ele>683.1</ele>
        <time>2023-11-26T10:05:01.000Z</time>
      </trkpt>
      <trkpt lat="43.63767" lon="6.25305">
        <ele>683.2</ele>
        <time>2023-11-26T10:05:04.000Z</time>
      </trkpt>
      <trkpt lat="43.63766" lon="6.25309">
        <ele>683.2</ele>
        <time>2023-11-26T10:05:07.000Z</time>
      </trkpt>
      <trkpt lat="43.63765" lon="6.25313">
        <ele>683.5</ele>
        <time>2023-11-26T10:05:10.000Z</time>
      </trkpt>
      <trkpt lat="43.63763" lon="6.25318">
        <ele>683.7</ele>
        <time>2023-11-26T10:05:13.000Z</time>
      </trkpt>
      <trkpt lat="43.63762" lon="6.25323">
        <ele>684</ele>
        <time>2023-11-26T10:05:17.000Z</time>
      </trkpt>
      <trkpt lat="43.6376" lon="6.25328">
        <ele>684.2</ele>
        <time>2023-11-26T10:05:21.000Z</time>
      </trkpt>
      <trkpt lat="43.63759" lon="6.25333">
        <ele>684.4</ele>
        <time>2023-11-26T10:05:24.000Z</time>
      </trkpt>
      <trkpt lat="43.63759" lon="6.25339">
        <ele>684.6</ele>
        <time>2023-11-26T10:05:28.000Z</time>
      </trkpt>
      <trkpt lat="43.63757" lon="6.25344">
        <ele>684.8</ele>
        <time>2023-11-26T10:05:32.000Z</time>
      </trkpt>
      <trkpt lat="43.63755" lon="6.2535">
        <ele>685</ele>
        <time>2023-11-26T10:05:36.000Z</time>
      </trkpt>
      <trkpt lat="43.63754" lon="6.25354">
        <ele>685.2</ele>
        <time>2023-11-26T10:05:39.000Z</time>
      </trkpt>
      <trkpt lat="43.63753" lon="6.2536">
        <ele>685.4</ele>
        <time>2023-11-26T10:05:43.000Z</time>
      </trkpt>
      <trkpt lat="43.63752" lon="6.25364">
        <ele>685.6</ele>
        <time>2023-11-26T10:05:46.000Z</time>
      </trkpt>
      <trkpt lat="43.63752" lon="6.25366">
        <ele>685.7</ele>
        <time>2023-11-26T10:05:47.000Z</time>
      </trkpt>
      <trkpt lat="43.6375" lon="6.25374">
        <ele>686.1</ele>
        <time>2023-11-26T10:05:52.000Z</time>
      </trkpt>
      <trkpt lat="43.63749" lon="6.25379">
        <ele>686.4</ele>
        <time>2023-11-26T10:05:56.000Z</time>
      </trkpt>
      <trkpt lat="43.63749" lon="6.25385">
        <ele>686.8</ele>
        <time>2023-11-26T10:06:00.000Z</time>
      </trkpt>
      <trkpt lat="43.63748" lon="6.2539">
        <ele>687.1</ele>
        <time>2023-11-26T10:06:04.000Z</time>
      </trkpt>
      <trkpt lat="43.63747" lon="6.25395">
        <ele>687.5</ele>
        <time>2023-11-26T10:06:08.000Z</time>
      </trkpt>
      <trkpt lat="43.63746" lon="6.254">
        <ele>687.9</ele>
        <time>2023-11-26T10:06:12.000Z</time>
      </trkpt>
      <trkpt lat="43.63744" lon="6.25404">
        <ele>688.1</ele>
        <time>2023-11-26T10:06:15.000Z</time>
      </trkpt>
      <trkpt lat="43.63743" lon="6.25409">
        <ele>688.3</ele>
        <time>2023-11-26T10:06:18.000Z</time>
      </trkpt>
      <trkpt lat="43.63741" lon="6.25413">
        <ele>688.6</ele>
        <time>2023-11-26T10:06:21.000Z</time>
      </trkpt>
      <trkpt lat="43.6374" lon="6.25418">
        <ele>688.8</ele>
        <time>2023-11-26T10:06:24.000Z</time>
      </trkpt>
      <trkpt lat="43.63738" lon="6.25422">
        <ele>689</ele>
        <time>2023-11-26T10:06:27.000Z</time>
      </trkpt>
      <trkpt lat="43.63738" lon="6.25427">
        <ele>689.3</ele>
        <time>2023-11-26T10:06:32.000Z</time>
      </trkpt>
      <trkpt lat="43.63737" lon="6.25433">
        <ele>689.4</ele>
        <time>2023-11-26T10:06:36.000Z</time>
      </trkpt>
      <trkpt lat="43.63734" lon="6.25437">
        <ele>689.6</ele>
        <time>2023-11-26T10:06:40.000Z</time>
      </trkpt>
      <trkpt lat="43.63731" lon="6.25441">
        <ele>689.7</ele>
        <time>2023-11-26T10:06:44.000Z</time>
      </trkpt>
      <trkpt lat="43.63727" lon="6.25443">
        <ele>689.7</ele>
        <time>2023-11-26T10:06:47.000Z</time>
      </trkpt>
      <trkpt lat="43.63726" lon="6.25444">
        <ele>689.8</ele>
        <time>2023-11-26T10:06:48.000Z</time>
      </trkpt>
      <trkpt lat="43.6372" lon="6.25449">
        <ele>689.9</ele>
        <time>2023-11-26T10:06:55.000Z</time>
      </trkpt>
      <trkpt lat="43.63716" lon="6.25451">
        <ele>690</ele>
        <time>2023-11-26T10:06:59.000Z</time>
      </trkpt>
      <trkpt lat="43.63713" lon="6.25454">
        <ele>690.2</ele>
        <time>2023-11-26T10:07:03.000Z</time>
      </trkpt>
      <trkpt lat="43.63709" lon="6.25457">
        <ele>690.5</ele>
        <time>2023-11-26T10:07:07.000Z</time>
      </trkpt>
      <trkpt lat="43.63706" lon="6.2546">
        <ele>690.8</ele>
        <time>2023-11-26T10:07:11.000Z</time>
      </trkpt>
      <trkpt lat="43.63702" lon="6.25462">
        <ele>691.1</ele>
        <time>2023-11-26T10:07:15.000Z</time>
      </trkpt>
      <trkpt lat="43.63698" lon="6.25464">
        <ele>691.4</ele>
        <time>2023-11-26T10:07:19.000Z</time>
      </trkpt>
      <trkpt lat="43.63695" lon="6.25466">
        <ele>691.8</ele>
        <time>2023-11-26T10:07:23.000Z</time>
      </trkpt>
      <trkpt lat="43.63691" lon="6.25469">
        <ele>692.2</ele>
        <time>2023-11-26T10:07:27.000Z</time>
      </trkpt>
      <trkpt lat="43.63688" lon="6.25471">
        <ele>692.6</ele>
        <time>2023-11-26T10:07:31.000Z</time>
      </trkpt>
      <trkpt lat="43.63684" lon="6.25474">
        <ele>692.9</ele>
        <time>2023-11-26T10:07:35.000Z</time>
      </trkpt>
      <trkpt lat="43.63681" lon="6.25478">
        <ele>693.2</ele>
        <time>2023-11-26T10:07:39.000Z</time>
      </trkpt>
      <trkpt lat="43.63678" lon="6.25483">
        <ele>693.4</ele>
        <time>2023-11-26T10:07:43.000Z</time>
      </trkpt>
      <trkpt lat="43.63676" lon="6.25488">
        <ele>693.6</ele>
        <time>2023-11-26T10:07:47.000Z</time>
      </trkpt>
      <trkpt lat="43.63673" lon="6.25493">
        <ele>693.8</ele>
        <time>2023-11-26T10:07:51.000Z</time>
      </trkpt>
      <trkpt lat="43.63673" lon="6.25493">
        <ele>693.8</ele>
        <time>2023-11-26T10:07:52.000Z</time>
      </trkpt>
      <trkpt lat="43.63668" lon="6.255">
        <ele>694.2</ele>
        <time>2023-11-26T10:07:58.000Z</time>
      </trkpt>
      <trkpt lat="43.63665" lon="6.25504">
        <ele>694.4</ele>
        <time>2023-11-26T10:08:01.000Z</time>
      </trkpt>
      <trkpt lat="43.63663" lon="6.25507">
        <ele>694.6</ele>
        <time>2023-11-26T10:08:04.000Z</time>
      </trkpt>
      <trkpt lat="43.63661" lon="6.25512">
        <ele>695.1</ele>
        <time>2023-11-26T10:08:08.000Z</time>
      </trkpt>
      <trkpt lat="43.63658" lon="6.25516">
        <ele>695.5</ele>
        <time>2023-11-26T10:08:11.000Z</time>
      </trkpt>
      <trkpt lat="43.63656" lon="6.25521">
        <ele>695.9</ele>
        <time>2023-11-26T10:08:16.000Z</time>
      </trkpt>
      <trkpt lat="43.63657" lon="6.25527">
        <ele>696.2</ele>
        <time>2023-11-26T10:08:21.000Z</time>
      </trkpt>
      <trkpt lat="43.63657" lon="6.25532">
        <ele>696.3</ele>
        <time>2023-11-26T10:08:25.000Z</time>
      </trkpt>
      <trkpt lat="43.63655" lon="6.25537">
        <ele>696.5</ele>
        <time>2023-11-26T10:08:28.000Z</time>
      </trkpt>
      <trkpt lat="43.63653" lon="6.25541">
        <ele>696.6</ele>
        <time>2023-11-26T10:08:30.899Z</time>
      </trkpt>
      <trkpt lat="43.63651" lon="6.25546">
        <ele>696.7</ele>
        <time>2023-11-26T10:08:35.000Z</time>
      </trkpt>
      <trkpt lat="43.6365" lon="6.25551">
        <ele>697</ele>
        <time>2023-11-26T10:08:39.000Z</time>
      </trkpt>
      <trkpt lat="43.63646" lon="6.25554">
        <ele>697.8</ele>
        <time>2023-11-26T10:08:51.000Z</time>
      </trkpt>
      <trkpt lat="43.63642" lon="6.25556">
        <ele>698.3</ele>
        <time>2023-11-26T10:09:02.000Z</time>
      </trkpt>
      <trkpt lat="43.63642" lon="6.25557">
        <ele>698.3</ele>
        <time>2023-11-26T10:09:03.000Z</time>
      </trkpt>
      <trkpt lat="43.6364" lon="6.25567">
        <ele>698.6</ele>
        <time>2023-11-26T10:09:10.000Z</time>
      </trkpt>
      <trkpt lat="43.63639" lon="6.25571">
        <ele>698.7</ele>
        <time>2023-11-26T10:09:13.000Z</time>
      </trkpt>
      <trkpt lat="43.63638" lon="6.25575">
        <ele>698.9</ele>
        <time>2023-11-26T10:09:16.000Z</time>
      </trkpt>
      <trkpt lat="43.63635" lon="6.2558">
        <ele>699</ele>
        <time>2023-11-26T10:09:19.000Z</time>
      </trkpt>
      <trkpt lat="43.63634" lon="6.25585">
        <ele>699.2</ele>
        <time>2023-11-26T10:09:24.000Z</time>
      </trkpt>
      <trkpt lat="43.63632" lon="6.25591">
        <ele>699.3</ele>
        <time>2023-11-26T10:09:28.000Z</time>
      </trkpt>
      <trkpt lat="43.6363" lon="6.25596">
        <ele>699.4</ele>
        <time>2023-11-26T10:09:32.000Z</time>
      </trkpt>
      <trkpt lat="43.63629" lon="6.25602">
        <ele>699.5</ele>
        <time>2023-11-26T10:09:36.000Z</time>
      </trkpt>
      <trkpt lat="43.63626" lon="6.25607">
        <ele>699.7</ele>
        <time>2023-11-26T10:09:40.000Z</time>
      </trkpt>
      <trkpt lat="43.63623" lon="6.2561">
        <ele>699.9</ele>
        <time>2023-11-26T10:09:44.000Z</time>
      </trkpt>
      <trkpt lat="43.63621" lon="6.25614">
        <ele>700.1</ele>
        <time>2023-11-26T10:09:47.000Z</time>
      </trkpt>
      <trkpt lat="43.63618" lon="6.25617">
        <ele>700.3</ele>
        <time>2023-11-26T10:09:50.000Z</time>
      </trkpt>
      <trkpt lat="43.63616" lon="6.25623">
        <ele>700.5</ele>
        <time>2023-11-26T10:09:54.000Z</time>
      </trkpt>
      <trkpt lat="43.63614" lon="6.25628">
        <ele>700.8</ele>
        <time>2023-11-26T10:09:59.000Z</time>
      </trkpt>
      <trkpt lat="43.63612" lon="6.25633">
        <ele>701.1</ele>
        <time>2023-11-26T10:10:03.000Z</time>
      </trkpt>
      <trkpt lat="43.63612" lon="6.25634">
        <ele>701.2</ele>
        <time>2023-11-26T10:10:04.000Z</time>
      </trkpt>
      <trkpt lat="43.63608" lon="6.25642">
        <ele>701.7</ele>
        <time>2023-11-26T10:10:10.000Z</time>
      </trkpt>
      <trkpt lat="43.63606" lon="6.25647">
        <ele>702</ele>
        <time>2023-11-26T10:10:14.000Z</time>
      </trkpt>
      <trkpt lat="43.63603" lon="6.25652">
        <ele>702.4</ele>
        <time>2023-11-26T10:10:18.000Z</time>
      </trkpt>
      <trkpt lat="43.63601" lon="6.25657">
        <ele>702.8</ele>
        <time>2023-11-26T10:10:22.000Z</time>
      </trkpt>
      <trkpt lat="43.63598" lon="6.25662">
        <ele>703.1</ele>
        <time>2023-11-26T10:10:26.000Z</time>
      </trkpt>
      <trkpt lat="43.63596" lon="6.25666">
        <ele>703.3</ele>
        <time>2023-11-26T10:10:30.000Z</time>
      </trkpt>
      <trkpt lat="43.63593" lon="6.25671">
        <ele>703.6</ele>
        <time>2023-11-26T10:10:34.000Z</time>
      </trkpt>
      <trkpt lat="43.63591" lon="6.25675">
        <ele>703.9</ele>
        <time>2023-11-26T10:10:38.000Z</time>
      </trkpt>
      <trkpt lat="43.63589" lon="6.2568">
        <ele>704.1</ele>
        <time>2023-11-26T10:10:42.000Z</time>
      </trkpt>
      <trkpt lat="43.63588" lon="6.25685">
        <ele>704.4</ele>
        <time>2023-11-26T10:10:46.000Z</time>
      </trkpt>
      <trkpt lat="43.63587" lon="6.25691">
        <ele>704.7</ele>
        <time>2023-11-26T10:10:50.000Z</time>
      </trkpt>
      <trkpt lat="43.63586" lon="6.25696">
        <ele>705.1</ele>
        <time>2023-11-26T10:10:54.000Z</time>
      </trkpt>
      <trkpt lat="43.63584" lon="6.25701">
        <ele>705.4</ele>
        <time>2023-11-26T10:10:58.000Z</time>
      </trkpt>
      <trkpt lat="43.63581" lon="6.25705">
        <ele>705.8</ele>
        <time>2023-11-26T10:11:03.000Z</time>
      </trkpt>
      <trkpt lat="43.63579" lon="6.25709">
        <ele>706.1</ele>
        <time>2023-11-26T10:11:07.000Z</time>
      </trkpt>
      <trkpt lat="43.63578" lon="6.25711">
        <ele>706.1</ele>
        <time>2023-11-26T10:11:08.000Z</time>
      </trkpt>
      <trkpt lat="43.63574" lon="6.25719">
        <ele>706.6</ele>
        <time>2023-11-26T10:11:15.000Z</time>
      </trkpt>
      <trkpt lat="43.63571" lon="6.25722">
        <ele>706.9</ele>
        <time>2023-11-26T10:11:19.000Z</time>
      </trkpt>
      <trkpt lat="43.63568" lon="6.25726">
        <ele>707.3</ele>
        <time>2023-11-26T10:11:23.000Z</time>
      </trkpt>
      <trkpt lat="43.63565" lon="6.2573">
        <ele>707.8</ele>
        <time>2023-11-26T10:11:27.000Z</time>
      </trkpt>
      <trkpt lat="43.63563" lon="6.25734">
        <ele>708.2</ele>
        <time>2023-11-26T10:11:31.000Z</time>
      </trkpt>
      <trkpt lat="43.6356" lon="6.25738">
        <ele>708.6</ele>
        <time>2023-11-26T10:11:35.000Z</time>
      </trkpt>
      <trkpt lat="43.63557" lon="6.25743">
        <ele>708.9</ele>
        <time>2023-11-26T10:11:39.000Z</time>
      </trkpt>
      <trkpt lat="43.63554" lon="6.25746">
        <ele>708.9</ele>
        <time>2023-11-26T10:11:43.000Z</time>
      </trkpt>
      <trkpt lat="43.6355" lon="6.25749">
        <ele>709</ele>
        <time>2023-11-26T10:11:47.000Z</time>
      </trkpt>
      <trkpt lat="43.63548" lon="6.25752">
        <ele>709</ele>
        <time>2023-11-26T10:11:50.000Z</time>
      </trkpt>
      <trkpt lat="43.63545" lon="6.25756">
        <ele>709.1</ele>
        <time>2023-11-26T10:11:53.000Z</time>
      </trkpt>
      <trkpt lat="43.63542" lon="6.25759">
        <ele>709.2</ele>
        <time>2023-11-26T10:11:57.000Z</time>
      </trkpt>
      <trkpt lat="43.63538" lon="6.25762">
        <ele>709.4</ele>
        <time>2023-11-26T10:12:02.000Z</time>
      </trkpt>
      <trkpt lat="43.63534" lon="6.25764">
        <ele>709.6</ele>
        <time>2023-11-26T10:12:06.000Z</time>
      </trkpt>
      <trkpt lat="43.63531" lon="6.25767">
        <ele>709.8</ele>
        <time>2023-11-26T10:12:09.000Z</time>
      </trkpt>
      <trkpt lat="43.6353" lon="6.25768">
        <ele>709.9</ele>
        <time>2023-11-26T10:12:10.000Z</time>
      </trkpt>
      <trkpt lat="43.63524" lon="6.25772">
        <ele>710.3</ele>
        <time>2023-11-26T10:12:16.000Z</time>
      </trkpt>
      <trkpt lat="43.63522" lon="6.25774">
        <ele>710.4</ele>
        <time>2023-11-26T10:12:19.000Z</time>
      </trkpt>
      <trkpt lat="43.63519" lon="6.25777">
        <ele>710.5</ele>
        <time>2023-11-26T10:12:22.000Z</time>
      </trkpt>
      <trkpt lat="43.63515" lon="6.25781">
        <ele>710.6</ele>
        <time>2023-11-26T10:12:26.000Z</time>
      </trkpt>
      <trkpt lat="43.63513" lon="6.25784">
        <ele>710.7</ele>
        <time>2023-11-26T10:12:29.000Z</time>
      </trkpt>
      <trkpt lat="43.63509" lon="6.25788">
        <ele>710.8</ele>
        <time>2023-11-26T10:12:33.000Z</time>
      </trkpt>
      <trkpt lat="43.63506" lon="6.25793">
        <ele>710.8</ele>
        <time>2023-11-26T10:12:37.000Z</time>
      </trkpt>
      <trkpt lat="43.63503" lon="6.25796">
        <ele>710.8</ele>
        <time>2023-11-26T10:12:41.000Z</time>
      </trkpt>
      <trkpt lat="43.635" lon="6.258">
        <ele>710.9</ele>
        <time>2023-11-26T10:12:45.000Z</time>
      </trkpt>
      <trkpt lat="43.63497" lon="6.25804">
        <ele>710.9</ele>
        <time>2023-11-26T10:12:50.000Z</time>
      </trkpt>
      <trkpt lat="43.63495" lon="6.25808">
        <ele>710.9</ele>
        <time>2023-11-26T10:12:53.000Z</time>
      </trkpt>
      <trkpt lat="43.63492" lon="6.25811">
        <ele>710.9</ele>
        <time>2023-11-26T10:12:56.000Z</time>
      </trkpt>
      <trkpt lat="43.63489" lon="6.25813">
        <ele>710.9</ele>
        <time>2023-11-26T10:12:59.000Z</time>
      </trkpt>
      <trkpt lat="43.63485" lon="6.25816">
        <ele>710.9</ele>
        <time>2023-11-26T10:13:03.000Z</time>
      </trkpt>
      <trkpt lat="43.63482" lon="6.25819">
        <ele>710.9</ele>
        <time>2023-11-26T10:13:07.000Z</time>
      </trkpt>
      <trkpt lat="43.63477" lon="6.2582">
        <ele>710.9</ele>
        <time>2023-11-26T10:13:11.000Z</time>
      </trkpt>
      <trkpt lat="43.63477" lon="6.25821">
        <ele>711</ele>
        <time>2023-11-26T10:13:12.000Z</time>
      </trkpt>
      <trkpt lat="43.63469" lon="6.25823">
        <ele>711.5</ele>
        <time>2023-11-26T10:13:22.000Z</time>
      </trkpt>
      <trkpt lat="43.63465" lon="6.25823">
        <ele>711.7</ele>
        <time>2023-11-26T10:13:27.000Z</time>
      </trkpt>
      <trkpt lat="43.63461" lon="6.25822">
        <ele>711.9</ele>
        <time>2023-11-26T10:13:32.000Z</time>
      </trkpt>
      <trkpt lat="43.63457" lon="6.25822">
        <ele>712.1</ele>
        <time>2023-11-26T10:13:36.000Z</time>
      </trkpt>
      <trkpt lat="43.63453" lon="6.25822">
        <ele>712.4</ele>
        <time>2023-11-26T10:13:40.000Z</time>
      </trkpt>
      <trkpt lat="43.63449" lon="6.25823">
        <ele>712.7</ele>
        <time>2023-11-26T10:13:44.000Z</time>
      </trkpt>
      <trkpt lat="43.63445" lon="6.25825">
        <ele>713</ele>
        <time>2023-11-26T10:13:48.000Z</time>
      </trkpt>
      <trkpt lat="43.63441" lon="6.25826">
        <ele>713.4</ele>
        <time>2023-11-26T10:13:54.000Z</time>
      </trkpt>
      <trkpt lat="43.63438" lon="6.25828">
        <ele>713.5</ele>
        <time>2023-11-26T10:13:57.000Z</time>
      </trkpt>
      <trkpt lat="43.63435" lon="6.25831">
        <ele>713.6</ele>
        <time>2023-11-26T10:13:59.000Z</time>
      </trkpt>
      <trkpt lat="43.63432" lon="6.25833">
        <ele>713.8</ele>
        <time>2023-11-26T10:14:02.000Z</time>
      </trkpt>
      <trkpt lat="43.63428" lon="6.25836">
        <ele>714</ele>
        <time>2023-11-26T10:14:07.000Z</time>
      </trkpt>
      <trkpt lat="43.63424" lon="6.25839">
        <ele>714.2</ele>
        <time>2023-11-26T10:14:13.000Z</time>
      </trkpt>
      <trkpt lat="43.63424" lon="6.25839">
        <ele>714.2</ele>
        <time>2023-11-26T10:14:14.000Z</time>
      </trkpt>
      <trkpt lat="43.63419" lon="6.25847">
        <ele>714.7</ele>
        <time>2023-11-26T10:14:26.000Z</time>
      </trkpt>
      <trkpt lat="43.63417" lon="6.25851">
        <ele>714.8</ele>
        <time>2023-11-26T10:14:30.000Z</time>
      </trkpt>
      <trkpt lat="43.63414" lon="6.25854">
        <ele>714.8</ele>
        <time>2023-11-26T10:14:33.000Z</time>
      </trkpt>
      <trkpt lat="43.6341" lon="6.25857">
        <ele>714.9</ele>
        <time>2023-11-26T10:14:37.000Z</time>
      </trkpt>
      <trkpt lat="43.63406" lon="6.2586">
        <ele>715</ele>
        <time>2023-11-26T10:14:41.000Z</time>
      </trkpt>
      <trkpt lat="43.63403" lon="6.25863">
        <ele>715.1</ele>
        <time>2023-11-26T10:14:45.000Z</time>
      </trkpt>
      <trkpt lat="43.634" lon="6.25866">
        <ele>715.3</ele>
        <time>2023-11-26T10:14:48.000Z</time>
      </trkpt>
      <trkpt lat="43.63396" lon="6.2587">
        <ele>715.5</ele>
        <time>2023-11-26T10:14:52.000Z</time>
      </trkpt>
      <trkpt lat="43.63393" lon="6.25874">
        <ele>715.7</ele>
        <time>2023-11-26T10:14:56.000Z</time>
      </trkpt>
      <trkpt lat="43.6339" lon="6.25876">
        <ele>715.8</ele>
        <time>2023-11-26T10:14:59.000Z</time>
      </trkpt>
      <trkpt lat="43.63387" lon="6.2588">
        <ele>716.1</ele>
        <time>2023-11-26T10:15:03.000Z</time>
      </trkpt>
      <trkpt lat="43.63384" lon="6.25884">
        <ele>716.3</ele>
        <time>2023-11-26T10:15:07.000Z</time>
      </trkpt>
      <trkpt lat="43.63381" lon="6.25888">
        <ele>716.5</ele>
        <time>2023-11-26T10:15:10.000Z</time>
      </trkpt>
      <trkpt lat="43.63379" lon="6.25891">
        <ele>716.7</ele>
        <time>2023-11-26T10:15:13.000Z</time>
      </trkpt>
      <trkpt lat="43.63377" lon="6.25895">
        <ele>716.9</ele>
        <time>2023-11-26T10:15:17.000Z</time>
      </trkpt>
      <trkpt lat="43.63376" lon="6.25896">
        <ele>716.9</ele>
        <time>2023-11-26T10:15:18.000Z</time>
      </trkpt>
      <trkpt lat="43.63373" lon="6.25905">
        <ele>717.2</ele>
        <time>2023-11-26T10:15:25.000Z</time>
      </trkpt>
      <trkpt lat="43.63371" lon="6.2591">
        <ele>717.4</ele>
        <time>2023-11-26T10:15:29.000Z</time>
      </trkpt>
      <trkpt lat="43.6337" lon="6.25916">
        <ele>717.7</ele>
        <time>2023-11-26T10:15:34.000Z</time>
      </trkpt>
      <trkpt lat="43.63369" lon="6.25921">
        <ele>717.9</ele>
        <time>2023-11-26T10:15:38.000Z</time>
      </trkpt>
      <trkpt lat="43.63366" lon="6.25925">
        <ele>718.2</ele>
        <time>2023-11-26T10:15:42.000Z</time>
      </trkpt>
      <trkpt lat="43.63365" lon="6.25931">
        <ele>718.6</ele>
        <time>2023-11-26T10:15:48.000Z</time>
      </trkpt>
      <trkpt lat="43.63362" lon="6.25935">
        <ele>718.9</ele>
        <time>2023-11-26T10:15:53.000Z</time>
      </trkpt>
      <trkpt lat="43.63358" lon="6.25938">
        <ele>719.1</ele>
        <time>2023-11-26T10:15:57.000Z</time>
      </trkpt>
      <trkpt lat="43.63355" lon="6.25941">
        <ele>719.5</ele>
        <time>2023-11-26T10:16:01.000Z</time>
      </trkpt>
      <trkpt lat="43.63352" lon="6.25944">
        <ele>719.9</ele>
        <time>2023-11-26T10:16:05.000Z</time>
      </trkpt>
      <trkpt lat="43.63348" lon="6.25946">
        <ele>720.3</ele>
        <time>2023-11-26T10:16:10.000Z</time>
      </trkpt>
      <trkpt lat="43.63343" lon="6.25946">
        <ele>720.7</ele>
        <time>2023-11-26T10:16:16.000Z</time>
      </trkpt>
      <trkpt lat="43.63339" lon="6.25946">
        <ele>721.1</ele>
        <time>2023-11-26T10:16:22.000Z</time>
      </trkpt>
      <trkpt lat="43.63338" lon="6.25945">
        <ele>721.1</ele>
        <time>2023-11-26T10:16:23.000Z</time>
      </trkpt>
      <trkpt lat="43.63331" lon="6.25945">
        <ele>721.4</ele>
        <time>2023-11-26T10:16:31.000Z</time>
      </trkpt>
      <trkpt lat="43.63328" lon="6.25946">
        <ele>721.5</ele>
        <time>2023-11-26T10:16:35.000Z</time>
      </trkpt>
      <trkpt lat="43.63323" lon="6.25947">
        <ele>721.7</ele>
        <time>2023-11-26T10:16:39.000Z</time>
      </trkpt>
      <trkpt lat="43.63319" lon="6.25947">
        <ele>722.1</ele>
        <time>2023-11-26T10:16:43.000Z</time>
      </trkpt>
      <trkpt lat="43.63315" lon="6.25949">
        <ele>722.4</ele>
        <time>2023-11-26T10:16:46.000Z</time>
      </trkpt>
      <trkpt lat="43.63311" lon="6.25951">
        <ele>722.6</ele>
        <time>2023-11-26T10:16:50.000Z</time>
      </trkpt>
      <trkpt lat="43.63307" lon="6.25952">
        <ele>722.8</ele>
        <time>2023-11-26T10:16:54.000Z</time>
      </trkpt>
      <trkpt lat="43.63304" lon="6.25954">
        <ele>722.9</ele>
        <time>2023-11-26T10:16:57.000Z</time>
      </trkpt>
      <trkpt lat="43.63301" lon="6.25956">
        <ele>723.1</ele>
        <time>2023-11-26T10:17:00.000Z</time>
      </trkpt>
      <trkpt lat="43.63297" lon="6.25958">
        <ele>723.3</ele>
        <time>2023-11-26T10:17:03.000Z</time>
      </trkpt>
      <trkpt lat="43.63293" lon="6.25961">
        <ele>723.4</ele>
        <time>2023-11-26T10:17:06.000Z</time>
      </trkpt>
      <trkpt lat="43.63289" lon="6.25961">
        <ele>723.7</ele>
        <time>2023-11-26T10:17:09.000Z</time>
      </trkpt>
      <trkpt lat="43.63286" lon="6.25964">
        <ele>723.9</ele>
        <time>2023-11-26T10:17:12.000Z</time>
      </trkpt>
      <trkpt lat="43.63284" lon="6.25969">
        <ele>724.1</ele>
        <time>2023-11-26T10:17:15.000Z</time>
      </trkpt>
      <trkpt lat="43.63283" lon="6.25973">
        <ele>724.3</ele>
        <time>2023-11-26T10:17:18.000Z</time>
      </trkpt>
      <trkpt lat="43.6328" lon="6.25978">
        <ele>724.4</ele>
        <time>2023-11-26T10:17:22.000Z</time>
      </trkpt>
      <trkpt lat="43.63278" lon="6.25983">
        <ele>724.6</ele>
        <time>2023-11-26T10:17:26.000Z</time>
      </trkpt>
      <trkpt lat="43.63278" lon="6.25984">
        <ele>724.6</ele>
        <time>2023-11-26T10:17:27.000Z</time>
      </trkpt>
      <trkpt lat="43.63275" lon="6.25993">
        <ele>724.7</ele>
        <time>2023-11-26T10:17:34.000Z</time>
      </trkpt>
      <trkpt lat="43.63274" lon="6.25999">
        <ele>724.9</ele>
        <time>2023-11-26T10:17:39.000Z</time>
      </trkpt>
      <trkpt lat="43.63271" lon="6.26004">
        <ele>725</ele>
        <time>2023-11-26T10:17:43.000Z</time>
      </trkpt>
      <trkpt lat="43.63269" lon="6.26009">
        <ele>725.2</ele>
        <time>2023-11-26T10:17:47.000Z</time>
      </trkpt>
      <trkpt lat="43.63268" lon="6.26014">
        <ele>725.3</ele>
        <time>2023-11-26T10:17:51.000Z</time>
      </trkpt>
      <trkpt lat="43.63266" lon="6.26019">
        <ele>725.4</ele>
        <time>2023-11-26T10:17:55.000Z</time>
      </trkpt>
      <trkpt lat="43.63264" lon="6.26023">
        <ele>725.6</ele>
        <time>2023-11-26T10:17:59.000Z</time>
      </trkpt>
      <trkpt lat="43.63261" lon="6.26027">
        <ele>725.8</ele>
        <time>2023-11-26T10:18:03.000Z</time>
      </trkpt>
      <trkpt lat="43.63258" lon="6.26032">
        <ele>726.1</ele>
        <time>2023-11-26T10:18:07.000Z</time>
      </trkpt>
      <trkpt lat="43.63255" lon="6.26035">
        <ele>726.3</ele>
        <time>2023-11-26T10:18:11.000Z</time>
      </trkpt>
      <trkpt lat="43.63252" lon="6.26038">
        <ele>726.6</ele>
        <time>2023-11-26T10:18:15.000Z</time>
      </trkpt>
      <trkpt lat="43.63248" lon="6.26041">
        <ele>726.8</ele>
        <time>2023-11-26T10:18:19.000Z</time>
      </trkpt>
      <trkpt lat="43.63245" lon="6.26044">
        <ele>727</ele>
        <time>2023-11-26T10:18:24.000Z</time>
      </trkpt>
      <trkpt lat="43.63241" lon="6.26044">
        <ele>727.2</ele>
        <time>2023-11-26T10:18:28.000Z</time>
      </trkpt>
      <trkpt lat="43.63241" lon="6.26045">
        <ele>727.3</ele>
        <time>2023-11-26T10:18:29.000Z</time>
      </trkpt>
      <trkpt lat="43.63233" lon="6.26048">
        <ele>728</ele>
        <time>2023-11-26T10:18:40.000Z</time>
      </trkpt>
      <trkpt lat="43.63229" lon="6.26046">
        <ele>728.4</ele>
        <time>2023-11-26T10:18:46.000Z</time>
      </trkpt>
      <trkpt lat="43.63225" lon="6.26046">
        <ele>728.7</ele>
        <time>2023-11-26T10:18:51.000Z</time>
      </trkpt>
      <trkpt lat="43.63221" lon="6.26047">
        <ele>728.9</ele>
        <time>2023-11-26T10:18:55.000Z</time>
      </trkpt>
      <trkpt lat="43.63216" lon="6.26046">
        <ele>729.1</ele>
        <time>2023-11-26T10:18:59.000Z</time>
      </trkpt>
      <trkpt lat="43.63213" lon="6.26048">
        <ele>729.2</ele>
        <time>2023-11-26T10:19:01.000Z</time>
      </trkpt>
      <trkpt lat="43.6321" lon="6.26052">
        <ele>729.4</ele>
        <time>2023-11-26T10:19:04.000Z</time>
      </trkpt>
      <trkpt lat="43.63207" lon="6.26056">
        <ele>729.5</ele>
        <time>2023-11-26T10:19:07.000Z</time>
      </trkpt>
      <trkpt lat="43.63205" lon="6.2606">
        <ele>729.8</ele>
        <time>2023-11-26T10:19:13.000Z</time>
      </trkpt>
      <trkpt lat="43.63203" lon="6.26064">
        <ele>730</ele>
        <time>2023-11-26T10:19:16.000Z</time>
      </trkpt>
      <trkpt lat="43.63201" lon="6.26067">
        <ele>730.2</ele>
        <time>2023-11-26T10:19:19.000Z</time>
      </trkpt>
      <trkpt lat="43.63198" lon="6.26071">
        <ele>730.5</ele>
        <time>2023-11-26T10:19:22.000Z</time>
      </trkpt>
      <trkpt lat="43.63196" lon="6.26076">
        <ele>730.7</ele>
        <time>2023-11-26T10:19:26.000Z</time>
      </trkpt>
      <trkpt lat="43.63193" lon="6.26081">
        <ele>730.9</ele>
        <time>2023-11-26T10:19:30.000Z</time>
      </trkpt>
      <trkpt lat="43.63193" lon="6.26082">
        <ele>731</ele>
        <time>2023-11-26T10:19:31.000Z</time>
      </trkpt>
      <trkpt lat="43.63188" lon="6.26091">
        <ele>731.2</ele>
        <time>2023-11-26T10:19:38.000Z</time>
      </trkpt>
      <trkpt lat="43.63186" lon="6.26096">
        <ele>731.3</ele>
        <time>2023-11-26T10:19:42.000Z</time>
      </trkpt>
      <trkpt lat="43.63185" lon="6.26102">
        <ele>731.5</ele>
        <time>2023-11-26T10:19:46.000Z</time>
      </trkpt>
      <trkpt lat="43.63183" lon="6.26107">
        <ele>731.6</ele>
        <time>2023-11-26T10:19:50.000Z</time>
      </trkpt>
      <trkpt lat="43.63182" lon="6.26112">
        <ele>731.8</ele>
        <time>2023-11-26T10:19:54.000Z</time>
      </trkpt>
      <trkpt lat="43.63179" lon="6.26117">
        <ele>732</ele>
        <time>2023-11-26T10:19:58.000Z</time>
      </trkpt>
      <trkpt lat="43.63177" lon="6.26122">
        <ele>732.2</ele>
        <time>2023-11-26T10:20:02.000Z</time>
      </trkpt>
      <trkpt lat="43.63175" lon="6.26127">
        <ele>732.4</ele>
        <time>2023-11-26T10:20:06.000Z</time>
      </trkpt>
      <trkpt lat="43.63173" lon="6.26132">
        <ele>732.6</ele>
        <time>2023-11-26T10:20:10.000Z</time>
      </trkpt>
      <trkpt lat="43.6317" lon="6.26137">
        <ele>732.8</ele>
        <time>2023-11-26T10:20:14.000Z</time>
      </trkpt>
      <trkpt lat="43.63167" lon="6.26141">
        <ele>733</ele>
        <time>2023-11-26T10:20:18.000Z</time>
      </trkpt>
      <trkpt lat="43.63164" lon="6.26145">
        <ele>733.2</ele>
        <time>2023-11-26T10:20:22.000Z</time>
      </trkpt>
      <trkpt lat="43.63162" lon="6.2615">
        <ele>733.3</ele>
        <time>2023-11-26T10:20:26.000Z</time>
      </trkpt>
      <trkpt lat="43.63159" lon="6.26153">
        <ele>733.4</ele>
        <time>2023-11-26T10:20:30.000Z</time>
      </trkpt>
      <trkpt lat="43.63155" lon="6.26157">
        <ele>733.4</ele>
        <time>2023-11-26T10:20:34.000Z</time>
      </trkpt>
      <trkpt lat="43.63155" lon="6.26158">
        <ele>733.5</ele>
        <time>2023-11-26T10:20:35.000Z</time>
      </trkpt>
      <trkpt lat="43.63148" lon="6.26164">
        <ele>733.8</ele>
        <time>2023-11-26T10:20:42.000Z</time>
      </trkpt>
      <trkpt lat="43.63145" lon="6.26167">
        <ele>733.9</ele>
        <time>2023-11-26T10:20:46.000Z</time>
      </trkpt>
      <trkpt lat="43.63141" lon="6.26171">
        <ele>734.1</ele>
        <time>2023-11-26T10:20:50.000Z</time>
      </trkpt>
      <trkpt lat="43.63138" lon="6.26174">
        <ele>734.2</ele>
        <time>2023-11-26T10:20:54.000Z</time>
      </trkpt>
      <trkpt lat="43.63134" lon="6.26178">
        <ele>734.3</ele>
        <time>2023-11-26T10:20:58.000Z</time>
      </trkpt>
      <trkpt lat="43.63131" lon="6.26182">
        <ele>734.4</ele>
        <time>2023-11-26T10:21:02.000Z</time>
      </trkpt>
      <trkpt lat="43.63128" lon="6.26184">
        <ele>734.5</ele>
        <time>2023-11-26T10:21:05.000Z</time>
      </trkpt>
      <trkpt lat="43.63125" lon="6.26189">
        <ele>734.6</ele>
        <time>2023-11-26T10:21:09.000Z</time>
      </trkpt>
      <trkpt lat="43.63122" lon="6.26193">
        <ele>734.9</ele>
        <time>2023-11-26T10:21:13.000Z</time>
      </trkpt>
      <trkpt lat="43.6312" lon="6.26197">
        <ele>735.2</ele>
        <time>2023-11-26T10:21:16.000Z</time>
      </trkpt>
      <trkpt lat="43.63117" lon="6.26201">
        <ele>735.4</ele>
        <time>2023-11-26T10:21:20.000Z</time>
      </trkpt>
      <trkpt lat="43.63115" lon="6.26206">
        <ele>735.6</ele>
        <time>2023-11-26T10:21:24.000Z</time>
      </trkpt>
      <trkpt lat="43.63113" lon="6.26212">
        <ele>735.8</ele>
        <time>2023-11-26T10:21:28.000Z</time>
      </trkpt>
      <trkpt lat="43.63112" lon="6.26216">
        <ele>735.9</ele>
        <time>2023-11-26T10:21:31.000Z</time>
      </trkpt>
      <trkpt lat="43.6311" lon="6.26221">
        <ele>736.1</ele>
        <time>2023-11-26T10:21:35.000Z</time>
      </trkpt>
      <trkpt lat="43.6311" lon="6.26222">
        <ele>736.2</ele>
        <time>2023-11-26T10:21:36.000Z</time>
      </trkpt>
      <trkpt lat="43.63106" lon="6.26229">
        <ele>736.6</ele>
        <time>2023-11-26T10:21:42.000Z</time>
      </trkpt>
      <trkpt lat="43.63106" lon="6.26234">
        <ele>736.9</ele>
        <time>2023-11-26T10:21:46.000Z</time>
      </trkpt>
      <trkpt lat="43.63104" lon="6.2624">
        <ele>737.1</ele>
        <time>2023-11-26T10:21:50.000Z</time>
      </trkpt>
      <trkpt lat="43.63102" lon="6.26245">
        <ele>737.3</ele>
        <time>2023-11-26T10:21:54.000Z</time>
      </trkpt>
      <trkpt lat="43.63099" lon="6.26249">
        <ele>737.6</ele>
        <time>2023-11-26T10:21:58.000Z</time>
      </trkpt>
      <trkpt lat="43.63097" lon="6.26254">
        <ele>737.9</ele>
        <time>2023-11-26T10:22:02.000Z</time>
      </trkpt>
      <trkpt lat="43.63095" lon="6.26259">
        <ele>738.2</ele>
        <time>2023-11-26T10:22:06.000Z</time>
      </trkpt>
      <trkpt lat="43.63093" lon="6.26264">
        <ele>738.5</ele>
        <time>2023-11-26T10:22:10.000Z</time>
      </trkpt>
      <trkpt lat="43.63091" lon="6.26269">
        <ele>738.8</ele>
        <time>2023-11-26T10:22:14.000Z</time>
      </trkpt>
      <trkpt lat="43.63088" lon="6.26271">
        <ele>739.1</ele>
        <time>2023-11-26T10:22:18.000Z</time>
      </trkpt>
      <trkpt lat="43.63084" lon="6.26272">
        <ele>739.3</ele>
        <time>2023-11-26T10:22:23.000Z</time>
      </trkpt>
      <trkpt lat="43.63081" lon="6.26274">
        <ele>739.5</ele>
        <time>2023-11-26T10:22:28.000Z</time>
      </trkpt>
      <trkpt lat="43.63076" lon="6.26275">
        <ele>739.7</ele>
        <time>2023-11-26T10:22:33.000Z</time>
      </trkpt>
      <trkpt lat="43.63072" lon="6.26275">
        <ele>739.9</ele>
        <time>2023-11-26T10:22:38.000Z</time>
      </trkpt>
      <trkpt lat="43.63071" lon="6.26274">
        <ele>740</ele>
        <time>2023-11-26T10:22:39.000Z</time>
      </trkpt>
      <trkpt lat="43.63064" lon="6.26274">
        <ele>740.4</ele>
        <time>2023-11-26T10:22:48.000Z</time>
      </trkpt>
      <trkpt lat="43.6306" lon="6.26276">
        <ele>740.8</ele>
        <time>2023-11-26T10:22:55.000Z</time>
      </trkpt>
      <trkpt lat="43.63056" lon="6.26278">
        <ele>741</ele>
        <time>2023-11-26T10:22:59.000Z</time>
      </trkpt>
      <trkpt lat="43.63053" lon="6.26279">
        <ele>741.2</ele>
        <time>2023-11-26T10:23:02.000Z</time>
      </trkpt>
      <trkpt lat="43.63049" lon="6.26282">
        <ele>741.3</ele>
        <time>2023-11-26T10:23:05.000Z</time>
      </trkpt>
      <trkpt lat="43.63047" lon="6.26284">
        <ele>741.4</ele>
        <time>2023-11-26T10:23:07.000Z</time>
      </trkpt>
      <trkpt lat="43.63044" lon="6.26288">
        <ele>741.5</ele>
        <time>2023-11-26T10:23:10.000Z</time>
      </trkpt>
      <trkpt lat="43.63041" lon="6.26292">
        <ele>741.8</ele>
        <time>2023-11-26T10:23:13.000Z</time>
      </trkpt>
      <trkpt lat="43.63039" lon="6.26295">
        <ele>742</ele>
        <time>2023-11-26T10:23:16.000Z</time>
      </trkpt>
      <trkpt lat="43.63037" lon="6.26299">
        <ele>742.2</ele>
        <time>2023-11-26T10:23:19.000Z</time>
      </trkpt>
      <trkpt lat="43.63035" lon="6.26303">
        <ele>742.4</ele>
        <time>2023-11-26T10:23:22.000Z</time>
      </trkpt>
      <trkpt lat="43.63032" lon="6.26307">
        <ele>742.7</ele>
        <time>2023-11-26T10:23:26.000Z</time>
      </trkpt>
      <trkpt lat="43.6303" lon="6.26312">
        <ele>742.9</ele>
        <time>2023-11-26T10:23:30.000Z</time>
      </trkpt>
      <trkpt lat="43.63028" lon="6.26316">
        <ele>743.1</ele>
        <time>2023-11-26T10:23:34.000Z</time>
      </trkpt>
      <trkpt lat="43.63026" lon="6.2632">
        <ele>743.3</ele>
        <time>2023-11-26T10:23:38.000Z</time>
      </trkpt>
      <trkpt lat="43.63023" lon="6.26324">
        <ele>743.5</ele>
        <time>2023-11-26T10:23:42.000Z</time>
      </trkpt>
      <trkpt lat="43.63022" lon="6.26324">
        <ele>743.5</ele>
        <time>2023-11-26T10:23:43.000Z</time>
      </trkpt>
      <trkpt lat="43.63017" lon="6.2633">
        <ele>743.8</ele>
        <time>2023-11-26T10:23:50.000Z</time>
      </trkpt>
      <trkpt lat="43.63015" lon="6.26335">
        <ele>743.9</ele>
        <time>2023-11-26T10:23:54.000Z</time>
      </trkpt>
      <trkpt lat="43.63013" lon="6.26338">
        <ele>744.1</ele>
        <time>2023-11-26T10:23:58.000Z</time>
      </trkpt>
      <trkpt lat="43.63009" lon="6.26342">
        <ele>744.3</ele>
        <time>2023-11-26T10:24:02.000Z</time>
      </trkpt>
      <trkpt lat="43.63006" lon="6.26343">
        <ele>744.5</ele>
        <time>2023-11-26T10:24:06.000Z</time>
      </trkpt>
      <trkpt lat="43.63002" lon="6.26345">
        <ele>744.7</ele>
        <time>2023-11-26T10:24:10.000Z</time>
      </trkpt>
      <trkpt lat="43.62998" lon="6.26348">
        <ele>744.9</ele>
        <time>2023-11-26T10:24:14.000Z</time>
      </trkpt>
      <trkpt lat="43.62994" lon="6.2635">
        <ele>745.1</ele>
        <time>2023-11-26T10:24:19.000Z</time>
      </trkpt>
      <trkpt lat="43.62991" lon="6.26353">
        <ele>745.3</ele>
        <time>2023-11-26T10:24:23.000Z</time>
      </trkpt>
      <trkpt lat="43.62988" lon="6.26355">
        <ele>745.5</ele>
        <time>2023-11-26T10:24:27.000Z</time>
      </trkpt>
      <trkpt lat="43.62985" lon="6.26358">
        <ele>745.8</ele>
        <time>2023-11-26T10:24:31.000Z</time>
      </trkpt>
      <trkpt lat="43.62981" lon="6.2636">
        <ele>746</ele>
        <time>2023-11-26T10:24:35.000Z</time>
      </trkpt>
      <trkpt lat="43.62977" lon="6.2636">
        <ele>746.3</ele>
        <time>2023-11-26T10:24:39.000Z</time>
      </trkpt>
      <trkpt lat="43.62973" lon="6.26361">
        <ele>746.6</ele>
        <time>2023-11-26T10:24:44.000Z</time>
      </trkpt>
      <trkpt lat="43.62972" lon="6.26361">
        <ele>746.6</ele>
        <time>2023-11-26T10:24:45.000Z</time>
      </trkpt>
      <trkpt lat="43.62965" lon="6.26363">
        <ele>747</ele>
        <time>2023-11-26T10:24:53.000Z</time>
      </trkpt>
      <trkpt lat="43.62962" lon="6.26365">
        <ele>747.1</ele>
        <time>2023-11-26T10:24:56.000Z</time>
      </trkpt>
      <trkpt lat="43.62958" lon="6.26367">
        <ele>747.2</ele>
        <time>2023-11-26T10:24:59.000Z</time>
      </trkpt>
      <trkpt lat="43.62955" lon="6.2637">
        <ele>747.4</ele>
        <time>2023-11-26T10:25:02.000Z</time>
      </trkpt>
      <trkpt lat="43.62951" lon="6.26372">
        <ele>747.6</ele>
        <time>2023-11-26T10:25:05.000Z</time>
      </trkpt>
      <trkpt lat="43.62948" lon="6.26375">
        <ele>747.8</ele>
        <time>2023-11-26T10:25:09.000Z</time>
      </trkpt>
      <trkpt lat="43.62945" lon="6.26378">
        <ele>748</ele>
        <time>2023-11-26T10:25:12.000Z</time>
      </trkpt>
      <trkpt lat="43.62941" lon="6.26381">
        <ele>748.2</ele>
        <time>2023-11-26T10:25:16.000Z</time>
      </trkpt>
      <trkpt lat="43.62939" lon="6.26385">
        <ele>748.5</ele>
        <time>2023-11-26T10:25:20.000Z</time>
      </trkpt>
      <trkpt lat="43.62936" lon="6.26389">
        <ele>748.7</ele>
        <time>2023-11-26T10:25:24.000Z</time>
      </trkpt>
      <trkpt lat="43.62932" lon="6.26393">
        <ele>748.9</ele>
        <time>2023-11-26T10:25:28.000Z</time>
      </trkpt>
      <trkpt lat="43.62929" lon="6.26396">
        <ele>749</ele>
        <time>2023-11-26T10:25:32.000Z</time>
      </trkpt>
      <trkpt lat="43.62926" lon="6.26399">
        <ele>749.2</ele>
        <time>2023-11-26T10:25:36.000Z</time>
      </trkpt>
      <trkpt lat="43.62922" lon="6.26403">
        <ele>749.4</ele>
        <time>2023-11-26T10:25:41.000Z</time>
      </trkpt>
      <trkpt lat="43.62918" lon="6.26406">
        <ele>749.5</ele>
        <time>2023-11-26T10:25:45.000Z</time>
      </trkpt>
      <trkpt lat="43.62917" lon="6.26406">
        <ele>749.5</ele>
        <time>2023-11-26T10:25:46.000Z</time>
      </trkpt>
      <trkpt lat="43.62912" lon="6.26411">
        <ele>749.8</ele>
        <time>2023-11-26T10:25:51.000Z</time>
      </trkpt>
      <trkpt lat="43.62908" lon="6.26414">
        <ele>749.9</ele>
        <time>2023-11-26T10:25:55.000Z</time>
      </trkpt>
      <trkpt lat="43.62905" lon="6.26417">
        <ele>750.1</ele>
        <time>2023-11-26T10:25:59.000Z</time>
      </trkpt>
      <trkpt lat="43.62901" lon="6.26421">
        <ele>750.2</ele>
        <time>2023-11-26T10:26:03.000Z</time>
      </trkpt>
      <trkpt lat="43.62898" lon="6.26425">
        <ele>750.4</ele>
        <time>2023-11-26T10:26:07.000Z</time>
      </trkpt>
      <trkpt lat="43.62895" lon="6.26429">
        <ele>750.6</ele>
        <time>2023-11-26T10:26:11.000Z</time>
      </trkpt>
      <trkpt lat="43.62893" lon="6.26432">
        <ele>750.9</ele>
        <time>2023-11-26T10:26:14.000Z</time>
      </trkpt>
      <trkpt lat="43.6289" lon="6.26437">
        <ele>751.2</ele>
        <time>2023-11-26T10:26:18.000Z</time>
      </trkpt>
      <trkpt lat="43.62887" lon="6.26442">
        <ele>751.6</ele>
        <time>2023-11-26T10:26:22.000Z</time>
      </trkpt>
      <trkpt lat="43.62885" lon="6.26447">
        <ele>751.9</ele>
        <time>2023-11-26T10:26:26.000Z</time>
      </trkpt>
      <trkpt lat="43.62884" lon="6.26451">
        <ele>752.2</ele>
        <time>2023-11-26T10:26:30.000Z</time>
      </trkpt>
      <trkpt lat="43.62882" lon="6.26457">
        <ele>752.4</ele>
        <time>2023-11-26T10:26:34.000Z</time>
      </trkpt>
      <trkpt lat="43.6288" lon="6.26462">
        <ele>752.6</ele>
        <time>2023-11-26T10:26:38.000Z</time>
      </trkpt>
      <trkpt lat="43.62879" lon="6.26468">
        <ele>752.8</ele>
        <time>2023-11-26T10:26:42.000Z</time>
      </trkpt>
      <trkpt lat="43.62877" lon="6.26473">
        <ele>753</ele>
        <time>2023-11-26T10:26:46.000Z</time>
      </trkpt>
      <trkpt lat="43.62877" lon="6.26474">
        <ele>753</ele>
        <time>2023-11-26T10:26:47.000Z</time>
      </trkpt>
      <trkpt lat="43.62875" lon="6.26484">
        <ele>753.2</ele>
        <time>2023-11-26T10:26:54.000Z</time>
      </trkpt>
      <trkpt lat="43.62874" lon="6.26489">
        <ele>753.3</ele>
        <time>2023-11-26T10:26:58.000Z</time>
      </trkpt>
      <trkpt lat="43.62871" lon="6.26494">
        <ele>753.3</ele>
        <time>2023-11-26T10:27:02.000Z</time>
      </trkpt>
      <trkpt lat="43.62868" lon="6.26498">
        <ele>753.5</ele>
        <time>2023-11-26T10:27:07.000Z</time>
      </trkpt>
      <trkpt lat="43.62865" lon="6.26502">
        <ele>753.8</ele>
        <time>2023-11-26T10:27:12.000Z</time>
      </trkpt>
      <trkpt lat="43.62862" lon="6.26506">
        <ele>754</ele>
        <time>2023-11-26T10:27:17.000Z</time>
      </trkpt>
      <trkpt lat="43.62858" lon="6.26509">
        <ele>754.2</ele>
        <time>2023-11-26T10:27:23.000Z</time>
      </trkpt>
      <trkpt lat="43.62855" lon="6.26513">
        <ele>754.4</ele>
        <time>2023-11-26T10:27:29.000Z</time>
      </trkpt>
      <trkpt lat="43.62857" lon="6.26519">
        <ele>755.2</ele>
        <time>2023-11-26T10:28:21.000Z</time>
      </trkpt>
      <trkpt lat="43.62857" lon="6.26519">
        <ele>755.3</ele>
        <time>2023-11-26T10:28:22.000Z</time>
      </trkpt>
      <trkpt lat="43.62849" lon="6.2652">
        <ele>756.7</ele>
        <time>2023-11-26T10:30:13.000Z</time>
      </trkpt>
      <trkpt lat="43.62848" lon="6.26521">
        <ele>756.7</ele>
        <time>2023-11-26T10:30:14.000Z</time>
      </trkpt>
      <trkpt lat="43.62844" lon="6.26528">
        <ele>756.9</ele>
        <time>2023-11-26T10:30:22.000Z</time>
      </trkpt>
      <trkpt lat="43.62841" lon="6.26531">
        <ele>756.9</ele>
        <time>2023-11-26T10:30:26.000Z</time>
      </trkpt>
      <trkpt lat="43.62838" lon="6.26535">
        <ele>757</ele>
        <time>2023-11-26T10:30:30.000Z</time>
      </trkpt>
      <trkpt lat="43.62835" lon="6.26539">
        <ele>757</ele>
        <time>2023-11-26T10:30:34.000Z</time>
      </trkpt>
      <trkpt lat="43.62832" lon="6.26543">
        <ele>757.1</ele>
        <time>2023-11-26T10:30:38.000Z</time>
      </trkpt>
      <trkpt lat="43.6283" lon="6.26547">
        <ele>757.2</ele>
        <time>2023-11-26T10:30:43.000Z</time>
      </trkpt>
      <trkpt lat="43.62828" lon="6.26553">
        <ele>757.3</ele>
        <time>2023-11-26T10:30:48.000Z</time>
      </trkpt>
      <trkpt lat="43.62826" lon="6.26557">
        <ele>757.5</ele>
        <time>2023-11-26T10:30:52.000Z</time>
      </trkpt>
      <trkpt lat="43.62825" lon="6.26563">
        <ele>757.7</ele>
        <time>2023-11-26T10:30:56.000Z</time>
      </trkpt>
      <trkpt lat="43.62823" lon="6.26567">
        <ele>758</ele>
        <time>2023-11-26T10:31:00.000Z</time>
      </trkpt>
      <trkpt lat="43.6282" lon="6.26571">
        <ele>758.2</ele>
        <time>2023-11-26T10:31:04.000Z</time>
      </trkpt>
      <trkpt lat="43.62817" lon="6.26573">
        <ele>758.6</ele>
        <time>2023-11-26T10:31:08.000Z</time>
      </trkpt>
      <trkpt lat="43.62813" lon="6.26576">
        <ele>758.9</ele>
        <time>2023-11-26T10:31:12.000Z</time>
      </trkpt>
      <trkpt lat="43.6281" lon="6.26577">
        <ele>759.2</ele>
        <time>2023-11-26T10:31:17.000Z</time>
      </trkpt>
      <trkpt lat="43.62809" lon="6.26578">
        <ele>759.3</ele>
        <time>2023-11-26T10:31:18.000Z</time>
      </trkpt>
      <trkpt lat="43.62802" lon="6.26581">
        <ele>759.7</ele>
        <time>2023-11-26T10:31:26.000Z</time>
      </trkpt>
      <trkpt lat="43.62797" lon="6.26583">
        <ele>759.9</ele>
        <time>2023-11-26T10:31:30.000Z</time>
      </trkpt>
      <trkpt lat="43.62793" lon="6.26585">
        <ele>760.1</ele>
        <time>2023-11-26T10:31:35.000Z</time>
      </trkpt>
      <trkpt lat="43.62789" lon="6.26587">
        <ele>760.3</ele>
        <time>2023-11-26T10:31:39.000Z</time>
      </trkpt>
      <trkpt lat="43.62786" lon="6.26589">
        <ele>760.6</ele>
        <time>2023-11-26T10:31:43.000Z</time>
      </trkpt>
      <trkpt lat="43.62783" lon="6.26591">
        <ele>760.9</ele>
        <time>2023-11-26T10:31:47.000Z</time>
      </trkpt>
      <trkpt lat="43.62779" lon="6.26594">
        <ele>761.1</ele>
        <time>2023-11-26T10:31:51.000Z</time>
      </trkpt>
      <trkpt lat="43.62775" lon="6.26597">
        <ele>761.3</ele>
        <time>2023-11-26T10:31:55.000Z</time>
      </trkpt>
      <trkpt lat="43.62772" lon="6.266">
        <ele>761.6</ele>
        <time>2023-11-26T10:31:59.000Z</time>
      </trkpt>
      <trkpt lat="43.62769" lon="6.26601">
        <ele>761.7</ele>
        <time>2023-11-26T10:32:02.000Z</time>
      </trkpt>
      <trkpt lat="43.62765" lon="6.26603">
        <ele>761.8</ele>
        <time>2023-11-26T10:32:05.000Z</time>
      </trkpt>
      <trkpt lat="43.62761" lon="6.26604">
        <ele>762</ele>
        <time>2023-11-26T10:32:09.000Z</time>
      </trkpt>
      <trkpt lat="43.62757" lon="6.26604">
        <ele>762.1</ele>
        <time>2023-11-26T10:32:12.000Z</time>
      </trkpt>
      <trkpt lat="43.62754" lon="6.26603">
        <ele>762.2</ele>
        <time>2023-11-26T10:32:15.000Z</time>
      </trkpt>
      <trkpt lat="43.62751" lon="6.26602">
        <ele>762.3</ele>
        <time>2023-11-26T10:32:18.000Z</time>
      </trkpt>
      <trkpt lat="43.62749" lon="6.26602">
        <ele>762.3</ele>
        <time>2023-11-26T10:32:19.000Z</time>
      </trkpt>
      <trkpt lat="43.62743" lon="6.266">
        <ele>762.4</ele>
        <time>2023-11-26T10:32:24.000Z</time>
      </trkpt>
      <trkpt lat="43.6274" lon="6.26599">
        <ele>762.5</ele>
        <time>2023-11-26T10:32:27.000Z</time>
      </trkpt>
      <trkpt lat="43.62736" lon="6.26598">
        <ele>762.5</ele>
        <time>2023-11-26T10:32:30.000Z</time>
      </trkpt>
      <trkpt lat="43.62733" lon="6.26598">
        <ele>762.6</ele>
        <time>2023-11-26T10:32:33.000Z</time>
      </trkpt>
      <trkpt lat="43.62729" lon="6.26597">
        <ele>762.6</ele>
        <time>2023-11-26T10:32:36.000Z</time>
      </trkpt>
      <trkpt lat="43.62725" lon="6.26597">
        <ele>762.6</ele>
        <time>2023-11-26T10:32:39.000Z</time>
      </trkpt>
      <trkpt lat="43.62721" lon="6.26596">
        <ele>762.6</ele>
        <time>2023-11-26T10:32:45.000Z</time>
      </trkpt>
      <trkpt lat="43.62716" lon="6.26595">
        <ele>762.6</ele>
        <time>2023-11-26T10:32:49.000Z</time>
      </trkpt>
      <trkpt lat="43.62712" lon="6.26595">
        <ele>762.6</ele>
        <time>2023-11-26T10:32:53.000Z</time>
      </trkpt>
      <trkpt lat="43.62708" lon="6.26595">
        <ele>762.6</ele>
        <time>2023-11-26T10:32:57.000Z</time>
      </trkpt>
      <trkpt lat="43.62705" lon="6.26595">
        <ele>762.6</ele>
        <time>2023-11-26T10:33:00.000Z</time>
      </trkpt>
      <trkpt lat="43.62701" lon="6.26597">
        <ele>762.7</ele>
        <time>2023-11-26T10:33:03.000Z</time>
      </trkpt>
      <trkpt lat="43.62697" lon="6.26599">
        <ele>762.7</ele>
        <time>2023-11-26T10:33:06.000Z</time>
      </trkpt>
      <trkpt lat="43.62694" lon="6.26602">
        <ele>762.9</ele>
        <time>2023-11-26T10:33:09.000Z</time>
      </trkpt>
      <trkpt lat="43.6269" lon="6.26605">
        <ele>763</ele>
        <time>2023-11-26T10:33:12.000Z</time>
      </trkpt>
      <trkpt lat="43.62686" lon="6.26606">
        <ele>763.2</ele>
        <time>2023-11-26T10:33:16.000Z</time>
      </trkpt>
      <trkpt lat="43.62683" lon="6.26608">
        <ele>763.3</ele>
        <time>2023-11-26T10:33:19.000Z</time>
      </trkpt>
      <trkpt lat="43.62682" lon="6.26608">
        <ele>763.2</ele>
        <time>2023-11-26T10:33:20.000Z</time>
      </trkpt>
      <trkpt lat="43.62675" lon="6.26608">
        <ele>763.2</ele>
        <time>2023-11-26T10:33:26.000Z</time>
      </trkpt>
      <trkpt lat="43.62672" lon="6.26606">
        <ele>763.1</ele>
        <time>2023-11-26T10:33:30.000Z</time>
      </trkpt>
      <trkpt lat="43.62668" lon="6.26605">
        <ele>763.1</ele>
        <time>2023-11-26T10:33:34.000Z</time>
      </trkpt>
      <trkpt lat="43.62664" lon="6.26604">
        <ele>763.1</ele>
        <time>2023-11-26T10:33:37.000Z</time>
      </trkpt>
      <trkpt lat="43.62661" lon="6.26604">
        <ele>763.1</ele>
        <time>2023-11-26T10:33:40.000Z</time>
      </trkpt>
      <trkpt lat="43.62657" lon="6.26603">
        <ele>763.1</ele>
        <time>2023-11-26T10:33:44.000Z</time>
      </trkpt>
      <trkpt lat="43.62653" lon="6.26601">
        <ele>763.1</ele>
        <time>2023-11-26T10:33:48.000Z</time>
      </trkpt>
      <trkpt lat="43.6265" lon="6.26598">
        <ele>763.1</ele>
        <time>2023-11-26T10:33:52.000Z</time>
      </trkpt>
      <trkpt lat="43.62647" lon="6.26594">
        <ele>763.1</ele>
        <time>2023-11-26T10:33:57.000Z</time>
      </trkpt>
      <trkpt lat="43.62644" lon="6.26589">
        <ele>763.1</ele>
        <time>2023-11-26T10:34:03.000Z</time>
      </trkpt>
      <trkpt lat="43.62643" lon="6.26584">
        <ele>763</ele>
        <time>2023-11-26T10:34:08.000Z</time>
      </trkpt>
      <trkpt lat="43.62642" lon="6.26578">
        <ele>762.9</ele>
        <time>2023-11-26T10:34:13.000Z</time>
      </trkpt>
      <trkpt lat="43.62641" lon="6.26573">
        <ele>762.6</ele>
        <time>2023-11-26T10:34:18.000Z</time>
      </trkpt>
      <trkpt lat="43.6264" lon="6.26567">
        <ele>762.1</ele>
        <time>2023-11-26T10:34:24.000Z</time>
      </trkpt>
      <trkpt lat="43.6264" lon="6.26566">
        <ele>762</ele>
        <time>2023-11-26T10:34:25.000Z</time>
      </trkpt>
      <trkpt lat="43.62637" lon="6.26557">
        <ele>761.3</ele>
        <time>2023-11-26T10:34:33.000Z</time>
      </trkpt>
      <trkpt lat="43.62635" lon="6.26552">
        <ele>760.9</ele>
        <time>2023-11-26T10:34:38.000Z</time>
      </trkpt>
      <trkpt lat="43.62632" lon="6.26547">
        <ele>760.5</ele>
        <time>2023-11-26T10:34:43.000Z</time>
      </trkpt>
      <trkpt lat="43.6263" lon="6.26542">
        <ele>759.8</ele>
        <time>2023-11-26T10:34:48.000Z</time>
      </trkpt>
      <trkpt lat="43.62629" lon="6.26537">
        <ele>759</ele>
        <time>2023-11-26T10:34:54.000Z</time>
      </trkpt>
      <trkpt lat="43.62627" lon="6.26532">
        <ele>758.3</ele>
        <time>2023-11-26T10:34:59.000Z</time>
      </trkpt>
      <trkpt lat="43.62626" lon="6.26527">
        <ele>757.5</ele>
        <time>2023-11-26T10:35:05.000Z</time>
      </trkpt>
      <trkpt lat="43.62624" lon="6.26522">
        <ele>755.5</ele>
        <time>2023-11-26T10:35:24.000Z</time>
      </trkpt>
      <trkpt lat="43.62628" lon="6.26519">
        <ele>754.8</ele>
        <time>2023-11-26T10:35:45.000Z</time>
      </trkpt>
      <trkpt lat="43.62628" lon="6.26519">
        <ele>754.8</ele>
        <time>2023-11-26T10:35:46.000Z</time>
      </trkpt>
      <trkpt lat="43.62635" lon="6.26514">
        <ele>754.8</ele>
        <time>2023-11-26T10:36:17.000Z</time>
      </trkpt>
      <trkpt lat="43.62639" lon="6.26513">
        <ele>754.9</ele>
        <time>2023-11-26T10:36:23.000Z</time>
      </trkpt>
      <trkpt lat="43.62643" lon="6.26513">
        <ele>755.3</ele>
        <time>2023-11-26T10:36:29.000Z</time>
      </trkpt>
      <trkpt lat="43.62647" lon="6.2651">
        <ele>755.8</ele>
        <time>2023-11-26T10:36:33.900Z</time>
      </trkpt>
      <trkpt lat="43.62651" lon="6.26508">
        <ele>756.4</ele>
        <time>2023-11-26T10:36:39.000Z</time>
      </trkpt>
      <trkpt lat="43.62655" lon="6.26507">
        <ele>756.9</ele>
        <time>2023-11-26T10:36:45.000Z</time>
      </trkpt>
      <trkpt lat="43.62659" lon="6.26506">
        <ele>757.5</ele>
        <time>2023-11-26T10:36:51.000Z</time>
      </trkpt>
      <trkpt lat="43.6266" lon="6.26506">
        <ele>757.6</ele>
        <time>2023-11-26T10:36:52.000Z</time>
      </trkpt>
      <trkpt lat="43.62667" lon="6.26504">
        <ele>758.4</ele>
        <time>2023-11-26T10:37:01.000Z</time>
      </trkpt>
      <trkpt lat="43.6267" lon="6.26503">
        <ele>758.8</ele>
        <time>2023-11-26T10:37:05.000Z</time>
      </trkpt>
      <trkpt lat="43.62673" lon="6.265">
        <ele>759</ele>
        <time>2023-11-26T10:37:09.000Z</time>
      </trkpt>
      <trkpt lat="43.62677" lon="6.26497">
        <ele>759.3</ele>
        <time>2023-11-26T10:37:16.000Z</time>
      </trkpt>
      <trkpt lat="43.6268" lon="6.26493">
        <ele>759.5</ele>
        <time>2023-11-26T10:37:44.000Z</time>
      </trkpt>
      <trkpt lat="43.62683" lon="6.26488">
        <ele>759.2</ele>
        <time>2023-11-26T10:38:09.000Z</time>
      </trkpt>
      <trkpt lat="43.62683" lon="6.26488">
        <ele>759.2</ele>
        <time>2023-11-26T10:38:10.000Z</time>
      </trkpt>
      <trkpt lat="43.62685" lon="6.26477">
        <ele>759.6</ele>
        <time>2023-11-26T10:39:57.000Z</time>
      </trkpt>
      <trkpt lat="43.62686" lon="6.26476">
        <ele>759.6</ele>
        <time>2023-11-26T10:39:58.000Z</time>
      </trkpt>
      <trkpt lat="43.62688" lon="6.26468">
        <ele>760.1</ele>
        <time>2023-11-26T10:40:06.000Z</time>
      </trkpt>
      <trkpt lat="43.62689" lon="6.26462">
        <ele>760.5</ele>
        <time>2023-11-26T10:40:11.000Z</time>
      </trkpt>
      <trkpt lat="43.62688" lon="6.26456">
        <ele>761.1</ele>
        <time>2023-11-26T10:40:17.000Z</time>
      </trkpt>
      <trkpt lat="43.62688" lon="6.2645">
        <ele>761.5</ele>
        <time>2023-11-26T10:40:22.000Z</time>
      </trkpt>
      <trkpt lat="43.62689" lon="6.26444">
        <ele>762</ele>
        <time>2023-11-26T10:40:27.000Z</time>
      </trkpt>
      <trkpt lat="43.62689" lon="6.26438">
        <ele>762.6</ele>
        <time>2023-11-26T10:40:32.000Z</time>
      </trkpt>
      <trkpt lat="43.6269" lon="6.26433">
        <ele>763.1</ele>
        <time>2023-11-26T10:40:37.000Z</time>
      </trkpt>
      <trkpt lat="43.62691" lon="6.26427">
        <ele>763.7</ele>
        <time>2023-11-26T10:40:43.000Z</time>
      </trkpt>
      <trkpt lat="43.62691" lon="6.26421">
        <ele>764.2</ele>
        <time>2023-11-26T10:40:48.000Z</time>
      </trkpt>
      <trkpt lat="43.62691" lon="6.26415">
        <ele>764.7</ele>
        <time>2023-11-26T10:40:53.000Z</time>
      </trkpt>
      <trkpt lat="43.62691" lon="6.26409">
        <ele>765.3</ele>
        <time>2023-11-26T10:40:58.000Z</time>
      </trkpt>
      <trkpt lat="43.62692" lon="6.26408">
        <ele>765.4</ele>
        <time>2023-11-26T10:40:59.000Z</time>
      </trkpt>
      <trkpt lat="43.62692" lon="6.26397">
        <ele>766.9</ele>
        <time>2023-11-26T10:41:10.000Z</time>
      </trkpt>
      <trkpt lat="43.62692" lon="6.26392">
        <ele>767.7</ele>
        <time>2023-11-26T10:41:15.000Z</time>
      </trkpt>
      <trkpt lat="43.62692" lon="6.26386">
        <ele>768.8</ele>
        <time>2023-11-26T10:41:21.000Z</time>
      </trkpt>
      <trkpt lat="43.62693" lon="6.2638">
        <ele>769.7</ele>
        <time>2023-11-26T10:41:27.000Z</time>
      </trkpt>
      <trkpt lat="43.62694" lon="6.26374">
        <ele>770.7</ele>
        <time>2023-11-26T10:41:34.000Z</time>
      </trkpt>
      <trkpt lat="43.62694" lon="6.26368">
        <ele>772.2</ele>
        <time>2023-11-26T10:41:42.000Z</time>
      </trkpt>
      <trkpt lat="43.62696" lon="6.26363">
        <ele>773.5</ele>
        <time>2023-11-26T10:41:50.000Z</time>
      </trkpt>
      <trkpt lat="43.62696" lon="6.26357">
        <ele>774.4</ele>
        <time>2023-11-26T10:41:58.000Z</time>
      </trkpt>
      <trkpt lat="43.62696" lon="6.26351">
        <ele>775.2</ele>
        <time>2023-11-26T10:42:05.000Z</time>
      </trkpt>
      <trkpt lat="43.62696" lon="6.26351">
        <ele>775.3</ele>
        <time>2023-11-26T10:42:06.000Z</time>
      </trkpt>
      <trkpt lat="43.62698" lon="6.2634">
        <ele>777.2</ele>
        <time>2023-11-26T10:42:20.000Z</time>
      </trkpt>
      <trkpt lat="43.62698" lon="6.26335">
        <ele>778.2</ele>
        <time>2023-11-26T10:42:27.000Z</time>
      </trkpt>
      <trkpt lat="43.62699" lon="6.26329">
        <ele>779.1</ele>
        <time>2023-11-26T10:42:34.000Z</time>
      </trkpt>
      <trkpt lat="43.627" lon="6.26323">
        <ele>780.1</ele>
        <time>2023-11-26T10:42:42.000Z</time>
      </trkpt>
      <trkpt lat="43.627" lon="6.26317">
        <ele>781.5</ele>
        <time>2023-11-26T10:42:55.000Z</time>
      </trkpt>
      <trkpt lat="43.627" lon="6.26311">
        <ele>782.8</ele>
        <time>2023-11-26T10:43:05.000Z</time>
      </trkpt>
      <trkpt lat="43.62702" lon="6.26306">
        <ele>783.7</ele>
        <time>2023-11-26T10:43:14.000Z</time>
      </trkpt>
      <trkpt lat="43.62702" lon="6.26305">
        <ele>783.8</ele>
        <time>2023-11-26T10:43:15.000Z</time>
      </trkpt>
      <trkpt lat="43.62703" lon="6.26295">
        <ele>785</ele>
        <time>2023-11-26T10:43:27.000Z</time>
      </trkpt>
      <trkpt lat="43.62703" lon="6.26289">
        <ele>786.2</ele>
        <time>2023-11-26T10:43:36.000Z</time>
      </trkpt>
      <trkpt lat="43.62703" lon="6.26283">
        <ele>787.6</ele>
        <time>2023-11-26T10:43:45.000Z</time>
      </trkpt>
      <trkpt lat="43.62702" lon="6.26278">
        <ele>788.4</ele>
        <time>2023-11-26T10:43:53.000Z</time>
      </trkpt>
      <trkpt lat="43.62701" lon="6.26273">
        <ele>789.5</ele>
        <time>2023-11-26T10:44:01.000Z</time>
      </trkpt>
      <trkpt lat="43.627" lon="6.26267">
        <ele>790.3</ele>
        <time>2023-11-26T10:44:09.000Z</time>
      </trkpt>
      <trkpt lat="43.62701" lon="6.26261">
        <ele>791.2</ele>
        <time>2023-11-26T10:44:17.000Z</time>
      </trkpt>
      <trkpt lat="43.62701" lon="6.26261">
        <ele>791.3</ele>
        <time>2023-11-26T10:44:18.000Z</time>
      </trkpt>
      <trkpt lat="43.62702" lon="6.2625">
        <ele>792.9</ele>
        <time>2023-11-26T10:44:31.000Z</time>
      </trkpt>
      <trkpt lat="43.62702" lon="6.26244">
        <ele>794.2</ele>
        <time>2023-11-26T10:44:40.000Z</time>
      </trkpt>
      <trkpt lat="43.62702" lon="6.26238">
        <ele>795.4</ele>
        <time>2023-11-26T10:44:49.000Z</time>
      </trkpt>
      <trkpt lat="43.62701" lon="6.26232">
        <ele>796.8</ele>
        <time>2023-11-26T10:45:00.000Z</time>
      </trkpt>
      <trkpt lat="43.62702" lon="6.26226">
        <ele>798.1</ele>
        <time>2023-11-26T10:45:10.000Z</time>
      </trkpt>
      <trkpt lat="43.62702" lon="6.2622">
        <ele>799.4</ele>
        <time>2023-11-26T10:45:19.000Z</time>
      </trkpt>
      <trkpt lat="43.62702" lon="6.26219">
        <ele>799.6</ele>
        <time>2023-11-26T10:45:20.000Z</time>
      </trkpt>
      <trkpt lat="43.62701" lon="6.26209">
        <ele>802.6</ele>
        <time>2023-11-26T10:45:49.000Z</time>
      </trkpt>
      <trkpt lat="43.62702" lon="6.26203">
        <ele>804.5</ele>
        <time>2023-11-26T10:46:06.000Z</time>
      </trkpt>
      <trkpt lat="43.62703" lon="6.26198">
        <ele>806</ele>
        <time>2023-11-26T10:46:18.000Z</time>
      </trkpt>
      <trkpt lat="43.62705" lon="6.26192">
        <ele>808</ele>
        <time>2023-11-26T10:46:32.000Z</time>
      </trkpt>
      <trkpt lat="43.62705" lon="6.26192">
        <ele>808.1</ele>
        <time>2023-11-26T10:46:33.000Z</time>
      </trkpt>
      <trkpt lat="43.62707" lon="6.26185">
        <ele>810.1</ele>
        <time>2023-11-26T10:47:50.000Z</time>
      </trkpt>
      <trkpt lat="43.62707" lon="6.26185">
        <ele>810.2</ele>
        <time>2023-11-26T10:47:51.000Z</time>
      </trkpt>
      <trkpt lat="43.62714" lon="6.2618">
        <ele>811.7</ele>
        <time>2023-11-26T10:48:12.000Z</time>
      </trkpt>
      <trkpt lat="43.62717" lon="6.26176">
        <ele>813.6</ele>
        <time>2023-11-26T10:48:26.000Z</time>
      </trkpt>
      <trkpt lat="43.6272" lon="6.26171">
        <ele>815.1</ele>
        <time>2023-11-26T10:48:37.000Z</time>
      </trkpt>
      <trkpt lat="43.62723" lon="6.26167">
        <ele>816.3</ele>
        <time>2023-11-26T10:48:45.000Z</time>
      </trkpt>
      <trkpt lat="43.62725" lon="6.26162">
        <ele>817.4</ele>
        <time>2023-11-26T10:48:53.000Z</time>
      </trkpt>
      <trkpt lat="43.62726" lon="6.26162">
        <ele>817.5</ele>
        <time>2023-11-26T10:48:54.000Z</time>
      </trkpt>
      <trkpt lat="43.6273" lon="6.26153">
        <ele>818.8</ele>
        <time>2023-11-26T10:49:06.000Z</time>
      </trkpt>
      <trkpt lat="43.62732" lon="6.26149">
        <ele>819.5</ele>
        <time>2023-11-26T10:49:14.000Z</time>
      </trkpt>
      <trkpt lat="43.62734" lon="6.26143">
        <ele>820.2</ele>
        <time>2023-11-26T10:49:23.000Z</time>
      </trkpt>
      <trkpt lat="43.62735" lon="6.26138">
        <ele>821.3</ele>
        <time>2023-11-26T10:49:32.000Z</time>
      </trkpt>
      <trkpt lat="43.62738" lon="6.26133">
        <ele>821.9</ele>
        <time>2023-11-26T10:49:40.000Z</time>
      </trkpt>
      <trkpt lat="43.62741" lon="6.26129">
        <ele>822.8</ele>
        <time>2023-11-26T10:49:54.000Z</time>
      </trkpt>
      <trkpt lat="43.62741" lon="6.26129">
        <ele>822.9</ele>
        <time>2023-11-26T10:49:55.000Z</time>
      </trkpt>
      <trkpt lat="43.62746" lon="6.2612">
        <ele>824.4</ele>
        <time>2023-11-26T10:50:13.000Z</time>
      </trkpt>
      <trkpt lat="43.62749" lon="6.26116">
        <ele>825.5</ele>
        <time>2023-11-26T10:50:21.000Z</time>
      </trkpt>
      <trkpt lat="43.62752" lon="6.26113">
        <ele>827.9</ele>
        <time>2023-11-26T10:51:10.000Z</time>
      </trkpt>
      <trkpt lat="43.62752" lon="6.26112">
        <ele>828</ele>
        <time>2023-11-26T10:51:11.000Z</time>
      </trkpt>
      <trkpt lat="43.62758" lon="6.26105">
        <ele>829.2</ele>
        <time>2023-11-26T10:51:33.000Z</time>
      </trkpt>
      <trkpt lat="43.62761" lon="6.26101">
        <ele>829.8</ele>
        <time>2023-11-26T10:51:39.000Z</time>
      </trkpt>
      <trkpt lat="43.62765" lon="6.26098">
        <ele>830.7</ele>
        <time>2023-11-26T10:51:47.000Z</time>
      </trkpt>
      <trkpt lat="43.62768" lon="6.26094">
        <ele>832.1</ele>
        <time>2023-11-26T10:51:59.000Z</time>
      </trkpt>
      <trkpt lat="43.62772" lon="6.26091">
        <ele>833.3</ele>
        <time>2023-11-26T10:52:07.000Z</time>
      </trkpt>
      <trkpt lat="43.62774" lon="6.26087">
        <ele>834.3</ele>
        <time>2023-11-26T10:52:14.000Z</time>
      </trkpt>
      <trkpt lat="43.62775" lon="6.26086">
        <ele>834.4</ele>
        <time>2023-11-26T10:52:15.000Z</time>
      </trkpt>
      <trkpt lat="43.62781" lon="6.26081">
        <ele>835.6</ele>
        <time>2023-11-26T10:52:27.000Z</time>
      </trkpt>
      <trkpt lat="43.62784" lon="6.26077">
        <ele>836.6</ele>
        <time>2023-11-26T10:52:36.000Z</time>
      </trkpt>
      <trkpt lat="43.62788" lon="6.26075">
        <ele>837.8</ele>
        <time>2023-11-26T10:52:44.000Z</time>
      </trkpt>
      <trkpt lat="43.62791" lon="6.26072">
        <ele>838.7</ele>
        <time>2023-11-26T10:52:53.000Z</time>
      </trkpt>
      <trkpt lat="43.62795" lon="6.26069">
        <ele>839.8</ele>
        <time>2023-11-26T10:53:03.000Z</time>
      </trkpt>
      <trkpt lat="43.62797" lon="6.26065">
        <ele>840.3</ele>
        <time>2023-11-26T10:53:07.000Z</time>
      </trkpt>
      <trkpt lat="43.628" lon="6.2606">
        <ele>841.2</ele>
        <time>2023-11-26T10:53:13.000Z</time>
      </trkpt>
      <trkpt lat="43.62803" lon="6.26057">
        <ele>841.9</ele>
        <time>2023-11-26T10:53:20.000Z</time>
      </trkpt>
      <trkpt lat="43.62804" lon="6.26056">
        <ele>842.1</ele>
        <time>2023-11-26T10:53:21.000Z</time>
      </trkpt>
      <trkpt lat="43.62809" lon="6.2605">
        <ele>843.6</ele>
        <time>2023-11-26T10:53:33.000Z</time>
      </trkpt>
      <trkpt lat="43.62812" lon="6.26045">
        <ele>844.5</ele>
        <time>2023-11-26T10:53:40.000Z</time>
      </trkpt>
      <trkpt lat="43.62814" lon="6.2604">
        <ele>845.7</ele>
        <time>2023-11-26T10:53:48.000Z</time>
      </trkpt>
      <trkpt lat="43.62816" lon="6.26034">
        <ele>846.4</ele>
        <time>2023-11-26T10:53:55.000Z</time>
      </trkpt>
      <trkpt lat="43.62818" lon="6.26029">
        <ele>847.3</ele>
        <time>2023-11-26T10:54:04.000Z</time>
      </trkpt>
      <trkpt lat="43.6282" lon="6.26025">
        <ele>848</ele>
        <time>2023-11-26T10:54:10.000Z</time>
      </trkpt>
      <trkpt lat="43.62822" lon="6.2602">
        <ele>848.5</ele>
        <time>2023-11-26T10:54:15.000Z</time>
      </trkpt>
      <trkpt lat="43.62821" lon="6.26014">
        <ele>849.2</ele>
        <time>2023-11-26T10:54:22.000Z</time>
      </trkpt>
      <trkpt lat="43.62821" lon="6.26013">
        <ele>849.4</ele>
        <time>2023-11-26T10:54:23.000Z</time>
      </trkpt>
      <trkpt lat="43.62826" lon="6.26008">
        <ele>850.7</ele>
        <time>2023-11-26T10:54:37.000Z</time>
      </trkpt>
      <trkpt lat="43.62829" lon="6.26005">
        <ele>851.5</ele>
        <time>2023-11-26T10:54:45.000Z</time>
      </trkpt>
      <trkpt lat="43.62831" lon="6.26">
        <ele>851.9</ele>
        <time>2023-11-26T10:54:51.000Z</time>
      </trkpt>
      <trkpt lat="43.62832" lon="6.25994">
        <ele>852.7</ele>
        <time>2023-11-26T10:54:57.000Z</time>
      </trkpt>
      <trkpt lat="43.62834" lon="6.25989">
        <ele>853.7</ele>
        <time>2023-11-26T10:55:06.000Z</time>
      </trkpt>
      <trkpt lat="43.62836" lon="6.25984">
        <ele>854.5</ele>
        <time>2023-11-26T10:55:13.000Z</time>
      </trkpt>
      <trkpt lat="43.62838" lon="6.25979">
        <ele>855.2</ele>
        <time>2023-11-26T10:55:20.000Z</time>
      </trkpt>
      <trkpt lat="43.6284" lon="6.25974">
        <ele>855.9</ele>
        <time>2023-11-26T10:55:27.000Z</time>
      </trkpt>
      <trkpt lat="43.6284" lon="6.25973">
        <ele>856</ele>
        <time>2023-11-26T10:55:28.000Z</time>
      </trkpt>
      <trkpt lat="43.62845" lon="6.25964">
        <ele>857.6</ele>
        <time>2023-11-26T10:55:43.000Z</time>
      </trkpt>
      <trkpt lat="43.62846" lon="6.25959">
        <ele>858.2</ele>
        <time>2023-11-26T10:55:49.000Z</time>
      </trkpt>
      <trkpt lat="43.62849" lon="6.25955">
        <ele>858.7</ele>
        <time>2023-11-26T10:55:55.000Z</time>
      </trkpt>
      <trkpt lat="43.62851" lon="6.25949">
        <ele>859.6</ele>
        <time>2023-11-26T10:56:03.000Z</time>
      </trkpt>
      <trkpt lat="43.62853" lon="6.25944">
        <ele>860.1</ele>
        <time>2023-11-26T10:56:09.000Z</time>
      </trkpt>
      <trkpt lat="43.62855" lon="6.25939">
        <ele>861.4</ele>
        <time>2023-11-26T10:56:19.000Z</time>
      </trkpt>
      <trkpt lat="43.62857" lon="6.25934">
        <ele>862.2</ele>
        <time>2023-11-26T10:56:26.000Z</time>
      </trkpt>
      <trkpt lat="43.62858" lon="6.25928">
        <ele>863.2</ele>
        <time>2023-11-26T10:56:35.000Z</time>
      </trkpt>
      <trkpt lat="43.62858" lon="6.25928">
        <ele>863.3</ele>
        <time>2023-11-26T10:56:36.000Z</time>
      </trkpt>
      <trkpt lat="43.62862" lon="6.25918">
        <ele>865</ele>
        <time>2023-11-26T10:56:51.000Z</time>
      </trkpt>
      <trkpt lat="43.62864" lon="6.25913">
        <ele>867.9</ele>
        <time>2023-11-26T10:58:28.000Z</time>
      </trkpt>
      <trkpt lat="43.62864" lon="6.25912">
        <ele>868</ele>
        <time>2023-11-26T10:58:29.000Z</time>
      </trkpt>
      <trkpt lat="43.62864" lon="6.25902">
        <ele>868.5</ele>
        <time>2023-11-26T10:58:39.000Z</time>
      </trkpt>
      <trkpt lat="43.62865" lon="6.25896">
        <ele>869</ele>
        <time>2023-11-26T10:58:46.000Z</time>
      </trkpt>
      <trkpt lat="43.62865" lon="6.2589">
        <ele>869.9</ele>
        <time>2023-11-26T10:58:54.000Z</time>
      </trkpt>
      <trkpt lat="43.62865" lon="6.25884">
        <ele>870.9</ele>
        <time>2023-11-26T10:59:03.000Z</time>
      </trkpt>
      <trkpt lat="43.62866" lon="6.25878">
        <ele>872.3</ele>
        <time>2023-11-26T10:59:17.000Z</time>
      </trkpt>
      <trkpt lat="43.62863" lon="6.25874">
        <ele>873.2</ele>
        <time>2023-11-26T10:59:26.000Z</time>
      </trkpt>
      <trkpt lat="43.62861" lon="6.25868">
        <ele>874.7</ele>
        <time>2023-11-26T10:59:37.000Z</time>
      </trkpt>
      <trkpt lat="43.62861" lon="6.25868">
        <ele>874.8</ele>
        <time>2023-11-26T10:59:38.000Z</time>
      </trkpt>
      <trkpt lat="43.62855" lon="6.2586">
        <ele>876.8</ele>
        <time>2023-11-26T10:59:54.000Z</time>
      </trkpt>
      <trkpt lat="43.62853" lon="6.25855">
        <ele>878</ele>
        <time>2023-11-26T11:00:04.000Z</time>
      </trkpt>
      <trkpt lat="43.62852" lon="6.25849">
        <ele>878.9</ele>
        <time>2023-11-26T11:00:12.000Z</time>
      </trkpt>
      <trkpt lat="43.62852" lon="6.25843">
        <ele>881.4</ele>
        <time>2023-11-26T11:01:49.000Z</time>
      </trkpt>
      <trkpt lat="43.62852" lon="6.25842">
        <ele>881.4</ele>
        <time>2023-11-26T11:01:50.000Z</time>
      </trkpt>
      <trkpt lat="43.62856" lon="6.25834">
        <ele>881.7</ele>
        <time>2023-11-26T11:02:00.000Z</time>
      </trkpt>
      <trkpt lat="43.62858" lon="6.25829">
        <ele>881.8</ele>
        <time>2023-11-26T11:02:06.000Z</time>
      </trkpt>
      <trkpt lat="43.6286" lon="6.25824">
        <ele>881.9</ele>
        <time>2023-11-26T11:02:11.000Z</time>
      </trkpt>
      <trkpt lat="43.62862" lon="6.25819">
        <ele>882.1</ele>
        <time>2023-11-26T11:02:17.000Z</time>
      </trkpt>
      <trkpt lat="43.62864" lon="6.25815">
        <ele>882.1</ele>
        <time>2023-11-26T11:02:22.000Z</time>
      </trkpt>
      <trkpt lat="43.62866" lon="6.2581">
        <ele>882</ele>
        <time>2023-11-26T11:02:27.000Z</time>
      </trkpt>
      <trkpt lat="43.62869" lon="6.25806">
        <ele>882</ele>
        <time>2023-11-26T11:02:32.000Z</time>
      </trkpt>
      <trkpt lat="43.62872" lon="6.25802">
        <ele>882</ele>
        <time>2023-11-26T11:02:37.000Z</time>
      </trkpt>
      <trkpt lat="43.62875" lon="6.25798">
        <ele>882</ele>
        <time>2023-11-26T11:02:42.000Z</time>
      </trkpt>
      <trkpt lat="43.62877" lon="6.25794">
        <ele>882</ele>
        <time>2023-11-26T11:02:46.000Z</time>
      </trkpt>
      <trkpt lat="43.62879" lon="6.2579">
        <ele>882</ele>
        <time>2023-11-26T11:02:50.000Z</time>
      </trkpt>
      <trkpt lat="43.62879" lon="6.25789">
        <ele>882</ele>
        <time>2023-11-26T11:02:51.000Z</time>
      </trkpt>
      <trkpt lat="43.62883" lon="6.25781">
        <ele>881.8</ele>
        <time>2023-11-26T11:02:58.000Z</time>
      </trkpt>
      <trkpt lat="43.62886" lon="6.25777">
        <ele>881.7</ele>
        <time>2023-11-26T11:03:03.000Z</time>
      </trkpt>
      <trkpt lat="43.62888" lon="6.25772">
        <ele>881.7</ele>
        <time>2023-11-26T11:03:08.000Z</time>
      </trkpt>
      <trkpt lat="43.62891" lon="6.25768">
        <ele>881.6</ele>
        <time>2023-11-26T11:03:13.000Z</time>
      </trkpt>
      <trkpt lat="43.62893" lon="6.25764">
        <ele>881.5</ele>
        <time>2023-11-26T11:03:19.000Z</time>
      </trkpt>
      <trkpt lat="43.62897" lon="6.25761">
        <ele>881.6</ele>
        <time>2023-11-26T11:03:25.000Z</time>
      </trkpt>
      <trkpt lat="43.62897" lon="6.25755">
        <ele>882.3</ele>
        <time>2023-11-26T11:03:46.000Z</time>
      </trkpt>
      <trkpt lat="43.62893" lon="6.25753">
        <ele>883.5</ele>
        <time>2023-11-26T11:09:24.000Z</time>
      </trkpt>
      <trkpt lat="43.62893" lon="6.25753">
        <ele>883.5</ele>
        <time>2023-11-26T11:09:25.000Z</time>
      </trkpt>
      <trkpt lat="43.62897" lon="6.2575">
        <ele>883.6</ele>
        <time>2023-11-26T11:15:19.000Z</time>
      </trkpt>
      <trkpt lat="43.62897" lon="6.25749">
        <ele>883.6</ele>
        <time>2023-11-26T11:15:20.000Z</time>
      </trkpt>
      <trkpt lat="43.62898" lon="6.25751">
        <ele>882.7</ele>
        <time>2023-11-26T11:20:45.000Z</time>
      </trkpt>
      <trkpt lat="43.62898" lon="6.25751">
        <ele>882.7</ele>
        <time>2023-11-26T11:20:46.000Z</time>
      </trkpt>
      <trkpt lat="43.62897" lon="6.25757">
        <ele>883.9</ele>
        <time>2023-11-26T11:47:55.000Z</time>
      </trkpt>
      <trkpt lat="43.62897" lon="6.25758">
        <ele>883.9</ele>
        <time>2023-11-26T11:47:56.000Z</time>
      </trkpt>
      <trkpt lat="43.629" lon="6.25761">
        <ele>882.5</ele>
        <time>2023-11-26T11:50:04.000Z</time>
      </trkpt>
      <trkpt lat="43.629" lon="6.25761">
        <ele>882.5</ele>
        <time>2023-11-26T11:50:05.000Z</time>
      </trkpt>
      <trkpt lat="43.62903" lon="6.25757">
        <ele>883</ele>
        <time>2023-11-26T11:55:10.000Z</time>
      </trkpt>
      <trkpt lat="43.62904" lon="6.25756">
        <ele>883</ele>
        <time>2023-11-26T11:55:11.000Z</time>
      </trkpt>
      <trkpt lat="43.62909" lon="6.25748">
        <ele>883.1</ele>
        <time>2023-11-26T11:55:22.000Z</time>
      </trkpt>
      <trkpt lat="43.62912" lon="6.25744">
        <ele>883.1</ele>
        <time>2023-11-26T11:55:27.000Z</time>
      </trkpt>
      <trkpt lat="43.62914" lon="6.2574">
        <ele>883.1</ele>
        <time>2023-11-26T11:55:32.000Z</time>
      </trkpt>
      <trkpt lat="43.62917" lon="6.25735">
        <ele>883.4</ele>
        <time>2023-11-26T11:55:38.000Z</time>
      </trkpt>
      <trkpt lat="43.62918" lon="6.2573">
        <ele>883.8</ele>
        <time>2023-11-26T11:55:43.000Z</time>
      </trkpt>
      <trkpt lat="43.62919" lon="6.25724">
        <ele>884.3</ele>
        <time>2023-11-26T11:55:50.000Z</time>
      </trkpt>
      <trkpt lat="43.6292" lon="6.25719">
        <ele>884.8</ele>
        <time>2023-11-26T11:55:56.000Z</time>
      </trkpt>
      <trkpt lat="43.62921" lon="6.25714">
        <ele>885.4</ele>
        <time>2023-11-26T11:56:02.000Z</time>
      </trkpt>
      <trkpt lat="43.62922" lon="6.25709">
        <ele>886.2</ele>
        <time>2023-11-26T11:56:07.000Z</time>
      </trkpt>
      <trkpt lat="43.62922" lon="6.25703">
        <ele>887</ele>
        <time>2023-11-26T11:56:12.000Z</time>
      </trkpt>
      <trkpt lat="43.62922" lon="6.25702">
        <ele>887.1</ele>
        <time>2023-11-26T11:56:13.000Z</time>
      </trkpt>
      <trkpt lat="43.62924" lon="6.25692">
        <ele>888.4</ele>
        <time>2023-11-26T11:56:22.000Z</time>
      </trkpt>
      <trkpt lat="43.62925" lon="6.25687">
        <ele>889.1</ele>
        <time>2023-11-26T11:56:27.000Z</time>
      </trkpt>
      <trkpt lat="43.62926" lon="6.25681">
        <ele>889.6</ele>
        <time>2023-11-26T11:56:32.000Z</time>
      </trkpt>
      <trkpt lat="43.62928" lon="6.25676">
        <ele>890.1</ele>
        <time>2023-11-26T11:56:37.000Z</time>
      </trkpt>
      <trkpt lat="43.6293" lon="6.25671">
        <ele>890.6</ele>
        <time>2023-11-26T11:56:42.000Z</time>
      </trkpt>
      <trkpt lat="43.62931" lon="6.25665">
        <ele>891</ele>
        <time>2023-11-26T11:56:47.000Z</time>
      </trkpt>
      <trkpt lat="43.62933" lon="6.2566">
        <ele>891.3</ele>
        <time>2023-11-26T11:56:52.000Z</time>
      </trkpt>
      <trkpt lat="43.62936" lon="6.25656">
        <ele>891.8</ele>
        <time>2023-11-26T11:56:58.000Z</time>
      </trkpt>
      <trkpt lat="43.62939" lon="6.25652">
        <ele>892.1</ele>
        <time>2023-11-26T11:57:03.000Z</time>
      </trkpt>
      <trkpt lat="43.62943" lon="6.25649">
        <ele>892.3</ele>
        <time>2023-11-26T11:57:09.000Z</time>
      </trkpt>
      <trkpt lat="43.62946" lon="6.25646">
        <ele>892.4</ele>
        <time>2023-11-26T11:57:15.000Z</time>
      </trkpt>
      <trkpt lat="43.62947" lon="6.25645">
        <ele>892.4</ele>
        <time>2023-11-26T11:57:16.000Z</time>
      </trkpt>
      <trkpt lat="43.62953" lon="6.25639">
        <ele>892.1</ele>
        <time>2023-11-26T11:57:26.000Z</time>
      </trkpt>
      <trkpt lat="43.62955" lon="6.25635">
        <ele>892</ele>
        <time>2023-11-26T11:57:31.000Z</time>
      </trkpt>
      <trkpt lat="43.62958" lon="6.2563">
        <ele>891.7</ele>
        <time>2023-11-26T11:57:36.000Z</time>
      </trkpt>
      <trkpt lat="43.62961" lon="6.25627">
        <ele>891.5</ele>
        <time>2023-11-26T11:57:40.000Z</time>
      </trkpt>
      <trkpt lat="43.62964" lon="6.25623">
        <ele>891.4</ele>
        <time>2023-11-26T11:57:45.000Z</time>
      </trkpt>
      <trkpt lat="43.62967" lon="6.2562">
        <ele>891.2</ele>
        <time>2023-11-26T11:57:49.000Z</time>
      </trkpt>
      <trkpt lat="43.6297" lon="6.25618">
        <ele>891</ele>
        <time>2023-11-26T11:57:53.000Z</time>
      </trkpt>
      <trkpt lat="43.62974" lon="6.25615">
        <ele>890.8</ele>
        <time>2023-11-26T11:57:57.000Z</time>
      </trkpt>
      <trkpt lat="43.62977" lon="6.25612">
        <ele>890.2</ele>
        <time>2023-11-26T11:58:02.000Z</time>
      </trkpt>
      <trkpt lat="43.6298" lon="6.25608">
        <ele>889.8</ele>
        <time>2023-11-26T11:58:05.000Z</time>
      </trkpt>
      <trkpt lat="43.62983" lon="6.25604">
        <ele>889.4</ele>
        <time>2023-11-26T11:58:09.000Z</time>
      </trkpt>
      <trkpt lat="43.62986" lon="6.256">
        <ele>889.1</ele>
        <time>2023-11-26T11:58:13.000Z</time>
      </trkpt>
      <trkpt lat="43.62988" lon="6.25595">
        <ele>888.8</ele>
        <time>2023-11-26T11:58:18.000Z</time>
      </trkpt>
      <trkpt lat="43.62988" lon="6.25594">
        <ele>888.8</ele>
        <time>2023-11-26T11:58:19.000Z</time>
      </trkpt>
      <trkpt lat="43.62992" lon="6.25586">
        <ele>888.4</ele>
        <time>2023-11-26T11:58:29.000Z</time>
      </trkpt>
      <trkpt lat="43.62994" lon="6.25581">
        <ele>888.3</ele>
        <time>2023-11-26T11:58:34.000Z</time>
      </trkpt>
      <trkpt lat="43.62997" lon="6.25577">
        <ele>888.2</ele>
        <time>2023-11-26T11:58:39.000Z</time>
      </trkpt>
      <trkpt lat="43.63" lon="6.25573">
        <ele>888</ele>
        <time>2023-11-26T11:58:44.000Z</time>
      </trkpt>
      <trkpt lat="43.63003" lon="6.2557">
        <ele>887.8</ele>
        <time>2023-11-26T11:58:49.000Z</time>
      </trkpt>
      <trkpt lat="43.63006" lon="6.25565">
        <ele>887.4</ele>
        <time>2023-11-26T11:58:54.000Z</time>
      </trkpt>
      <trkpt lat="43.63009" lon="6.25562">
        <ele>887.1</ele>
        <time>2023-11-26T11:58:58.000Z</time>
      </trkpt>
      <trkpt lat="43.63011" lon="6.25557">
        <ele>886.8</ele>
        <time>2023-11-26T11:59:03.000Z</time>
      </trkpt>
      <trkpt lat="43.63014" lon="6.25553">
        <ele>886.6</ele>
        <time>2023-11-26T11:59:07.000Z</time>
      </trkpt>
      <trkpt lat="43.63016" lon="6.25549">
        <ele>886.4</ele>
        <time>2023-11-26T11:59:11.000Z</time>
      </trkpt>
      <trkpt lat="43.63019" lon="6.25545">
        <ele>886.2</ele>
        <time>2023-11-26T11:59:15.000Z</time>
      </trkpt>
      <trkpt lat="43.63021" lon="6.25541">
        <ele>885.8</ele>
        <time>2023-11-26T11:59:19.000Z</time>
      </trkpt>
      <trkpt lat="43.63021" lon="6.2554">
        <ele>885.8</ele>
        <time>2023-11-26T11:59:20.000Z</time>
      </trkpt>
      <trkpt lat="43.63027" lon="6.25533">
        <ele>885.3</ele>
        <time>2023-11-26T11:59:28.000Z</time>
      </trkpt>
      <trkpt lat="43.6303" lon="6.25529">
        <ele>885.1</ele>
        <time>2023-11-26T11:59:32.000Z</time>
      </trkpt>
      <trkpt lat="43.63033" lon="6.25525">
        <ele>884.8</ele>
        <time>2023-11-26T11:59:36.000Z</time>
      </trkpt>
      <trkpt lat="43.63036" lon="6.25523">
        <ele>884.7</ele>
        <time>2023-11-26T11:59:39.000Z</time>
      </trkpt>
      <trkpt lat="43.63039" lon="6.2552">
        <ele>884.5</ele>
        <time>2023-11-26T11:59:42.000Z</time>
      </trkpt>
      <trkpt lat="43.63043" lon="6.25517">
        <ele>884.4</ele>
        <time>2023-11-26T11:59:46.000Z</time>
      </trkpt>
      <trkpt lat="43.63046" lon="6.25514">
        <ele>884.2</ele>
        <time>2023-11-26T11:59:51.000Z</time>
      </trkpt>
      <trkpt lat="43.6305" lon="6.25511">
        <ele>884</ele>
        <time>2023-11-26T11:59:55.000Z</time>
      </trkpt>
      <trkpt lat="43.63053" lon="6.25508">
        <ele>883.9</ele>
        <time>2023-11-26T11:59:59.000Z</time>
      </trkpt>
      <trkpt lat="43.63056" lon="6.25505">
        <ele>883.6</ele>
        <time>2023-11-26T12:00:03.000Z</time>
      </trkpt>
      <trkpt lat="43.63058" lon="6.25501">
        <ele>883.3</ele>
        <time>2023-11-26T12:00:06.000Z</time>
      </trkpt>
      <trkpt lat="43.63061" lon="6.25498">
        <ele>883.1</ele>
        <time>2023-11-26T12:00:09.000Z</time>
      </trkpt>
      <trkpt lat="43.63063" lon="6.25494">
        <ele>882.9</ele>
        <time>2023-11-26T12:00:12.000Z</time>
      </trkpt>
      <trkpt lat="43.63066" lon="6.25489">
        <ele>882.7</ele>
        <time>2023-11-26T12:00:16.000Z</time>
      </trkpt>
      <trkpt lat="43.63068" lon="6.25486">
        <ele>882.6</ele>
        <time>2023-11-26T12:00:19.000Z</time>
      </trkpt>
      <trkpt lat="43.6307" lon="6.25482">
        <ele>882.4</ele>
        <time>2023-11-26T12:00:22.000Z</time>
      </trkpt>
      <trkpt lat="43.63071" lon="6.25481">
        <ele>882.3</ele>
        <time>2023-11-26T12:00:23.000Z</time>
      </trkpt>
      <trkpt lat="43.63075" lon="6.25474">
        <ele>881.9</ele>
        <time>2023-11-26T12:00:30.000Z</time>
      </trkpt>
      <trkpt lat="43.63078" lon="6.2547">
        <ele>881.6</ele>
        <time>2023-11-26T12:00:34.000Z</time>
      </trkpt>
      <trkpt lat="43.63081" lon="6.25466">
        <ele>881.1</ele>
        <time>2023-11-26T12:00:39.000Z</time>
      </trkpt>
      <trkpt lat="43.63084" lon="6.25461">
        <ele>880.7</ele>
        <time>2023-11-26T12:00:43.000Z</time>
      </trkpt>
      <trkpt lat="43.63086" lon="6.25458">
        <ele>880.3</ele>
        <time>2023-11-26T12:00:47.000Z</time>
      </trkpt>
      <trkpt lat="43.63089" lon="6.25454">
        <ele>880</ele>
        <time>2023-11-26T12:00:51.000Z</time>
      </trkpt>
      <trkpt lat="43.63092" lon="6.2545">
        <ele>879.5</ele>
        <time>2023-11-26T12:00:55.000Z</time>
      </trkpt>
      <trkpt lat="43.63095" lon="6.25446">
        <ele>879</ele>
        <time>2023-11-26T12:01:00.000Z</time>
      </trkpt>
      <trkpt lat="43.63097" lon="6.25442">
        <ele>878.7</ele>
        <time>2023-11-26T12:01:03.000Z</time>
      </trkpt>
      <trkpt lat="43.631" lon="6.25438">
        <ele>878.3</ele>
        <time>2023-11-26T12:01:07.000Z</time>
      </trkpt>
      <trkpt lat="43.63102" lon="6.25433">
        <ele>877.8</ele>
        <time>2023-11-26T12:01:11.000Z</time>
      </trkpt>
      <trkpt lat="43.63104" lon="6.25429">
        <ele>877.4</ele>
        <time>2023-11-26T12:01:15.000Z</time>
      </trkpt>
      <trkpt lat="43.63106" lon="6.25424">
        <ele>877.1</ele>
        <time>2023-11-26T12:01:19.000Z</time>
      </trkpt>
      <trkpt lat="43.63107" lon="6.25418">
        <ele>876.9</ele>
        <time>2023-11-26T12:01:23.000Z</time>
      </trkpt>
      <trkpt lat="43.63107" lon="6.25416">
        <ele>876.8</ele>
        <time>2023-11-26T12:01:24.000Z</time>
      </trkpt>
      <trkpt lat="43.63107" lon="6.25406">
        <ele>876.3</ele>
        <time>2023-11-26T12:01:31.000Z</time>
      </trkpt>
      <trkpt lat="43.63106" lon="6.25401">
        <ele>876.1</ele>
        <time>2023-11-26T12:01:35.000Z</time>
      </trkpt>
      <trkpt lat="43.63106" lon="6.25395">
        <ele>875.8</ele>
        <time>2023-11-26T12:01:39.000Z</time>
      </trkpt>
      <trkpt lat="43.63106" lon="6.2539">
        <ele>875.7</ele>
        <time>2023-11-26T12:01:42.000Z</time>
      </trkpt>
      <trkpt lat="43.63106" lon="6.25384">
        <ele>875.5</ele>
        <time>2023-11-26T12:01:46.000Z</time>
      </trkpt>
      <trkpt lat="43.63106" lon="6.25379">
        <ele>875.2</ele>
        <time>2023-11-26T12:01:50.000Z</time>
      </trkpt>
      <trkpt lat="43.63107" lon="6.25373">
        <ele>874.9</ele>
        <time>2023-11-26T12:01:54.000Z</time>
      </trkpt>
      <trkpt lat="43.63108" lon="6.25369">
        <ele>874.5</ele>
        <time>2023-11-26T12:01:58.000Z</time>
      </trkpt>
      <trkpt lat="43.63109" lon="6.25364">
        <ele>874.2</ele>
        <time>2023-11-26T12:02:02.000Z</time>
      </trkpt>
      <trkpt lat="43.6311" lon="6.25359">
        <ele>874</ele>
        <time>2023-11-26T12:02:06.000Z</time>
      </trkpt>
      <trkpt lat="43.63111" lon="6.25353">
        <ele>873.3</ele>
        <time>2023-11-26T12:02:11.000Z</time>
      </trkpt>
      <trkpt lat="43.63111" lon="6.25347">
        <ele>872.8</ele>
        <time>2023-11-26T12:02:16.000Z</time>
      </trkpt>
      <trkpt lat="43.63111" lon="6.25341">
        <ele>872.3</ele>
        <time>2023-11-26T12:02:21.000Z</time>
      </trkpt>
      <trkpt lat="43.63111" lon="6.25336">
        <ele>871.7</ele>
        <time>2023-11-26T12:02:26.000Z</time>
      </trkpt>
      <trkpt lat="43.6311" lon="6.25334">
        <ele>871.6</ele>
        <time>2023-11-26T12:02:27.000Z</time>
      </trkpt>
      <trkpt lat="43.63108" lon="6.25326">
        <ele>870.8</ele>
        <time>2023-11-26T12:02:35.000Z</time>
      </trkpt>
      <trkpt lat="43.63107" lon="6.2532">
        <ele>870.2</ele>
        <time>2023-11-26T12:02:40.000Z</time>
      </trkpt>
      <trkpt lat="43.63103" lon="6.25319">
        <ele>869</ele>
        <time>2023-11-26T12:02:52.000Z</time>
      </trkpt>
      <trkpt lat="43.63102" lon="6.25313">
        <ele>867.4</ele>
        <time>2023-11-26T12:03:37.000Z</time>
      </trkpt>
      <trkpt lat="43.63102" lon="6.25312">
        <ele>867.4</ele>
        <time>2023-11-26T12:03:38.000Z</time>
      </trkpt>
      <trkpt lat="43.63101" lon="6.25302">
        <ele>866.8</ele>
        <time>2023-11-26T12:04:18.000Z</time>
      </trkpt>
      <trkpt lat="43.63101" lon="6.25295">
        <ele>866.6</ele>
        <time>2023-11-26T12:04:26.000Z</time>
      </trkpt>
      <trkpt lat="43.631" lon="6.2529">
        <ele>866.4</ele>
        <time>2023-11-26T12:04:35.000Z</time>
      </trkpt>
      <trkpt lat="43.63099" lon="6.25285">
        <ele>866.3</ele>
        <time>2023-11-26T12:04:40.000Z</time>
      </trkpt>
      <trkpt lat="43.63098" lon="6.25284">
        <ele>866.3</ele>
        <time>2023-11-26T12:04:41.000Z</time>
      </trkpt>
      <trkpt lat="43.63096" lon="6.25275">
        <ele>866</ele>
        <time>2023-11-26T12:04:51.000Z</time>
      </trkpt>
      <trkpt lat="43.63097" lon="6.25269">
        <ele>865.7</ele>
        <time>2023-11-26T12:04:56.000Z</time>
      </trkpt>
      <trkpt lat="43.63095" lon="6.25264">
        <ele>865.5</ele>
        <time>2023-11-26T12:05:01.000Z</time>
      </trkpt>
      <trkpt lat="43.63095" lon="6.25258">
        <ele>865.3</ele>
        <time>2023-11-26T12:05:06.000Z</time>
      </trkpt>
      <trkpt lat="43.63096" lon="6.25253">
        <ele>864.9</ele>
        <time>2023-11-26T12:05:11.000Z</time>
      </trkpt>
      <trkpt lat="43.63097" lon="6.25247">
        <ele>864.5</ele>
        <time>2023-11-26T12:05:17.000Z</time>
      </trkpt>
      <trkpt lat="43.63098" lon="6.25242">
        <ele>864.1</ele>
        <time>2023-11-26T12:05:22.000Z</time>
      </trkpt>
      <trkpt lat="43.63099" lon="6.25237">
        <ele>863.5</ele>
        <time>2023-11-26T12:05:28.000Z</time>
      </trkpt>
      <trkpt lat="43.631" lon="6.25232">
        <ele>862.8</ele>
        <time>2023-11-26T12:05:33.000Z</time>
      </trkpt>
      <trkpt lat="43.63102" lon="6.25228">
        <ele>862.3</ele>
        <time>2023-11-26T12:05:38.000Z</time>
      </trkpt>
      <trkpt lat="43.63105" lon="6.25224">
        <ele>861.8</ele>
        <time>2023-11-26T12:05:43.000Z</time>
      </trkpt>
      <trkpt lat="43.63105" lon="6.25223">
        <ele>861.7</ele>
        <time>2023-11-26T12:05:44.000Z</time>
      </trkpt>
      <trkpt lat="43.6311" lon="6.25215">
        <ele>861</ele>
        <time>2023-11-26T12:05:53.000Z</time>
      </trkpt>
      <trkpt lat="43.63112" lon="6.2521">
        <ele>860.6</ele>
        <time>2023-11-26T12:05:58.000Z</time>
      </trkpt>
      <trkpt lat="43.63113" lon="6.25205">
        <ele>860.3</ele>
        <time>2023-11-26T12:06:02.000Z</time>
      </trkpt>
      <trkpt lat="43.63115" lon="6.252">
        <ele>860</ele>
        <time>2023-11-26T12:06:06.000Z</time>
      </trkpt>
      <trkpt lat="43.63117" lon="6.25195">
        <ele>859.7</ele>
        <time>2023-11-26T12:06:09.000Z</time>
      </trkpt>
      <trkpt lat="43.63119" lon="6.2519">
        <ele>859.4</ele>
        <time>2023-11-26T12:06:13.000Z</time>
      </trkpt>
      <trkpt lat="43.6312" lon="6.25184">
        <ele>859.1</ele>
        <time>2023-11-26T12:06:17.000Z</time>
      </trkpt>
      <trkpt lat="43.63121" lon="6.25179">
        <ele>858.7</ele>
        <time>2023-11-26T12:06:21.000Z</time>
      </trkpt>
      <trkpt lat="43.63123" lon="6.25174">
        <ele>858.5</ele>
        <time>2023-11-26T12:06:24.000Z</time>
      </trkpt>
      <trkpt lat="43.63123" lon="6.25169">
        <ele>858.2</ele>
        <time>2023-11-26T12:06:27.000Z</time>
      </trkpt>
      <trkpt lat="43.63123" lon="6.25164">
        <ele>858</ele>
        <time>2023-11-26T12:06:31.000Z</time>
      </trkpt>
      <trkpt lat="43.63123" lon="6.25158">
        <ele>857.7</ele>
        <time>2023-11-26T12:06:35.000Z</time>
      </trkpt>
      <trkpt lat="43.63122" lon="6.25152">
        <ele>857.5</ele>
        <time>2023-11-26T12:06:38.000Z</time>
      </trkpt>
      <trkpt lat="43.63123" lon="6.25148">
        <ele>857.3</ele>
        <time>2023-11-26T12:06:41.000Z</time>
      </trkpt>
      <trkpt lat="43.63123" lon="6.25142">
        <ele>857</ele>
        <time>2023-11-26T12:06:45.000Z</time>
      </trkpt>
      <trkpt lat="43.63123" lon="6.25141">
        <ele>857</ele>
        <time>2023-11-26T12:06:46.000Z</time>
      </trkpt>
      <trkpt lat="43.63123" lon="6.2513">
        <ele>856.7</ele>
        <time>2023-11-26T12:06:53.000Z</time>
      </trkpt>
      <trkpt lat="43.63123" lon="6.25124">
        <ele>856.6</ele>
        <time>2023-11-26T12:06:57.000Z</time>
      </trkpt>
      <trkpt lat="43.63123" lon="6.25118">
        <ele>856.6</ele>
        <time>2023-11-26T12:07:01.000Z</time>
      </trkpt>
      <trkpt lat="43.63123" lon="6.25114">
        <ele>856.5</ele>
        <time>2023-11-26T12:07:04.000Z</time>
      </trkpt>
      <trkpt lat="43.63122" lon="6.25109">
        <ele>856.5</ele>
        <time>2023-11-26T12:07:07.000Z</time>
      </trkpt>
      <trkpt lat="43.63121" lon="6.25103">
        <ele>856.4</ele>
        <time>2023-11-26T12:07:11.000Z</time>
      </trkpt>
      <trkpt lat="43.63119" lon="6.25097">
        <ele>856.4</ele>
        <time>2023-11-26T12:07:15.000Z</time>
      </trkpt>
      <trkpt lat="43.63118" lon="6.25093">
        <ele>856.4</ele>
        <time>2023-11-26T12:07:18.000Z</time>
      </trkpt>
      <trkpt lat="43.63117" lon="6.25087">
        <ele>856.3</ele>
        <time>2023-11-26T12:07:22.000Z</time>
      </trkpt>
      <trkpt lat="43.63116" lon="6.25082">
        <ele>856.2</ele>
        <time>2023-11-26T12:07:26.000Z</time>
      </trkpt>
      <trkpt lat="43.63116" lon="6.25076">
        <ele>855.9</ele>
        <time>2023-11-26T12:07:31.000Z</time>
      </trkpt>
      <trkpt lat="43.63115" lon="6.25071">
        <ele>855.5</ele>
        <time>2023-11-26T12:07:36.000Z</time>
      </trkpt>
      <trkpt lat="43.63115" lon="6.25065">
        <ele>855</ele>
        <time>2023-11-26T12:07:40.000Z</time>
      </trkpt>
      <trkpt lat="43.63114" lon="6.2506">
        <ele>854.5</ele>
        <time>2023-11-26T12:07:44.000Z</time>
      </trkpt>
      <trkpt lat="43.63113" lon="6.25055">
        <ele>854</ele>
        <time>2023-11-26T12:07:48.000Z</time>
      </trkpt>
      <trkpt lat="43.63113" lon="6.25054">
        <ele>853.9</ele>
        <time>2023-11-26T12:07:49.000Z</time>
      </trkpt>
      <trkpt lat="43.63112" lon="6.25045">
        <ele>853.2</ele>
        <time>2023-11-26T12:07:56.000Z</time>
      </trkpt>
      <trkpt lat="43.63112" lon="6.2504">
        <ele>853</ele>
        <time>2023-11-26T12:07:59.000Z</time>
      </trkpt>
      <trkpt lat="43.63113" lon="6.25034">
        <ele>852.7</ele>
        <time>2023-11-26T12:08:03.000Z</time>
      </trkpt>
      <trkpt lat="43.63113" lon="6.2503">
        <ele>852.5</ele>
        <time>2023-11-26T12:08:06.000Z</time>
      </trkpt>
      <trkpt lat="43.63114" lon="6.25025">
        <ele>852.2</ele>
        <time>2023-11-26T12:08:09.000Z</time>
      </trkpt>
      <trkpt lat="43.63115" lon="6.25019">
        <ele>851.8</ele>
        <time>2023-11-26T12:08:13.000Z</time>
      </trkpt>
      <trkpt lat="43.63117" lon="6.25014">
        <ele>851.5</ele>
        <time>2023-11-26T12:08:17.000Z</time>
      </trkpt>
      <trkpt lat="43.63119" lon="6.25009">
        <ele>851.3</ele>
        <time>2023-11-26T12:08:21.000Z</time>
      </trkpt>
      <trkpt lat="43.63119" lon="6.25004">
        <ele>851.2</ele>
        <time>2023-11-26T12:08:24.000Z</time>
      </trkpt>
      <trkpt lat="43.63119" lon="6.24999">
        <ele>851</ele>
        <time>2023-11-26T12:08:27.000Z</time>
      </trkpt>
      <trkpt lat="43.6312" lon="6.24994">
        <ele>850.9</ele>
        <time>2023-11-26T12:08:30.000Z</time>
      </trkpt>
      <trkpt lat="43.63121" lon="6.24988">
        <ele>850.7</ele>
        <time>2023-11-26T12:08:34.000Z</time>
      </trkpt>
      <trkpt lat="43.63121" lon="6.24983">
        <ele>850.5</ele>
        <time>2023-11-26T12:08:39.000Z</time>
      </trkpt>
      <trkpt lat="43.63122" lon="6.24978">
        <ele>850.2</ele>
        <time>2023-11-26T12:08:45.000Z</time>
      </trkpt>
      <trkpt lat="43.63125" lon="6.24973">
        <ele>850.1</ele>
        <time>2023-11-26T12:08:50.000Z</time>
      </trkpt>
      <trkpt lat="43.63126" lon="6.24972">
        <ele>850</ele>
        <time>2023-11-26T12:08:51.000Z</time>
      </trkpt>
      <trkpt lat="43.6313" lon="6.24965">
        <ele>849.8</ele>
        <time>2023-11-26T12:08:57.000Z</time>
      </trkpt>
      <trkpt lat="43.63133" lon="6.24961">
        <ele>849.6</ele>
        <time>2023-11-26T12:09:00.000Z</time>
      </trkpt>
      <trkpt lat="43.63135" lon="6.24956">
        <ele>849.4</ele>
        <time>2023-11-26T12:09:04.000Z</time>
      </trkpt>
      <trkpt lat="43.63138" lon="6.24951">
        <ele>849.2</ele>
        <time>2023-11-26T12:09:08.000Z</time>
      </trkpt>
      <trkpt lat="43.6314" lon="6.24945">
        <ele>848.9</ele>
        <time>2023-11-26T12:09:12.000Z</time>
      </trkpt>
      <trkpt lat="43.63142" lon="6.24941">
        <ele>848.7</ele>
        <time>2023-11-26T12:09:15.000Z</time>
      </trkpt>
      <trkpt lat="43.63144" lon="6.24936">
        <ele>848.4</ele>
        <time>2023-11-26T12:09:19.000Z</time>
      </trkpt>
      <trkpt lat="43.63147" lon="6.24931">
        <ele>848.2</ele>
        <time>2023-11-26T12:09:23.000Z</time>
      </trkpt>
      <trkpt lat="43.6315" lon="6.24928">
        <ele>847.8</ele>
        <time>2023-11-26T12:09:27.000Z</time>
      </trkpt>
      <trkpt lat="43.63153" lon="6.24924">
        <ele>847.4</ele>
        <time>2023-11-26T12:09:31.000Z</time>
      </trkpt>
      <trkpt lat="43.63155" lon="6.2492">
        <ele>847.1</ele>
        <time>2023-11-26T12:09:35.000Z</time>
      </trkpt>
      <trkpt lat="43.63159" lon="6.24917">
        <ele>846.9</ele>
        <time>2023-11-26T12:09:39.000Z</time>
      </trkpt>
      <trkpt lat="43.63162" lon="6.24913">
        <ele>846.6</ele>
        <time>2023-11-26T12:09:43.000Z</time>
      </trkpt>
      <trkpt lat="43.63165" lon="6.24911">
        <ele>846.4</ele>
        <time>2023-11-26T12:09:47.000Z</time>
      </trkpt>
      <trkpt lat="43.63169" lon="6.24908">
        <ele>846.1</ele>
        <time>2023-11-26T12:09:52.000Z</time>
      </trkpt>
      <trkpt lat="43.6317" lon="6.24907">
        <ele>846</ele>
        <time>2023-11-26T12:09:53.000Z</time>
      </trkpt>
      <trkpt lat="43.63176" lon="6.24901">
        <ele>845.3</ele>
        <time>2023-11-26T12:10:01.000Z</time>
      </trkpt>
      <trkpt lat="43.63179" lon="6.24898">
        <ele>844.9</ele>
        <time>2023-11-26T12:10:05.000Z</time>
      </trkpt>
      <trkpt lat="43.63182" lon="6.24894">
        <ele>844.6</ele>
        <time>2023-11-26T12:10:09.000Z</time>
      </trkpt>
      <trkpt lat="43.63184" lon="6.2489">
        <ele>844.2</ele>
        <time>2023-11-26T12:10:12.000Z</time>
      </trkpt>
      <trkpt lat="43.63187" lon="6.24886">
        <ele>843.8</ele>
        <time>2023-11-26T12:10:16.000Z</time>
      </trkpt>
      <trkpt lat="43.63189" lon="6.24881">
        <ele>843.5</ele>
        <time>2023-11-26T12:10:20.000Z</time>
      </trkpt>
      <trkpt lat="43.63191" lon="6.24877">
        <ele>843.3</ele>
        <time>2023-11-26T12:10:23.000Z</time>
      </trkpt>
      <trkpt lat="43.63192" lon="6.24871">
        <ele>842.8</ele>
        <time>2023-11-26T12:10:27.000Z</time>
      </trkpt>
      <trkpt lat="43.63191" lon="6.24866">
        <ele>842.2</ele>
        <time>2023-11-26T12:10:31.000Z</time>
      </trkpt>
      <trkpt lat="43.63192" lon="6.2486">
        <ele>841.8</ele>
        <time>2023-11-26T12:10:35.000Z</time>
      </trkpt>
      <trkpt lat="43.63193" lon="6.24855">
        <ele>841.2</ele>
        <time>2023-11-26T12:10:39.000Z</time>
      </trkpt>
      <trkpt lat="43.63195" lon="6.2485">
        <ele>840.6</ele>
        <time>2023-11-26T12:10:43.000Z</time>
      </trkpt>
      <trkpt lat="43.63195" lon="6.24844">
        <ele>840</ele>
        <time>2023-11-26T12:10:47.000Z</time>
      </trkpt>
      <trkpt lat="43.63196" lon="6.24838">
        <ele>839.5</ele>
        <time>2023-11-26T12:10:51.000Z</time>
      </trkpt>
      <trkpt lat="43.63197" lon="6.24833">
        <ele>839.1</ele>
        <time>2023-11-26T12:10:54.000Z</time>
      </trkpt>
      <trkpt lat="43.63197" lon="6.24832">
        <ele>839</ele>
        <time>2023-11-26T12:10:55.000Z</time>
      </trkpt>
      <trkpt lat="43.63198" lon="6.24824">
        <ele>838.4</ele>
        <time>2023-11-26T12:11:00.000Z</time>
      </trkpt>
      <trkpt lat="43.63199" lon="6.24818">
        <ele>837.9</ele>
        <time>2023-11-26T12:11:04.000Z</time>
      </trkpt>
      <trkpt lat="43.632" lon="6.24812">
        <ele>837.5</ele>
        <time>2023-11-26T12:11:08.000Z</time>
      </trkpt>
      <trkpt lat="43.63201" lon="6.24806">
        <ele>837</ele>
        <time>2023-11-26T12:11:12.000Z</time>
      </trkpt>
      <trkpt lat="43.63203" lon="6.24802">
        <ele>836.7</ele>
        <time>2023-11-26T12:11:15.000Z</time>
      </trkpt>
      <trkpt lat="43.63203" lon="6.24797">
        <ele>836.4</ele>
        <time>2023-11-26T12:11:18.000Z</time>
      </trkpt>
      <trkpt lat="43.63204" lon="6.24793">
        <ele>836.2</ele>
        <time>2023-11-26T12:11:21.000Z</time>
      </trkpt>
      <trkpt lat="43.63205" lon="6.24788">
        <ele>836</ele>
        <time>2023-11-26T12:11:24.000Z</time>
      </trkpt>
      <trkpt lat="43.63206" lon="6.24784">
        <ele>835.8</ele>
        <time>2023-11-26T12:11:27.000Z</time>
      </trkpt>
      <trkpt lat="43.63207" lon="6.24779">
        <ele>835.6</ele>
        <time>2023-11-26T12:11:30.000Z</time>
      </trkpt>
      <trkpt lat="43.63209" lon="6.24775">
        <ele>835.4</ele>
        <time>2023-11-26T12:11:33.000Z</time>
      </trkpt>
      <trkpt lat="43.63211" lon="6.2477">
        <ele>835.2</ele>
        <time>2023-11-26T12:11:36.000Z</time>
      </trkpt>
      <trkpt lat="43.63214" lon="6.24766">
        <ele>835.1</ele>
        <time>2023-11-26T12:11:40.000Z</time>
      </trkpt>
      <trkpt lat="43.63216" lon="6.24762">
        <ele>835.1</ele>
        <time>2023-11-26T12:11:43.000Z</time>
      </trkpt>
      <trkpt lat="43.63218" lon="6.24757">
        <ele>835.1</ele>
        <time>2023-11-26T12:11:47.000Z</time>
      </trkpt>
      <trkpt lat="43.63221" lon="6.24753">
        <ele>835.1</ele>
        <time>2023-11-26T12:11:50.000Z</time>
      </trkpt>
      <trkpt lat="43.63223" lon="6.24749">
        <ele>835.1</ele>
        <time>2023-11-26T12:11:53.000Z</time>
      </trkpt>
      <trkpt lat="43.63226" lon="6.24745">
        <ele>835.2</ele>
        <time>2023-11-26T12:11:56.000Z</time>
      </trkpt>
      <trkpt lat="43.63226" lon="6.24743">
        <ele>835.2</ele>
        <time>2023-11-26T12:11:57.000Z</time>
      </trkpt>
      <trkpt lat="43.6323" lon="6.24736">
        <ele>835.6</ele>
        <time>2023-11-26T12:12:03.000Z</time>
      </trkpt>
      <trkpt lat="43.63233" lon="6.24731">
        <ele>835.9</ele>
        <time>2023-11-26T12:12:07.000Z</time>
      </trkpt>
      <trkpt lat="43.63235" lon="6.24726">
        <ele>836.1</ele>
        <time>2023-11-26T12:12:11.000Z</time>
      </trkpt>
      <trkpt lat="43.63237" lon="6.24721">
        <ele>836.4</ele>
        <time>2023-11-26T12:12:15.000Z</time>
      </trkpt>
      <trkpt lat="43.63239" lon="6.24716">
        <ele>836.9</ele>
        <time>2023-11-26T12:12:20.000Z</time>
      </trkpt>
      <trkpt lat="43.63241" lon="6.24711">
        <ele>837.2</ele>
        <time>2023-11-26T12:12:25.000Z</time>
      </trkpt>
      <trkpt lat="43.63243" lon="6.24706">
        <ele>837.8</ele>
        <time>2023-11-26T12:12:30.000Z</time>
      </trkpt>
      <trkpt lat="43.63245" lon="6.24701">
        <ele>838.5</ele>
        <time>2023-11-26T12:12:35.000Z</time>
      </trkpt>
      <trkpt lat="43.63245" lon="6.24695">
        <ele>839.1</ele>
        <time>2023-11-26T12:12:40.000Z</time>
      </trkpt>
      <trkpt lat="43.63245" lon="6.24689">
        <ele>839.8</ele>
        <time>2023-11-26T12:12:45.000Z</time>
      </trkpt>
      <trkpt lat="43.63245" lon="6.24683">
        <ele>840.6</ele>
        <time>2023-11-26T12:12:50.000Z</time>
      </trkpt>
      <trkpt lat="43.63246" lon="6.24677">
        <ele>841.4</ele>
        <time>2023-11-26T12:12:55.000Z</time>
      </trkpt>
      <trkpt lat="43.63246" lon="6.24671">
        <ele>842</ele>
        <time>2023-11-26T12:13:00.000Z</time>
      </trkpt>
      <trkpt lat="43.63246" lon="6.2467">
        <ele>842.1</ele>
        <time>2023-11-26T12:13:01.000Z</time>
      </trkpt>
      <trkpt lat="43.63246" lon="6.2466">
        <ele>842.8</ele>
        <time>2023-11-26T12:13:08.000Z</time>
      </trkpt>
      <trkpt lat="43.63246" lon="6.24654">
        <ele>843.2</ele>
        <time>2023-11-26T12:13:12.000Z</time>
      </trkpt>
      <trkpt lat="43.63247" lon="6.24649">
        <ele>843.5</ele>
        <time>2023-11-26T12:13:16.000Z</time>
      </trkpt>
      <trkpt lat="43.63248" lon="6.24643">
        <ele>843.8</ele>
        <time>2023-11-26T12:13:20.000Z</time>
      </trkpt>
      <trkpt lat="43.63249" lon="6.24638">
        <ele>844.1</ele>
        <time>2023-11-26T12:13:24.000Z</time>
      </trkpt>
      <trkpt lat="43.6325" lon="6.24633">
        <ele>844.3</ele>
        <time>2023-11-26T12:13:29.000Z</time>
      </trkpt>
      <trkpt lat="43.6325" lon="6.24626">
        <ele>845.1</ele>
        <time>2023-11-26T12:14:51.000Z</time>
      </trkpt>
      <trkpt lat="43.6325" lon="6.24626">
        <ele>845.1</ele>
        <time>2023-11-26T12:14:52.000Z</time>
      </trkpt>
      <trkpt lat="43.63246" lon="6.24625">
        <ele>845.1</ele>
        <time>2023-11-26T12:16:26.000Z</time>
      </trkpt>
      <trkpt lat="43.63245" lon="6.24619">
        <ele>845.1</ele>
        <time>2023-11-26T12:17:30.000Z</time>
      </trkpt>
      <trkpt lat="43.63239" lon="6.24614">
        <ele>844.9</ele>
        <time>2023-11-26T12:17:44.000Z</time>
      </trkpt>
      <trkpt lat="43.63235" lon="6.24614">
        <ele>844.8</ele>
        <time>2023-11-26T12:17:48.000Z</time>
      </trkpt>
      <trkpt lat="43.63231" lon="6.24613">
        <ele>844.8</ele>
        <time>2023-11-26T12:17:53.000Z</time>
      </trkpt>
      <trkpt lat="43.63229" lon="6.24607">
        <ele>844.5</ele>
        <time>2023-11-26T12:17:59.000Z</time>
      </trkpt>
      <trkpt lat="43.63226" lon="6.24604">
        <ele>844.2</ele>
        <time>2023-11-26T12:18:06.000Z</time>
      </trkpt>
      <trkpt lat="43.63221" lon="6.24603">
        <ele>844.1</ele>
        <time>2023-11-26T12:18:12.000Z</time>
      </trkpt>
      <trkpt lat="43.63217" lon="6.24602">
        <ele>844</ele>
        <time>2023-11-26T12:18:18.000Z</time>
      </trkpt>
      <trkpt lat="43.63213" lon="6.24601">
        <ele>844</ele>
        <time>2023-11-26T12:18:27.000Z</time>
      </trkpt>
      <trkpt lat="43.6321" lon="6.24596">
        <ele>843.9</ele>
        <time>2023-11-26T12:18:31.000Z</time>
      </trkpt>
      <trkpt lat="43.63209" lon="6.24595">
        <ele>843.9</ele>
        <time>2023-11-26T12:18:32.000Z</time>
      </trkpt>
      <trkpt lat="43.63203" lon="6.24591">
        <ele>843.7</ele>
        <time>2023-11-26T12:18:41.000Z</time>
      </trkpt>
      <trkpt lat="43.63199" lon="6.24588">
        <ele>843.6</ele>
        <time>2023-11-26T12:18:46.000Z</time>
      </trkpt>
      <trkpt lat="43.63195" lon="6.24587">
        <ele>843.6</ele>
        <time>2023-11-26T12:18:50.000Z</time>
      </trkpt>
      <trkpt lat="43.63191" lon="6.24585">
        <ele>843.6</ele>
        <time>2023-11-26T12:18:55.000Z</time>
      </trkpt>
      <trkpt lat="43.63188" lon="6.24581">
        <ele>843.5</ele>
        <time>2023-11-26T12:19:03.000Z</time>
      </trkpt>
      <trkpt lat="43.63185" lon="6.24578">
        <ele>843.5</ele>
        <time>2023-11-26T12:19:07.000Z</time>
      </trkpt>
      <trkpt lat="43.63181" lon="6.24576">
        <ele>843.5</ele>
        <time>2023-11-26T12:19:13.000Z</time>
      </trkpt>
      <trkpt lat="43.63177" lon="6.24574">
        <ele>843.5</ele>
        <time>2023-11-26T12:19:23.000Z</time>
      </trkpt>
      <trkpt lat="43.63175" lon="6.24569">
        <ele>843.5</ele>
        <time>2023-11-26T12:19:29.000Z</time>
      </trkpt>
      <trkpt lat="43.63172" lon="6.24564">
        <ele>843.5</ele>
        <time>2023-11-26T12:19:37.000Z</time>
      </trkpt>
      <trkpt lat="43.63172" lon="6.24564">
        <ele>843.5</ele>
        <time>2023-11-26T12:19:38.000Z</time>
      </trkpt>
      <trkpt lat="43.63163" lon="6.24562">
        <ele>843.1</ele>
        <time>2023-11-26T12:19:54.000Z</time>
      </trkpt>
      <trkpt lat="43.63159" lon="6.2456">
        <ele>842.6</ele>
        <time>2023-11-26T12:20:16.000Z</time>
      </trkpt>
      <trkpt lat="43.63155" lon="6.24559">
        <ele>842.6</ele>
        <time>2023-11-26T12:20:22.000Z</time>
      </trkpt>
      <trkpt lat="43.63152" lon="6.24556">
        <ele>842.3</ele>
        <time>2023-11-26T12:20:31.000Z</time>
      </trkpt>
      <trkpt lat="43.63151" lon="6.2455">
        <ele>842</ele>
        <time>2023-11-26T12:20:36.000Z</time>
      </trkpt>
      <trkpt lat="43.63149" lon="6.24545">
        <ele>841.7</ele>
        <time>2023-11-26T12:20:42.000Z</time>
      </trkpt>
      <trkpt lat="43.63149" lon="6.24544">
        <ele>841.6</ele>
        <time>2023-11-26T12:20:43.000Z</time>
      </trkpt>
      <trkpt lat="43.63147" lon="6.24534">
        <ele>840.9</ele>
        <time>2023-11-26T12:20:55.000Z</time>
      </trkpt>
      <trkpt lat="43.63145" lon="6.24529">
        <ele>839.8</ele>
        <time>2023-11-26T12:21:25.000Z</time>
      </trkpt>
      <trkpt lat="43.63142" lon="6.24524">
        <ele>839.3</ele>
        <time>2023-11-26T12:21:44.000Z</time>
      </trkpt>
      <trkpt lat="43.63142" lon="6.24524">
        <ele>839.2</ele>
        <time>2023-11-26T12:21:45.000Z</time>
      </trkpt>
      <trkpt lat="43.63138" lon="6.24515">
        <ele>838.8</ele>
        <time>2023-11-26T12:21:59.000Z</time>
      </trkpt>
      <trkpt lat="43.63134" lon="6.24511">
        <ele>838.3</ele>
        <time>2023-11-26T12:22:08.000Z</time>
      </trkpt>
      <trkpt lat="43.6313" lon="6.2451">
        <ele>837.9</ele>
        <time>2023-11-26T12:22:16.000Z</time>
      </trkpt>
      <trkpt lat="43.63127" lon="6.24508">
        <ele>837.6</ele>
        <time>2023-11-26T12:22:24.000Z</time>
      </trkpt>
      <trkpt lat="43.63124" lon="6.24504">
        <ele>837</ele>
        <time>2023-11-26T12:22:32.000Z</time>
      </trkpt>
      <trkpt lat="43.63119" lon="6.24502">
        <ele>836.3</ele>
        <time>2023-11-26T12:22:40.000Z</time>
      </trkpt>
      <trkpt lat="43.63117" lon="6.24498">
        <ele>835</ele>
        <time>2023-11-26T12:22:53.000Z</time>
      </trkpt>
      <trkpt lat="43.63117" lon="6.24497">
        <ele>834.9</ele>
        <time>2023-11-26T12:22:54.000Z</time>
      </trkpt>
      <trkpt lat="43.63111" lon="6.24489">
        <ele>833.2</ele>
        <time>2023-11-26T12:23:08.000Z</time>
      </trkpt>
      <trkpt lat="43.63108" lon="6.24485">
        <ele>832.4</ele>
        <time>2023-11-26T12:23:16.000Z</time>
      </trkpt>
      <trkpt lat="43.63105" lon="6.24481">
        <ele>832</ele>
        <time>2023-11-26T12:23:21.000Z</time>
      </trkpt>
      <trkpt lat="43.63102" lon="6.24476">
        <ele>831.3</ele>
        <time>2023-11-26T12:23:28.000Z</time>
      </trkpt>
      <trkpt lat="43.63099" lon="6.24473">
        <ele>830.6</ele>
        <time>2023-11-26T12:23:37.000Z</time>
      </trkpt>
      <trkpt lat="43.63096" lon="6.24468">
        <ele>830.1</ele>
        <time>2023-11-26T12:23:45.000Z</time>
      </trkpt>
      <trkpt lat="43.63092" lon="6.24466">
        <ele>829.2</ele>
        <time>2023-11-26T12:23:55.000Z</time>
      </trkpt>
      <trkpt lat="43.63091" lon="6.24466">
        <ele>829.2</ele>
        <time>2023-11-26T12:23:56.000Z</time>
      </trkpt>
      <trkpt lat="43.63084" lon="6.24464">
        <ele>828.3</ele>
        <time>2023-11-26T12:24:10.000Z</time>
      </trkpt>
      <trkpt lat="43.63081" lon="6.24461">
        <ele>827.7</ele>
        <time>2023-11-26T12:24:17.000Z</time>
      </trkpt>
      <trkpt lat="43.63076" lon="6.24459">
        <ele>827.2</ele>
        <time>2023-11-26T12:24:25.000Z</time>
      </trkpt>
      <trkpt lat="43.63072" lon="6.24459">
        <ele>826.7</ele>
        <time>2023-11-26T12:26:55.000Z</time>
      </trkpt>
      <trkpt lat="43.63072" lon="6.2446">
        <ele>826.7</ele>
        <time>2023-11-26T12:26:56.000Z</time>
      </trkpt>
      <trkpt lat="43.63073" lon="6.24458">
        <ele>826.9</ele>
        <time>2023-11-26T12:29:33.000Z</time>
      </trkpt>
      <trkpt lat="43.63073" lon="6.24458">
        <ele>826.9</ele>
        <time>2023-11-26T12:29:34.000Z</time>
      </trkpt>
      <trkpt lat="43.63073" lon="6.24446">
        <ele>826.1</ele>
        <time>2023-11-26T12:30:29.000Z</time>
      </trkpt>
      <trkpt lat="43.63072" lon="6.2444">
        <ele>824.7</ele>
        <time>2023-11-26T12:30:41.000Z</time>
      </trkpt>
      <trkpt lat="43.63072" lon="6.24439">
        <ele>824.6</ele>
        <time>2023-11-26T12:30:42.000Z</time>
      </trkpt>
      <trkpt lat="43.63071" lon="6.24429">
        <ele>820.4</ele>
        <time>2023-11-26T12:31:30.000Z</time>
      </trkpt>
      <trkpt lat="43.63074" lon="6.24425">
        <ele>817.8</ele>
        <time>2023-11-26T12:31:59.000Z</time>
      </trkpt>
      <trkpt lat="43.63074" lon="6.24424">
        <ele>817.7</ele>
        <time>2023-11-26T12:32:00.000Z</time>
      </trkpt>
      <trkpt lat="43.63073" lon="6.24413">
        <ele>812.3</ele>
        <time>2023-11-26T12:33:14.000Z</time>
      </trkpt>
      <trkpt lat="43.63073" lon="6.24412">
        <ele>812.2</ele>
        <time>2023-11-26T12:33:15.000Z</time>
      </trkpt>
      <trkpt lat="43.63069" lon="6.24403">
        <ele>808.4</ele>
        <time>2023-11-26T12:33:49.000Z</time>
      </trkpt>
      <trkpt lat="43.63071" lon="6.24398">
        <ele>805.4</ele>
        <time>2023-11-26T12:34:18.000Z</time>
      </trkpt>
      <trkpt lat="43.63071" lon="6.24397">
        <ele>805.3</ele>
        <time>2023-11-26T12:34:19.000Z</time>
      </trkpt>
      <trkpt lat="43.63068" lon="6.24387">
        <ele>801.4</ele>
        <time>2023-11-26T12:34:54.000Z</time>
      </trkpt>
      <trkpt lat="43.63068" lon="6.24381">
        <ele>799.3</ele>
        <time>2023-11-26T12:35:14.000Z</time>
      </trkpt>
      <trkpt lat="43.63067" lon="6.24375">
        <ele>797.5</ele>
        <time>2023-11-26T12:35:36.000Z</time>
      </trkpt>
      <trkpt lat="43.63067" lon="6.24374">
        <ele>797.4</ele>
        <time>2023-11-26T12:35:37.000Z</time>
      </trkpt>
      <trkpt lat="43.63061" lon="6.24367">
        <ele>794.8</ele>
        <time>2023-11-26T12:36:04.000Z</time>
      </trkpt>
      <trkpt lat="43.6306" lon="6.24361">
        <ele>789.7</ele>
        <time>2023-11-26T12:37:00.000Z</time>
      </trkpt>
      <trkpt lat="43.6306" lon="6.24361">
        <ele>789.7</ele>
        <time>2023-11-26T12:37:01.000Z</time>
      </trkpt>
      <trkpt lat="43.63055" lon="6.24352">
        <ele>785</ele>
        <time>2023-11-26T12:38:00.000Z</time>
      </trkpt>
      <trkpt lat="43.63052" lon="6.24348">
        <ele>782.6</ele>
        <time>2023-11-26T12:38:23.000Z</time>
      </trkpt>
      <trkpt lat="43.63052" lon="6.24347">
        <ele>782.4</ele>
        <time>2023-11-26T12:38:24.000Z</time>
      </trkpt>
      <trkpt lat="43.63045" lon="6.24341">
        <ele>778</ele>
        <time>2023-11-26T12:38:56.000Z</time>
      </trkpt>
      <trkpt lat="43.63042" lon="6.24338">
        <ele>775.9</ele>
        <time>2023-11-26T12:39:10.000Z</time>
      </trkpt>
      <trkpt lat="43.63038" lon="6.24335">
        <ele>774.5</ele>
        <time>2023-11-26T12:39:19.000Z</time>
      </trkpt>
      <trkpt lat="43.63037" lon="6.24329">
        <ele>772.6</ele>
        <time>2023-11-26T12:39:33.000Z</time>
      </trkpt>
      <trkpt lat="43.63036" lon="6.24328">
        <ele>772.4</ele>
        <time>2023-11-26T12:39:34.000Z</time>
      </trkpt>
      <trkpt lat="43.63033" lon="6.24318">
        <ele>765.3</ele>
        <time>2023-11-26T12:40:20.000Z</time>
      </trkpt>
      <trkpt lat="43.6303" lon="6.24315">
        <ele>761</ele>
        <time>2023-11-26T12:40:51.000Z</time>
      </trkpt>
      <trkpt lat="43.63029" lon="6.24314">
        <ele>760.8</ele>
        <time>2023-11-26T12:40:52.000Z</time>
      </trkpt>
      <trkpt lat="43.63023" lon="6.24309">
        <ele>757.4</ele>
        <time>2023-11-26T12:41:17.000Z</time>
      </trkpt>
      <trkpt lat="43.63019" lon="6.24306">
        <ele>754.6</ele>
        <time>2023-11-26T12:41:35.000Z</time>
      </trkpt>
      <trkpt lat="43.63016" lon="6.24303">
        <ele>752.6</ele>
        <time>2023-11-26T12:41:47.000Z</time>
      </trkpt>
      <trkpt lat="43.63012" lon="6.243">
        <ele>751.8</ele>
        <time>2023-11-26T12:41:53.000Z</time>
      </trkpt>
      <trkpt lat="43.63012" lon="6.24299">
        <ele>751.6</ele>
        <time>2023-11-26T12:41:54.000Z</time>
      </trkpt>
      <trkpt lat="43.63004" lon="6.24297">
        <ele>746.8</ele>
        <time>2023-11-26T12:42:38.000Z</time>
      </trkpt>
      <trkpt lat="43.63" lon="6.24297">
        <ele>745.9</ele>
        <time>2023-11-26T12:42:47.000Z</time>
      </trkpt>
      <trkpt lat="43.62996" lon="6.24295">
        <ele>742.1</ele>
        <time>2023-11-26T12:43:18.000Z</time>
      </trkpt>
      <trkpt lat="43.62996" lon="6.24295">
        <ele>741.9</ele>
        <time>2023-11-26T12:43:19.000Z</time>
      </trkpt>
      <trkpt lat="43.62995" lon="6.24286">
        <ele>737.3</ele>
        <time>2023-11-26T12:43:47.000Z</time>
      </trkpt>
      <trkpt lat="43.62991" lon="6.2429">
        <ele>732.9</ele>
        <time>2023-11-26T12:44:46.000Z</time>
      </trkpt>
      <trkpt lat="43.62991" lon="6.2429">
        <ele>732.9</ele>
        <time>2023-11-26T12:44:47.000Z</time>
      </trkpt>
      <trkpt lat="43.62985" lon="6.24281">
        <ele>731.2</ele>
        <time>2023-11-26T12:45:33.000Z</time>
      </trkpt>
      <trkpt lat="43.62981" lon="6.24279">
        <ele>729.9</ele>
        <time>2023-11-26T12:45:49.000Z</time>
      </trkpt>
      <trkpt lat="43.62981" lon="6.24279">
        <ele>729.8</ele>
        <time>2023-11-26T12:45:50.000Z</time>
      </trkpt>
      <trkpt lat="43.62974" lon="6.24274">
        <ele>725.3</ele>
        <time>2023-11-26T12:46:29.000Z</time>
      </trkpt>
      <trkpt lat="43.62971" lon="6.2427">
        <ele>724.3</ele>
        <time>2023-11-26T12:46:45.000Z</time>
      </trkpt>
      <trkpt lat="43.62966" lon="6.2427">
        <ele>723.9</ele>
        <time>2023-11-26T12:46:52.000Z</time>
      </trkpt>
      <trkpt lat="43.62966" lon="6.2427">
        <ele>723.9</ele>
        <time>2023-11-26T12:46:53.000Z</time>
      </trkpt>
      <trkpt lat="43.62962" lon="6.24262">
        <ele>720.1</ele>
        <time>2023-11-26T12:47:37.000Z</time>
      </trkpt>
      <trkpt lat="43.62959" lon="6.24258">
        <ele>717.6</ele>
        <time>2023-11-26T12:47:59.000Z</time>
      </trkpt>
      <trkpt lat="43.62958" lon="6.24258">
        <ele>717.5</ele>
        <time>2023-11-26T12:48:00.000Z</time>
      </trkpt>
      <trkpt lat="43.62951" lon="6.24256">
        <ele>715.5</ele>
        <time>2023-11-26T12:48:20.000Z</time>
      </trkpt>
      <trkpt lat="43.6295" lon="6.2425">
        <ele>712.6</ele>
        <time>2023-11-26T12:48:46.000Z</time>
      </trkpt>
      <trkpt lat="43.62953" lon="6.24246">
        <ele>711.9</ele>
        <time>2023-11-26T12:48:53.000Z</time>
      </trkpt>
      <trkpt lat="43.62951" lon="6.24241">
        <ele>709.7</ele>
        <time>2023-11-26T12:49:14.000Z</time>
      </trkpt>
      <trkpt lat="43.6295" lon="6.24241">
        <ele>709.6</ele>
        <time>2023-11-26T12:49:15.000Z</time>
      </trkpt>
      <trkpt lat="43.62943" lon="6.24241">
        <ele>708.8</ele>
        <time>2023-11-26T12:49:21.000Z</time>
      </trkpt>
      <trkpt lat="43.62939" lon="6.2424">
        <ele>707.8</ele>
        <time>2023-11-26T12:49:30.000Z</time>
      </trkpt>
      <trkpt lat="43.62935" lon="6.2424">
        <ele>705.4</ele>
        <time>2023-11-26T12:49:47.000Z</time>
      </trkpt>
      <trkpt lat="43.62931" lon="6.24238">
        <ele>704.2</ele>
        <time>2023-11-26T12:49:57.000Z</time>
      </trkpt>
      <trkpt lat="43.62926" lon="6.24237">
        <ele>702.8</ele>
        <time>2023-11-26T12:50:10.000Z</time>
      </trkpt>
      <trkpt lat="43.62923" lon="6.24233">
        <ele>700.6</ele>
        <time>2023-11-26T12:50:25.000Z</time>
      </trkpt>
      <trkpt lat="43.62923" lon="6.24233">
        <ele>700.4</ele>
        <time>2023-11-26T12:50:26.000Z</time>
      </trkpt>
      <trkpt lat="43.62916" lon="6.24227">
        <ele>694.3</ele>
        <time>2023-11-26T12:51:03.000Z</time>
      </trkpt>
      <trkpt lat="43.62912" lon="6.24224">
        <ele>693.1</ele>
        <time>2023-11-26T12:51:12.000Z</time>
      </trkpt>
      <trkpt lat="43.62909" lon="6.2422">
        <ele>691.1</ele>
        <time>2023-11-26T12:51:25.000Z</time>
      </trkpt>
      <trkpt lat="43.62905" lon="6.24219">
        <ele>689.7</ele>
        <time>2023-11-26T12:51:36.000Z</time>
      </trkpt>
      <trkpt lat="43.62905" lon="6.24218">
        <ele>689.6</ele>
        <time>2023-11-26T12:51:37.000Z</time>
      </trkpt>
      <trkpt lat="43.62897" lon="6.24217">
        <ele>685.1</ele>
        <time>2023-11-26T12:52:11.000Z</time>
      </trkpt>
      <trkpt lat="43.62893" lon="6.24216">
        <ele>683.7</ele>
        <time>2023-11-26T12:52:22.000Z</time>
      </trkpt>
      <trkpt lat="43.62889" lon="6.24214">
        <ele>682.2</ele>
        <time>2023-11-26T12:52:35.000Z</time>
      </trkpt>
      <trkpt lat="43.62886" lon="6.24211">
        <ele>680.4</ele>
        <time>2023-11-26T12:52:47.000Z</time>
      </trkpt>
      <trkpt lat="43.62885" lon="6.2421">
        <ele>680.3</ele>
        <time>2023-11-26T12:52:48.000Z</time>
      </trkpt>
      <trkpt lat="43.62884" lon="6.24205">
        <ele>677.7</ele>
        <time>2023-11-26T12:53:15.000Z</time>
      </trkpt>
      <trkpt lat="43.6288" lon="6.24205">
        <ele>676.5</ele>
        <time>2023-11-26T12:53:42.000Z</time>
      </trkpt>
      <trkpt lat="43.62878" lon="6.242">
        <ele>675</ele>
        <time>2023-11-26T12:54:18.000Z</time>
      </trkpt>
      <trkpt lat="43.62876" lon="6.24201">
        <ele>674.9</ele>
        <time>2023-11-26T12:54:19.000Z</time>
      </trkpt>
      <trkpt lat="43.62874" lon="6.24191">
        <ele>671.8</ele>
        <time>2023-11-26T12:54:51.000Z</time>
      </trkpt>
      <trkpt lat="43.6287" lon="6.24188">
        <ele>671.2</ele>
        <time>2023-11-26T12:54:55.000Z</time>
      </trkpt>
      <trkpt lat="43.62866" lon="6.24187">
        <ele>669.8</ele>
        <time>2023-11-26T12:55:05.000Z</time>
      </trkpt>
      <trkpt lat="43.62862" lon="6.24188">
        <ele>669.3</ele>
        <time>2023-11-26T12:55:08.000Z</time>
      </trkpt>
      <trkpt lat="43.62858" lon="6.2419">
        <ele>666.5</ele>
        <time>2023-11-26T12:55:31.000Z</time>
      </trkpt>
      <trkpt lat="43.62858" lon="6.2419">
        <ele>666.4</ele>
        <time>2023-11-26T12:55:32.000Z</time>
      </trkpt>
      <trkpt lat="43.6285" lon="6.24184">
        <ele>662.1</ele>
        <time>2023-11-26T12:56:14.000Z</time>
      </trkpt>
      <trkpt lat="43.62846" lon="6.24184">
        <ele>661.7</ele>
        <time>2023-11-26T12:56:19.000Z</time>
      </trkpt>
      <trkpt lat="43.62843" lon="6.24181">
        <ele>661</ele>
        <time>2023-11-26T12:56:35.000Z</time>
      </trkpt>
      <trkpt lat="43.62842" lon="6.2418">
        <ele>661</ele>
        <time>2023-11-26T12:56:36.000Z</time>
      </trkpt>
      <trkpt lat="43.62838" lon="6.24175">
        <ele>660.7</ele>
        <time>2023-11-26T12:57:13.000Z</time>
      </trkpt>
      <trkpt lat="43.62839" lon="6.2417">
        <ele>660.6</ele>
        <time>2023-11-26T12:57:20.000Z</time>
      </trkpt>
      <trkpt lat="43.62836" lon="6.24167">
        <ele>660.4</ele>
        <time>2023-11-26T12:57:28.000Z</time>
      </trkpt>
      <trkpt lat="43.62833" lon="6.24163">
        <ele>660.4</ele>
        <time>2023-11-26T12:57:32.000Z</time>
      </trkpt>
      <trkpt lat="43.62829" lon="6.24162">
        <ele>660.3</ele>
        <time>2023-11-26T12:57:36.000Z</time>
      </trkpt>
      <trkpt lat="43.62828" lon="6.24161">
        <ele>660.3</ele>
        <time>2023-11-26T12:57:37.000Z</time>
      </trkpt>
      <trkpt lat="43.62825" lon="6.24152">
        <ele>660.3</ele>
        <time>2023-11-26T12:57:44.000Z</time>
      </trkpt>
      <trkpt lat="43.62824" lon="6.24146">
        <ele>660.2</ele>
        <time>2023-11-26T12:57:48.000Z</time>
      </trkpt>
      <trkpt lat="43.62823" lon="6.24141">
        <ele>660.1</ele>
        <time>2023-11-26T12:57:52.000Z</time>
      </trkpt>
      <trkpt lat="43.62821" lon="6.24136">
        <ele>660.1</ele>
        <time>2023-11-26T12:57:56.000Z</time>
      </trkpt>
      <trkpt lat="43.62819" lon="6.24132">
        <ele>660</ele>
        <time>2023-11-26T12:58:00.000Z</time>
      </trkpt>
      <trkpt lat="43.62817" lon="6.24127">
        <ele>660</ele>
        <time>2023-11-26T12:58:05.000Z</time>
      </trkpt>
      <trkpt lat="43.62815" lon="6.24122">
        <ele>660</ele>
        <time>2023-11-26T12:58:09.000Z</time>
      </trkpt>
      <trkpt lat="43.62813" lon="6.24116">
        <ele>660</ele>
        <time>2023-11-26T12:58:13.000Z</time>
      </trkpt>
      <trkpt lat="43.62812" lon="6.24111">
        <ele>659.9</ele>
        <time>2023-11-26T12:58:17.000Z</time>
      </trkpt>
      <trkpt lat="43.62813" lon="6.24106">
        <ele>659.9</ele>
        <time>2023-11-26T12:58:20.000Z</time>
      </trkpt>
      <trkpt lat="43.62812" lon="6.24101">
        <ele>659.9</ele>
        <time>2023-11-26T12:58:23.000Z</time>
      </trkpt>
      <trkpt lat="43.62811" lon="6.24096">
        <ele>659.9</ele>
        <time>2023-11-26T12:58:27.000Z</time>
      </trkpt>
      <trkpt lat="43.62809" lon="6.24091">
        <ele>659.9</ele>
        <time>2023-11-26T12:58:32.000Z</time>
      </trkpt>
      <trkpt lat="43.62809" lon="6.24085">
        <ele>659.9</ele>
        <time>2023-11-26T12:58:37.000Z</time>
      </trkpt>
      <trkpt lat="43.62808" lon="6.2408">
        <ele>659.9</ele>
        <time>2023-11-26T12:58:41.000Z</time>
      </trkpt>
      <trkpt lat="43.62807" lon="6.24079">
        <ele>659.9</ele>
        <time>2023-11-26T12:58:42.000Z</time>
      </trkpt>
      <trkpt lat="43.62807" lon="6.24069">
        <ele>659.8</ele>
        <time>2023-11-26T12:58:50.000Z</time>
      </trkpt>
      <trkpt lat="43.62806" lon="6.24063">
        <ele>659.7</ele>
        <time>2023-11-26T12:58:54.000Z</time>
      </trkpt>
      <trkpt lat="43.62807" lon="6.24058">
        <ele>659.7</ele>
        <time>2023-11-26T12:58:57.000Z</time>
      </trkpt>
      <trkpt lat="43.62806" lon="6.24053">
        <ele>659.7</ele>
        <time>2023-11-26T12:59:00.000Z</time>
      </trkpt>
      <trkpt lat="43.62805" lon="6.24048">
        <ele>659.6</ele>
        <time>2023-11-26T12:59:04.000Z</time>
      </trkpt>
      <trkpt lat="43.62803" lon="6.24043">
        <ele>659.6</ele>
        <time>2023-11-26T12:59:08.000Z</time>
      </trkpt>
      <trkpt lat="43.62801" lon="6.24038">
        <ele>659.6</ele>
        <time>2023-11-26T12:59:12.000Z</time>
      </trkpt>
      <trkpt lat="43.62799" lon="6.24034">
        <ele>659.5</ele>
        <time>2023-11-26T12:59:15.000Z</time>
      </trkpt>
      <trkpt lat="43.62796" lon="6.24029">
        <ele>659.5</ele>
        <time>2023-11-26T12:59:19.000Z</time>
      </trkpt>
      <trkpt lat="43.62795" lon="6.24025">
        <ele>659.4</ele>
        <time>2023-11-26T12:59:23.000Z</time>
      </trkpt>
      <trkpt lat="43.62793" lon="6.2402">
        <ele>659.4</ele>
        <time>2023-11-26T12:59:27.000Z</time>
      </trkpt>
      <trkpt lat="43.62792" lon="6.24014">
        <ele>659.3</ele>
        <time>2023-11-26T12:59:31.000Z</time>
      </trkpt>
      <trkpt lat="43.62791" lon="6.24008">
        <ele>659.3</ele>
        <time>2023-11-26T12:59:35.000Z</time>
      </trkpt>
      <trkpt lat="43.62792" lon="6.24003">
        <ele>659.3</ele>
        <time>2023-11-26T12:59:39.000Z</time>
      </trkpt>
      <trkpt lat="43.62791" lon="6.23997">
        <ele>659.3</ele>
        <time>2023-11-26T12:59:43.000Z</time>
      </trkpt>
      <trkpt lat="43.62791" lon="6.23996">
        <ele>659.3</ele>
        <time>2023-11-26T12:59:44.000Z</time>
      </trkpt>
      <trkpt lat="43.62791" lon="6.23987">
        <ele>659.3</ele>
        <time>2023-11-26T12:59:51.000Z</time>
      </trkpt>
      <trkpt lat="43.62791" lon="6.23981">
        <ele>659.3</ele>
        <time>2023-11-26T12:59:55.000Z</time>
      </trkpt>
      <trkpt lat="43.62793" lon="6.23977">
        <ele>659.3</ele>
        <time>2023-11-26T12:59:58.000Z</time>
      </trkpt>
      <trkpt lat="43.62794" lon="6.23973">
        <ele>659.3</ele>
        <time>2023-11-26T13:00:01.000Z</time>
      </trkpt>
      <trkpt lat="43.62796" lon="6.23968">
        <ele>659.2</ele>
        <time>2023-11-26T13:00:05.000Z</time>
      </trkpt>
      <trkpt lat="43.62798" lon="6.23963">
        <ele>659.2</ele>
        <time>2023-11-26T13:00:09.000Z</time>
      </trkpt>
      <trkpt lat="43.62801" lon="6.23958">
        <ele>659.2</ele>
        <time>2023-11-26T13:00:13.000Z</time>
      </trkpt>
      <trkpt lat="43.62803" lon="6.23953">
        <ele>659.2</ele>
        <time>2023-11-26T13:00:17.000Z</time>
      </trkpt>
      <trkpt lat="43.62805" lon="6.23949">
        <ele>659.2</ele>
        <time>2023-11-26T13:00:21.000Z</time>
      </trkpt>
      <trkpt lat="43.62808" lon="6.23945">
        <ele>659.2</ele>
        <time>2023-11-26T13:00:25.000Z</time>
      </trkpt>
      <trkpt lat="43.6281" lon="6.23942">
        <ele>659.2</ele>
        <time>2023-11-26T13:00:28.000Z</time>
      </trkpt>
      <trkpt lat="43.62813" lon="6.23938">
        <ele>659.2</ele>
        <time>2023-11-26T13:00:32.000Z</time>
      </trkpt>
      <trkpt lat="43.62816" lon="6.23935">
        <ele>659.2</ele>
        <time>2023-11-26T13:00:36.000Z</time>
      </trkpt>
      <trkpt lat="43.62819" lon="6.23932">
        <ele>659.2</ele>
        <time>2023-11-26T13:00:41.000Z</time>
      </trkpt>
      <trkpt lat="43.62823" lon="6.23928">
        <ele>659.2</ele>
        <time>2023-11-26T13:00:45.000Z</time>
      </trkpt>
      <trkpt lat="43.62824" lon="6.23927">
        <ele>659.2</ele>
        <time>2023-11-26T13:00:46.000Z</time>
      </trkpt>
      <trkpt lat="43.62829" lon="6.23922">
        <ele>659.2</ele>
        <time>2023-11-26T13:00:52.000Z</time>
      </trkpt>
      <trkpt lat="43.62832" lon="6.23919">
        <ele>659.2</ele>
        <time>2023-11-26T13:00:55.000Z</time>
      </trkpt>
      <trkpt lat="43.62835" lon="6.23917">
        <ele>659.3</ele>
        <time>2023-11-26T13:00:58.000Z</time>
      </trkpt>
      <trkpt lat="43.62838" lon="6.23915">
        <ele>659.3</ele>
        <time>2023-11-26T13:01:01.000Z</time>
      </trkpt>
      <trkpt lat="43.62841" lon="6.23912">
        <ele>659.3</ele>
        <time>2023-11-26T13:01:04.000Z</time>
      </trkpt>
      <trkpt lat="43.62845" lon="6.23911">
        <ele>659.3</ele>
        <time>2023-11-26T13:01:07.000Z</time>
      </trkpt>
      <trkpt lat="43.62849" lon="6.23908">
        <ele>659.3</ele>
        <time>2023-11-26T13:01:11.000Z</time>
      </trkpt>
      <trkpt lat="43.62852" lon="6.23906">
        <ele>659.3</ele>
        <time>2023-11-26T13:01:14.000Z</time>
      </trkpt>
      <trkpt lat="43.62856" lon="6.23904">
        <ele>659.3</ele>
        <time>2023-11-26T13:01:18.000Z</time>
      </trkpt>
      <trkpt lat="43.6286" lon="6.23903">
        <ele>659.4</ele>
        <time>2023-11-26T13:01:22.000Z</time>
      </trkpt>
      <trkpt lat="43.62864" lon="6.23902">
        <ele>659.4</ele>
        <time>2023-11-26T13:01:26.000Z</time>
      </trkpt>
      <trkpt lat="43.62868" lon="6.23901">
        <ele>659.4</ele>
        <time>2023-11-26T13:01:29.000Z</time>
      </trkpt>
      <trkpt lat="43.62872" lon="6.23901">
        <ele>659.4</ele>
        <time>2023-11-26T13:01:33.000Z</time>
      </trkpt>
      <trkpt lat="43.62876" lon="6.23902">
        <ele>659.4</ele>
        <time>2023-11-26T13:01:37.000Z</time>
      </trkpt>
      <trkpt lat="43.6288" lon="6.23902">
        <ele>659.4</ele>
        <time>2023-11-26T13:01:41.000Z</time>
      </trkpt>
      <trkpt lat="43.62884" lon="6.23904">
        <ele>659.4</ele>
        <time>2023-11-26T13:01:44.000Z</time>
      </trkpt>
      <trkpt lat="43.62888" lon="6.23906">
        <ele>659.4</ele>
        <time>2023-11-26T13:01:48.000Z</time>
      </trkpt>
      <trkpt lat="43.62889" lon="6.23907">
        <ele>659.4</ele>
        <time>2023-11-26T13:01:49.000Z</time>
      </trkpt>
      <trkpt lat="43.62894" lon="6.23911">
        <ele>659.3</ele>
        <time>2023-11-26T13:01:55.000Z</time>
      </trkpt>
      <trkpt lat="43.62899" lon="6.23912">
        <ele>659.1</ele>
        <time>2023-11-26T13:02:00.000Z</time>
      </trkpt>
      <trkpt lat="43.62903" lon="6.23914">
        <ele>659</ele>
        <time>2023-11-26T13:02:05.000Z</time>
      </trkpt>
      <trkpt lat="43.62905" lon="6.23916">
        <ele>659</ele>
        <time>2023-11-26T13:02:07.000Z</time>
      </trkpt>
      <trkpt lat="43.62908" lon="6.23918">
        <ele>659</ele>
        <time>2023-11-26T13:02:09.000Z</time>
      </trkpt>
      <trkpt lat="43.62912" lon="6.2392">
        <ele>659</ele>
        <time>2023-11-26T13:02:12.000Z</time>
      </trkpt>
      <trkpt lat="43.62915" lon="6.23924">
        <ele>659</ele>
        <time>2023-11-26T13:02:15.000Z</time>
      </trkpt>
      <trkpt lat="43.62918" lon="6.23926">
        <ele>659</ele>
        <time>2023-11-26T13:02:18.000Z</time>
      </trkpt>
      <trkpt lat="43.62922" lon="6.23926">
        <ele>659</ele>
        <time>2023-11-26T13:02:22.000Z</time>
      </trkpt>
      <trkpt lat="43.62926" lon="6.23925">
        <ele>659</ele>
        <time>2023-11-26T13:02:26.000Z</time>
      </trkpt>
      <trkpt lat="43.6293" lon="6.23924">
        <ele>659</ele>
        <time>2023-11-26T13:02:30.000Z</time>
      </trkpt>
      <trkpt lat="43.62934" lon="6.23922">
        <ele>659.1</ele>
        <time>2023-11-26T13:02:34.000Z</time>
      </trkpt>
      <trkpt lat="43.62937" lon="6.23919">
        <ele>659.1</ele>
        <time>2023-11-26T13:02:38.000Z</time>
      </trkpt>
      <trkpt lat="43.6294" lon="6.23916">
        <ele>659.1</ele>
        <time>2023-11-26T13:02:43.000Z</time>
      </trkpt>
      <trkpt lat="43.62944" lon="6.23915">
        <ele>659.2</ele>
        <time>2023-11-26T13:02:47.000Z</time>
      </trkpt>
      <trkpt lat="43.62947" lon="6.23912">
        <ele>659.2</ele>
        <time>2023-11-26T13:02:49.000Z</time>
      </trkpt>
      <trkpt lat="43.62951" lon="6.23911">
        <ele>659.2</ele>
        <time>2023-11-26T13:02:53.000Z</time>
      </trkpt>
      <trkpt lat="43.62951" lon="6.2391">
        <ele>659.2</ele>
        <time>2023-11-26T13:02:54.000Z</time>
      </trkpt>
      <trkpt lat="43.62957" lon="6.23909">
        <ele>659.2</ele>
        <time>2023-11-26T13:02:58.000Z</time>
      </trkpt>
      <trkpt lat="43.62962" lon="6.23909">
        <ele>659.2</ele>
        <time>2023-11-26T13:03:02.000Z</time>
      </trkpt>
      <trkpt lat="43.62966" lon="6.23908">
        <ele>659.2</ele>
        <time>2023-11-26T13:03:05.000Z</time>
      </trkpt>
      <trkpt lat="43.6297" lon="6.23909">
        <ele>659.2</ele>
        <time>2023-11-26T13:03:08.000Z</time>
      </trkpt>
      <trkpt lat="43.62973" lon="6.2391">
        <ele>659.1</ele>
        <time>2023-11-26T13:03:11.000Z</time>
      </trkpt>
      <trkpt lat="43.62977" lon="6.2391">
        <ele>659.1</ele>
        <time>2023-11-26T13:03:15.000Z</time>
      </trkpt>
      <trkpt lat="43.62981" lon="6.23909">
        <ele>659</ele>
        <time>2023-11-26T13:03:19.000Z</time>
      </trkpt>
      <trkpt lat="43.62985" lon="6.23908">
        <ele>658.8</ele>
        <time>2023-11-26T13:03:23.000Z</time>
      </trkpt>
      <trkpt lat="43.62988" lon="6.23905">
        <ele>658.6</ele>
        <time>2023-11-26T13:03:29.000Z</time>
      </trkpt>
      <trkpt lat="43.6299" lon="6.23899">
        <ele>658.5</ele>
        <time>2023-11-26T13:03:32.000Z</time>
      </trkpt>
      <trkpt lat="43.62991" lon="6.23894">
        <ele>658.5</ele>
        <time>2023-11-26T13:03:35.000Z</time>
      </trkpt>
      <trkpt lat="43.62992" lon="6.23889">
        <ele>658.4</ele>
        <time>2023-11-26T13:03:37.000Z</time>
      </trkpt>
      <trkpt lat="43.62994" lon="6.23885">
        <ele>658.4</ele>
        <time>2023-11-26T13:03:39.000Z</time>
      </trkpt>
      <trkpt lat="43.62993" lon="6.23879">
        <ele>658.4</ele>
        <time>2023-11-26T13:03:42.000Z</time>
      </trkpt>
      <trkpt lat="43.62992" lon="6.23874">
        <ele>658.3</ele>
        <time>2023-11-26T13:03:45.000Z</time>
      </trkpt>
      <trkpt lat="43.62988" lon="6.23871">
        <ele>658.3</ele>
        <time>2023-11-26T13:03:50.000Z</time>
      </trkpt>
      <trkpt lat="43.6299" lon="6.23876">
        <ele>658.2</ele>
        <time>2023-11-26T13:04:13.000Z</time>
      </trkpt>
      <trkpt lat="43.6299" lon="6.23877">
        <ele>658.2</ele>
        <time>2023-11-26T13:04:14.000Z</time>
      </trkpt>
      <trkpt lat="43.62997" lon="6.23882">
        <ele>658.2</ele>
        <time>2023-11-26T13:04:25.000Z</time>
      </trkpt>
      <trkpt lat="43.63001" lon="6.23883">
        <ele>658.3</ele>
        <time>2023-11-26T13:04:31.000Z</time>
      </trkpt>
      <trkpt lat="43.63005" lon="6.23883">
        <ele>658.4</ele>
        <time>2023-11-26T13:04:38.000Z</time>
      </trkpt>
      <trkpt lat="43.63002" lon="6.23887">
        <ele>658.4</ele>
        <time>2023-11-26T13:05:26.000Z</time>
      </trkpt>
      <trkpt lat="43.63001" lon="6.23887">
        <ele>658.4</ele>
        <time>2023-11-26T13:05:27.000Z</time>
      </trkpt>
      <trkpt lat="43.62995" lon="6.23882">
        <ele>656.8</ele>
        <time>2023-11-26T13:05:59.000Z</time>
      </trkpt>
      <trkpt lat="43.6299" lon="6.23882">
        <ele>656.5</ele>
        <time>2023-11-26T13:06:06.000Z</time>
      </trkpt>
      <trkpt lat="43.62987" lon="6.2388">
        <ele>656.2</ele>
        <time>2023-11-26T13:06:12.000Z</time>
      </trkpt>
      <trkpt lat="43.62983" lon="6.2388">
        <ele>656.1</ele>
        <time>2023-11-26T13:06:15.000Z</time>
      </trkpt>
      <trkpt lat="43.62978" lon="6.23879">
        <ele>655.6</ele>
        <time>2023-11-26T13:06:22.000Z</time>
      </trkpt>
      <trkpt lat="43.62975" lon="6.23877">
        <ele>654.9</ele>
        <time>2023-11-26T13:06:27.000Z</time>
      </trkpt>
      <trkpt lat="43.62973" lon="6.23877">
        <ele>654.8</ele>
        <time>2023-11-26T13:06:28.000Z</time>
      </trkpt>
      <trkpt lat="43.62968" lon="6.23872">
        <ele>653.5</ele>
        <time>2023-11-26T13:06:39.000Z</time>
      </trkpt>
      <trkpt lat="43.62964" lon="6.2387">
        <ele>652.8</ele>
        <time>2023-11-26T13:06:47.000Z</time>
      </trkpt>
      <trkpt lat="43.62961" lon="6.23867">
        <ele>651.7</ele>
        <time>2023-11-26T13:06:57.000Z</time>
      </trkpt>
      <trkpt lat="43.62958" lon="6.23864">
        <ele>651.2</ele>
        <time>2023-11-26T13:07:01.000Z</time>
      </trkpt>
      <trkpt lat="43.62955" lon="6.23861">
        <ele>650.7</ele>
        <time>2023-11-26T13:07:04.000Z</time>
      </trkpt>
      <trkpt lat="43.62951" lon="6.23859">
        <ele>649.4</ele>
        <time>2023-11-26T13:07:13.000Z</time>
      </trkpt>
      <trkpt lat="43.62948" lon="6.23857">
        <ele>648.1</ele>
        <time>2023-11-26T13:07:21.000Z</time>
      </trkpt>
      <trkpt lat="43.62944" lon="6.23855">
        <ele>646.5</ele>
        <time>2023-11-26T13:07:30.000Z</time>
      </trkpt>
      <trkpt lat="43.62943" lon="6.23854">
        <ele>646.4</ele>
        <time>2023-11-26T13:07:31.000Z</time>
      </trkpt>
      <trkpt lat="43.62938" lon="6.23851">
        <ele>645.2</ele>
        <time>2023-11-26T13:07:38.000Z</time>
      </trkpt>
      <trkpt lat="43.62935" lon="6.23849">
        <ele>644.5</ele>
        <time>2023-11-26T13:07:43.000Z</time>
      </trkpt>
      <trkpt lat="43.62931" lon="6.23847">
        <ele>643.8</ele>
        <time>2023-11-26T13:07:47.000Z</time>
      </trkpt>
      <trkpt lat="43.62928" lon="6.23843">
        <ele>643.2</ele>
        <time>2023-11-26T13:07:51.000Z</time>
      </trkpt>
      <trkpt lat="43.62924" lon="6.23841">
        <ele>642.3</ele>
        <time>2023-11-26T13:07:57.000Z</time>
      </trkpt>
      <trkpt lat="43.62921" lon="6.23838">
        <ele>641.5</ele>
        <time>2023-11-26T13:08:02.000Z</time>
      </trkpt>
      <trkpt lat="43.62918" lon="6.23834">
        <ele>640.9</ele>
        <time>2023-11-26T13:08:06.000Z</time>
      </trkpt>
      <trkpt lat="43.62915" lon="6.23831">
        <ele>640.2</ele>
        <time>2023-11-26T13:08:11.000Z</time>
      </trkpt>
      <trkpt lat="43.62911" lon="6.2383">
        <ele>638.7</ele>
        <time>2023-11-26T13:08:22.000Z</time>
      </trkpt>
      <trkpt lat="43.62908" lon="6.23826">
        <ele>637.2</ele>
        <time>2023-11-26T13:08:42.000Z</time>
      </trkpt>
      <trkpt lat="43.62908" lon="6.23825">
        <ele>637.1</ele>
        <time>2023-11-26T13:08:43.000Z</time>
      </trkpt>
      <trkpt lat="43.62906" lon="6.23814">
        <ele>635.6</ele>
        <time>2023-11-26T13:09:06.000Z</time>
      </trkpt>
      <trkpt lat="43.62903" lon="6.2381">
        <ele>634.8</ele>
        <time>2023-11-26T13:09:17.000Z</time>
      </trkpt>
      <trkpt lat="43.629" lon="6.23806">
        <ele>634</ele>
        <time>2023-11-26T13:09:26.000Z</time>
      </trkpt>
      <trkpt lat="43.62896" lon="6.23803">
        <ele>633.3</ele>
        <time>2023-11-26T13:09:33.000Z</time>
      </trkpt>
      <trkpt lat="43.62894" lon="6.23798">
        <ele>632.4</ele>
        <time>2023-11-26T13:09:41.000Z</time>
      </trkpt>
      <trkpt lat="43.62892" lon="6.23792">
        <ele>631.5</ele>
        <time>2023-11-26T13:09:49.000Z</time>
      </trkpt>
      <trkpt lat="43.62892" lon="6.23792">
        <ele>631.4</ele>
        <time>2023-11-26T13:09:50.000Z</time>
      </trkpt>
      <trkpt lat="43.62887" lon="6.23784">
        <ele>629.7</ele>
        <time>2023-11-26T13:10:03.000Z</time>
      </trkpt>
      <trkpt lat="43.62884" lon="6.2378">
        <ele>629.2</ele>
        <time>2023-11-26T13:10:08.000Z</time>
      </trkpt>
      <trkpt lat="43.62881" lon="6.23775">
        <ele>628.5</ele>
        <time>2023-11-26T13:10:13.000Z</time>
      </trkpt>
      <trkpt lat="43.6288" lon="6.23771">
        <ele>627.7</ele>
        <time>2023-11-26T13:10:19.000Z</time>
      </trkpt>
      <trkpt lat="43.62879" lon="6.23765">
        <ele>627</ele>
        <time>2023-11-26T13:10:25.000Z</time>
      </trkpt>
      <trkpt lat="43.62878" lon="6.23759">
        <ele>626.4</ele>
        <time>2023-11-26T13:10:31.000Z</time>
      </trkpt>
      <trkpt lat="43.62877" lon="6.23753">
        <ele>625.7</ele>
        <time>2023-11-26T13:10:37.000Z</time>
      </trkpt>
      <trkpt lat="43.62875" lon="6.23748">
        <ele>625</ele>
        <time>2023-11-26T13:10:44.000Z</time>
      </trkpt>
      <trkpt lat="43.62873" lon="6.23743">
        <ele>624.5</ele>
        <time>2023-11-26T13:10:50.000Z</time>
      </trkpt>
      <trkpt lat="43.6287" lon="6.23739">
        <ele>623.8</ele>
        <time>2023-11-26T13:10:56.000Z</time>
      </trkpt>
      <trkpt lat="43.62869" lon="6.23738">
        <ele>623.7</ele>
        <time>2023-11-26T13:10:57.000Z</time>
      </trkpt>
      <trkpt lat="43.62867" lon="6.23727">
        <ele>622.5</ele>
        <time>2023-11-26T13:11:06.000Z</time>
      </trkpt>
      <trkpt lat="43.62865" lon="6.23722">
        <ele>622</ele>
        <time>2023-11-26T13:11:10.000Z</time>
      </trkpt>
      <trkpt lat="43.62861" lon="6.23719">
        <ele>621.6</ele>
        <time>2023-11-26T13:11:13.000Z</time>
      </trkpt>
      <trkpt lat="43.62859" lon="6.23714">
        <ele>620.7</ele>
        <time>2023-11-26T13:11:18.000Z</time>
      </trkpt>
      <trkpt lat="43.62858" lon="6.23709">
        <ele>619.9</ele>
        <time>2023-11-26T13:11:24.000Z</time>
      </trkpt>
      <trkpt lat="43.62856" lon="6.23704">
        <ele>619.2</ele>
        <time>2023-11-26T13:11:29.000Z</time>
      </trkpt>
      <trkpt lat="43.62855" lon="6.23698">
        <ele>618.5</ele>
        <time>2023-11-26T13:11:34.000Z</time>
      </trkpt>
      <trkpt lat="43.62854" lon="6.23692">
        <ele>617.6</ele>
        <time>2023-11-26T13:11:40.000Z</time>
      </trkpt>
      <trkpt lat="43.62854" lon="6.23687">
        <ele>616.6</ele>
        <time>2023-11-26T13:11:46.000Z</time>
      </trkpt>
      <trkpt lat="43.62854" lon="6.23681">
        <ele>615.8</ele>
        <time>2023-11-26T13:11:51.000Z</time>
      </trkpt>
      <trkpt lat="43.62855" lon="6.23676">
        <ele>614.9</ele>
        <time>2023-11-26T13:11:57.000Z</time>
      </trkpt>
      <trkpt lat="43.62855" lon="6.23675">
        <ele>614.7</ele>
        <time>2023-11-26T13:11:58.000Z</time>
      </trkpt>
      <trkpt lat="43.62856" lon="6.23665">
        <ele>612.6</ele>
        <time>2023-11-26T13:12:11.000Z</time>
      </trkpt>
      <trkpt lat="43.62857" lon="6.2366">
        <ele>612</ele>
        <time>2023-11-26T13:12:15.000Z</time>
      </trkpt>
      <trkpt lat="43.62859" lon="6.23656">
        <ele>611.5</ele>
        <time>2023-11-26T13:12:19.000Z</time>
      </trkpt>
      <trkpt lat="43.62862" lon="6.23651">
        <ele>610.8</ele>
        <time>2023-11-26T13:12:24.000Z</time>
      </trkpt>
      <trkpt lat="43.62865" lon="6.23649">
        <ele>610</ele>
        <time>2023-11-26T13:12:30.000Z</time>
      </trkpt>
      <trkpt lat="43.62868" lon="6.23644">
        <ele>609.2</ele>
        <time>2023-11-26T13:12:35.000Z</time>
      </trkpt>
      <trkpt lat="43.62868" lon="6.23638">
        <ele>608.6</ele>
        <time>2023-11-26T13:12:40.000Z</time>
      </trkpt>
      <trkpt lat="43.62869" lon="6.23633">
        <ele>608.1</ele>
        <time>2023-11-26T13:12:45.000Z</time>
      </trkpt>
      <trkpt lat="43.62871" lon="6.23628">
        <ele>607.8</ele>
        <time>2023-11-26T13:12:49.000Z</time>
      </trkpt>
      <trkpt lat="43.62871" lon="6.23622">
        <ele>606.8</ele>
        <time>2023-11-26T13:12:57.000Z</time>
      </trkpt>
      <trkpt lat="43.62871" lon="6.23617">
        <ele>605.7</ele>
        <time>2023-11-26T13:13:05.000Z</time>
      </trkpt>
      <trkpt lat="43.62871" lon="6.23616">
        <ele>605.5</ele>
        <time>2023-11-26T13:13:06.000Z</time>
      </trkpt>
      <trkpt lat="43.62872" lon="6.23607">
        <ele>604.3</ele>
        <time>2023-11-26T13:13:17.000Z</time>
      </trkpt>
      <trkpt lat="43.62872" lon="6.23601">
        <ele>603.5</ele>
        <time>2023-11-26T13:13:22.000Z</time>
      </trkpt>
      <trkpt lat="43.6287" lon="6.23595">
        <ele>602.4</ele>
        <time>2023-11-26T13:13:29.000Z</time>
      </trkpt>
      <trkpt lat="43.62869" lon="6.2359">
        <ele>601.4</ele>
        <time>2023-11-26T13:13:37.000Z</time>
      </trkpt>
      <trkpt lat="43.62868" lon="6.23584">
        <ele>600</ele>
        <time>2023-11-26T13:13:46.000Z</time>
      </trkpt>
      <trkpt lat="43.62867" lon="6.23579">
        <ele>599.4</ele>
        <time>2023-11-26T13:13:51.000Z</time>
      </trkpt>
      <trkpt lat="43.62865" lon="6.23574">
        <ele>598.8</ele>
        <time>2023-11-26T13:13:57.000Z</time>
      </trkpt>
      <trkpt lat="43.62863" lon="6.23568">
        <ele>598.1</ele>
        <time>2023-11-26T13:14:03.000Z</time>
      </trkpt>
      <trkpt lat="43.62862" lon="6.23562">
        <ele>597.6</ele>
        <time>2023-11-26T13:14:08.000Z</time>
      </trkpt>
      <trkpt lat="43.62862" lon="6.23561">
        <ele>597.4</ele>
        <time>2023-11-26T13:14:09.000Z</time>
      </trkpt>
      <trkpt lat="43.6286" lon="6.23552">
        <ele>596.2</ele>
        <time>2023-11-26T13:14:17.000Z</time>
      </trkpt>
      <trkpt lat="43.62858" lon="6.23547">
        <ele>595.5</ele>
        <time>2023-11-26T13:14:23.000Z</time>
      </trkpt>
      <trkpt lat="43.62857" lon="6.23542">
        <ele>595.1</ele>
        <time>2023-11-26T13:14:27.000Z</time>
      </trkpt>
      <trkpt lat="43.62856" lon="6.23537">
        <ele>594.7</ele>
        <time>2023-11-26T13:14:32.000Z</time>
      </trkpt>
      <trkpt lat="43.62854" lon="6.23533">
        <ele>594.4</ele>
        <time>2023-11-26T13:14:36.000Z</time>
      </trkpt>
      <trkpt lat="43.62852" lon="6.23528">
        <ele>594</ele>
        <time>2023-11-26T13:14:40.000Z</time>
      </trkpt>
      <trkpt lat="43.62851" lon="6.23523">
        <ele>593.6</ele>
        <time>2023-11-26T13:14:45.000Z</time>
      </trkpt>
      <trkpt lat="43.62849" lon="6.23518">
        <ele>593.4</ele>
        <time>2023-11-26T13:14:49.000Z</time>
      </trkpt>
      <trkpt lat="43.62846" lon="6.23514">
        <ele>593</ele>
        <time>2023-11-26T13:14:58.000Z</time>
      </trkpt>
      <trkpt lat="43.62843" lon="6.23511">
        <ele>592.8</ele>
        <time>2023-11-26T13:15:04.000Z</time>
      </trkpt>
      <trkpt lat="43.6284" lon="6.23508">
        <ele>592.6</ele>
        <time>2023-11-26T13:15:09.000Z</time>
      </trkpt>
      <trkpt lat="43.62839" lon="6.23507">
        <ele>592.5</ele>
        <time>2023-11-26T13:15:10.000Z</time>
      </trkpt>
      <trkpt lat="43.62834" lon="6.235">
        <ele>592</ele>
        <time>2023-11-26T13:15:17.000Z</time>
      </trkpt>
      <trkpt lat="43.62832" lon="6.23495">
        <ele>591.6</ele>
        <time>2023-11-26T13:15:22.000Z</time>
      </trkpt>
      <trkpt lat="43.62829" lon="6.23491">
        <ele>591.3</ele>
        <time>2023-11-26T13:15:26.000Z</time>
      </trkpt>
      <trkpt lat="43.62826" lon="6.23488">
        <ele>591</ele>
        <time>2023-11-26T13:15:30.000Z</time>
      </trkpt>
      <trkpt lat="43.62823" lon="6.23484">
        <ele>590.5</ele>
        <time>2023-11-26T13:15:36.000Z</time>
      </trkpt>
      <trkpt lat="43.6282" lon="6.23481">
        <ele>590.1</ele>
        <time>2023-11-26T13:15:42.000Z</time>
      </trkpt>
      <trkpt lat="43.62817" lon="6.23478">
        <ele>589.9</ele>
        <time>2023-11-26T13:15:46.000Z</time>
      </trkpt>
      <trkpt lat="43.62812" lon="6.23478">
        <ele>589.8</ele>
        <time>2023-11-26T13:15:51.000Z</time>
      </trkpt>
      <trkpt lat="43.62809" lon="6.23479">
        <ele>589.7</ele>
        <time>2023-11-26T13:15:57.000Z</time>
      </trkpt>
      <trkpt lat="43.62805" lon="6.23479">
        <ele>589.7</ele>
        <time>2023-11-26T13:16:01.000Z</time>
      </trkpt>
      <trkpt lat="43.62801" lon="6.23478">
        <ele>589.6</ele>
        <time>2023-11-26T13:16:07.000Z</time>
      </trkpt>
      <trkpt lat="43.62798" lon="6.23473">
        <ele>589.6</ele>
        <time>2023-11-26T13:16:14.000Z</time>
      </trkpt>
      <trkpt lat="43.62796" lon="6.23472">
        <ele>589.6</ele>
        <time>2023-11-26T13:16:15.000Z</time>
      </trkpt>
      <trkpt lat="43.62791" lon="6.23467">
        <ele>589</ele>
        <time>2023-11-26T13:16:22.000Z</time>
      </trkpt>
      <trkpt lat="43.62788" lon="6.23464">
        <ele>588.7</ele>
        <time>2023-11-26T13:16:26.000Z</time>
      </trkpt>
      <trkpt lat="43.62785" lon="6.2346">
        <ele>588.4</ele>
        <time>2023-11-26T13:16:32.000Z</time>
      </trkpt>
      <trkpt lat="43.62783" lon="6.23454">
        <ele>587.6</ele>
        <time>2023-11-26T13:16:40.000Z</time>
      </trkpt>
      <trkpt lat="43.62784" lon="6.23449">
        <ele>586.7</ele>
        <time>2023-11-26T13:16:48.000Z</time>
      </trkpt>
      <trkpt lat="43.62784" lon="6.23443">
        <ele>585</ele>
        <time>2023-11-26T13:17:00.000Z</time>
      </trkpt>
      <trkpt lat="43.62788" lon="6.23439">
        <ele>583.7</ele>
        <time>2023-11-26T13:17:09.000Z</time>
      </trkpt>
      <trkpt lat="43.6279" lon="6.23435">
        <ele>582.5</ele>
        <time>2023-11-26T13:17:17.000Z</time>
      </trkpt>
      <trkpt lat="43.6279" lon="6.23434">
        <ele>582.3</ele>
        <time>2023-11-26T13:17:18.000Z</time>
      </trkpt>
      <trkpt lat="43.62792" lon="6.23426">
        <ele>581.2</ele>
        <time>2023-11-26T13:17:25.000Z</time>
      </trkpt>
      <trkpt lat="43.62792" lon="6.23421">
        <ele>580.8</ele>
        <time>2023-11-26T13:17:29.000Z</time>
      </trkpt>
      <trkpt lat="43.62791" lon="6.23415">
        <ele>580.4</ele>
        <time>2023-11-26T13:17:33.000Z</time>
      </trkpt>
      <trkpt lat="43.62789" lon="6.23411">
        <ele>580.2</ele>
        <time>2023-11-26T13:17:36.000Z</time>
      </trkpt>
      <trkpt lat="43.62788" lon="6.23406">
        <ele>579.9</ele>
        <time>2023-11-26T13:17:40.000Z</time>
      </trkpt>
      <trkpt lat="43.62787" lon="6.23401">
        <ele>579.5</ele>
        <time>2023-11-26T13:17:44.000Z</time>
      </trkpt>
      <trkpt lat="43.62786" lon="6.23395">
        <ele>578.8</ele>
        <time>2023-11-26T13:17:50.000Z</time>
      </trkpt>
      <trkpt lat="43.62785" lon="6.23389">
        <ele>578.1</ele>
        <time>2023-11-26T13:17:56.000Z</time>
      </trkpt>
      <trkpt lat="43.62783" lon="6.23384">
        <ele>577.3</ele>
        <time>2023-11-26T13:18:02.000Z</time>
      </trkpt>
      <trkpt lat="43.62781" lon="6.23379">
        <ele>575.2</ele>
        <time>2023-11-26T13:18:31.000Z</time>
      </trkpt>
      <trkpt lat="43.6278" lon="6.23379">
        <ele>575.1</ele>
        <time>2023-11-26T13:18:32.000Z</time>
      </trkpt>
      <trkpt lat="43.62782" lon="6.23371">
        <ele>574.3</ele>
        <time>2023-11-26T13:19:07.000Z</time>
      </trkpt>
      <trkpt lat="43.62786" lon="6.23369">
        <ele>574.1</ele>
        <time>2023-11-26T13:19:11.000Z</time>
      </trkpt>
      <trkpt lat="43.62789" lon="6.23368">
        <ele>573.9</ele>
        <time>2023-11-26T13:19:16.000Z</time>
      </trkpt>
      <trkpt lat="43.62793" lon="6.23368">
        <ele>573.8</ele>
        <time>2023-11-26T13:19:19.000Z</time>
      </trkpt>
      <trkpt lat="43.62797" lon="6.23366">
        <ele>573.5</ele>
        <time>2023-11-26T13:19:27.000Z</time>
      </trkpt>
      <trkpt lat="43.62799" lon="6.2336">
        <ele>573.4</ele>
        <time>2023-11-26T13:19:32.000Z</time>
      </trkpt>
      <trkpt lat="43.628" lon="6.23359">
        <ele>573.4</ele>
        <time>2023-11-26T13:19:33.000Z</time>
      </trkpt>
      <trkpt lat="43.62798" lon="6.2335">
        <ele>572.9</ele>
        <time>2023-11-26T13:19:43.000Z</time>
      </trkpt>
      <trkpt lat="43.62799" lon="6.23344">
        <ele>572.6</ele>
        <time>2023-11-26T13:19:49.000Z</time>
      </trkpt>
      <trkpt lat="43.62799" lon="6.23339">
        <ele>571.8</ele>
        <time>2023-11-26T13:20:07.000Z</time>
      </trkpt>
      <trkpt lat="43.62798" lon="6.23333">
        <ele>571.4</ele>
        <time>2023-11-26T13:20:22.000Z</time>
      </trkpt>
      <trkpt lat="43.62799" lon="6.23328">
        <ele>571.2</ele>
        <time>2023-11-26T13:20:26.000Z</time>
      </trkpt>
      <trkpt lat="43.62799" lon="6.23322">
        <ele>571.1</ele>
        <time>2023-11-26T13:20:31.000Z</time>
      </trkpt>
      <trkpt lat="43.62799" lon="6.23317">
        <ele>571</ele>
        <time>2023-11-26T13:20:37.000Z</time>
      </trkpt>
      <trkpt lat="43.62799" lon="6.23315">
        <ele>571</ele>
        <time>2023-11-26T13:20:38.000Z</time>
      </trkpt>
      <trkpt lat="43.62801" lon="6.23306">
        <ele>570.7</ele>
        <time>2023-11-26T13:20:48.000Z</time>
      </trkpt>
      <trkpt lat="43.62802" lon="6.233">
        <ele>570.5</ele>
        <time>2023-11-26T13:21:00.000Z</time>
      </trkpt>
      <trkpt lat="43.62804" lon="6.23294">
        <ele>570.4</ele>
        <time>2023-11-26T13:21:06.000Z</time>
      </trkpt>
      <trkpt lat="43.62807" lon="6.2329">
        <ele>570.4</ele>
        <time>2023-11-26T13:21:12.000Z</time>
      </trkpt>
      <trkpt lat="43.62811" lon="6.23288">
        <ele>570.4</ele>
        <time>2023-11-26T13:21:17.000Z</time>
      </trkpt>
      <trkpt lat="43.62814" lon="6.23284">
        <ele>570.3</ele>
        <time>2023-11-26T13:21:21.000Z</time>
      </trkpt>
      <trkpt lat="43.62816" lon="6.2328">
        <ele>570.3</ele>
        <time>2023-11-26T13:21:25.000Z</time>
      </trkpt>
      <trkpt lat="43.6282" lon="6.23276">
        <ele>570.3</ele>
        <time>2023-11-26T13:21:31.000Z</time>
      </trkpt>
      <trkpt lat="43.62822" lon="6.23271">
        <ele>570.3</ele>
        <time>2023-11-26T13:21:39.000Z</time>
      </trkpt>
      <trkpt lat="43.62822" lon="6.2327">
        <ele>570.3</ele>
        <time>2023-11-26T13:21:40.000Z</time>
      </trkpt>
      <trkpt lat="43.6283" lon="6.23266">
        <ele>569.8</ele>
        <time>2023-11-26T13:22:00.000Z</time>
      </trkpt>
      <trkpt lat="43.62833" lon="6.23261">
        <ele>569.1</ele>
        <time>2023-11-26T13:22:13.000Z</time>
      </trkpt>
      <trkpt lat="43.62837" lon="6.2326">
        <ele>568.9</ele>
        <time>2023-11-26T13:22:25.000Z</time>
      </trkpt>
      <trkpt lat="43.62841" lon="6.23259">
        <ele>568.9</ele>
        <time>2023-11-26T13:22:38.000Z</time>
      </trkpt>
      <trkpt lat="43.62845" lon="6.23259">
        <ele>569.1</ele>
        <time>2023-11-26T13:22:42.000Z</time>
      </trkpt>
      <trkpt lat="43.62846" lon="6.23259">
        <ele>569.2</ele>
        <time>2023-11-26T13:22:43.000Z</time>
      </trkpt>
      <trkpt lat="43.62852" lon="6.23254">
        <ele>569.6</ele>
        <time>2023-11-26T13:23:04.000Z</time>
      </trkpt>
      <trkpt lat="43.62856" lon="6.23256">
        <ele>569.7</ele>
        <time>2023-11-26T13:23:11.000Z</time>
      </trkpt>
      <trkpt lat="43.6286" lon="6.23256">
        <ele>569.9</ele>
        <time>2023-11-26T13:23:25.000Z</time>
      </trkpt>
      <trkpt lat="43.62864" lon="6.23256">
        <ele>569.9</ele>
        <time>2023-11-26T13:23:31.000Z</time>
      </trkpt>
      <trkpt lat="43.62868" lon="6.23257">
        <ele>569</ele>
        <time>2023-11-26T13:23:40.000Z</time>
      </trkpt>
      <trkpt lat="43.62866" lon="6.23252">
        <ele>570.1</ele>
        <time>2023-11-26T13:23:51.000Z</time>
      </trkpt>
      <trkpt lat="43.62866" lon="6.23251">
        <ele>570.2</ele>
        <time>2023-11-26T13:23:52.000Z</time>
      </trkpt>
      <trkpt lat="43.62872" lon="6.2326">
        <ele>569.9</ele>
        <time>2023-11-26T13:24:09.000Z</time>
      </trkpt>
      <trkpt lat="43.62874" lon="6.23265">
        <ele>569.7</ele>
        <time>2023-11-26T13:24:56.000Z</time>
      </trkpt>
      <trkpt lat="43.62875" lon="6.23266">
        <ele>569.7</ele>
        <time>2023-11-26T13:24:57.000Z</time>
      </trkpt>
      <trkpt lat="43.62879" lon="6.23268">
        <ele>569</ele>
        <time>2023-11-26T13:25:37.000Z</time>
      </trkpt>
      <trkpt lat="43.62873" lon="6.23264">
        <ele>569.7</ele>
        <time>2023-11-26T13:25:40.000Z</time>
      </trkpt>
      <trkpt lat="43.62877" lon="6.23263">
        <ele>569.5</ele>
        <time>2023-11-26T13:26:16.000Z</time>
      </trkpt>
      <trkpt lat="43.62878" lon="6.23263">
        <ele>569.5</ele>
        <time>2023-11-26T13:26:17.000Z</time>
      </trkpt>
      <trkpt lat="43.62876" lon="6.23252">
        <ele>569</ele>
        <time>2023-11-26T13:26:30.000Z</time>
      </trkpt>
      <trkpt lat="43.62877" lon="6.23248">
        <ele>568.5</ele>
        <time>2023-11-26T13:26:38.000Z</time>
      </trkpt>
      <trkpt lat="43.62878" lon="6.23242">
        <ele>568.2</ele>
        <time>2023-11-26T13:26:43.000Z</time>
      </trkpt>
      <trkpt lat="43.6288" lon="6.23237">
        <ele>567.5</ele>
        <time>2023-11-26T13:27:05.000Z</time>
      </trkpt>
      <trkpt lat="43.62879" lon="6.23233">
        <ele>567</ele>
        <time>2023-11-26T13:27:07.000Z</time>
      </trkpt>
      <trkpt lat="43.62879" lon="6.23229">
        <ele>567.5</ele>
        <time>2023-11-26T13:27:10.000Z</time>
      </trkpt>
      <trkpt lat="43.62883" lon="6.23227">
        <ele>567.3</ele>
        <time>2023-11-26T13:27:26.000Z</time>
      </trkpt>
      <trkpt lat="43.62884" lon="6.2323">
        <ele>567.3</ele>
        <time>2023-11-26T13:27:27.000Z</time>
      </trkpt>
      <trkpt lat="43.62888" lon="6.23234">
        <ele>567.2</ele>
        <time>2023-11-26T13:27:42.000Z</time>
      </trkpt>
      <trkpt lat="43.62889" lon="6.23229">
        <ele>567</ele>
        <time>2023-11-26T13:27:49.000Z</time>
      </trkpt>
      <trkpt lat="43.62893" lon="6.23227">
        <ele>567.2</ele>
        <time>2023-11-26T13:28:01.000Z</time>
      </trkpt>
      <trkpt lat="43.62896" lon="6.23231">
        <ele>567</ele>
        <time>2023-11-26T13:28:13.000Z</time>
      </trkpt>
      <trkpt lat="43.62897" lon="6.23234">
        <ele>567</ele>
        <time>2023-11-26T13:28:21.000Z</time>
      </trkpt>
      <trkpt lat="43.62898" lon="6.23236">
        <ele>567</ele>
        <time>2023-11-26T13:28:25.000Z</time>
      </trkpt>
      <trkpt lat="43.62901" lon="6.2324">
        <ele>567</ele>
        <time>2023-11-26T13:28:29.000Z</time>
      </trkpt>
      <trkpt lat="43.62903" lon="6.23246">
        <ele>567</ele>
        <time>2023-11-26T13:28:33.000Z</time>
      </trkpt>
      <trkpt lat="43.62905" lon="6.23252">
        <ele>567</ele>
        <time>2023-11-26T13:28:37.000Z</time>
      </trkpt>
      <trkpt lat="43.62907" lon="6.23256">
        <ele>567</ele>
        <time>2023-11-26T13:28:41.000Z</time>
      </trkpt>
      <trkpt lat="43.62907" lon="6.23258">
        <ele>567</ele>
        <time>2023-11-26T13:28:45.000Z</time>
      </trkpt>
      <trkpt lat="43.62904" lon="6.23249">
        <ele>567.9</ele>
        <time>2023-11-26T13:28:48.000Z</time>
      </trkpt>
      <trkpt lat="43.62902" lon="6.23246">
        <ele>567.9</ele>
        <time>2023-11-26T13:28:49.000Z</time>
      </trkpt>
      <trkpt lat="43.62901" lon="6.23241">
        <ele>567</ele>
        <time>2023-11-26T13:28:51.000Z</time>
      </trkpt>
      <trkpt lat="43.629" lon="6.23235">
        <ele>567.9</ele>
        <time>2023-11-26T13:28:54.000Z</time>
      </trkpt>
      <trkpt lat="43.62898" lon="6.2323">
        <ele>567.9</ele>
        <time>2023-11-26T13:29:12.000Z</time>
      </trkpt>
      <trkpt lat="43.62901" lon="6.23234">
        <ele>567.8</ele>
        <time>2023-11-26T13:29:49.000Z</time>
      </trkpt>
      <trkpt lat="43.62901" lon="6.23236">
        <ele>567.8</ele>
        <time>2023-11-26T13:29:50.000Z</time>
      </trkpt>
      <trkpt lat="43.62898" lon="6.23224">
        <ele>567.8</ele>
        <time>2023-11-26T13:30:20.000Z</time>
      </trkpt>
      <trkpt lat="43.62896" lon="6.23218">
        <ele>567.8</ele>
        <time>2023-11-26T13:30:59.000Z</time>
      </trkpt>
      <trkpt lat="43.62896" lon="6.23216">
        <ele>567.8</ele>
        <time>2023-11-26T13:31:00.000Z</time>
      </trkpt>
      <trkpt lat="43.62899" lon="6.23223">
        <ele>567.8</ele>
        <time>2023-11-26T13:31:04.000Z</time>
      </trkpt>
      <trkpt lat="43.62901" lon="6.23228">
        <ele>567.8</ele>
        <time>2023-11-26T13:31:05.000Z</time>
      </trkpt>
      <trkpt lat="43.62903" lon="6.23233">
        <ele>567.8</ele>
        <time>2023-11-26T13:31:06.000Z</time>
      </trkpt>
      <trkpt lat="43.62904" lon="6.23238">
        <ele>567.7</ele>
        <time>2023-11-26T13:31:10.000Z</time>
      </trkpt>
      <trkpt lat="43.62906" lon="6.23242">
        <ele>567.6</ele>
        <time>2023-11-26T13:31:14.000Z</time>
      </trkpt>
      <trkpt lat="43.6291" lon="6.23246">
        <ele>567.4</ele>
        <time>2023-11-26T13:31:19.000Z</time>
      </trkpt>
      <trkpt lat="43.62913" lon="6.23249">
        <ele>567.4</ele>
        <time>2023-11-26T13:31:23.000Z</time>
      </trkpt>
      <trkpt lat="43.62916" lon="6.23252">
        <ele>567.2</ele>
        <time>2023-11-26T13:31:31.000Z</time>
      </trkpt>
      <trkpt lat="43.6292" lon="6.23254">
        <ele>566.7</ele>
        <time>2023-11-26T13:31:43.000Z</time>
      </trkpt>
      <trkpt lat="43.62924" lon="6.23253">
        <ele>566.5</ele>
        <time>2023-11-26T13:32:27.000Z</time>
      </trkpt>
      <trkpt lat="43.62925" lon="6.23253">
        <ele>566.5</ele>
        <time>2023-11-26T13:32:28.000Z</time>
      </trkpt>
      <trkpt lat="43.62932" lon="6.23252">
        <ele>566.4</ele>
        <time>2023-11-26T13:32:41.000Z</time>
      </trkpt>
      <trkpt lat="43.62936" lon="6.23252">
        <ele>566.4</ele>
        <time>2023-11-26T13:32:46.000Z</time>
      </trkpt>
      <trkpt lat="43.6294" lon="6.23249">
        <ele>566.4</ele>
        <time>2023-11-26T13:32:50.000Z</time>
      </trkpt>
      <trkpt lat="43.62943" lon="6.23246">
        <ele>566.4</ele>
        <time>2023-11-26T13:32:55.000Z</time>
      </trkpt>
      <trkpt lat="43.62947" lon="6.23242">
        <ele>566.5</ele>
        <time>2023-11-26T13:33:01.000Z</time>
      </trkpt>
      <trkpt lat="43.6295" lon="6.23238">
        <ele>566.6</ele>
        <time>2023-11-26T13:33:15.000Z</time>
      </trkpt>
      <trkpt lat="43.62954" lon="6.23236">
        <ele>566.9</ele>
        <time>2023-11-26T13:33:34.000Z</time>
      </trkpt>
      <trkpt lat="43.62954" lon="6.23236">
        <ele>567</ele>
        <time>2023-11-26T13:33:35.000Z</time>
      </trkpt>
      <trkpt lat="43.62959" lon="6.2323">
        <ele>567.6</ele>
        <time>2023-11-26T13:34:34.000Z</time>
      </trkpt>
      <trkpt lat="43.6296" lon="6.23225">
        <ele>567.5</ele>
        <time>2023-11-26T13:34:42.000Z</time>
      </trkpt>
      <trkpt lat="43.62961" lon="6.23224">
        <ele>567.5</ele>
        <time>2023-11-26T13:34:43.000Z</time>
      </trkpt>
      <trkpt lat="43.62964" lon="6.23214">
        <ele>567.4</ele>
        <time>2023-11-26T13:34:57.000Z</time>
      </trkpt>
      <trkpt lat="43.62965" lon="6.23209">
        <ele>567.4</ele>
        <time>2023-11-26T13:35:02.000Z</time>
      </trkpt>
      <trkpt lat="43.62966" lon="6.23203">
        <ele>567.5</ele>
        <time>2023-11-26T13:35:09.000Z</time>
      </trkpt>
      <trkpt lat="43.62967" lon="6.23198">
        <ele>567.7</ele>
        <time>2023-11-26T13:35:17.000Z</time>
      </trkpt>
      <trkpt lat="43.6297" lon="6.23193">
        <ele>568.2</ele>
        <time>2023-11-26T13:35:36.000Z</time>
      </trkpt>
      <trkpt lat="43.62972" lon="6.23189">
        <ele>568.3</ele>
        <time>2023-11-26T13:35:42.000Z</time>
      </trkpt>
      <trkpt lat="43.62976" lon="6.23188">
        <ele>568.5</ele>
        <time>2023-11-26T13:35:47.000Z</time>
      </trkpt>
      <trkpt lat="43.62977" lon="6.23187">
        <ele>568.6</ele>
        <time>2023-11-26T13:35:48.000Z</time>
      </trkpt>
      <trkpt lat="43.62981" lon="6.23184">
        <ele>569.1</ele>
        <time>2023-11-26T13:36:01.000Z</time>
      </trkpt>
      <trkpt lat="43.6298" lon="6.23178">
        <ele>569.1</ele>
        <time>2023-11-26T13:36:03.000Z</time>
      </trkpt>
      <trkpt lat="43.62981" lon="6.23183">
        <ele>569</ele>
        <time>2023-11-26T13:36:45.000Z</time>
      </trkpt>
      <trkpt lat="43.62982" lon="6.23187">
        <ele>569</ele>
        <time>2023-11-26T13:36:49.000Z</time>
      </trkpt>
      <trkpt lat="43.62984" lon="6.23189">
        <ele>569</ele>
        <time>2023-11-26T13:36:53.000Z</time>
      </trkpt>
      <trkpt lat="43.62982" lon="6.23184">
        <ele>569.8</ele>
        <time>2023-11-26T13:37:06.000Z</time>
      </trkpt>
      <trkpt lat="43.62981" lon="6.23179">
        <ele>569.8</ele>
        <time>2023-11-26T13:37:09.000Z</time>
      </trkpt>
      <trkpt lat="43.62981" lon="6.23174">
        <ele>570.2</ele>
        <time>2023-11-26T13:37:17.000Z</time>
      </trkpt>
      <trkpt lat="43.6298" lon="6.23168">
        <ele>570.5</ele>
        <time>2023-11-26T13:37:21.000Z</time>
      </trkpt>
      <trkpt lat="43.62981" lon="6.23163">
        <ele>571</ele>
        <time>2023-11-26T13:37:27.000Z</time>
      </trkpt>
      <trkpt lat="43.62984" lon="6.23164">
        <ele>571.8</ele>
        <time>2023-11-26T13:37:36.000Z</time>
      </trkpt>
      <trkpt lat="43.62987" lon="6.23166">
        <ele>572</ele>
        <time>2023-11-26T13:37:47.000Z</time>
      </trkpt>
      <trkpt lat="43.62991" lon="6.23168">
        <ele>573</ele>
        <time>2023-11-26T13:37:52.000Z</time>
      </trkpt>
      <trkpt lat="43.62992" lon="6.23169">
        <ele>573</ele>
        <time>2023-11-26T13:37:53.000Z</time>
      </trkpt>
      <trkpt lat="43.62996" lon="6.23176">
        <ele>573.2</ele>
        <time>2023-11-26T13:37:57.000Z</time>
      </trkpt>
      <trkpt lat="43.62999" lon="6.23179">
        <ele>573.3</ele>
        <time>2023-11-26T13:38:00.000Z</time>
      </trkpt>
      <trkpt lat="43.63001" lon="6.23176">
        <ele>573</ele>
        <time>2023-11-26T13:38:04.000Z</time>
      </trkpt>
      <trkpt lat="43.62998" lon="6.2317">
        <ele>573.6</ele>
        <time>2023-11-26T13:38:07.000Z</time>
      </trkpt>
      <trkpt lat="43.62998" lon="6.23165">
        <ele>573</ele>
        <time>2023-11-26T13:38:13.000Z</time>
      </trkpt>
      <trkpt lat="43.62995" lon="6.23165">
        <ele>574</ele>
        <time>2023-11-26T13:38:18.000Z</time>
      </trkpt>
      <trkpt lat="43.62992" lon="6.23163">
        <ele>574</ele>
        <time>2023-11-26T13:38:22.000Z</time>
      </trkpt>
      <trkpt lat="43.62989" lon="6.23158">
        <ele>574</ele>
        <time>2023-11-26T13:38:27.000Z</time>
      </trkpt>
      <trkpt lat="43.62999" lon="6.23161">
        <ele>575</ele>
        <time>2023-11-26T13:38:41.000Z</time>
      </trkpt>
      <trkpt lat="43.63013" lon="6.23179">
        <ele>577</ele>
        <time>2023-11-26T13:38:58.000Z</time>
      </trkpt>
      <trkpt lat="43.63017" lon="6.2317">
        <ele>578</ele>
        <time>2023-11-26T13:39:10.000Z</time>
      </trkpt>
      <trkpt lat="43.63021" lon="6.23181">
        <ele>578</ele>
        <time>2023-11-26T13:39:14.000Z</time>
      </trkpt>
      <trkpt lat="43.63021" lon="6.23179">
        <ele>579.4</ele>
        <time>2023-11-26T13:39:18.000Z</time>
      </trkpt>
      <trkpt lat="43.63018" lon="6.2317">
        <ele>579.5</ele>
        <time>2023-11-26T13:39:19.000Z</time>
      </trkpt>
      <trkpt lat="43.63016" lon="6.23166">
        <ele>579</ele>
        <time>2023-11-26T13:39:23.000Z</time>
      </trkpt>
      <trkpt lat="43.63013" lon="6.23166">
        <ele>580</ele>
        <time>2023-11-26T13:39:29.000Z</time>
      </trkpt>
      <trkpt lat="43.63019" lon="6.23172">
        <ele>580</ele>
        <time>2023-11-26T13:40:24.000Z</time>
      </trkpt>
      <trkpt lat="43.63036" lon="6.23184">
        <ele>582</ele>
        <time>2023-11-26T13:41:48.000Z</time>
      </trkpt>
      <trkpt lat="43.63037" lon="6.2318">
        <ele>583.2</ele>
        <time>2023-11-26T13:41:52.000Z</time>
      </trkpt>
      <trkpt lat="43.63034" lon="6.23177">
        <ele>583.5</ele>
        <time>2023-11-26T13:41:54.000Z</time>
      </trkpt>
      <trkpt lat="43.63034" lon="6.23171">
        <ele>583.8</ele>
        <time>2023-11-26T13:41:59.000Z</time>
      </trkpt>
      <trkpt lat="43.63033" lon="6.23165">
        <ele>584.1</ele>
        <time>2023-11-26T13:42:05.000Z</time>
      </trkpt>
      <trkpt lat="43.63033" lon="6.2316">
        <ele>582.5</ele>
        <time>2023-11-26T13:42:36.000Z</time>
      </trkpt>
      <trkpt lat="43.63031" lon="6.23155">
        <ele>581.8</ele>
        <time>2023-11-26T13:42:42.000Z</time>
      </trkpt>
      <trkpt lat="43.63028" lon="6.23151">
        <ele>580.7</ele>
        <time>2023-11-26T13:42:51.000Z</time>
      </trkpt>
      <trkpt lat="43.63027" lon="6.23151">
        <ele>580.6</ele>
        <time>2023-11-26T13:42:52.000Z</time>
      </trkpt>
      <trkpt lat="43.6302" lon="6.2315">
        <ele>579.3</ele>
        <time>2023-11-26T13:43:08.000Z</time>
      </trkpt>
      <trkpt lat="43.63016" lon="6.23147">
        <ele>578.5</ele>
        <time>2023-11-26T13:43:18.000Z</time>
      </trkpt>
      <trkpt lat="43.63012" lon="6.2315">
        <ele>578</ele>
        <time>2023-11-26T13:43:35.000Z</time>
      </trkpt>
      <trkpt lat="43.63009" lon="6.23152">
        <ele>577.7</ele>
        <time>2023-11-26T13:44:06.000Z</time>
      </trkpt>
      <trkpt lat="43.63008" lon="6.23153">
        <ele>577.7</ele>
        <time>2023-11-26T13:44:07.000Z</time>
      </trkpt>
      <trkpt lat="43.63005" lon="6.23159">
        <ele>577.1</ele>
        <time>2023-11-26T13:44:44.000Z</time>
      </trkpt>
      <trkpt lat="43.63001" lon="6.23157">
        <ele>576.9</ele>
        <time>2023-11-26T13:44:51.000Z</time>
      </trkpt>
      <trkpt lat="43.62998" lon="6.23155">
        <ele>576.7</ele>
        <time>2023-11-26T13:44:56.000Z</time>
      </trkpt>
      <trkpt lat="43.62994" lon="6.23155">
        <ele>576</ele>
        <time>2023-11-26T13:45:05.000Z</time>
      </trkpt>
      <trkpt lat="43.6299" lon="6.23155">
        <ele>575.1</ele>
        <time>2023-11-26T13:45:14.000Z</time>
      </trkpt>
      <trkpt lat="43.62989" lon="6.23156">
        <ele>575</ele>
        <time>2023-11-26T13:45:15.000Z</time>
      </trkpt>
      <trkpt lat="43.62983" lon="6.23161">
        <ele>573.7</ele>
        <time>2023-11-26T13:45:26.000Z</time>
      </trkpt>
      <trkpt lat="43.62979" lon="6.2316">
        <ele>573.4</ele>
        <time>2023-11-26T13:45:31.000Z</time>
      </trkpt>
      <trkpt lat="43.62977" lon="6.23165">
        <ele>572.9</ele>
        <time>2023-11-26T13:45:44.000Z</time>
      </trkpt>
      <trkpt lat="43.62973" lon="6.23169">
        <ele>572.6</ele>
        <time>2023-11-26T13:45:55.000Z</time>
      </trkpt>
      <trkpt lat="43.62969" lon="6.23172">
        <ele>572.4</ele>
        <time>2023-11-26T13:46:03.000Z</time>
      </trkpt>
      <trkpt lat="43.62967" lon="6.23177">
        <ele>572.2</ele>
        <time>2023-11-26T13:46:12.000Z</time>
      </trkpt>
      <trkpt lat="43.62969" lon="6.23182">
        <ele>572.2</ele>
        <time>2023-11-26T13:46:22.000Z</time>
      </trkpt>
      <trkpt lat="43.62969" lon="6.23183">
        <ele>572.1</ele>
        <time>2023-11-26T13:46:23.000Z</time>
      </trkpt>
      <trkpt lat="43.62971" lon="6.23171">
        <ele>572.2</ele>
        <time>2023-11-26T13:47:08.000Z</time>
      </trkpt>
      <trkpt lat="43.62976" lon="6.23172">
        <ele>572.3</ele>
        <time>2023-11-26T13:47:27.000Z</time>
      </trkpt>
      <trkpt lat="43.62976" lon="6.23172">
        <ele>572.3</ele>
        <time>2023-11-26T13:47:28.000Z</time>
      </trkpt>
      <trkpt lat="43.62981" lon="6.2317">
        <ele>572.1</ele>
        <time>2023-11-26T13:48:51.000Z</time>
      </trkpt>
      <trkpt lat="43.62976" lon="6.23167">
        <ele>572.3</ele>
        <time>2023-11-26T13:50:01.000Z</time>
      </trkpt>
      <trkpt lat="43.62976" lon="6.23166">
        <ele>572.3</ele>
        <time>2023-11-26T13:50:02.000Z</time>
      </trkpt>
      <trkpt lat="43.6298" lon="6.23158">
        <ele>572.1</ele>
        <time>2023-11-26T13:50:09.000Z</time>
      </trkpt>
      <trkpt lat="43.62983" lon="6.23154">
        <ele>571.9</ele>
        <time>2023-11-26T13:50:13.000Z</time>
      </trkpt>
      <trkpt lat="43.62985" lon="6.2315">
        <ele>571.8</ele>
        <time>2023-11-26T13:50:16.000Z</time>
      </trkpt>
      <trkpt lat="43.62988" lon="6.23146">
        <ele>571.7</ele>
        <time>2023-11-26T13:50:20.000Z</time>
      </trkpt>
      <trkpt lat="43.62988" lon="6.2314">
        <ele>571.4</ele>
        <time>2023-11-26T13:50:28.000Z</time>
      </trkpt>
      <trkpt lat="43.6299" lon="6.23136">
        <ele>571.2</ele>
        <time>2023-11-26T13:50:31.000Z</time>
      </trkpt>
      <trkpt lat="43.62991" lon="6.23132">
        <ele>571.1</ele>
        <time>2023-11-26T13:50:33.000Z</time>
      </trkpt>
      <trkpt lat="43.62992" lon="6.23127">
        <ele>571</ele>
        <time>2023-11-26T13:50:35.000Z</time>
      </trkpt>
      <trkpt lat="43.62993" lon="6.23123">
        <ele>570.8</ele>
        <time>2023-11-26T13:50:38.000Z</time>
      </trkpt>
      <trkpt lat="43.62992" lon="6.23117">
        <ele>570.5</ele>
        <time>2023-11-26T13:50:43.000Z</time>
      </trkpt>
      <trkpt lat="43.6299" lon="6.23112">
        <ele>570.4</ele>
        <time>2023-11-26T13:50:46.000Z</time>
      </trkpt>
      <trkpt lat="43.6299" lon="6.23107">
        <ele>570.3</ele>
        <time>2023-11-26T13:50:50.000Z</time>
      </trkpt>
      <trkpt lat="43.62989" lon="6.23102">
        <ele>570.2</ele>
        <time>2023-11-26T13:50:54.000Z</time>
      </trkpt>
      <trkpt lat="43.62987" lon="6.23097">
        <ele>570.1</ele>
        <time>2023-11-26T13:50:57.000Z</time>
      </trkpt>
      <trkpt lat="43.62984" lon="6.23093">
        <ele>570.1</ele>
        <time>2023-11-26T13:51:00.000Z</time>
      </trkpt>
      <trkpt lat="43.62981" lon="6.23088">
        <ele>570</ele>
        <time>2023-11-26T13:51:04.000Z</time>
      </trkpt>
      <trkpt lat="43.62981" lon="6.23087">
        <ele>570</ele>
        <time>2023-11-26T13:51:05.000Z</time>
      </trkpt>
      <trkpt lat="43.62977" lon="6.2308">
        <ele>570</ele>
        <time>2023-11-26T13:51:11.000Z</time>
      </trkpt>
      <trkpt lat="43.62975" lon="6.23074">
        <ele>570</ele>
        <time>2023-11-26T13:51:15.000Z</time>
      </trkpt>
      <trkpt lat="43.62973" lon="6.2307">
        <ele>569.9</ele>
        <time>2023-11-26T13:51:18.000Z</time>
      </trkpt>
      <trkpt lat="43.62971" lon="6.23065">
        <ele>569.9</ele>
        <time>2023-11-26T13:51:21.000Z</time>
      </trkpt>
      <trkpt lat="43.6297" lon="6.2306">
        <ele>569.9</ele>
        <time>2023-11-26T13:51:24.000Z</time>
      </trkpt>
      <trkpt lat="43.62971" lon="6.23054">
        <ele>570</ele>
        <time>2023-11-26T13:51:30.000Z</time>
      </trkpt>
      <trkpt lat="43.62974" lon="6.2305">
        <ele>570.3</ele>
        <time>2023-11-26T13:51:39.000Z</time>
      </trkpt>
      <trkpt lat="43.62978" lon="6.23047">
        <ele>570.9</ele>
        <time>2023-11-26T13:51:48.000Z</time>
      </trkpt>
      <trkpt lat="43.62982" lon="6.23046">
        <ele>572</ele>
        <time>2023-11-26T13:52:00.000Z</time>
      </trkpt>
      <trkpt lat="43.62985" lon="6.23041">
        <ele>573</ele>
        <time>2023-11-26T13:52:09.000Z</time>
      </trkpt>
      <trkpt lat="43.62985" lon="6.2304">
        <ele>573.2</ele>
        <time>2023-11-26T13:52:10.000Z</time>
      </trkpt>
      <trkpt lat="43.62987" lon="6.2303">
        <ele>574.6</ele>
        <time>2023-11-26T13:52:23.000Z</time>
      </trkpt>
      <trkpt lat="43.62986" lon="6.23024">
        <ele>574.9</ele>
        <time>2023-11-26T13:52:29.000Z</time>
      </trkpt>
      <trkpt lat="43.62984" lon="6.2302">
        <ele>575.1</ele>
        <time>2023-11-26T13:52:33.000Z</time>
      </trkpt>
      <trkpt lat="43.62981" lon="6.23017">
        <ele>575.3</ele>
        <time>2023-11-26T13:52:38.000Z</time>
      </trkpt>
      <trkpt lat="43.62976" lon="6.23017">
        <ele>575.4</ele>
        <time>2023-11-26T13:52:44.000Z</time>
      </trkpt>
      <trkpt lat="43.62973" lon="6.23021">
        <ele>575.4</ele>
        <time>2023-11-26T13:53:02.000Z</time>
      </trkpt>
      <trkpt lat="43.62973" lon="6.23027">
        <ele>575.1</ele>
        <time>2023-11-26T13:53:18.000Z</time>
      </trkpt>
      <trkpt lat="43.62973" lon="6.23027">
        <ele>575.1</ele>
        <time>2023-11-26T13:53:19.000Z</time>
      </trkpt>
      <trkpt lat="43.62976" lon="6.23022">
        <ele>575.2</ele>
        <time>2023-11-26T13:54:32.000Z</time>
      </trkpt>
      <trkpt lat="43.62983" lon="6.23021">
        <ele>575.3</ele>
        <time>2023-11-26T13:54:52.000Z</time>
      </trkpt>
      <trkpt lat="43.62987" lon="6.23025">
        <ele>575.3</ele>
        <time>2023-11-26T13:54:58.000Z</time>
      </trkpt>
      <trkpt lat="43.62991" lon="6.23024">
        <ele>575.3</ele>
        <time>2023-11-26T13:55:13.000Z</time>
      </trkpt>
      <trkpt lat="43.62994" lon="6.23021">
        <ele>575.4</ele>
        <time>2023-11-26T13:55:22.000Z</time>
      </trkpt>
      <trkpt lat="43.62993" lon="6.23015">
        <ele>575.3</ele>
        <time>2023-11-26T13:55:41.000Z</time>
      </trkpt>
      <trkpt lat="43.62992" lon="6.23014">
        <ele>575.3</ele>
        <time>2023-11-26T13:55:42.000Z</time>
      </trkpt>
      <trkpt lat="43.62988" lon="6.23005">
        <ele>573.8</ele>
        <time>2023-11-26T13:57:33.000Z</time>
      </trkpt>
      <trkpt lat="43.62988" lon="6.23005">
        <ele>573.8</ele>
        <time>2023-11-26T13:57:34.000Z</time>
      </trkpt>
      <trkpt lat="43.62983" lon="6.22996">
        <ele>572.7</ele>
        <time>2023-11-26T13:57:47.000Z</time>
      </trkpt>
      <trkpt lat="43.62979" lon="6.22994">
        <ele>571.9</ele>
        <time>2023-11-26T13:57:53.000Z</time>
      </trkpt>
      <trkpt lat="43.62975" lon="6.22996">
        <ele>571.2</ele>
        <time>2023-11-26T13:57:58.000Z</time>
      </trkpt>
      <trkpt lat="43.62972" lon="6.23">
        <ele>570.6</ele>
        <time>2023-11-26T13:58:04.000Z</time>
      </trkpt>
      <trkpt lat="43.62969" lon="6.23004">
        <ele>570.4</ele>
        <time>2023-11-26T13:58:10.000Z</time>
      </trkpt>
      <trkpt lat="43.62966" lon="6.23007">
        <ele>570.3</ele>
        <time>2023-11-26T13:58:15.000Z</time>
      </trkpt>
      <trkpt lat="43.62962" lon="6.23008">
        <ele>570.2</ele>
        <time>2023-11-26T13:58:20.000Z</time>
      </trkpt>
      <trkpt lat="43.62958" lon="6.23005">
        <ele>570</ele>
        <time>2023-11-26T13:58:27.000Z</time>
      </trkpt>
      <trkpt lat="43.62955" lon="6.23001">
        <ele>569.6</ele>
        <time>2023-11-26T13:58:33.000Z</time>
      </trkpt>
      <trkpt lat="43.62951" lon="6.22998">
        <ele>569.1</ele>
        <time>2023-11-26T13:58:39.000Z</time>
      </trkpt>
      <trkpt lat="43.62951" lon="6.22997">
        <ele>569</ele>
        <time>2023-11-26T13:58:40.000Z</time>
      </trkpt>
      <trkpt lat="43.62945" lon="6.22992">
        <ele>567.9</ele>
        <time>2023-11-26T13:58:50.000Z</time>
      </trkpt>
      <trkpt lat="43.62941" lon="6.2299">
        <ele>567.5</ele>
        <time>2023-11-26T13:58:54.000Z</time>
      </trkpt>
      <trkpt lat="43.62938" lon="6.22987">
        <ele>566.9</ele>
        <time>2023-11-26T13:58:59.000Z</time>
      </trkpt>
      <trkpt lat="43.62934" lon="6.22983">
        <ele>565.9</ele>
        <time>2023-11-26T13:59:05.000Z</time>
      </trkpt>
      <trkpt lat="43.62931" lon="6.22981">
        <ele>565.1</ele>
        <time>2023-11-26T13:59:10.000Z</time>
      </trkpt>
      <trkpt lat="43.62927" lon="6.22979">
        <ele>564.3</ele>
        <time>2023-11-26T13:59:15.000Z</time>
      </trkpt>
      <trkpt lat="43.62923" lon="6.22978">
        <ele>563.7</ele>
        <time>2023-11-26T13:59:20.000Z</time>
      </trkpt>
      <trkpt lat="43.6292" lon="6.22975">
        <ele>563.1</ele>
        <time>2023-11-26T13:59:24.000Z</time>
      </trkpt>
      <trkpt lat="43.62916" lon="6.22973">
        <ele>562.4</ele>
        <time>2023-11-26T13:59:29.000Z</time>
      </trkpt>
      <trkpt lat="43.62913" lon="6.2297">
        <ele>561.8</ele>
        <time>2023-11-26T13:59:34.000Z</time>
      </trkpt>
      <trkpt lat="43.62909" lon="6.22967">
        <ele>561.1</ele>
        <time>2023-11-26T13:59:38.000Z</time>
      </trkpt>
      <trkpt lat="43.62906" lon="6.22964">
        <ele>560.5</ele>
        <time>2023-11-26T13:59:42.000Z</time>
      </trkpt>
      <trkpt lat="43.62905" lon="6.22964">
        <ele>560.4</ele>
        <time>2023-11-26T13:59:43.000Z</time>
      </trkpt>
      <trkpt lat="43.62898" lon="6.22962">
        <ele>559.2</ele>
        <time>2023-11-26T13:59:52.000Z</time>
      </trkpt>
      <trkpt lat="43.62894" lon="6.22958">
        <ele>558.4</ele>
        <time>2023-11-26T14:00:00.000Z</time>
      </trkpt>
      <trkpt lat="43.62892" lon="6.22954">
        <ele>557.8</ele>
        <time>2023-11-26T14:00:05.000Z</time>
      </trkpt>
      <trkpt lat="43.62889" lon="6.22951">
        <ele>557.2</ele>
        <time>2023-11-26T14:00:10.000Z</time>
      </trkpt>
      <trkpt lat="43.62886" lon="6.22946">
        <ele>556.5</ele>
        <time>2023-11-26T14:00:17.000Z</time>
      </trkpt>
      <trkpt lat="43.62882" lon="6.22947">
        <ele>555.8</ele>
        <time>2023-11-26T14:00:22.000Z</time>
      </trkpt>
      <trkpt lat="43.62878" lon="6.22945">
        <ele>555.3</ele>
        <time>2023-11-26T14:00:26.000Z</time>
      </trkpt>
      <trkpt lat="43.62874" lon="6.22944">
        <ele>554.6</ele>
        <time>2023-11-26T14:00:31.000Z</time>
      </trkpt>
      <trkpt lat="43.6287" lon="6.22943">
        <ele>554.2</ele>
        <time>2023-11-26T14:00:35.000Z</time>
      </trkpt>
      <trkpt lat="43.62866" lon="6.2294">
        <ele>553.5</ele>
        <time>2023-11-26T14:00:41.000Z</time>
      </trkpt>
      <trkpt lat="43.62862" lon="6.22937">
        <ele>552.8</ele>
        <time>2023-11-26T14:00:47.000Z</time>
      </trkpt>
      <trkpt lat="43.62861" lon="6.22937">
        <ele>552.7</ele>
        <time>2023-11-26T14:00:48.000Z</time>
      </trkpt>
      <trkpt lat="43.62857" lon="6.22927">
        <ele>550.8</ele>
        <time>2023-11-26T14:00:59.000Z</time>
      </trkpt>
      <trkpt lat="43.62857" lon="6.22921">
        <ele>549.7</ele>
        <time>2023-11-26T14:01:05.000Z</time>
      </trkpt>
      <trkpt lat="43.62857" lon="6.22916">
        <ele>548.5</ele>
        <time>2023-11-26T14:01:11.000Z</time>
      </trkpt>
      <trkpt lat="43.62855" lon="6.2291">
        <ele>547.3</ele>
        <time>2023-11-26T14:01:18.000Z</time>
      </trkpt>
      <trkpt lat="43.62855" lon="6.22905">
        <ele>546.5</ele>
        <time>2023-11-26T14:01:23.000Z</time>
      </trkpt>
      <trkpt lat="43.62854" lon="6.22899">
        <ele>545.3</ele>
        <time>2023-11-26T14:01:30.000Z</time>
      </trkpt>
      <trkpt lat="43.62852" lon="6.22894">
        <ele>544.3</ele>
        <time>2023-11-26T14:01:36.000Z</time>
      </trkpt>
      <trkpt lat="43.62852" lon="6.22888">
        <ele>543.4</ele>
        <time>2023-11-26T14:01:40.000Z</time>
      </trkpt>
      <trkpt lat="43.62854" lon="6.22882">
        <ele>542.6</ele>
        <time>2023-11-26T14:01:44.000Z</time>
      </trkpt>
      <trkpt lat="43.62854" lon="6.22876">
        <ele>541.5</ele>
        <time>2023-11-26T14:01:49.000Z</time>
      </trkpt>
      <trkpt lat="43.62854" lon="6.22876">
        <ele>541.3</ele>
        <time>2023-11-26T14:01:50.000Z</time>
      </trkpt>
      <trkpt lat="43.62857" lon="6.22865">
        <ele>539.7</ele>
        <time>2023-11-26T14:01:59.000Z</time>
      </trkpt>
      <trkpt lat="43.62858" lon="6.2286">
        <ele>538.9</ele>
        <time>2023-11-26T14:02:03.000Z</time>
      </trkpt>
      <trkpt lat="43.62858" lon="6.22854">
        <ele>537.6</ele>
        <time>2023-11-26T14:02:12.000Z</time>
      </trkpt>
      <trkpt lat="43.62858" lon="6.22848">
        <ele>536.2</ele>
        <time>2023-11-26T14:02:24.000Z</time>
      </trkpt>
      <trkpt lat="43.62858" lon="6.22842">
        <ele>534.7</ele>
        <time>2023-11-26T14:02:47.000Z</time>
      </trkpt>
      <trkpt lat="43.62861" lon="6.22845">
        <ele>534</ele>
        <time>2023-11-26T14:03:35.000Z</time>
      </trkpt>
      <trkpt lat="43.62862" lon="6.22845">
        <ele>534</ele>
        <time>2023-11-26T14:03:36.000Z</time>
      </trkpt>
      <trkpt lat="43.62858" lon="6.22842">
        <ele>533.8</ele>
        <time>2023-11-26T14:05:50.000Z</time>
      </trkpt>
      <trkpt lat="43.62857" lon="6.22842">
        <ele>533.8</ele>
        <time>2023-11-26T14:05:51.000Z</time>
      </trkpt>
      <trkpt lat="43.62854" lon="6.22852">
        <ele>534.6</ele>
        <time>2023-11-26T14:06:40.000Z</time>
      </trkpt>
      <trkpt lat="43.62852" lon="6.22847">
        <ele>535.5</ele>
        <time>2023-11-26T14:07:55.000Z</time>
      </trkpt>
      <trkpt lat="43.62852" lon="6.22847">
        <ele>535.5</ele>
        <time>2023-11-26T14:07:56.000Z</time>
      </trkpt>
      <trkpt lat="43.62855" lon="6.22843">
        <ele>535.3</ele>
        <time>2023-11-26T14:09:47.000Z</time>
      </trkpt>
      <trkpt lat="43.62855" lon="6.22842">
        <ele>535.3</ele>
        <time>2023-11-26T14:09:48.000Z</time>
      </trkpt>
      <trkpt lat="43.62857" lon="6.22846">
        <ele>535</ele>
        <time>2023-11-26T14:10:40.000Z</time>
      </trkpt>
      <trkpt lat="43.6286" lon="6.22841">
        <ele>534.3</ele>
        <time>2023-11-26T14:10:47.000Z</time>
      </trkpt>
      <trkpt lat="43.62858" lon="6.22835">
        <ele>533.5</ele>
        <time>2023-11-26T14:10:54.000Z</time>
      </trkpt>
      <trkpt lat="43.62858" lon="6.22834">
        <ele>533.4</ele>
        <time>2023-11-26T14:10:55.000Z</time>
      </trkpt>
      <trkpt lat="43.62857" lon="6.22825">
        <ele>531.9</ele>
        <time>2023-11-26T14:11:09.000Z</time>
      </trkpt>
      <trkpt lat="43.62854" lon="6.2282">
        <ele>530.8</ele>
        <time>2023-11-26T14:11:19.000Z</time>
      </trkpt>
      <trkpt lat="43.62856" lon="6.22815">
        <ele>529.9</ele>
        <time>2023-11-26T14:11:26.000Z</time>
      </trkpt>
      <trkpt lat="43.62858" lon="6.2281">
        <ele>528.8</ele>
        <time>2023-11-26T14:11:35.000Z</time>
      </trkpt>
      <trkpt lat="43.6286" lon="6.22804">
        <ele>528.2</ele>
        <time>2023-11-26T14:11:40.000Z</time>
      </trkpt>
      <trkpt lat="43.62862" lon="6.22799">
        <ele>527.6</ele>
        <time>2023-11-26T14:11:45.000Z</time>
      </trkpt>
      <trkpt lat="43.62865" lon="6.22796">
        <ele>527</ele>
        <time>2023-11-26T14:11:50.000Z</time>
      </trkpt>
      <trkpt lat="43.62868" lon="6.22792">
        <ele>526.4</ele>
        <time>2023-11-26T14:11:54.000Z</time>
      </trkpt>
      <trkpt lat="43.62869" lon="6.22786">
        <ele>525.7</ele>
        <time>2023-11-26T14:12:00.000Z</time>
      </trkpt>
      <trkpt lat="43.62868" lon="6.22785">
        <ele>525.6</ele>
        <time>2023-11-26T14:12:01.000Z</time>
      </trkpt>
      <trkpt lat="43.62863" lon="6.22778">
        <ele>524.7</ele>
        <time>2023-11-26T14:12:08.000Z</time>
      </trkpt>
      <trkpt lat="43.6286" lon="6.22773">
        <ele>524.2</ele>
        <time>2023-11-26T14:12:12.000Z</time>
      </trkpt>
      <trkpt lat="43.62857" lon="6.2277">
        <ele>523.4</ele>
        <time>2023-11-26T14:12:16.000Z</time>
      </trkpt>
      <trkpt lat="43.62854" lon="6.22766">
        <ele>522.7</ele>
        <time>2023-11-26T14:12:21.000Z</time>
      </trkpt>
      <trkpt lat="43.62853" lon="6.22761">
        <ele>522.2</ele>
        <time>2023-11-26T14:12:24.000Z</time>
      </trkpt>
      <trkpt lat="43.6285" lon="6.22757">
        <ele>521.8</ele>
        <time>2023-11-26T14:12:27.000Z</time>
      </trkpt>
      <trkpt lat="43.62848" lon="6.22752">
        <ele>521.2</ele>
        <time>2023-11-26T14:12:31.000Z</time>
      </trkpt>
      <trkpt lat="43.62847" lon="6.22747">
        <ele>520.8</ele>
        <time>2023-11-26T14:12:34.000Z</time>
      </trkpt>
      <trkpt lat="43.62845" lon="6.22742">
        <ele>520.3</ele>
        <time>2023-11-26T14:12:37.000Z</time>
      </trkpt>
      <trkpt lat="43.62843" lon="6.22738">
        <ele>519.9</ele>
        <time>2023-11-26T14:12:40.000Z</time>
      </trkpt>
      <trkpt lat="43.62841" lon="6.22733">
        <ele>519.5</ele>
        <time>2023-11-26T14:12:43.000Z</time>
      </trkpt>
      <trkpt lat="43.62839" lon="6.22729">
        <ele>519.2</ele>
        <time>2023-11-26T14:12:46.000Z</time>
      </trkpt>
      <trkpt lat="43.62837" lon="6.22724">
        <ele>518.8</ele>
        <time>2023-11-26T14:12:49.000Z</time>
      </trkpt>
      <trkpt lat="43.62836" lon="6.2272">
        <ele>518.5</ele>
        <time>2023-11-26T14:12:52.000Z</time>
      </trkpt>
      <trkpt lat="43.62834" lon="6.22716">
        <ele>518.2</ele>
        <time>2023-11-26T14:12:55.000Z</time>
      </trkpt>
      <trkpt lat="43.62832" lon="6.22712">
        <ele>517.9</ele>
        <time>2023-11-26T14:12:58.000Z</time>
      </trkpt>
      <trkpt lat="43.6283" lon="6.22706">
        <ele>517.6</ele>
        <time>2023-11-26T14:13:02.000Z</time>
      </trkpt>
      <trkpt lat="43.6283" lon="6.22705">
        <ele>517.6</ele>
        <time>2023-11-26T14:13:03.000Z</time>
      </trkpt>
      <trkpt lat="43.62828" lon="6.22695">
        <ele>517.2</ele>
        <time>2023-11-26T14:13:10.000Z</time>
      </trkpt>
      <trkpt lat="43.62826" lon="6.22691">
        <ele>516.6</ele>
        <time>2023-11-26T14:13:18.000Z</time>
      </trkpt>
      <trkpt lat="43.62825" lon="6.22685">
        <ele>516.3</ele>
        <time>2023-11-26T14:13:22.000Z</time>
      </trkpt>
      <trkpt lat="43.62823" lon="6.22681">
        <ele>515.8</ele>
        <time>2023-11-26T14:13:31.000Z</time>
      </trkpt>
      <trkpt lat="43.6282" lon="6.22676">
        <ele>515.5</ele>
        <time>2023-11-26T14:13:38.000Z</time>
      </trkpt>
      <trkpt lat="43.62818" lon="6.22672">
        <ele>515.3</ele>
        <time>2023-11-26T14:13:43.000Z</time>
      </trkpt>
      <trkpt lat="43.62817" lon="6.22667">
        <ele>515.1</ele>
        <time>2023-11-26T14:13:48.000Z</time>
      </trkpt>
      <trkpt lat="43.62815" lon="6.22662">
        <ele>515</ele>
        <time>2023-11-26T14:13:52.000Z</time>
      </trkpt>
      <trkpt lat="43.62813" lon="6.22656">
        <ele>514.8</ele>
        <time>2023-11-26T14:13:57.000Z</time>
      </trkpt>
      <trkpt lat="43.62809" lon="6.22654">
        <ele>514.5</ele>
        <time>2023-11-26T14:14:03.000Z</time>
      </trkpt>
      <trkpt lat="43.62805" lon="6.22653">
        <ele>514.2</ele>
        <time>2023-11-26T14:14:06.000Z</time>
      </trkpt>
      <trkpt lat="43.62804" lon="6.22653">
        <ele>514.2</ele>
        <time>2023-11-26T14:14:07.000Z</time>
      </trkpt>
      <trkpt lat="43.62804" lon="6.22643">
        <ele>513.5</ele>
        <time>2023-11-26T14:14:17.000Z</time>
      </trkpt>
      <trkpt lat="43.62804" lon="6.22637">
        <ele>513.1</ele>
        <time>2023-11-26T14:14:22.000Z</time>
      </trkpt>
      <trkpt lat="43.62801" lon="6.22635">
        <ele>512.8</ele>
        <time>2023-11-26T14:14:25.000Z</time>
      </trkpt>
      <trkpt lat="43.62797" lon="6.22633">
        <ele>512.6</ele>
        <time>2023-11-26T14:14:28.000Z</time>
      </trkpt>
      <trkpt lat="43.62794" lon="6.22633">
        <ele>512.3</ele>
        <time>2023-11-26T14:14:33.000Z</time>
      </trkpt>
      <trkpt lat="43.62793" lon="6.22631">
        <ele>512</ele>
        <time>2023-11-26T14:14:35.000Z</time>
      </trkpt>
      <trkpt lat="43.6279" lon="6.22628">
        <ele>512</ele>
        <time>2023-11-26T14:14:40.000Z</time>
      </trkpt>
      <trkpt lat="43.62787" lon="6.22624">
        <ele>511.8</ele>
        <time>2023-11-26T14:14:47.000Z</time>
      </trkpt>
      <trkpt lat="43.62783" lon="6.22624">
        <ele>511.7</ele>
        <time>2023-11-26T14:14:51.000Z</time>
      </trkpt>
      <trkpt lat="43.6278" lon="6.22621">
        <ele>511.4</ele>
        <time>2023-11-26T14:14:55.000Z</time>
      </trkpt>
      <trkpt lat="43.62776" lon="6.22618">
        <ele>511.2</ele>
        <time>2023-11-26T14:14:59.000Z</time>
      </trkpt>
      <trkpt lat="43.62775" lon="6.22613">
        <ele>510.8</ele>
        <time>2023-11-26T14:15:03.000Z</time>
      </trkpt>
      <trkpt lat="43.62771" lon="6.22612">
        <ele>510.5</ele>
        <time>2023-11-26T14:15:07.000Z</time>
      </trkpt>
      <trkpt lat="43.62771" lon="6.22612">
        <ele>510.4</ele>
        <time>2023-11-26T14:15:08.000Z</time>
      </trkpt>
      <trkpt lat="43.62767" lon="6.22605">
        <ele>509.9</ele>
        <time>2023-11-26T14:15:15.000Z</time>
      </trkpt>
      <trkpt lat="43.62765" lon="6.226">
        <ele>509.6</ele>
        <time>2023-11-26T14:15:19.000Z</time>
      </trkpt>
      <trkpt lat="43.62762" lon="6.22596">
        <ele>508</ele>
        <time>2023-11-26T14:15:29.000Z</time>
      </trkpt>
      <trkpt lat="43.62758" lon="6.22594">
        <ele>508.9</ele>
        <time>2023-11-26T14:15:32.000Z</time>
      </trkpt>
      <trkpt lat="43.62754" lon="6.22595">
        <ele>508.8</ele>
        <time>2023-11-26T14:15:34.000Z</time>
      </trkpt>
      <trkpt lat="43.62752" lon="6.22598">
        <ele>508.7</ele>
        <time>2023-11-26T14:15:36.000Z</time>
      </trkpt>
      <trkpt lat="43.62751" lon="6.22603">
        <ele>508.6</ele>
        <time>2023-11-26T14:15:41.000Z</time>
      </trkpt>
      <trkpt lat="43.62747" lon="6.22606">
        <ele>508.1</ele>
        <time>2023-11-26T14:15:48.000Z</time>
      </trkpt>
      <trkpt lat="43.62744" lon="6.22605">
        <ele>508</ele>
        <time>2023-11-26T14:15:51.000Z</time>
      </trkpt>
      <trkpt lat="43.62741" lon="6.22603">
        <ele>507.9</ele>
        <time>2023-11-26T14:15:54.000Z</time>
      </trkpt>
      <trkpt lat="43.62737" lon="6.22601">
        <ele>507.8</ele>
        <time>2023-11-26T14:15:58.000Z</time>
      </trkpt>
      <trkpt lat="43.62734" lon="6.22599">
        <ele>507.7</ele>
        <time>2023-11-26T14:16:01.000Z</time>
      </trkpt>
      <trkpt lat="43.62731" lon="6.22596">
        <ele>507.6</ele>
        <time>2023-11-26T14:16:05.000Z</time>
      </trkpt>
      <trkpt lat="43.62727" lon="6.22593">
        <ele>507.4</ele>
        <time>2023-11-26T14:16:09.000Z</time>
      </trkpt>
      <trkpt lat="43.62726" lon="6.22592">
        <ele>507.4</ele>
        <time>2023-11-26T14:16:10.000Z</time>
      </trkpt>
      <trkpt lat="43.62721" lon="6.22587">
        <ele>507.1</ele>
        <time>2023-11-26T14:16:17.000Z</time>
      </trkpt>
      <trkpt lat="43.62718" lon="6.22584">
        <ele>507</ele>
        <time>2023-11-26T14:16:21.000Z</time>
      </trkpt>
      <trkpt lat="43.62715" lon="6.22581">
        <ele>506.9</ele>
        <time>2023-11-26T14:16:24.000Z</time>
      </trkpt>
      <trkpt lat="43.62712" lon="6.22578">
        <ele>506.8</ele>
        <time>2023-11-26T14:16:27.000Z</time>
      </trkpt>
      <trkpt lat="43.6271" lon="6.22574">
        <ele>506.7</ele>
        <time>2023-11-26T14:16:30.000Z</time>
      </trkpt>
      <trkpt lat="43.62708" lon="6.22571">
        <ele>506.6</ele>
        <time>2023-11-26T14:16:33.000Z</time>
      </trkpt>
      <trkpt lat="43.62705" lon="6.22567">
        <ele>506.4</ele>
        <time>2023-11-26T14:16:36.000Z</time>
      </trkpt>
      <trkpt lat="43.62702" lon="6.22564">
        <ele>506.2</ele>
        <time>2023-11-26T14:16:40.000Z</time>
      </trkpt>
      <trkpt lat="43.62698" lon="6.22563">
        <ele>506</ele>
        <time>2023-11-26T14:16:44.000Z</time>
      </trkpt>
      <trkpt lat="43.62694" lon="6.22561">
        <ele>505.9</ele>
        <time>2023-11-26T14:16:48.000Z</time>
      </trkpt>
      <trkpt lat="43.62691" lon="6.22562">
        <ele>505.7</ele>
        <time>2023-11-26T14:16:52.000Z</time>
      </trkpt>
      <trkpt lat="43.62687" lon="6.22564">
        <ele>505.5</ele>
        <time>2023-11-26T14:16:56.000Z</time>
      </trkpt>
      <trkpt lat="43.62683" lon="6.22564">
        <ele>505.3</ele>
        <time>2023-11-26T14:17:00.000Z</time>
      </trkpt>
      <trkpt lat="43.6268" lon="6.22562">
        <ele>505.1</ele>
        <time>2023-11-26T14:17:03.000Z</time>
      </trkpt>
      <trkpt lat="43.62677" lon="6.22559">
        <ele>504.9</ele>
        <time>2023-11-26T14:17:06.000Z</time>
      </trkpt>
      <trkpt lat="43.62674" lon="6.22556">
        <ele>504.7</ele>
        <time>2023-11-26T14:17:09.000Z</time>
      </trkpt>
      <trkpt lat="43.62671" lon="6.22553">
        <ele>504.5</ele>
        <time>2023-11-26T14:17:13.000Z</time>
      </trkpt>
      <trkpt lat="43.6267" lon="6.22552">
        <ele>504.5</ele>
        <time>2023-11-26T14:17:14.000Z</time>
      </trkpt>
      <trkpt lat="43.62665" lon="6.22546">
        <ele>504.3</ele>
        <time>2023-11-26T14:17:21.000Z</time>
      </trkpt>
      <trkpt lat="43.62663" lon="6.22542">
        <ele>504.2</ele>
        <time>2023-11-26T14:17:24.000Z</time>
      </trkpt>
      <trkpt lat="43.6266" lon="6.22539">
        <ele>504.2</ele>
        <time>2023-11-26T14:17:27.000Z</time>
      </trkpt>
      <trkpt lat="43.62658" lon="6.22535">
        <ele>504.1</ele>
        <time>2023-11-26T14:17:30.000Z</time>
      </trkpt>
      <trkpt lat="43.62655" lon="6.22531">
        <ele>504.1</ele>
        <time>2023-11-26T14:17:33.000Z</time>
      </trkpt>
      <trkpt lat="43.62652" lon="6.22527">
        <ele>504.1</ele>
        <time>2023-11-26T14:17:38.000Z</time>
      </trkpt>
      <trkpt lat="43.62649" lon="6.22522">
        <ele>504.3</ele>
        <time>2023-11-26T14:17:44.000Z</time>
      </trkpt>
      <trkpt lat="43.62645" lon="6.22519">
        <ele>504.6</ele>
        <time>2023-11-26T14:17:53.000Z</time>
      </trkpt>
      <trkpt lat="43.62643" lon="6.22514">
        <ele>504.7</ele>
        <time>2023-11-26T14:17:58.000Z</time>
      </trkpt>
      <trkpt lat="43.62643" lon="6.22509">
        <ele>504.9</ele>
        <time>2023-11-26T14:18:06.000Z</time>
      </trkpt>
      <trkpt lat="43.62641" lon="6.22503">
        <ele>505</ele>
        <time>2023-11-26T14:18:14.000Z</time>
      </trkpt>
      <trkpt lat="43.62641" lon="6.22503">
        <ele>505</ele>
        <time>2023-11-26T14:18:15.000Z</time>
      </trkpt>
      <trkpt lat="43.62635" lon="6.22496">
        <ele>505</ele>
        <time>2023-11-26T14:18:26.000Z</time>
      </trkpt>
      <trkpt lat="43.62632" lon="6.22491">
        <ele>505</ele>
        <time>2023-11-26T14:18:34.000Z</time>
      </trkpt>
      <trkpt lat="43.62628" lon="6.2249">
        <ele>505</ele>
        <time>2023-11-26T14:18:39.000Z</time>
      </trkpt>
      <trkpt lat="43.62624" lon="6.22492">
        <ele>504.9</ele>
        <time>2023-11-26T14:18:43.000Z</time>
      </trkpt>
      <trkpt lat="43.6262" lon="6.22492">
        <ele>504.8</ele>
        <time>2023-11-26T14:18:49.000Z</time>
      </trkpt>
      <trkpt lat="43.62617" lon="6.22495">
        <ele>504.7</ele>
        <time>2023-11-26T14:18:54.000Z</time>
      </trkpt>
      <trkpt lat="43.62614" lon="6.22496">
        <ele>504.6</ele>
        <time>2023-11-26T14:18:57.000Z</time>
      </trkpt>
      <trkpt lat="43.6261" lon="6.22495">
        <ele>504.5</ele>
        <time>2023-11-26T14:19:01.000Z</time>
      </trkpt>
      <trkpt lat="43.62606" lon="6.22492">
        <ele>504.5</ele>
        <time>2023-11-26T14:19:06.000Z</time>
      </trkpt>
      <trkpt lat="43.62604" lon="6.22487">
        <ele>504.4</ele>
        <time>2023-11-26T14:19:13.000Z</time>
      </trkpt>
      <trkpt lat="43.62601" lon="6.22483">
        <ele>504.4</ele>
        <time>2023-11-26T14:19:19.000Z</time>
      </trkpt>
      <trkpt lat="43.626" lon="6.22483">
        <ele>504.4</ele>
        <time>2023-11-26T14:19:20.000Z</time>
      </trkpt>
      <trkpt lat="43.62596" lon="6.22475">
        <ele>504.3</ele>
        <time>2023-11-26T14:19:33.000Z</time>
      </trkpt>
      <trkpt lat="43.62595" lon="6.22469">
        <ele>504.1</ele>
        <time>2023-11-26T14:19:45.000Z</time>
      </trkpt>
      <trkpt lat="43.62593" lon="6.22463">
        <ele>502.2</ele>
        <time>2023-11-26T14:35:31.000Z</time>
      </trkpt>
      <trkpt lat="43.62593" lon="6.22463">
        <ele>502.2</ele>
        <time>2023-11-26T14:35:32.000Z</time>
      </trkpt>
      <trkpt lat="43.62591" lon="6.22469">
        <ele>502</ele>
        <time>2023-11-26T14:39:14.000Z</time>
      </trkpt>
      <trkpt lat="43.62591" lon="6.22469">
        <ele>502</ele>
        <time>2023-11-26T14:39:15.000Z</time>
      </trkpt>
      <trkpt lat="43.62592" lon="6.22475">
        <ele>500.8</ele>
        <time>2023-11-26T14:47:57.000Z</time>
      </trkpt>
      <trkpt lat="43.62592" lon="6.22475">
        <ele>500.8</ele>
        <time>2023-11-26T14:47:58.000Z</time>
      </trkpt>
      <trkpt lat="43.62598" lon="6.22483">
        <ele>500.9</ele>
        <time>2023-11-26T14:48:09.000Z</time>
      </trkpt>
      <trkpt lat="43.62599" lon="6.22488">
        <ele>500.9</ele>
        <time>2023-11-26T14:48:14.000Z</time>
      </trkpt>
      <trkpt lat="43.62601" lon="6.22493">
        <ele>500.9</ele>
        <time>2023-11-26T14:48:21.000Z</time>
      </trkpt>
      <trkpt lat="43.62604" lon="6.22497">
        <ele>500.9</ele>
        <time>2023-11-26T14:48:27.000Z</time>
      </trkpt>
      <trkpt lat="43.62607" lon="6.22496">
        <ele>500.9</ele>
        <time>2023-11-26T14:48:31.000Z</time>
      </trkpt>
      <trkpt lat="43.62611" lon="6.22494">
        <ele>500.9</ele>
        <time>2023-11-26T14:48:35.000Z</time>
      </trkpt>
      <trkpt lat="43.62614" lon="6.22493">
        <ele>500.9</ele>
        <time>2023-11-26T14:48:39.000Z</time>
      </trkpt>
      <trkpt lat="43.62618" lon="6.22492">
        <ele>501</ele>
        <time>2023-11-26T14:48:43.000Z</time>
      </trkpt>
      <trkpt lat="43.62622" lon="6.22492">
        <ele>501</ele>
        <time>2023-11-26T14:48:47.000Z</time>
      </trkpt>
      <trkpt lat="43.62626" lon="6.22494">
        <ele>501.1</ele>
        <time>2023-11-26T14:48:52.000Z</time>
      </trkpt>
      <trkpt lat="43.62629" lon="6.22497">
        <ele>501.2</ele>
        <time>2023-11-26T14:49:00.000Z</time>
      </trkpt>
      <trkpt lat="43.6263" lon="6.22498">
        <ele>501.2</ele>
        <time>2023-11-26T14:49:01.000Z</time>
      </trkpt>
      <trkpt lat="43.62634" lon="6.22506">
        <ele>501.3</ele>
        <time>2023-11-26T14:49:08.000Z</time>
      </trkpt>
      <trkpt lat="43.62637" lon="6.22509">
        <ele>501.3</ele>
        <time>2023-11-26T14:49:13.000Z</time>
      </trkpt>
      <trkpt lat="43.62638" lon="6.22515">
        <ele>501.4</ele>
        <time>2023-11-26T14:49:19.000Z</time>
      </trkpt>
      <trkpt lat="43.62635" lon="6.22519">
        <ele>501.4</ele>
        <time>2023-11-26T14:49:23.000Z</time>
      </trkpt>
      <trkpt lat="43.62633" lon="6.22523">
        <ele>501.4</ele>
        <time>2023-11-26T14:49:27.000Z</time>
      </trkpt>
      <trkpt lat="43.62631" lon="6.22527">
        <ele>501.5</ele>
        <time>2023-11-26T14:49:31.000Z</time>
      </trkpt>
      <trkpt lat="43.62627" lon="6.22531">
        <ele>501.3</ele>
        <time>2023-11-26T14:49:36.000Z</time>
      </trkpt>
      <trkpt lat="43.62624" lon="6.22534">
        <ele>501.1</ele>
        <time>2023-11-26T14:49:40.000Z</time>
      </trkpt>
      <trkpt lat="43.62621" lon="6.22538">
        <ele>500.9</ele>
        <time>2023-11-26T14:49:44.000Z</time>
      </trkpt>
      <trkpt lat="43.62618" lon="6.22542">
        <ele>500.7</ele>
        <time>2023-11-26T14:49:48.000Z</time>
      </trkpt>
      <trkpt lat="43.62616" lon="6.22547">
        <ele>500.4</ele>
        <time>2023-11-26T14:49:52.000Z</time>
      </trkpt>
      <trkpt lat="43.62613" lon="6.22551">
        <ele>500.2</ele>
        <time>2023-11-26T14:49:56.000Z</time>
      </trkpt>
      <trkpt lat="43.62611" lon="6.22555">
        <ele>499.9</ele>
        <time>2023-11-26T14:50:00.000Z</time>
      </trkpt>
      <trkpt lat="43.62609" lon="6.2256">
        <ele>499.7</ele>
        <time>2023-11-26T14:50:04.000Z</time>
      </trkpt>
      <trkpt lat="43.62609" lon="6.22561">
        <ele>499.6</ele>
        <time>2023-11-26T14:50:05.000Z</time>
      </trkpt>
    </trkseg>
  </trk>
</gpx>